<?xml version="1.0" encoding="UTF-8" standalone="no" ?>
<gpx xmlns="http://www.topografix.com/GPX/1/1" xmlns:xsi="http://www.w3.org/2001/XMLSchema-instance" xsi:schemaLocation="http://www.topografix.com/GPX/1/1 http://www.topografix.com/GPX/1/1/gpx.xsd" version="1.1" creator="VisuGPX - https://www.visugpx.com">
  <metadata>
    <name>trail malpassant 26 kms</name>
    <desc><![CDATA[trés jolie trail un peu boueux]]></desc>
  </metadata>
  <trk>
    <name><![CDATA[trail malpassan]]></name>
    <trkseg>
      <trkpt lat="45.63588" lon="5.8944">
        <ele>235.60000610352</ele>
        <time>2012-05-05T06:47:05Z</time>
      </trkpt>
      <trkpt lat="45.6359" lon="5.89442">
        <ele>235.80000305176</ele>
        <time>2012-05-05T06:47:06Z</time>
      </trkpt>
      <trkpt lat="45.63598" lon="5.89452">
        <ele>235.80000305176</ele>
        <time>2012-05-05T06:47:09Z</time>
      </trkpt>
      <trkpt lat="45.63601" lon="5.89456">
        <ele>235.80000305176</ele>
        <time>2012-05-05T06:47:10Z</time>
      </trkpt>
      <trkpt lat="45.63606" lon="5.89464">
        <ele>236</ele>
        <time>2012-05-05T06:47:12Z</time>
      </trkpt>
      <trkpt lat="45.63607" lon="5.89468">
        <ele>236</ele>
        <time>2012-05-05T06:47:13Z</time>
      </trkpt>
      <trkpt lat="45.63612" lon="5.89476">
        <ele>236.19999694824</ele>
        <time>2012-05-05T06:47:15Z</time>
      </trkpt>
      <trkpt lat="45.63614" lon="5.8948">
        <ele>236.19999694824</ele>
        <time>2012-05-05T06:47:16Z</time>
      </trkpt>
      <trkpt lat="45.63619" lon="5.895">
        <ele>236.80000305176</ele>
        <time>2012-05-05T06:47:20Z</time>
      </trkpt>
      <trkpt lat="45.63622" lon="5.8951">
        <ele>236.80000305176</ele>
        <time>2012-05-05T06:47:22Z</time>
      </trkpt>
      <trkpt lat="45.63627" lon="5.89546">
        <ele>237.60000610352</ele>
        <time>2012-05-05T06:47:29Z</time>
      </trkpt>
      <trkpt lat="45.6363" lon="5.8957">
        <ele>238</ele>
        <time>2012-05-05T06:47:34Z</time>
      </trkpt>
      <trkpt lat="45.63632" lon="5.89623">
        <ele>240.80000305176</ele>
        <time>2012-05-05T06:47:45Z</time>
      </trkpt>
      <trkpt lat="45.63632" lon="5.89626">
        <ele>241</ele>
        <time>2012-05-05T06:47:46Z</time>
      </trkpt>
      <trkpt lat="45.63611" lon="5.89652">
        <ele>243.60000610352</ele>
        <time>2012-05-05T06:47:55Z</time>
      </trkpt>
      <trkpt lat="45.63608" lon="5.89654">
        <ele>244</ele>
        <time>2012-05-05T06:47:56Z</time>
      </trkpt>
      <trkpt lat="45.63595" lon="5.89663">
        <ele>245.19999694824</ele>
        <time>2012-05-05T06:48:01Z</time>
      </trkpt>
      <trkpt lat="45.63582" lon="5.89681">
        <ele>252.80000305176</ele>
        <time>2012-05-05T06:48:10Z</time>
      </trkpt>
      <trkpt lat="45.63566" lon="5.89689">
        <ele>256.60000610352</ele>
        <time>2012-05-05T06:48:14Z</time>
      </trkpt>
      <trkpt lat="45.6355" lon="5.89691">
        <ele>257</ele>
        <time>2012-05-05T06:48:18Z</time>
      </trkpt>
      <trkpt lat="45.63532" lon="5.89686">
        <ele>255.39999389648</ele>
        <time>2012-05-05T06:48:24Z</time>
      </trkpt>
      <trkpt lat="45.6352" lon="5.8968">
        <ele>253.80000305176</ele>
        <time>2012-05-05T06:48:28Z</time>
      </trkpt>
      <trkpt lat="45.63508" lon="5.89675">
        <ele>252.60000610352</ele>
        <time>2012-05-05T06:48:32Z</time>
      </trkpt>
      <trkpt lat="45.63495" lon="5.89668">
        <ele>251.80000305176</ele>
        <time>2012-05-05T06:48:37Z</time>
      </trkpt>
      <trkpt lat="45.63482" lon="5.89665">
        <ele>252.60000610352</ele>
        <time>2012-05-05T06:48:42Z</time>
      </trkpt>
      <trkpt lat="45.63477" lon="5.89663">
        <ele>253</ele>
        <time>2012-05-05T06:48:44Z</time>
      </trkpt>
      <trkpt lat="45.63461" lon="5.89663">
        <ele>254.60000610352</ele>
        <time>2012-05-05T06:48:50Z</time>
      </trkpt>
      <trkpt lat="45.63449" lon="5.89665">
        <ele>255.80000305176</ele>
        <time>2012-05-05T06:48:55Z</time>
      </trkpt>
      <trkpt lat="45.63434" lon="5.89668">
        <ele>257.39999389648</ele>
        <time>2012-05-05T06:49:01Z</time>
      </trkpt>
      <trkpt lat="45.6343" lon="5.89669">
        <ele>258</ele>
        <time>2012-05-05T06:49:03Z</time>
      </trkpt>
      <trkpt lat="45.63417" lon="5.89673">
        <ele>259.60000610352</ele>
        <time>2012-05-05T06:49:08Z</time>
      </trkpt>
      <trkpt lat="45.63412" lon="5.89674">
        <ele>260</ele>
        <time>2012-05-05T06:49:10Z</time>
      </trkpt>
      <trkpt lat="45.63397" lon="5.89678">
        <ele>261</ele>
        <time>2012-05-05T06:49:16Z</time>
      </trkpt>
      <trkpt lat="45.63385" lon="5.89682">
        <ele>262</ele>
        <time>2012-05-05T06:49:21Z</time>
      </trkpt>
      <trkpt lat="45.63366" lon="5.89687">
        <ele>263.20001220703</ele>
        <time>2012-05-05T06:49:29Z</time>
      </trkpt>
      <trkpt lat="45.63353" lon="5.89692">
        <ele>264</ele>
        <time>2012-05-05T06:49:34Z</time>
      </trkpt>
      <trkpt lat="45.63331" lon="5.89697">
        <ele>265.20001220703</ele>
        <time>2012-05-05T06:49:42Z</time>
      </trkpt>
      <trkpt lat="45.63313" lon="5.89702">
        <ele>266</ele>
        <time>2012-05-05T06:49:49Z</time>
      </trkpt>
      <trkpt lat="45.63278" lon="5.89709">
        <ele>267.60000610352</ele>
        <time>2012-05-05T06:50:01Z</time>
      </trkpt>
      <trkpt lat="45.63261" lon="5.89711">
        <ele>268.20001220703</ele>
        <time>2012-05-05T06:50:07Z</time>
      </trkpt>
      <trkpt lat="45.63244" lon="5.89708">
        <ele>268.79998779297</ele>
        <time>2012-05-05T06:50:13Z</time>
      </trkpt>
      <trkpt lat="45.63229" lon="5.89707">
        <ele>269.20001220703</ele>
        <time>2012-05-05T06:50:19Z</time>
      </trkpt>
      <trkpt lat="45.63217" lon="5.8972">
        <ele>270.79998779297</ele>
        <time>2012-05-05T06:50:25Z</time>
      </trkpt>
      <trkpt lat="45.63212" lon="5.89731">
        <ele>271.79998779297</ele>
        <time>2012-05-05T06:50:29Z</time>
      </trkpt>
      <trkpt lat="45.63198" lon="5.89755">
        <ele>275.39999389648</ele>
        <time>2012-05-05T06:50:38Z</time>
      </trkpt>
      <trkpt lat="45.63193" lon="5.89762">
        <ele>277.60000610352</ele>
        <time>2012-05-05T06:50:41Z</time>
      </trkpt>
      <trkpt lat="45.63165" lon="5.89772">
        <ele>281.39999389648</ele>
        <time>2012-05-05T06:50:53Z</time>
      </trkpt>
      <trkpt lat="45.63163" lon="5.89772">
        <ele>281.39999389648</ele>
        <time>2012-05-05T06:50:54Z</time>
      </trkpt>
      <trkpt lat="45.63152" lon="5.89776">
        <ele>282.79998779297</ele>
        <time>2012-05-05T06:50:59Z</time>
      </trkpt>
      <trkpt lat="45.63151" lon="5.89779">
        <ele>283.39999389648</ele>
        <time>2012-05-05T06:51:00Z</time>
      </trkpt>
      <trkpt lat="45.63151" lon="5.89788">
        <ele>285.60000610352</ele>
        <time>2012-05-05T06:51:03Z</time>
      </trkpt>
      <trkpt lat="45.63151" lon="5.89791">
        <ele>286.20001220703</ele>
        <time>2012-05-05T06:51:04Z</time>
      </trkpt>
      <trkpt lat="45.6316" lon="5.89802">
        <ele>288.60000610352</ele>
        <time>2012-05-05T06:51:09Z</time>
      </trkpt>
      <trkpt lat="45.63165" lon="5.89806">
        <ele>289.39999389648</ele>
        <time>2012-05-05T06:51:11Z</time>
      </trkpt>
      <trkpt lat="45.63183" lon="5.89824">
        <ele>293.39999389648</ele>
        <time>2012-05-05T06:51:20Z</time>
      </trkpt>
      <trkpt lat="45.63183" lon="5.89826">
        <ele>294</ele>
        <time>2012-05-05T06:51:21Z</time>
      </trkpt>
      <trkpt lat="45.63179" lon="5.89835">
        <ele>296.39999389648</ele>
        <time>2012-05-05T06:51:26Z</time>
      </trkpt>
      <trkpt lat="45.63175" lon="5.89836">
        <ele>297</ele>
        <time>2012-05-05T06:51:28Z</time>
      </trkpt>
      <trkpt lat="45.63163" lon="5.89837">
        <ele>297.39999389648</ele>
        <time>2012-05-05T06:51:34Z</time>
      </trkpt>
      <trkpt lat="45.63159" lon="5.89838">
        <ele>297.39999389648</ele>
        <time>2012-05-05T06:51:36Z</time>
      </trkpt>
      <trkpt lat="45.63148" lon="5.89839">
        <ele>297.60000610352</ele>
        <time>2012-05-05T06:51:41Z</time>
      </trkpt>
      <trkpt lat="45.63143" lon="5.8984">
        <ele>298</ele>
        <time>2012-05-05T06:51:43Z</time>
      </trkpt>
      <trkpt lat="45.63125" lon="5.89845">
        <ele>299.39999389648</ele>
        <time>2012-05-05T06:51:51Z</time>
      </trkpt>
      <trkpt lat="45.63116" lon="5.89846">
        <ele>299.39999389648</ele>
        <time>2012-05-05T06:51:55Z</time>
      </trkpt>
      <trkpt lat="45.63101" lon="5.89847">
        <ele>299.39999389648</ele>
        <time>2012-05-05T06:52:02Z</time>
      </trkpt>
      <trkpt lat="45.63093" lon="5.89848">
        <ele>299.60000610352</ele>
        <time>2012-05-05T06:52:06Z</time>
      </trkpt>
      <trkpt lat="45.63084" lon="5.8985">
        <ele>300</ele>
        <time>2012-05-05T06:52:10Z</time>
      </trkpt>
      <trkpt lat="45.63082" lon="5.8985">
        <ele>300</ele>
        <time>2012-05-05T06:52:11Z</time>
      </trkpt>
      <trkpt lat="45.63073" lon="5.89851">
        <ele>301</ele>
        <time>2012-05-05T06:52:15Z</time>
      </trkpt>
      <trkpt lat="45.63071" lon="5.89851">
        <ele>301.20001220703</ele>
        <time>2012-05-05T06:52:16Z</time>
      </trkpt>
      <trkpt lat="45.63061" lon="5.89858">
        <ele>303.60000610352</ele>
        <time>2012-05-05T06:52:21Z</time>
      </trkpt>
      <trkpt lat="45.63057" lon="5.89861">
        <ele>304.60000610352</ele>
        <time>2012-05-05T06:52:23Z</time>
      </trkpt>
      <trkpt lat="45.63039" lon="5.89872">
        <ele>308</ele>
        <time>2012-05-05T06:52:31Z</time>
      </trkpt>
      <trkpt lat="45.63027" lon="5.89876">
        <ele>309</ele>
        <time>2012-05-05T06:52:36Z</time>
      </trkpt>
      <trkpt lat="45.63019" lon="5.8988">
        <ele>309.79998779297</ele>
        <time>2012-05-05T06:52:40Z</time>
      </trkpt>
      <trkpt lat="45.63018" lon="5.8988">
        <ele>310</ele>
        <time>2012-05-05T06:52:41Z</time>
      </trkpt>
      <trkpt lat="45.63011" lon="5.89885">
        <ele>310.79998779297</ele>
        <time>2012-05-05T06:52:44Z</time>
      </trkpt>
      <trkpt lat="45.63003" lon="5.89891">
        <ele>311.60000610352</ele>
        <time>2012-05-05T06:52:47Z</time>
      </trkpt>
      <trkpt lat="45.62997" lon="5.89897">
        <ele>312.39999389648</ele>
        <time>2012-05-05T06:52:50Z</time>
      </trkpt>
      <trkpt lat="45.62993" lon="5.899">
        <ele>313</ele>
        <time>2012-05-05T06:52:52Z</time>
      </trkpt>
      <trkpt lat="45.62983" lon="5.8991">
        <ele>314.20001220703</ele>
        <time>2012-05-05T06:52:57Z</time>
      </trkpt>
      <trkpt lat="45.62978" lon="5.89918">
        <ele>315.20001220703</ele>
        <time>2012-05-05T06:53:00Z</time>
      </trkpt>
      <trkpt lat="45.6298" lon="5.89923">
        <ele>316</ele>
        <time>2012-05-05T06:53:02Z</time>
      </trkpt>
      <trkpt lat="45.62985" lon="5.89925">
        <ele>316.39999389648</ele>
        <time>2012-05-05T06:53:06Z</time>
      </trkpt>
      <trkpt lat="45.62994" lon="5.89926">
        <ele>316.60000610352</ele>
        <time>2012-05-05T06:53:11Z</time>
      </trkpt>
      <trkpt lat="45.62996" lon="5.89927">
        <ele>316.79998779297</ele>
        <time>2012-05-05T06:53:12Z</time>
      </trkpt>
      <trkpt lat="45.63005" lon="5.89935">
        <ele>318.60000610352</ele>
        <time>2012-05-05T06:53:17Z</time>
      </trkpt>
      <trkpt lat="45.6301" lon="5.8994">
        <ele>320.20001220703</ele>
        <time>2012-05-05T06:53:20Z</time>
      </trkpt>
      <trkpt lat="45.63015" lon="5.89947">
        <ele>322</ele>
        <time>2012-05-05T06:53:23Z</time>
      </trkpt>
      <trkpt lat="45.63019" lon="5.89954">
        <ele>323.60000610352</ele>
        <time>2012-05-05T06:53:26Z</time>
      </trkpt>
      <trkpt lat="45.63021" lon="5.89961">
        <ele>325.20001220703</ele>
        <time>2012-05-05T06:53:29Z</time>
      </trkpt>
      <trkpt lat="45.63021" lon="5.89964">
        <ele>326</ele>
        <time>2012-05-05T06:53:30Z</time>
      </trkpt>
      <trkpt lat="45.6302" lon="5.89974">
        <ele>327.79998779297</ele>
        <time>2012-05-05T06:53:35Z</time>
      </trkpt>
      <trkpt lat="45.63016" lon="5.89978">
        <ele>328.20001220703</ele>
        <time>2012-05-05T06:53:37Z</time>
      </trkpt>
      <trkpt lat="45.63009" lon="5.89986">
        <ele>328.60000610352</ele>
        <time>2012-05-05T06:53:42Z</time>
      </trkpt>
      <trkpt lat="45.63004" lon="5.89989">
        <ele>328.60000610352</ele>
        <time>2012-05-05T06:53:45Z</time>
      </trkpt>
      <trkpt lat="45.62996" lon="5.89996">
        <ele>329</ele>
        <time>2012-05-05T06:53:50Z</time>
      </trkpt>
      <trkpt lat="45.62993" lon="5.89999">
        <ele>329.39999389648</ele>
        <time>2012-05-05T06:53:52Z</time>
      </trkpt>
      <trkpt lat="45.62989" lon="5.90005">
        <ele>330.39999389648</ele>
        <time>2012-05-05T06:53:55Z</time>
      </trkpt>
      <trkpt lat="45.62985" lon="5.90009">
        <ele>331</ele>
        <time>2012-05-05T06:53:57Z</time>
      </trkpt>
      <trkpt lat="45.62979" lon="5.90017">
        <ele>332.39999389648</ele>
        <time>2012-05-05T06:54:01Z</time>
      </trkpt>
      <trkpt lat="45.62977" lon="5.90018">
        <ele>332.79998779297</ele>
        <time>2012-05-05T06:54:02Z</time>
      </trkpt>
      <trkpt lat="45.62969" lon="5.90029">
        <ele>334.39999389648</ele>
        <time>2012-05-05T06:54:07Z</time>
      </trkpt>
      <trkpt lat="45.62968" lon="5.90031">
        <ele>334.60000610352</ele>
        <time>2012-05-05T06:54:08Z</time>
      </trkpt>
      <trkpt lat="45.6296" lon="5.90041">
        <ele>336</ele>
        <time>2012-05-05T06:54:13Z</time>
      </trkpt>
      <trkpt lat="45.62952" lon="5.90052">
        <ele>337.39999389648</ele>
        <time>2012-05-05T06:54:18Z</time>
      </trkpt>
      <trkpt lat="45.62945" lon="5.90064">
        <ele>338.79998779297</ele>
        <time>2012-05-05T06:54:23Z</time>
      </trkpt>
      <trkpt lat="45.62945" lon="5.90066">
        <ele>339.20001220703</ele>
        <time>2012-05-05T06:54:24Z</time>
      </trkpt>
      <trkpt lat="45.6294" lon="5.90072">
        <ele>339.60000610352</ele>
        <time>2012-05-05T06:54:27Z</time>
      </trkpt>
      <trkpt lat="45.62934" lon="5.90079">
        <ele>340.20001220703</ele>
        <time>2012-05-05T06:54:30Z</time>
      </trkpt>
      <trkpt lat="45.62922" lon="5.90099">
        <ele>341.39999389648</ele>
        <time>2012-05-05T06:54:38Z</time>
      </trkpt>
      <trkpt lat="45.62918" lon="5.90105">
        <ele>342</ele>
        <time>2012-05-05T06:54:41Z</time>
      </trkpt>
      <trkpt lat="45.62909" lon="5.90116">
        <ele>343.60000610352</ele>
        <time>2012-05-05T06:54:46Z</time>
      </trkpt>
      <trkpt lat="45.62901" lon="5.90123">
        <ele>344.79998779297</ele>
        <time>2012-05-05T06:54:50Z</time>
      </trkpt>
      <trkpt lat="45.62893" lon="5.90124">
        <ele>345</ele>
        <time>2012-05-05T06:54:53Z</time>
      </trkpt>
      <trkpt lat="45.62888" lon="5.90124">
        <ele>345</ele>
        <time>2012-05-05T06:54:55Z</time>
      </trkpt>
      <trkpt lat="45.62872" lon="5.90123">
        <ele>345</ele>
        <time>2012-05-05T06:55:02Z</time>
      </trkpt>
      <trkpt lat="45.62866" lon="5.90125">
        <ele>345.39999389648</ele>
        <time>2012-05-05T06:55:05Z</time>
      </trkpt>
      <trkpt lat="45.62864" lon="5.9013">
        <ele>345.79998779297</ele>
        <time>2012-05-05T06:55:08Z</time>
      </trkpt>
      <trkpt lat="45.62863" lon="5.90133">
        <ele>346.20001220703</ele>
        <time>2012-05-05T06:55:10Z</time>
      </trkpt>
      <trkpt lat="45.62863" lon="5.90137">
        <ele>346.60000610352</ele>
        <time>2012-05-05T06:55:12Z</time>
      </trkpt>
      <trkpt lat="45.62865" lon="5.90141">
        <ele>347</ele>
        <time>2012-05-05T06:55:14Z</time>
      </trkpt>
      <trkpt lat="45.62868" lon="5.90149">
        <ele>347.79998779297</ele>
        <time>2012-05-05T06:55:18Z</time>
      </trkpt>
      <trkpt lat="45.6287" lon="5.90154">
        <ele>348.39999389648</ele>
        <time>2012-05-05T06:55:20Z</time>
      </trkpt>
      <trkpt lat="45.62872" lon="5.90169">
        <ele>350</ele>
        <time>2012-05-05T06:55:25Z</time>
      </trkpt>
      <trkpt lat="45.62872" lon="5.90172">
        <ele>350.20001220703</ele>
        <time>2012-05-05T06:55:26Z</time>
      </trkpt>
      <trkpt lat="45.62872" lon="5.9018">
        <ele>350.60000610352</ele>
        <time>2012-05-05T06:55:29Z</time>
      </trkpt>
      <trkpt lat="45.62872" lon="5.90183">
        <ele>350.60000610352</ele>
        <time>2012-05-05T06:55:30Z</time>
      </trkpt>
      <trkpt lat="45.62874" lon="5.90196">
        <ele>351.39999389648</ele>
        <time>2012-05-05T06:55:35Z</time>
      </trkpt>
      <trkpt lat="45.62877" lon="5.90203">
        <ele>351.79998779297</ele>
        <time>2012-05-05T06:55:39Z</time>
      </trkpt>
      <trkpt lat="45.6288" lon="5.90209">
        <ele>352.20001220703</ele>
        <time>2012-05-05T06:55:43Z</time>
      </trkpt>
      <trkpt lat="45.62881" lon="5.9021">
        <ele>352.20001220703</ele>
        <time>2012-05-05T06:55:44Z</time>
      </trkpt>
      <trkpt lat="45.62884" lon="5.90213">
        <ele>352.60000610352</ele>
        <time>2012-05-05T06:55:48Z</time>
      </trkpt>
      <trkpt lat="45.62887" lon="5.90215">
        <ele>352.79998779297</ele>
        <time>2012-05-05T06:55:50Z</time>
      </trkpt>
      <trkpt lat="45.62892" lon="5.90219">
        <ele>353</ele>
        <time>2012-05-05T06:55:54Z</time>
      </trkpt>
      <trkpt lat="45.62897" lon="5.90223">
        <ele>353.39999389648</ele>
        <time>2012-05-05T06:55:58Z</time>
      </trkpt>
      <trkpt lat="45.629" lon="5.90224">
        <ele>353.60000610352</ele>
        <time>2012-05-05T06:56:00Z</time>
      </trkpt>
      <trkpt lat="45.62905" lon="5.90227">
        <ele>353.79998779297</ele>
        <time>2012-05-05T06:56:03Z</time>
      </trkpt>
      <trkpt lat="45.62907" lon="5.90228">
        <ele>354</ele>
        <time>2012-05-05T06:56:05Z</time>
      </trkpt>
      <trkpt lat="45.62914" lon="5.90231">
        <ele>354.20001220703</ele>
        <time>2012-05-05T06:56:10Z</time>
      </trkpt>
      <trkpt lat="45.62923" lon="5.90236">
        <ele>355.60000610352</ele>
        <time>2012-05-05T06:56:15Z</time>
      </trkpt>
      <trkpt lat="45.62926" lon="5.90239">
        <ele>356.20001220703</ele>
        <time>2012-05-05T06:56:17Z</time>
      </trkpt>
      <trkpt lat="45.62931" lon="5.90245">
        <ele>357.20001220703</ele>
        <time>2012-05-05T06:56:20Z</time>
      </trkpt>
      <trkpt lat="45.62937" lon="5.90252">
        <ele>358.39999389648</ele>
        <time>2012-05-05T06:56:24Z</time>
      </trkpt>
      <trkpt lat="45.62944" lon="5.90261">
        <ele>359</ele>
        <time>2012-05-05T06:56:28Z</time>
      </trkpt>
      <trkpt lat="45.62948" lon="5.90266">
        <ele>359.20001220703</ele>
        <time>2012-05-05T06:56:30Z</time>
      </trkpt>
      <trkpt lat="45.62968" lon="5.9029">
        <ele>360</ele>
        <time>2012-05-05T06:56:41Z</time>
      </trkpt>
      <trkpt lat="45.62974" lon="5.90297">
        <ele>360.20001220703</ele>
        <time>2012-05-05T06:56:44Z</time>
      </trkpt>
      <trkpt lat="45.6299" lon="5.90318">
        <ele>359.79998779297</ele>
        <time>2012-05-05T06:56:51Z</time>
      </trkpt>
      <trkpt lat="45.63001" lon="5.90334">
        <ele>359</ele>
        <time>2012-05-05T06:56:56Z</time>
      </trkpt>
      <trkpt lat="45.63029" lon="5.90372">
        <ele>358.20001220703</ele>
        <time>2012-05-05T06:57:08Z</time>
      </trkpt>
      <trkpt lat="45.63031" lon="5.90375">
        <ele>358.39999389648</ele>
        <time>2012-05-05T06:57:09Z</time>
      </trkpt>
      <trkpt lat="45.63048" lon="5.90397">
        <ele>359.20001220703</ele>
        <time>2012-05-05T06:57:16Z</time>
      </trkpt>
      <trkpt lat="45.63057" lon="5.90418">
        <ele>359.39999389648</ele>
        <time>2012-05-05T06:57:22Z</time>
      </trkpt>
      <trkpt lat="45.63064" lon="5.90435">
        <ele>358.79998779297</ele>
        <time>2012-05-05T06:57:27Z</time>
      </trkpt>
      <trkpt lat="45.63069" lon="5.90449">
        <ele>358.20001220703</ele>
        <time>2012-05-05T06:57:31Z</time>
      </trkpt>
      <trkpt lat="45.6308" lon="5.90472">
        <ele>356.60000610352</ele>
        <time>2012-05-05T06:57:37Z</time>
      </trkpt>
      <trkpt lat="45.63085" lon="5.90488">
        <ele>355</ele>
        <time>2012-05-05T06:57:41Z</time>
      </trkpt>
      <trkpt lat="45.63099" lon="5.90531">
        <ele>353.39999389648</ele>
        <time>2012-05-05T06:57:51Z</time>
      </trkpt>
      <trkpt lat="45.63105" lon="5.90548">
        <ele>353.20001220703</ele>
        <time>2012-05-05T06:57:55Z</time>
      </trkpt>
      <trkpt lat="45.63112" lon="5.9057">
        <ele>353.20001220703</ele>
        <time>2012-05-05T06:58:00Z</time>
      </trkpt>
      <trkpt lat="45.63115" lon="5.90578">
        <ele>353.20001220703</ele>
        <time>2012-05-05T06:58:02Z</time>
      </trkpt>
      <trkpt lat="45.63131" lon="5.90601">
        <ele>355</ele>
        <time>2012-05-05T06:58:09Z</time>
      </trkpt>
      <trkpt lat="45.63134" lon="5.90609">
        <ele>355.20001220703</ele>
        <time>2012-05-05T06:58:11Z</time>
      </trkpt>
      <trkpt lat="45.63147" lon="5.90638">
        <ele>355.60000610352</ele>
        <time>2012-05-05T06:58:18Z</time>
      </trkpt>
      <trkpt lat="45.63155" lon="5.90659">
        <ele>355.60000610352</ele>
        <time>2012-05-05T06:58:23Z</time>
      </trkpt>
      <trkpt lat="45.63169" lon="5.90703">
        <ele>352.79998779297</ele>
        <time>2012-05-05T06:58:33Z</time>
      </trkpt>
      <trkpt lat="45.63179" lon="5.90729">
        <ele>350.60000610352</ele>
        <time>2012-05-05T06:58:39Z</time>
      </trkpt>
      <trkpt lat="45.63185" lon="5.90746">
        <ele>349.39999389648</ele>
        <time>2012-05-05T06:58:44Z</time>
      </trkpt>
      <trkpt lat="45.63187" lon="5.90748">
        <ele>349.39999389648</ele>
        <time>2012-05-05T06:58:49Z</time>
      </trkpt>
      <trkpt lat="45.63185" lon="5.90752">
        <ele>348.79998779297</ele>
        <time>2012-05-05T06:58:59Z</time>
      </trkpt>
      <trkpt lat="45.63184" lon="5.90755">
        <ele>348.39999389648</ele>
        <time>2012-05-05T06:59:00Z</time>
      </trkpt>
      <trkpt lat="45.63185" lon="5.90773">
        <ele>346.79998779297</ele>
        <time>2012-05-05T06:59:04Z</time>
      </trkpt>
      <trkpt lat="45.63188" lon="5.90793">
        <ele>345.39999389648</ele>
        <time>2012-05-05T06:59:08Z</time>
      </trkpt>
      <trkpt lat="45.63195" lon="5.90818">
        <ele>343.79998779297</ele>
        <time>2012-05-05T06:59:13Z</time>
      </trkpt>
      <trkpt lat="45.63197" lon="5.90822">
        <ele>343.60000610352</ele>
        <time>2012-05-05T06:59:14Z</time>
      </trkpt>
      <trkpt lat="45.63209" lon="5.90834">
        <ele>343.39999389648</ele>
        <time>2012-05-05T06:59:18Z</time>
      </trkpt>
      <trkpt lat="45.63212" lon="5.90837">
        <ele>343.20001220703</ele>
        <time>2012-05-05T06:59:19Z</time>
      </trkpt>
      <trkpt lat="45.63226" lon="5.90845">
        <ele>343.20001220703</ele>
        <time>2012-05-05T06:59:23Z</time>
      </trkpt>
      <trkpt lat="45.6323" lon="5.90846">
        <ele>343.39999389648</ele>
        <time>2012-05-05T06:59:24Z</time>
      </trkpt>
      <trkpt lat="45.63243" lon="5.90847">
        <ele>344.20001220703</ele>
        <time>2012-05-05T06:59:27Z</time>
      </trkpt>
      <trkpt lat="45.63254" lon="5.90847">
        <ele>344.60000610352</ele>
        <time>2012-05-05T06:59:30Z</time>
      </trkpt>
      <trkpt lat="45.63261" lon="5.90848">
        <ele>344.60000610352</ele>
        <time>2012-05-05T06:59:32Z</time>
      </trkpt>
      <trkpt lat="45.63272" lon="5.90853">
        <ele>344</ele>
        <time>2012-05-05T06:59:35Z</time>
      </trkpt>
      <trkpt lat="45.63279" lon="5.90858">
        <ele>343.20001220703</ele>
        <time>2012-05-05T06:59:37Z</time>
      </trkpt>
      <trkpt lat="45.63282" lon="5.90862">
        <ele>342.79998779297</ele>
        <time>2012-05-05T06:59:38Z</time>
      </trkpt>
      <trkpt lat="45.63288" lon="5.90883">
        <ele>339.79998779297</ele>
        <time>2012-05-05T06:59:42Z</time>
      </trkpt>
      <trkpt lat="45.63288" lon="5.90889">
        <ele>338.79998779297</ele>
        <time>2012-05-05T06:59:43Z</time>
      </trkpt>
      <trkpt lat="45.63283" lon="5.90901">
        <ele>337</ele>
        <time>2012-05-05T06:59:45Z</time>
      </trkpt>
      <trkpt lat="45.6328" lon="5.90906">
        <ele>336</ele>
        <time>2012-05-05T06:59:46Z</time>
      </trkpt>
      <trkpt lat="45.63274" lon="5.90914">
        <ele>334.39999389648</ele>
        <time>2012-05-05T06:59:48Z</time>
      </trkpt>
      <trkpt lat="45.6327" lon="5.90918">
        <ele>333.79998779297</ele>
        <time>2012-05-05T06:59:49Z</time>
      </trkpt>
      <trkpt lat="45.63255" lon="5.90927">
        <ele>331.20001220703</ele>
        <time>2012-05-05T06:59:53Z</time>
      </trkpt>
      <trkpt lat="45.63252" lon="5.90929">
        <ele>330.79998779297</ele>
        <time>2012-05-05T06:59:54Z</time>
      </trkpt>
      <trkpt lat="45.6322" lon="5.90941">
        <ele>327</ele>
        <time>2012-05-05T07:00:03Z</time>
      </trkpt>
      <trkpt lat="45.63216" lon="5.90943">
        <ele>326.39999389648</ele>
        <time>2012-05-05T07:00:04Z</time>
      </trkpt>
      <trkpt lat="45.63195" lon="5.90958">
        <ele>323</ele>
        <time>2012-05-05T07:00:10Z</time>
      </trkpt>
      <trkpt lat="45.63193" lon="5.90962">
        <ele>322.39999389648</ele>
        <time>2012-05-05T07:00:11Z</time>
      </trkpt>
      <trkpt lat="45.63189" lon="5.90982">
        <ele>319.20001220703</ele>
        <time>2012-05-05T07:00:15Z</time>
      </trkpt>
      <trkpt lat="45.63189" lon="5.90988">
        <ele>318.20001220703</ele>
        <time>2012-05-05T07:00:16Z</time>
      </trkpt>
      <trkpt lat="45.6319" lon="5.91008">
        <ele>315.39999389648</ele>
        <time>2012-05-05T07:00:20Z</time>
      </trkpt>
      <trkpt lat="45.63191" lon="5.91018">
        <ele>314.60000610352</ele>
        <time>2012-05-05T07:00:22Z</time>
      </trkpt>
      <trkpt lat="45.63193" lon="5.91033">
        <ele>313.20001220703</ele>
        <time>2012-05-05T07:00:25Z</time>
      </trkpt>
      <trkpt lat="45.63194" lon="5.91039">
        <ele>312.60000610352</ele>
        <time>2012-05-05T07:00:26Z</time>
      </trkpt>
      <trkpt lat="45.63196" lon="5.91049">
        <ele>311.60000610352</ele>
        <time>2012-05-05T07:00:28Z</time>
      </trkpt>
      <trkpt lat="45.63198" lon="5.91059">
        <ele>310.60000610352</ele>
        <time>2012-05-05T07:00:30Z</time>
      </trkpt>
      <trkpt lat="45.63203" lon="5.91083">
        <ele>308.20001220703</ele>
        <time>2012-05-05T07:00:35Z</time>
      </trkpt>
      <trkpt lat="45.63205" lon="5.91087">
        <ele>307.79998779297</ele>
        <time>2012-05-05T07:00:36Z</time>
      </trkpt>
      <trkpt lat="45.63207" lon="5.91098">
        <ele>306.79998779297</ele>
        <time>2012-05-05T07:00:38Z</time>
      </trkpt>
      <trkpt lat="45.63209" lon="5.91102">
        <ele>306.20001220703</ele>
        <time>2012-05-05T07:00:39Z</time>
      </trkpt>
      <trkpt lat="45.63214" lon="5.91117">
        <ele>304.79998779297</ele>
        <time>2012-05-05T07:00:42Z</time>
      </trkpt>
      <trkpt lat="45.63218" lon="5.91133">
        <ele>303</ele>
        <time>2012-05-05T07:00:45Z</time>
      </trkpt>
      <trkpt lat="45.63225" lon="5.91152">
        <ele>301</ele>
        <time>2012-05-05T07:00:49Z</time>
      </trkpt>
      <trkpt lat="45.63228" lon="5.91163">
        <ele>299.79998779297</ele>
        <time>2012-05-05T07:00:51Z</time>
      </trkpt>
      <trkpt lat="45.63235" lon="5.91188">
        <ele>298.79998779297</ele>
        <time>2012-05-05T07:00:56Z</time>
      </trkpt>
      <trkpt lat="45.63236" lon="5.91192">
        <ele>298.60000610352</ele>
        <time>2012-05-05T07:00:57Z</time>
      </trkpt>
      <trkpt lat="45.63244" lon="5.91213">
        <ele>298.20001220703</ele>
        <time>2012-05-05T07:01:01Z</time>
      </trkpt>
      <trkpt lat="45.63249" lon="5.91237">
        <ele>298</ele>
        <time>2012-05-05T07:01:06Z</time>
      </trkpt>
      <trkpt lat="45.63258" lon="5.91272">
        <ele>296</ele>
        <time>2012-05-05T07:01:14Z</time>
      </trkpt>
      <trkpt lat="45.6326" lon="5.91276">
        <ele>295.60000610352</ele>
        <time>2012-05-05T07:01:15Z</time>
      </trkpt>
      <trkpt lat="45.63265" lon="5.91289">
        <ele>294.60000610352</ele>
        <time>2012-05-05T07:01:18Z</time>
      </trkpt>
      <trkpt lat="45.63266" lon="5.91292">
        <ele>294.39999389648</ele>
        <time>2012-05-05T07:01:19Z</time>
      </trkpt>
      <trkpt lat="45.63277" lon="5.91314">
        <ele>292.20001220703</ele>
        <time>2012-05-05T07:01:24Z</time>
      </trkpt>
      <trkpt lat="45.63282" lon="5.91328">
        <ele>291</ele>
        <time>2012-05-05T07:01:27Z</time>
      </trkpt>
      <trkpt lat="45.63277" lon="5.91347">
        <ele>290.20001220703</ele>
        <time>2012-05-05T07:01:32Z</time>
      </trkpt>
      <trkpt lat="45.63271" lon="5.9135">
        <ele>290.39999389648</ele>
        <time>2012-05-05T07:01:35Z</time>
      </trkpt>
      <trkpt lat="45.63248" lon="5.91353">
        <ele>291.39999389648</ele>
        <time>2012-05-05T07:01:41Z</time>
      </trkpt>
      <trkpt lat="45.63242" lon="5.91353">
        <ele>291.60000610352</ele>
        <time>2012-05-05T07:01:42Z</time>
      </trkpt>
      <trkpt lat="45.63232" lon="5.91357">
        <ele>291.60000610352</ele>
        <time>2012-05-05T07:01:45Z</time>
      </trkpt>
      <trkpt lat="45.6323" lon="5.91369">
        <ele>290.79998779297</ele>
        <time>2012-05-05T07:01:47Z</time>
      </trkpt>
      <trkpt lat="45.63227" lon="5.91374">
        <ele>290.39999389648</ele>
        <time>2012-05-05T07:01:49Z</time>
      </trkpt>
      <trkpt lat="45.63225" lon="5.91386">
        <ele>289.60000610352</ele>
        <time>2012-05-05T07:01:52Z</time>
      </trkpt>
      <trkpt lat="45.63229" lon="5.91401">
        <ele>288.20001220703</ele>
        <time>2012-05-05T07:01:56Z</time>
      </trkpt>
      <trkpt lat="45.63237" lon="5.91418">
        <ele>286.60000610352</ele>
        <time>2012-05-05T07:02:00Z</time>
      </trkpt>
      <trkpt lat="45.63246" lon="5.91444">
        <ele>285.20001220703</ele>
        <time>2012-05-05T07:02:06Z</time>
      </trkpt>
      <trkpt lat="45.6325" lon="5.91456">
        <ele>284.60000610352</ele>
        <time>2012-05-05T07:02:09Z</time>
      </trkpt>
      <trkpt lat="45.63258" lon="5.91482">
        <ele>283.60000610352</ele>
        <time>2012-05-05T07:02:15Z</time>
      </trkpt>
      <trkpt lat="45.63259" lon="5.91486">
        <ele>283.39999389648</ele>
        <time>2012-05-05T07:02:16Z</time>
      </trkpt>
      <trkpt lat="45.63264" lon="5.91499">
        <ele>282.79998779297</ele>
        <time>2012-05-05T07:02:19Z</time>
      </trkpt>
      <trkpt lat="45.63267" lon="5.91507">
        <ele>282.79998779297</ele>
        <time>2012-05-05T07:02:21Z</time>
      </trkpt>
      <trkpt lat="45.63275" lon="5.91528">
        <ele>282.39999389648</ele>
        <time>2012-05-05T07:02:26Z</time>
      </trkpt>
      <trkpt lat="45.63283" lon="5.9155">
        <ele>282.20001220703</ele>
        <time>2012-05-05T07:02:32Z</time>
      </trkpt>
      <trkpt lat="45.63291" lon="5.91561">
        <ele>281.79998779297</ele>
        <time>2012-05-05T07:02:35Z</time>
      </trkpt>
      <trkpt lat="45.63296" lon="5.91576">
        <ele>281.39999389648</ele>
        <time>2012-05-05T07:02:39Z</time>
      </trkpt>
      <trkpt lat="45.63307" lon="5.916">
        <ele>280.60000610352</ele>
        <time>2012-05-05T07:02:45Z</time>
      </trkpt>
      <trkpt lat="45.63313" lon="5.91612">
        <ele>280</ele>
        <time>2012-05-05T07:02:48Z</time>
      </trkpt>
      <trkpt lat="45.63328" lon="5.91643">
        <ele>278.79998779297</ele>
        <time>2012-05-05T07:02:56Z</time>
      </trkpt>
      <trkpt lat="45.63332" lon="5.91655">
        <ele>278.39999389648</ele>
        <time>2012-05-05T07:02:59Z</time>
      </trkpt>
      <trkpt lat="45.63334" lon="5.91665">
        <ele>278</ele>
        <time>2012-05-05T07:03:01Z</time>
      </trkpt>
      <trkpt lat="45.63336" lon="5.91669">
        <ele>277.79998779297</ele>
        <time>2012-05-05T07:03:02Z</time>
      </trkpt>
      <trkpt lat="45.63341" lon="5.9169">
        <ele>277.20001220703</ele>
        <time>2012-05-05T07:03:07Z</time>
      </trkpt>
      <trkpt lat="45.63342" lon="5.91694">
        <ele>277.20001220703</ele>
        <time>2012-05-05T07:03:08Z</time>
      </trkpt>
      <trkpt lat="45.63349" lon="5.91718">
        <ele>276.39999389648</ele>
        <time>2012-05-05T07:03:14Z</time>
      </trkpt>
      <trkpt lat="45.63355" lon="5.9173">
        <ele>276</ele>
        <time>2012-05-05T07:03:17Z</time>
      </trkpt>
      <trkpt lat="45.6336" lon="5.91743">
        <ele>275.60000610352</ele>
        <time>2012-05-05T07:03:20Z</time>
      </trkpt>
      <trkpt lat="45.63359" lon="5.9175">
        <ele>275.39999389648</ele>
        <time>2012-05-05T07:03:22Z</time>
      </trkpt>
      <trkpt lat="45.6335" lon="5.9176">
        <ele>275.39999389648</ele>
        <time>2012-05-05T07:03:26Z</time>
      </trkpt>
      <trkpt lat="45.6334" lon="5.91769">
        <ele>275.20001220703</ele>
        <time>2012-05-05T07:03:30Z</time>
      </trkpt>
      <trkpt lat="45.63311" lon="5.91795">
        <ele>275</ele>
        <time>2012-05-05T07:03:41Z</time>
      </trkpt>
      <trkpt lat="45.63295" lon="5.91805">
        <ele>275.39999389648</ele>
        <time>2012-05-05T07:03:47Z</time>
      </trkpt>
      <trkpt lat="45.63275" lon="5.91817">
        <ele>276</ele>
        <time>2012-05-05T07:03:54Z</time>
      </trkpt>
      <trkpt lat="45.63264" lon="5.91826">
        <ele>276.39999389648</ele>
        <time>2012-05-05T07:03:59Z</time>
      </trkpt>
      <trkpt lat="45.63241" lon="5.91838">
        <ele>277.79998779297</ele>
        <time>2012-05-05T07:04:10Z</time>
      </trkpt>
      <trkpt lat="45.63235" lon="5.91842">
        <ele>278.20001220703</ele>
        <time>2012-05-05T07:04:13Z</time>
      </trkpt>
      <trkpt lat="45.63219" lon="5.9186">
        <ele>279</ele>
        <time>2012-05-05T07:04:21Z</time>
      </trkpt>
      <trkpt lat="45.63217" lon="5.91863">
        <ele>279</ele>
        <time>2012-05-05T07:04:22Z</time>
      </trkpt>
      <trkpt lat="45.63221" lon="5.91879">
        <ele>278.39999389648</ele>
        <time>2012-05-05T07:04:27Z</time>
      </trkpt>
      <trkpt lat="45.6323" lon="5.919">
        <ele>277.79998779297</ele>
        <time>2012-05-05T07:04:33Z</time>
      </trkpt>
      <trkpt lat="45.63228" lon="5.9195">
        <ele>278.39999389648</ele>
        <time>2012-05-05T07:04:44Z</time>
      </trkpt>
      <trkpt lat="45.63227" lon="5.91955">
        <ele>278.60000610352</ele>
        <time>2012-05-05T07:04:45Z</time>
      </trkpt>
      <trkpt lat="45.63216" lon="5.92005">
        <ele>279.60000610352</ele>
        <time>2012-05-05T07:04:57Z</time>
      </trkpt>
      <trkpt lat="45.63209" lon="5.92025">
        <ele>279.20001220703</ele>
        <time>2012-05-05T07:05:02Z</time>
      </trkpt>
      <trkpt lat="45.63197" lon="5.9207">
        <ele>278.60000610352</ele>
        <time>2012-05-05T07:05:13Z</time>
      </trkpt>
      <trkpt lat="45.63187" lon="5.92091">
        <ele>278</ele>
        <time>2012-05-05T07:05:19Z</time>
      </trkpt>
      <trkpt lat="45.63175" lon="5.92116">
        <ele>277.20001220703</ele>
        <time>2012-05-05T07:05:26Z</time>
      </trkpt>
      <trkpt lat="45.63172" lon="5.92122">
        <ele>277.20001220703</ele>
        <time>2012-05-05T07:05:28Z</time>
      </trkpt>
      <trkpt lat="45.63164" lon="5.92147">
        <ele>276.60000610352</ele>
        <time>2012-05-05T07:05:34Z</time>
      </trkpt>
      <trkpt lat="45.63167" lon="5.92175">
        <ele>276</ele>
        <time>2012-05-05T07:05:40Z</time>
      </trkpt>
      <trkpt lat="45.63168" lon="5.92204">
        <ele>275.60000610352</ele>
        <time>2012-05-05T07:05:46Z</time>
      </trkpt>
      <trkpt lat="45.63167" lon="5.92222">
        <ele>275.39999389648</ele>
        <time>2012-05-05T07:05:50Z</time>
      </trkpt>
      <trkpt lat="45.63168" lon="5.92238">
        <ele>275.20001220703</ele>
        <time>2012-05-05T07:05:54Z</time>
      </trkpt>
      <trkpt lat="45.63171" lon="5.9226">
        <ele>275</ele>
        <time>2012-05-05T07:05:59Z</time>
      </trkpt>
      <trkpt lat="45.63173" lon="5.92286">
        <ele>275.20001220703</ele>
        <time>2012-05-05T07:06:05Z</time>
      </trkpt>
      <trkpt lat="45.63173" lon="5.92295">
        <ele>275.20001220703</ele>
        <time>2012-05-05T07:06:07Z</time>
      </trkpt>
      <trkpt lat="45.63178" lon="5.92338">
        <ele>275.79998779297</ele>
        <time>2012-05-05T07:06:17Z</time>
      </trkpt>
      <trkpt lat="45.63178" lon="5.92355">
        <ele>276</ele>
        <time>2012-05-05T07:06:21Z</time>
      </trkpt>
      <trkpt lat="45.63176" lon="5.92366">
        <ele>276.20001220703</ele>
        <time>2012-05-05T07:06:24Z</time>
      </trkpt>
      <trkpt lat="45.63165" lon="5.92368">
        <ele>275.79998779297</ele>
        <time>2012-05-05T07:06:27Z</time>
      </trkpt>
      <trkpt lat="45.63145" lon="5.9237">
        <ele>275.60000610352</ele>
        <time>2012-05-05T07:06:33Z</time>
      </trkpt>
      <trkpt lat="45.63125" lon="5.92373">
        <ele>275.39999389648</ele>
        <time>2012-05-05T07:06:39Z</time>
      </trkpt>
      <trkpt lat="45.63106" lon="5.92375">
        <ele>275.20001220703</ele>
        <time>2012-05-05T07:06:45Z</time>
      </trkpt>
      <trkpt lat="45.63093" lon="5.92377">
        <ele>275.20001220703</ele>
        <time>2012-05-05T07:06:50Z</time>
      </trkpt>
      <trkpt lat="45.63073" lon="5.92369">
        <ele>275</ele>
        <time>2012-05-05T07:06:58Z</time>
      </trkpt>
      <trkpt lat="45.63059" lon="5.92366">
        <ele>274.79998779297</ele>
        <time>2012-05-05T07:07:03Z</time>
      </trkpt>
      <trkpt lat="45.63025" lon="5.92358">
        <ele>274.60000610352</ele>
        <time>2012-05-05T07:07:13Z</time>
      </trkpt>
      <trkpt lat="45.63006" lon="5.92353">
        <ele>274.20001220703</ele>
        <time>2012-05-05T07:07:19Z</time>
      </trkpt>
      <trkpt lat="45.62988" lon="5.92347">
        <ele>274.20001220703</ele>
        <time>2012-05-05T07:07:25Z</time>
      </trkpt>
      <trkpt lat="45.62969" lon="5.92338">
        <ele>274</ele>
        <time>2012-05-05T07:07:31Z</time>
      </trkpt>
      <trkpt lat="45.62942" lon="5.92328">
        <ele>274</ele>
        <time>2012-05-05T07:07:40Z</time>
      </trkpt>
      <trkpt lat="45.62937" lon="5.92324">
        <ele>274</ele>
        <time>2012-05-05T07:07:42Z</time>
      </trkpt>
      <trkpt lat="45.62928" lon="5.92321">
        <ele>274</ele>
        <time>2012-05-05T07:07:45Z</time>
      </trkpt>
      <trkpt lat="45.62917" lon="5.92313">
        <ele>274</ele>
        <time>2012-05-05T07:07:49Z</time>
      </trkpt>
      <trkpt lat="45.62901" lon="5.92317">
        <ele>274.20001220703</ele>
        <time>2012-05-05T07:07:55Z</time>
      </trkpt>
      <trkpt lat="45.6289" lon="5.92322">
        <ele>274.20001220703</ele>
        <time>2012-05-05T07:07:59Z</time>
      </trkpt>
      <trkpt lat="45.62872" lon="5.92327">
        <ele>274.39999389648</ele>
        <time>2012-05-05T07:08:08Z</time>
      </trkpt>
      <trkpt lat="45.6287" lon="5.92327">
        <ele>274.60000610352</ele>
        <time>2012-05-05T07:08:09Z</time>
      </trkpt>
      <trkpt lat="45.62856" lon="5.92333">
        <ele>274.79998779297</ele>
        <time>2012-05-05T07:08:16Z</time>
      </trkpt>
      <trkpt lat="45.62849" lon="5.92335">
        <ele>274.79998779297</ele>
        <time>2012-05-05T07:08:19Z</time>
      </trkpt>
      <trkpt lat="45.62838" lon="5.9234">
        <ele>275</ele>
        <time>2012-05-05T07:08:24Z</time>
      </trkpt>
      <trkpt lat="45.62831" lon="5.92343">
        <ele>275</ele>
        <time>2012-05-05T07:08:27Z</time>
      </trkpt>
      <trkpt lat="45.62818" lon="5.92348">
        <ele>274.60000610352</ele>
        <time>2012-05-05T07:08:32Z</time>
      </trkpt>
      <trkpt lat="45.62814" lon="5.92349">
        <ele>274.60000610352</ele>
        <time>2012-05-05T07:08:33Z</time>
      </trkpt>
      <trkpt lat="45.62791" lon="5.92355">
        <ele>274.20001220703</ele>
        <time>2012-05-05T07:08:41Z</time>
      </trkpt>
      <trkpt lat="45.62777" lon="5.92359">
        <ele>273.79998779297</ele>
        <time>2012-05-05T07:08:46Z</time>
      </trkpt>
      <trkpt lat="45.62747" lon="5.92372">
        <ele>273.39999389648</ele>
        <time>2012-05-05T07:08:54Z</time>
      </trkpt>
      <trkpt lat="45.62744" lon="5.92373">
        <ele>273.39999389648</ele>
        <time>2012-05-05T07:08:55Z</time>
      </trkpt>
      <trkpt lat="45.62716" lon="5.92384">
        <ele>273.60000610352</ele>
        <time>2012-05-05T07:09:04Z</time>
      </trkpt>
      <trkpt lat="45.62699" lon="5.92389">
        <ele>273.60000610352</ele>
        <time>2012-05-05T07:09:10Z</time>
      </trkpt>
      <trkpt lat="45.62675" lon="5.92396">
        <ele>273.79998779297</ele>
        <time>2012-05-05T07:09:19Z</time>
      </trkpt>
      <trkpt lat="45.62661" lon="5.92401">
        <ele>274</ele>
        <time>2012-05-05T07:09:24Z</time>
      </trkpt>
      <trkpt lat="45.62644" lon="5.92407">
        <ele>274.39999389648</ele>
        <time>2012-05-05T07:09:31Z</time>
      </trkpt>
      <trkpt lat="45.62641" lon="5.92408">
        <ele>274.60000610352</ele>
        <time>2012-05-05T07:09:32Z</time>
      </trkpt>
      <trkpt lat="45.6263" lon="5.9241">
        <ele>274.79998779297</ele>
        <time>2012-05-05T07:09:35Z</time>
      </trkpt>
      <trkpt lat="45.62626" lon="5.92411">
        <ele>275</ele>
        <time>2012-05-05T07:09:36Z</time>
      </trkpt>
      <trkpt lat="45.62616" lon="5.92414">
        <ele>275.20001220703</ele>
        <time>2012-05-05T07:09:39Z</time>
      </trkpt>
      <trkpt lat="45.62608" lon="5.92418">
        <ele>275.39999389648</ele>
        <time>2012-05-05T07:09:42Z</time>
      </trkpt>
      <trkpt lat="45.62602" lon="5.92419">
        <ele>275.39999389648</ele>
        <time>2012-05-05T07:09:44Z</time>
      </trkpt>
      <trkpt lat="45.62599" lon="5.9242">
        <ele>275.60000610352</ele>
        <time>2012-05-05T07:09:45Z</time>
      </trkpt>
      <trkpt lat="45.62584" lon="5.92427">
        <ele>275.79998779297</ele>
        <time>2012-05-05T07:09:50Z</time>
      </trkpt>
      <trkpt lat="45.62573" lon="5.9243">
        <ele>275.79998779297</ele>
        <time>2012-05-05T07:09:53Z</time>
      </trkpt>
      <trkpt lat="45.62549" lon="5.92434">
        <ele>275.79998779297</ele>
        <time>2012-05-05T07:10:00Z</time>
      </trkpt>
      <trkpt lat="45.62544" lon="5.92437">
        <ele>275.79998779297</ele>
        <time>2012-05-05T07:10:02Z</time>
      </trkpt>
      <trkpt lat="45.6254" lon="5.92444">
        <ele>275.60000610352</ele>
        <time>2012-05-05T07:10:05Z</time>
      </trkpt>
      <trkpt lat="45.6254" lon="5.92447">
        <ele>275.60000610352</ele>
        <time>2012-05-05T07:10:06Z</time>
      </trkpt>
      <trkpt lat="45.62539" lon="5.92463">
        <ele>275.39999389648</ele>
        <time>2012-05-05T07:10:10Z</time>
      </trkpt>
      <trkpt lat="45.62537" lon="5.9247">
        <ele>275.39999389648</ele>
        <time>2012-05-05T07:10:12Z</time>
      </trkpt>
      <trkpt lat="45.62532" lon="5.92483">
        <ele>275.39999389648</ele>
        <time>2012-05-05T07:10:16Z</time>
      </trkpt>
      <trkpt lat="45.62531" lon="5.92487">
        <ele>275.39999389648</ele>
        <time>2012-05-05T07:10:17Z</time>
      </trkpt>
      <trkpt lat="45.6253" lon="5.92494">
        <ele>275.39999389648</ele>
        <time>2012-05-05T07:10:19Z</time>
      </trkpt>
      <trkpt lat="45.62526" lon="5.92504">
        <ele>275.20001220703</ele>
        <time>2012-05-05T07:10:21Z</time>
      </trkpt>
      <trkpt lat="45.62521" lon="5.92531">
        <ele>274.39999389648</ele>
        <time>2012-05-05T07:10:28Z</time>
      </trkpt>
      <trkpt lat="45.6252" lon="5.92544">
        <ele>274</ele>
        <time>2012-05-05T07:10:31Z</time>
      </trkpt>
      <trkpt lat="45.62518" lon="5.92575">
        <ele>273</ele>
        <time>2012-05-05T07:10:38Z</time>
      </trkpt>
      <trkpt lat="45.62515" lon="5.92593">
        <ele>272.79998779297</ele>
        <time>2012-05-05T07:10:42Z</time>
      </trkpt>
      <trkpt lat="45.62512" lon="5.9264">
        <ele>273</ele>
        <time>2012-05-05T07:10:53Z</time>
      </trkpt>
      <trkpt lat="45.6251" lon="5.92661">
        <ele>273</ele>
        <time>2012-05-05T07:10:58Z</time>
      </trkpt>
      <trkpt lat="45.6251" lon="5.92712">
        <ele>273.20001220703</ele>
        <time>2012-05-05T07:11:10Z</time>
      </trkpt>
      <trkpt lat="45.62512" lon="5.92733">
        <ele>273.20001220703</ele>
        <time>2012-05-05T07:11:15Z</time>
      </trkpt>
      <trkpt lat="45.62515" lon="5.9277">
        <ele>274.20001220703</ele>
        <time>2012-05-05T07:11:24Z</time>
      </trkpt>
      <trkpt lat="45.62517" lon="5.9279">
        <ele>275</ele>
        <time>2012-05-05T07:11:29Z</time>
      </trkpt>
      <trkpt lat="45.62517" lon="5.92803">
        <ele>275.39999389648</ele>
        <time>2012-05-05T07:11:32Z</time>
      </trkpt>
      <trkpt lat="45.62518" lon="5.92824">
        <ele>276.20001220703</ele>
        <time>2012-05-05T07:11:37Z</time>
      </trkpt>
      <trkpt lat="45.62516" lon="5.92851">
        <ele>276.60000610352</ele>
        <time>2012-05-05T07:11:44Z</time>
      </trkpt>
      <trkpt lat="45.62518" lon="5.92858">
        <ele>276.60000610352</ele>
        <time>2012-05-05T07:11:46Z</time>
      </trkpt>
      <trkpt lat="45.62518" lon="5.92873">
        <ele>276.60000610352</ele>
        <time>2012-05-05T07:11:50Z</time>
      </trkpt>
      <trkpt lat="45.62518" lon="5.92877">
        <ele>276.60000610352</ele>
        <time>2012-05-05T07:11:51Z</time>
      </trkpt>
      <trkpt lat="45.62516" lon="5.9289">
        <ele>276.79998779297</ele>
        <time>2012-05-05T07:11:55Z</time>
      </trkpt>
      <trkpt lat="45.62516" lon="5.92894">
        <ele>276.79998779297</ele>
        <time>2012-05-05T07:11:56Z</time>
      </trkpt>
      <trkpt lat="45.62512" lon="5.92915">
        <ele>276.79998779297</ele>
        <time>2012-05-05T07:12:02Z</time>
      </trkpt>
      <trkpt lat="45.62511" lon="5.92931">
        <ele>277.60000610352</ele>
        <time>2012-05-05T07:12:06Z</time>
      </trkpt>
      <trkpt lat="45.62507" lon="5.92953">
        <ele>278.79998779297</ele>
        <time>2012-05-05T07:12:12Z</time>
      </trkpt>
      <trkpt lat="45.62508" lon="5.92957">
        <ele>279</ele>
        <time>2012-05-05T07:12:13Z</time>
      </trkpt>
      <trkpt lat="45.62501" lon="5.9298">
        <ele>280</ele>
        <time>2012-05-05T07:12:20Z</time>
      </trkpt>
      <trkpt lat="45.62499" lon="5.92986">
        <ele>280.39999389648</ele>
        <time>2012-05-05T07:12:22Z</time>
      </trkpt>
      <trkpt lat="45.62498" lon="5.93002">
        <ele>281.20001220703</ele>
        <time>2012-05-05T07:12:27Z</time>
      </trkpt>
      <trkpt lat="45.62498" lon="5.93006">
        <ele>281.79998779297</ele>
        <time>2012-05-05T07:12:29Z</time>
      </trkpt>
      <trkpt lat="45.62498" lon="5.93013">
        <ele>282.79998779297</ele>
        <time>2012-05-05T07:12:32Z</time>
      </trkpt>
      <trkpt lat="45.62499" lon="5.93018">
        <ele>283.39999389648</ele>
        <time>2012-05-05T07:12:34Z</time>
      </trkpt>
      <trkpt lat="45.62508" lon="5.93027">
        <ele>285</ele>
        <time>2012-05-05T07:12:39Z</time>
      </trkpt>
      <trkpt lat="45.62511" lon="5.93029">
        <ele>285.20001220703</ele>
        <time>2012-05-05T07:12:40Z</time>
      </trkpt>
      <trkpt lat="45.62527" lon="5.93035">
        <ele>287.20001220703</ele>
        <time>2012-05-05T07:12:48Z</time>
      </trkpt>
      <trkpt lat="45.6253" lon="5.93036">
        <ele>287.39999389648</ele>
        <time>2012-05-05T07:12:49Z</time>
      </trkpt>
      <trkpt lat="45.62541" lon="5.9304">
        <ele>288.60000610352</ele>
        <time>2012-05-05T07:12:54Z</time>
      </trkpt>
      <trkpt lat="45.62546" lon="5.93041">
        <ele>289.20001220703</ele>
        <time>2012-05-05T07:12:56Z</time>
      </trkpt>
      <trkpt lat="45.62565" lon="5.93049">
        <ele>291.79998779297</ele>
        <time>2012-05-05T07:13:07Z</time>
      </trkpt>
      <trkpt lat="45.62569" lon="5.93051">
        <ele>292.39999389648</ele>
        <time>2012-05-05T07:13:11Z</time>
      </trkpt>
      <trkpt lat="45.62575" lon="5.93055">
        <ele>293.60000610352</ele>
        <time>2012-05-05T07:13:15Z</time>
      </trkpt>
      <trkpt lat="45.62579" lon="5.93059">
        <ele>294.60000610352</ele>
        <time>2012-05-05T07:13:19Z</time>
      </trkpt>
      <trkpt lat="45.62586" lon="5.93064">
        <ele>296.20001220703</ele>
        <time>2012-05-05T07:13:24Z</time>
      </trkpt>
      <trkpt lat="45.62592" lon="5.93069">
        <ele>297.39999389648</ele>
        <time>2012-05-05T07:13:28Z</time>
      </trkpt>
      <trkpt lat="45.62597" lon="5.93072">
        <ele>298.39999389648</ele>
        <time>2012-05-05T07:13:31Z</time>
      </trkpt>
      <trkpt lat="45.62601" lon="5.93076">
        <ele>299.39999389648</ele>
        <time>2012-05-05T07:13:34Z</time>
      </trkpt>
      <trkpt lat="45.62607" lon="5.93079">
        <ele>300.20001220703</ele>
        <time>2012-05-05T07:13:37Z</time>
      </trkpt>
      <trkpt lat="45.62617" lon="5.93084">
        <ele>301.79998779297</ele>
        <time>2012-05-05T07:13:42Z</time>
      </trkpt>
      <trkpt lat="45.62642" lon="5.93097">
        <ele>303.79998779297</ele>
        <time>2012-05-05T07:13:54Z</time>
      </trkpt>
      <trkpt lat="45.62646" lon="5.93101">
        <ele>304.20001220703</ele>
        <time>2012-05-05T07:13:56Z</time>
      </trkpt>
      <trkpt lat="45.62652" lon="5.93112">
        <ele>305.20001220703</ele>
        <time>2012-05-05T07:14:01Z</time>
      </trkpt>
      <trkpt lat="45.62657" lon="5.93125">
        <ele>306.20001220703</ele>
        <time>2012-05-05T07:14:06Z</time>
      </trkpt>
      <trkpt lat="45.62665" lon="5.93135">
        <ele>307</ele>
        <time>2012-05-05T07:14:11Z</time>
      </trkpt>
      <trkpt lat="45.62669" lon="5.93138">
        <ele>307.20001220703</ele>
        <time>2012-05-05T07:14:13Z</time>
      </trkpt>
      <trkpt lat="45.62686" lon="5.93153">
        <ele>307.79998779297</ele>
        <time>2012-05-05T07:14:21Z</time>
      </trkpt>
      <trkpt lat="45.62687" lon="5.93166">
        <ele>308.60000610352</ele>
        <time>2012-05-05T07:14:25Z</time>
      </trkpt>
      <trkpt lat="45.62687" lon="5.93179">
        <ele>308.79998779297</ele>
        <time>2012-05-05T07:14:29Z</time>
      </trkpt>
      <trkpt lat="45.62687" lon="5.93183">
        <ele>308.79998779297</ele>
        <time>2012-05-05T07:14:30Z</time>
      </trkpt>
      <trkpt lat="45.62687" lon="5.93194">
        <ele>308.79998779297</ele>
        <time>2012-05-05T07:14:33Z</time>
      </trkpt>
      <trkpt lat="45.62689" lon="5.93203">
        <ele>308.79998779297</ele>
        <time>2012-05-05T07:14:36Z</time>
      </trkpt>
      <trkpt lat="45.62706" lon="5.93226">
        <ele>308.79998779297</ele>
        <time>2012-05-05T07:14:44Z</time>
      </trkpt>
      <trkpt lat="45.62723" lon="5.93239">
        <ele>309</ele>
        <time>2012-05-05T07:14:50Z</time>
      </trkpt>
      <trkpt lat="45.62728" lon="5.9326">
        <ele>309</ele>
        <time>2012-05-05T07:14:56Z</time>
      </trkpt>
      <trkpt lat="45.62733" lon="5.93277">
        <ele>309.20001220703</ele>
        <time>2012-05-05T07:15:01Z</time>
      </trkpt>
      <trkpt lat="45.62748" lon="5.93302">
        <ele>309.60000610352</ele>
        <time>2012-05-05T07:15:09Z</time>
      </trkpt>
      <trkpt lat="45.62756" lon="5.93316">
        <ele>309.39999389648</ele>
        <time>2012-05-05T07:15:13Z</time>
      </trkpt>
      <trkpt lat="45.62762" lon="5.93368">
        <ele>309</ele>
        <time>2012-05-05T07:15:25Z</time>
      </trkpt>
      <trkpt lat="45.62765" lon="5.93391">
        <ele>308.60000610352</ele>
        <time>2012-05-05T07:15:30Z</time>
      </trkpt>
      <trkpt lat="45.62762" lon="5.93416">
        <ele>308.60000610352</ele>
        <time>2012-05-05T07:15:36Z</time>
      </trkpt>
      <trkpt lat="45.62759" lon="5.93434">
        <ele>308.79998779297</ele>
        <time>2012-05-05T07:15:40Z</time>
      </trkpt>
      <trkpt lat="45.62758" lon="5.93452">
        <ele>308.79998779297</ele>
        <time>2012-05-05T07:15:44Z</time>
      </trkpt>
      <trkpt lat="45.62756" lon="5.93474">
        <ele>308.79998779297</ele>
        <time>2012-05-05T07:15:49Z</time>
      </trkpt>
      <trkpt lat="45.62752" lon="5.93491">
        <ele>309</ele>
        <time>2012-05-05T07:15:54Z</time>
      </trkpt>
      <trkpt lat="45.62744" lon="5.93507">
        <ele>309.60000610352</ele>
        <time>2012-05-05T07:15:59Z</time>
      </trkpt>
      <trkpt lat="45.62729" lon="5.93534">
        <ele>311.79998779297</ele>
        <time>2012-05-05T07:16:07Z</time>
      </trkpt>
      <trkpt lat="45.62727" lon="5.93537">
        <ele>312</ele>
        <time>2012-05-05T07:16:08Z</time>
      </trkpt>
      <trkpt lat="45.62728" lon="5.93556">
        <ele>313.60000610352</ele>
        <time>2012-05-05T07:16:14Z</time>
      </trkpt>
      <trkpt lat="45.62728" lon="5.93559">
        <ele>313.79998779297</ele>
        <time>2012-05-05T07:16:15Z</time>
      </trkpt>
      <trkpt lat="45.62727" lon="5.93567">
        <ele>314.39999389648</ele>
        <time>2012-05-05T07:16:18Z</time>
      </trkpt>
      <trkpt lat="45.62727" lon="5.93569">
        <ele>314.60000610352</ele>
        <time>2012-05-05T07:16:19Z</time>
      </trkpt>
      <trkpt lat="45.62724" lon="5.93577">
        <ele>315.39999389648</ele>
        <time>2012-05-05T07:16:24Z</time>
      </trkpt>
      <trkpt lat="45.62724" lon="5.93581">
        <ele>315.79998779297</ele>
        <time>2012-05-05T07:16:26Z</time>
      </trkpt>
      <trkpt lat="45.62723" lon="5.93585">
        <ele>316.20001220703</ele>
        <time>2012-05-05T07:16:28Z</time>
      </trkpt>
      <trkpt lat="45.62723" lon="5.93588">
        <ele>316.79998779297</ele>
        <time>2012-05-05T07:16:30Z</time>
      </trkpt>
      <trkpt lat="45.62724" lon="5.93596">
        <ele>318.20001220703</ele>
        <time>2012-05-05T07:16:35Z</time>
      </trkpt>
      <trkpt lat="45.62724" lon="5.93597">
        <ele>318.60000610352</ele>
        <time>2012-05-05T07:16:36Z</time>
      </trkpt>
      <trkpt lat="45.62723" lon="5.93603">
        <ele>319.60000610352</ele>
        <time>2012-05-05T07:16:41Z</time>
      </trkpt>
      <trkpt lat="45.62722" lon="5.93605">
        <ele>320</ele>
        <time>2012-05-05T07:16:43Z</time>
      </trkpt>
      <trkpt lat="45.62723" lon="5.93611">
        <ele>321</ele>
        <time>2012-05-05T07:16:48Z</time>
      </trkpt>
      <trkpt lat="45.62723" lon="5.93613">
        <ele>321.39999389648</ele>
        <time>2012-05-05T07:16:50Z</time>
      </trkpt>
      <trkpt lat="45.62724" lon="5.9362">
        <ele>322.60000610352</ele>
        <time>2012-05-05T07:16:57Z</time>
      </trkpt>
      <trkpt lat="45.62723" lon="5.93624">
        <ele>323.39999389648</ele>
        <time>2012-05-05T07:17:01Z</time>
      </trkpt>
      <trkpt lat="45.62722" lon="5.93633">
        <ele>325.20001220703</ele>
        <time>2012-05-05T07:17:09Z</time>
      </trkpt>
      <trkpt lat="45.62721" lon="5.93636">
        <ele>325.79998779297</ele>
        <time>2012-05-05T07:17:12Z</time>
      </trkpt>
      <trkpt lat="45.62721" lon="5.93648">
        <ele>328</ele>
        <time>2012-05-05T07:17:21Z</time>
      </trkpt>
      <trkpt lat="45.62722" lon="5.93652">
        <ele>328.60000610352</ele>
        <time>2012-05-05T07:17:25Z</time>
      </trkpt>
      <trkpt lat="45.62721" lon="5.93658">
        <ele>329.79998779297</ele>
        <time>2012-05-05T07:17:30Z</time>
      </trkpt>
      <trkpt lat="45.62721" lon="5.93661">
        <ele>330.20001220703</ele>
        <time>2012-05-05T07:17:32Z</time>
      </trkpt>
      <trkpt lat="45.62721" lon="5.93669">
        <ele>332</ele>
        <time>2012-05-05T07:17:39Z</time>
      </trkpt>
      <trkpt lat="45.6272" lon="5.93673">
        <ele>333.20001220703</ele>
        <time>2012-05-05T07:17:43Z</time>
      </trkpt>
      <trkpt lat="45.62721" lon="5.93678">
        <ele>334.60000610352</ele>
        <time>2012-05-05T07:17:48Z</time>
      </trkpt>
      <trkpt lat="45.6272" lon="5.9368">
        <ele>335</ele>
        <time>2012-05-05T07:17:50Z</time>
      </trkpt>
      <trkpt lat="45.62719" lon="5.93689">
        <ele>337.39999389648</ele>
        <time>2012-05-05T07:17:57Z</time>
      </trkpt>
      <trkpt lat="45.62719" lon="5.93693">
        <ele>338.60000610352</ele>
        <time>2012-05-05T07:18:00Z</time>
      </trkpt>
      <trkpt lat="45.6272" lon="5.93704">
        <ele>341.39999389648</ele>
        <time>2012-05-05T07:18:06Z</time>
      </trkpt>
      <trkpt lat="45.6272" lon="5.93707">
        <ele>342.20001220703</ele>
        <time>2012-05-05T07:18:08Z</time>
      </trkpt>
      <trkpt lat="45.6272" lon="5.93711">
        <ele>343.39999389648</ele>
        <time>2012-05-05T07:18:11Z</time>
      </trkpt>
      <trkpt lat="45.62719" lon="5.93714">
        <ele>344.20001220703</ele>
        <time>2012-05-05T07:18:13Z</time>
      </trkpt>
      <trkpt lat="45.62719" lon="5.93719">
        <ele>345.39999389648</ele>
        <time>2012-05-05T07:18:19Z</time>
      </trkpt>
      <trkpt lat="45.6272" lon="5.93719">
        <ele>345.60000610352</ele>
        <time>2012-05-05T07:18:20Z</time>
      </trkpt>
      <trkpt lat="45.6272" lon="5.93725">
        <ele>347.20001220703</ele>
        <time>2012-05-05T07:18:29Z</time>
      </trkpt>
      <trkpt lat="45.6272" lon="5.93727">
        <ele>347.60000610352</ele>
        <time>2012-05-05T07:18:31Z</time>
      </trkpt>
      <trkpt lat="45.62719" lon="5.9373">
        <ele>348.60000610352</ele>
        <time>2012-05-05T07:18:36Z</time>
      </trkpt>
      <trkpt lat="45.6272" lon="5.93734">
        <ele>349.39999389648</ele>
        <time>2012-05-05T07:18:39Z</time>
      </trkpt>
      <trkpt lat="45.6272" lon="5.93737">
        <ele>350.20001220703</ele>
        <time>2012-05-05T07:18:42Z</time>
      </trkpt>
      <trkpt lat="45.6272" lon="5.93739">
        <ele>351</ele>
        <time>2012-05-05T07:18:45Z</time>
      </trkpt>
      <trkpt lat="45.6272" lon="5.93745">
        <ele>352.39999389648</ele>
        <time>2012-05-05T07:18:49Z</time>
      </trkpt>
      <trkpt lat="45.62721" lon="5.93747">
        <ele>352.79998779297</ele>
        <time>2012-05-05T07:18:50Z</time>
      </trkpt>
      <trkpt lat="45.6272" lon="5.93754">
        <ele>355</ele>
        <time>2012-05-05T07:18:56Z</time>
      </trkpt>
      <trkpt lat="45.6272" lon="5.93755">
        <ele>355.39999389648</ele>
        <time>2012-05-05T07:18:57Z</time>
      </trkpt>
      <trkpt lat="45.6272" lon="5.93763">
        <ele>357.79998779297</ele>
        <time>2012-05-05T07:19:02Z</time>
      </trkpt>
      <trkpt lat="45.6272" lon="5.93767">
        <ele>359</ele>
        <time>2012-05-05T07:19:05Z</time>
      </trkpt>
      <trkpt lat="45.62722" lon="5.93773">
        <ele>360.60000610352</ele>
        <time>2012-05-05T07:19:08Z</time>
      </trkpt>
      <trkpt lat="45.62722" lon="5.93775">
        <ele>361.39999389648</ele>
        <time>2012-05-05T07:19:09Z</time>
      </trkpt>
      <trkpt lat="45.62727" lon="5.93785">
        <ele>364.20001220703</ele>
        <time>2012-05-05T07:19:13Z</time>
      </trkpt>
      <trkpt lat="45.62735" lon="5.93792">
        <ele>365.79998779297</ele>
        <time>2012-05-05T07:19:17Z</time>
      </trkpt>
      <trkpt lat="45.62743" lon="5.938">
        <ele>367.39999389648</ele>
        <time>2012-05-05T07:19:23Z</time>
      </trkpt>
      <trkpt lat="45.6275" lon="5.93805">
        <ele>368.39999389648</ele>
        <time>2012-05-05T07:19:26Z</time>
      </trkpt>
      <trkpt lat="45.62757" lon="5.93808">
        <ele>368.60000610352</ele>
        <time>2012-05-05T07:19:29Z</time>
      </trkpt>
      <trkpt lat="45.62759" lon="5.93808">
        <ele>368.60000610352</ele>
        <time>2012-05-05T07:19:30Z</time>
      </trkpt>
      <trkpt lat="45.62765" lon="5.93811">
        <ele>368.79998779297</ele>
        <time>2012-05-05T07:19:33Z</time>
      </trkpt>
      <trkpt lat="45.62767" lon="5.93812">
        <ele>368.79998779297</ele>
        <time>2012-05-05T07:19:34Z</time>
      </trkpt>
      <trkpt lat="45.62774" lon="5.93815">
        <ele>369</ele>
        <time>2012-05-05T07:19:38Z</time>
      </trkpt>
      <trkpt lat="45.62777" lon="5.93816">
        <ele>369.20001220703</ele>
        <time>2012-05-05T07:19:40Z</time>
      </trkpt>
      <trkpt lat="45.62788" lon="5.93824">
        <ele>370.39999389648</ele>
        <time>2012-05-05T07:19:46Z</time>
      </trkpt>
      <trkpt lat="45.62793" lon="5.93829">
        <ele>371.39999389648</ele>
        <time>2012-05-05T07:19:49Z</time>
      </trkpt>
      <trkpt lat="45.62801" lon="5.93834">
        <ele>372.39999389648</ele>
        <time>2012-05-05T07:19:54Z</time>
      </trkpt>
      <trkpt lat="45.62806" lon="5.93838">
        <ele>373.20001220703</ele>
        <time>2012-05-05T07:19:59Z</time>
      </trkpt>
      <trkpt lat="45.6281" lon="5.93842">
        <ele>374.39999389648</ele>
        <time>2012-05-05T07:20:05Z</time>
      </trkpt>
      <trkpt lat="45.62812" lon="5.93845">
        <ele>375.20001220703</ele>
        <time>2012-05-05T07:20:09Z</time>
      </trkpt>
      <trkpt lat="45.62816" lon="5.9385">
        <ele>377</ele>
        <time>2012-05-05T07:20:15Z</time>
      </trkpt>
      <trkpt lat="45.62819" lon="5.93854">
        <ele>378</ele>
        <time>2012-05-05T07:20:20Z</time>
      </trkpt>
      <trkpt lat="45.62823" lon="5.9386">
        <ele>379.79998779297</ele>
        <time>2012-05-05T07:20:25Z</time>
      </trkpt>
      <trkpt lat="45.62824" lon="5.93862">
        <ele>380.39999389648</ele>
        <time>2012-05-05T07:20:27Z</time>
      </trkpt>
      <trkpt lat="45.62827" lon="5.93866">
        <ele>381.39999389648</ele>
        <time>2012-05-05T07:20:31Z</time>
      </trkpt>
      <trkpt lat="45.62828" lon="5.93867">
        <ele>381.79998779297</ele>
        <time>2012-05-05T07:20:32Z</time>
      </trkpt>
      <trkpt lat="45.62831" lon="5.93873">
        <ele>383.39999389648</ele>
        <time>2012-05-05T07:20:39Z</time>
      </trkpt>
      <trkpt lat="45.62832" lon="5.93873">
        <ele>383.60000610352</ele>
        <time>2012-05-05T07:20:40Z</time>
      </trkpt>
      <trkpt lat="45.62835" lon="5.9388">
        <ele>385.79998779297</ele>
        <time>2012-05-05T07:20:46Z</time>
      </trkpt>
      <trkpt lat="45.62836" lon="5.93882">
        <ele>386.39999389648</ele>
        <time>2012-05-05T07:20:47Z</time>
      </trkpt>
      <trkpt lat="45.6284" lon="5.93891">
        <ele>389.20001220703</ele>
        <time>2012-05-05T07:20:55Z</time>
      </trkpt>
      <trkpt lat="45.6284" lon="5.93892">
        <ele>389.60000610352</ele>
        <time>2012-05-05T07:20:57Z</time>
      </trkpt>
      <trkpt lat="45.62843" lon="5.93896">
        <ele>390.79998779297</ele>
        <time>2012-05-05T07:21:01Z</time>
      </trkpt>
      <trkpt lat="45.62842" lon="5.93896">
        <ele>390.79998779297</ele>
        <time>2012-05-05T07:21:02Z</time>
      </trkpt>
      <trkpt lat="45.62845" lon="5.93902">
        <ele>392.79998779297</ele>
        <time>2012-05-05T07:21:07Z</time>
      </trkpt>
      <trkpt lat="45.62847" lon="5.93904">
        <ele>393.39999389648</ele>
        <time>2012-05-05T07:21:10Z</time>
      </trkpt>
      <trkpt lat="45.62849" lon="5.93906">
        <ele>394</ele>
        <time>2012-05-05T07:21:14Z</time>
      </trkpt>
      <trkpt lat="45.62854" lon="5.93909">
        <ele>395</ele>
        <time>2012-05-05T07:21:17Z</time>
      </trkpt>
      <trkpt lat="45.62862" lon="5.93914">
        <ele>396</ele>
        <time>2012-05-05T07:21:23Z</time>
      </trkpt>
      <trkpt lat="45.62865" lon="5.93918">
        <ele>397.39999389648</ele>
        <time>2012-05-05T07:21:29Z</time>
      </trkpt>
      <trkpt lat="45.62866" lon="5.93921">
        <ele>399</ele>
        <time>2012-05-05T07:21:31Z</time>
      </trkpt>
      <trkpt lat="45.62869" lon="5.93925">
        <ele>400.60000610352</ele>
        <time>2012-05-05T07:21:35Z</time>
      </trkpt>
      <trkpt lat="45.62872" lon="5.93929">
        <ele>402.39999389648</ele>
        <time>2012-05-05T07:21:41Z</time>
      </trkpt>
      <trkpt lat="45.62875" lon="5.93934">
        <ele>404.39999389648</ele>
        <time>2012-05-05T07:21:46Z</time>
      </trkpt>
      <trkpt lat="45.62876" lon="5.93938">
        <ele>406.60000610352</ele>
        <time>2012-05-05T07:21:49Z</time>
      </trkpt>
      <trkpt lat="45.62878" lon="5.9394">
        <ele>407.60000610352</ele>
        <time>2012-05-05T07:21:51Z</time>
      </trkpt>
      <trkpt lat="45.62881" lon="5.93947">
        <ele>410.39999389648</ele>
        <time>2012-05-05T07:21:57Z</time>
      </trkpt>
      <trkpt lat="45.62883" lon="5.93949">
        <ele>411.20001220703</ele>
        <time>2012-05-05T07:21:59Z</time>
      </trkpt>
      <trkpt lat="45.62886" lon="5.93952">
        <ele>412.60000610352</ele>
        <time>2012-05-05T07:22:03Z</time>
      </trkpt>
      <trkpt lat="45.62887" lon="5.93955">
        <ele>414</ele>
        <time>2012-05-05T07:22:06Z</time>
      </trkpt>
      <trkpt lat="45.6289" lon="5.93957">
        <ele>414.60000610352</ele>
        <time>2012-05-05T07:22:11Z</time>
      </trkpt>
      <trkpt lat="45.62893" lon="5.93959">
        <ele>415.60000610352</ele>
        <time>2012-05-05T07:22:14Z</time>
      </trkpt>
      <trkpt lat="45.62896" lon="5.93962">
        <ele>417</ele>
        <time>2012-05-05T07:22:19Z</time>
      </trkpt>
      <trkpt lat="45.62896" lon="5.93963">
        <ele>417.39999389648</ele>
        <time>2012-05-05T07:22:22Z</time>
      </trkpt>
      <trkpt lat="45.62898" lon="5.93967">
        <ele>419.20001220703</ele>
        <time>2012-05-05T07:22:28Z</time>
      </trkpt>
      <trkpt lat="45.62899" lon="5.93969">
        <ele>420.20001220703</ele>
        <time>2012-05-05T07:22:31Z</time>
      </trkpt>
      <trkpt lat="45.62901" lon="5.93972">
        <ele>421.39999389648</ele>
        <time>2012-05-05T07:22:35Z</time>
      </trkpt>
      <trkpt lat="45.62904" lon="5.93974">
        <ele>422.39999389648</ele>
        <time>2012-05-05T07:22:38Z</time>
      </trkpt>
      <trkpt lat="45.62905" lon="5.93978">
        <ele>424.20001220703</ele>
        <time>2012-05-05T07:22:42Z</time>
      </trkpt>
      <trkpt lat="45.62906" lon="5.93979">
        <ele>424.39999389648</ele>
        <time>2012-05-05T07:22:46Z</time>
      </trkpt>
      <trkpt lat="45.62908" lon="5.93982">
        <ele>426</ele>
        <time>2012-05-05T07:22:50Z</time>
      </trkpt>
      <trkpt lat="45.62909" lon="5.93983">
        <ele>426.39999389648</ele>
        <time>2012-05-05T07:22:53Z</time>
      </trkpt>
      <trkpt lat="45.62916" lon="5.93985">
        <ele>426.79998779297</ele>
        <time>2012-05-05T07:22:59Z</time>
      </trkpt>
      <trkpt lat="45.62915" lon="5.93985">
        <ele>426.79998779297</ele>
        <time>2012-05-05T07:23:00Z</time>
      </trkpt>
      <trkpt lat="45.62924" lon="5.93986">
        <ele>426.79998779297</ele>
        <time>2012-05-05T07:23:07Z</time>
      </trkpt>
      <trkpt lat="45.62925" lon="5.93987">
        <ele>427</ele>
        <time>2012-05-05T07:23:09Z</time>
      </trkpt>
      <trkpt lat="45.62929" lon="5.93987">
        <ele>426.60000610352</ele>
        <time>2012-05-05T07:23:18Z</time>
      </trkpt>
      <trkpt lat="45.6293" lon="5.93987">
        <ele>426.79998779297</ele>
        <time>2012-05-05T07:23:20Z</time>
      </trkpt>
      <trkpt lat="45.62931" lon="5.9399">
        <ele>427.79998779297</ele>
        <time>2012-05-05T07:23:25Z</time>
      </trkpt>
      <trkpt lat="45.62932" lon="5.93992">
        <ele>428.79998779297</ele>
        <time>2012-05-05T07:23:30Z</time>
      </trkpt>
      <trkpt lat="45.62934" lon="5.93994">
        <ele>429.79998779297</ele>
        <time>2012-05-05T07:23:34Z</time>
      </trkpt>
      <trkpt lat="45.62935" lon="5.93996">
        <ele>430.39999389648</ele>
        <time>2012-05-05T07:23:36Z</time>
      </trkpt>
      <trkpt lat="45.62936" lon="5.93999">
        <ele>431.60000610352</ele>
        <time>2012-05-05T07:23:40Z</time>
      </trkpt>
      <trkpt lat="45.62937" lon="5.94001">
        <ele>432.39999389648</ele>
        <time>2012-05-05T07:23:42Z</time>
      </trkpt>
      <trkpt lat="45.62939" lon="5.94004">
        <ele>433.79998779297</ele>
        <time>2012-05-05T07:23:49Z</time>
      </trkpt>
      <trkpt lat="45.62939" lon="5.94006">
        <ele>434.39999389648</ele>
        <time>2012-05-05T07:23:50Z</time>
      </trkpt>
      <trkpt lat="45.62941" lon="5.94009">
        <ele>435.60000610352</ele>
        <time>2012-05-05T07:23:55Z</time>
      </trkpt>
      <trkpt lat="45.62942" lon="5.94011">
        <ele>436.39999389648</ele>
        <time>2012-05-05T07:23:59Z</time>
      </trkpt>
      <trkpt lat="45.62944" lon="5.94014">
        <ele>437.39999389648</ele>
        <time>2012-05-05T07:24:03Z</time>
      </trkpt>
      <trkpt lat="45.62945" lon="5.94015">
        <ele>437.79998779297</ele>
        <time>2012-05-05T07:24:05Z</time>
      </trkpt>
      <trkpt lat="45.62946" lon="5.94017">
        <ele>438.60000610352</ele>
        <time>2012-05-05T07:24:09Z</time>
      </trkpt>
      <trkpt lat="45.62947" lon="5.94019">
        <ele>439.39999389648</ele>
        <time>2012-05-05T07:24:11Z</time>
      </trkpt>
      <trkpt lat="45.6295" lon="5.94023">
        <ele>441</ele>
        <time>2012-05-05T07:24:17Z</time>
      </trkpt>
      <trkpt lat="45.62951" lon="5.94024">
        <ele>441.20001220703</ele>
        <time>2012-05-05T07:24:18Z</time>
      </trkpt>
      <trkpt lat="45.62954" lon="5.94027">
        <ele>442.39999389648</ele>
        <time>2012-05-05T07:24:23Z</time>
      </trkpt>
      <trkpt lat="45.62957" lon="5.9403">
        <ele>442.79998779297</ele>
        <time>2012-05-05T07:24:27Z</time>
      </trkpt>
      <trkpt lat="45.6296" lon="5.94036">
        <ele>445.20001220703</ele>
        <time>2012-05-05T07:24:34Z</time>
      </trkpt>
      <trkpt lat="45.6296" lon="5.94037">
        <ele>445.39999389648</ele>
        <time>2012-05-05T07:24:36Z</time>
      </trkpt>
      <trkpt lat="45.62966" lon="5.94041">
        <ele>446.39999389648</ele>
        <time>2012-05-05T07:24:41Z</time>
      </trkpt>
      <trkpt lat="45.62978" lon="5.94048">
        <ele>447.20001220703</ele>
        <time>2012-05-05T07:24:45Z</time>
      </trkpt>
      <trkpt lat="45.62997" lon="5.94054">
        <ele>446.79998779297</ele>
        <time>2012-05-05T07:24:52Z</time>
      </trkpt>
      <trkpt lat="45.63" lon="5.94056">
        <ele>447</ele>
        <time>2012-05-05T07:24:53Z</time>
      </trkpt>
      <trkpt lat="45.63011" lon="5.94063">
        <ele>448.20001220703</ele>
        <time>2012-05-05T07:24:57Z</time>
      </trkpt>
      <trkpt lat="45.63016" lon="5.94066">
        <ele>448.79998779297</ele>
        <time>2012-05-05T07:24:59Z</time>
      </trkpt>
      <trkpt lat="45.6303" lon="5.94074">
        <ele>450.20001220703</ele>
        <time>2012-05-05T07:25:05Z</time>
      </trkpt>
      <trkpt lat="45.63041" lon="5.94078">
        <ele>450.20001220703</ele>
        <time>2012-05-05T07:25:09Z</time>
      </trkpt>
      <trkpt lat="45.63055" lon="5.94083">
        <ele>450.20001220703</ele>
        <time>2012-05-05T07:25:15Z</time>
      </trkpt>
      <trkpt lat="45.63066" lon="5.94089">
        <ele>450.79998779297</ele>
        <time>2012-05-05T07:25:20Z</time>
      </trkpt>
      <trkpt lat="45.63086" lon="5.94092">
        <ele>449.60000610352</ele>
        <time>2012-05-05T07:25:29Z</time>
      </trkpt>
      <trkpt lat="45.63089" lon="5.94091">
        <ele>449.39999389648</ele>
        <time>2012-05-05T07:25:30Z</time>
      </trkpt>
      <trkpt lat="45.63102" lon="5.94092">
        <ele>449.79998779297</ele>
        <time>2012-05-05T07:25:36Z</time>
      </trkpt>
      <trkpt lat="45.63112" lon="5.94091">
        <ele>449.79998779297</ele>
        <time>2012-05-05T07:25:40Z</time>
      </trkpt>
      <trkpt lat="45.63126" lon="5.94091">
        <ele>450.20001220703</ele>
        <time>2012-05-05T07:25:46Z</time>
      </trkpt>
      <trkpt lat="45.63131" lon="5.94092">
        <ele>450.60000610352</ele>
        <time>2012-05-05T07:25:48Z</time>
      </trkpt>
      <trkpt lat="45.63154" lon="5.94098">
        <ele>453</ele>
        <time>2012-05-05T07:25:57Z</time>
      </trkpt>
      <trkpt lat="45.63166" lon="5.94104">
        <ele>454.79998779297</ele>
        <time>2012-05-05T07:26:02Z</time>
      </trkpt>
      <trkpt lat="45.63175" lon="5.94106">
        <ele>455.79998779297</ele>
        <time>2012-05-05T07:26:06Z</time>
      </trkpt>
      <trkpt lat="45.63177" lon="5.94107">
        <ele>456.20001220703</ele>
        <time>2012-05-05T07:26:07Z</time>
      </trkpt>
      <trkpt lat="45.63192" lon="5.94112">
        <ele>457.79998779297</ele>
        <time>2012-05-05T07:26:13Z</time>
      </trkpt>
      <trkpt lat="45.632" lon="5.94113">
        <ele>458.39999389648</ele>
        <time>2012-05-05T07:26:16Z</time>
      </trkpt>
      <trkpt lat="45.6321" lon="5.94114">
        <ele>458.79998779297</ele>
        <time>2012-05-05T07:26:20Z</time>
      </trkpt>
      <trkpt lat="45.63219" lon="5.94115">
        <ele>459.39999389648</ele>
        <time>2012-05-05T07:26:24Z</time>
      </trkpt>
      <trkpt lat="45.63246" lon="5.94119">
        <ele>460.60000610352</ele>
        <time>2012-05-05T07:26:33Z</time>
      </trkpt>
      <trkpt lat="45.63255" lon="5.94113">
        <ele>459.20001220703</ele>
        <time>2012-05-05T07:26:37Z</time>
      </trkpt>
      <trkpt lat="45.63262" lon="5.94108">
        <ele>457.60000610352</ele>
        <time>2012-05-05T07:26:41Z</time>
      </trkpt>
      <trkpt lat="45.63268" lon="5.94104">
        <ele>456.60000610352</ele>
        <time>2012-05-05T07:26:44Z</time>
      </trkpt>
      <trkpt lat="45.63273" lon="5.94103">
        <ele>456</ele>
        <time>2012-05-05T07:26:46Z</time>
      </trkpt>
      <trkpt lat="45.63277" lon="5.94103">
        <ele>455.79998779297</ele>
        <time>2012-05-05T07:26:48Z</time>
      </trkpt>
      <trkpt lat="45.63278" lon="5.9411">
        <ele>457.39999389648</ele>
        <time>2012-05-05T07:26:52Z</time>
      </trkpt>
      <trkpt lat="45.63276" lon="5.94112">
        <ele>457.79998779297</ele>
        <time>2012-05-05T07:26:53Z</time>
      </trkpt>
      <trkpt lat="45.63271" lon="5.94123">
        <ele>460.60000610352</ele>
        <time>2012-05-05T07:26:58Z</time>
      </trkpt>
      <trkpt lat="45.6327" lon="5.94129">
        <ele>462</ele>
        <time>2012-05-05T07:27:00Z</time>
      </trkpt>
      <trkpt lat="45.63269" lon="5.94139">
        <ele>464.20001220703</ele>
        <time>2012-05-05T07:27:04Z</time>
      </trkpt>
      <trkpt lat="45.63266" lon="5.94148">
        <ele>466.20001220703</ele>
        <time>2012-05-05T07:27:07Z</time>
      </trkpt>
      <trkpt lat="45.6326" lon="5.94155">
        <ele>468.20001220703</ele>
        <time>2012-05-05T07:27:12Z</time>
      </trkpt>
      <trkpt lat="45.63251" lon="5.94158">
        <ele>469</ele>
        <time>2012-05-05T07:27:16Z</time>
      </trkpt>
      <trkpt lat="45.63242" lon="5.94158">
        <ele>469.39999389648</ele>
        <time>2012-05-05T07:27:23Z</time>
      </trkpt>
      <trkpt lat="45.63241" lon="5.94159">
        <ele>469.39999389648</ele>
        <time>2012-05-05T07:27:25Z</time>
      </trkpt>
      <trkpt lat="45.63235" lon="5.94162">
        <ele>470.39999389648</ele>
        <time>2012-05-05T07:27:30Z</time>
      </trkpt>
      <trkpt lat="45.63234" lon="5.94164">
        <ele>470.79998779297</ele>
        <time>2012-05-05T07:27:31Z</time>
      </trkpt>
      <trkpt lat="45.63235" lon="5.94171">
        <ele>473</ele>
        <time>2012-05-05T07:27:36Z</time>
      </trkpt>
      <trkpt lat="45.63236" lon="5.94173">
        <ele>473.39999389648</ele>
        <time>2012-05-05T07:27:37Z</time>
      </trkpt>
      <trkpt lat="45.6324" lon="5.94179">
        <ele>475.20001220703</ele>
        <time>2012-05-05T07:27:40Z</time>
      </trkpt>
      <trkpt lat="45.63242" lon="5.94182">
        <ele>476</ele>
        <time>2012-05-05T07:27:41Z</time>
      </trkpt>
      <trkpt lat="45.63249" lon="5.94188">
        <ele>478</ele>
        <time>2012-05-05T07:27:45Z</time>
      </trkpt>
      <trkpt lat="45.63258" lon="5.94193">
        <ele>479</ele>
        <time>2012-05-05T07:27:50Z</time>
      </trkpt>
      <trkpt lat="45.63267" lon="5.94197">
        <ele>479.79998779297</ele>
        <time>2012-05-05T07:27:55Z</time>
      </trkpt>
      <trkpt lat="45.63277" lon="5.94202">
        <ele>480.79998779297</ele>
        <time>2012-05-05T07:27:59Z</time>
      </trkpt>
      <trkpt lat="45.63288" lon="5.94207">
        <ele>481.60000610352</ele>
        <time>2012-05-05T07:28:05Z</time>
      </trkpt>
      <trkpt lat="45.63293" lon="5.94211">
        <ele>482.39999389648</ele>
        <time>2012-05-05T07:28:08Z</time>
      </trkpt>
      <trkpt lat="45.63303" lon="5.94216">
        <ele>483.39999389648</ele>
        <time>2012-05-05T07:28:14Z</time>
      </trkpt>
      <trkpt lat="45.63307" lon="5.94219">
        <ele>484</ele>
        <time>2012-05-05T07:28:16Z</time>
      </trkpt>
      <trkpt lat="45.63316" lon="5.94223">
        <ele>484.60000610352</ele>
        <time>2012-05-05T07:28:21Z</time>
      </trkpt>
      <trkpt lat="45.6332" lon="5.94224">
        <ele>484.60000610352</ele>
        <time>2012-05-05T07:28:23Z</time>
      </trkpt>
      <trkpt lat="45.63327" lon="5.94227">
        <ele>484.79998779297</ele>
        <time>2012-05-05T07:28:27Z</time>
      </trkpt>
      <trkpt lat="45.63332" lon="5.94229">
        <ele>485</ele>
        <time>2012-05-05T07:28:30Z</time>
      </trkpt>
      <trkpt lat="45.63337" lon="5.94231">
        <ele>485.20001220703</ele>
        <time>2012-05-05T07:28:33Z</time>
      </trkpt>
      <trkpt lat="45.63343" lon="5.94234">
        <ele>485.79998779297</ele>
        <time>2012-05-05T07:28:36Z</time>
      </trkpt>
      <trkpt lat="45.63355" lon="5.94245">
        <ele>488.20001220703</ele>
        <time>2012-05-05T07:28:43Z</time>
      </trkpt>
      <trkpt lat="45.63362" lon="5.94254">
        <ele>490</ele>
        <time>2012-05-05T07:28:47Z</time>
      </trkpt>
      <trkpt lat="45.63367" lon="5.9427">
        <ele>494.39999389648</ele>
        <time>2012-05-05T07:28:53Z</time>
      </trkpt>
      <trkpt lat="45.63368" lon="5.94273">
        <ele>495.20001220703</ele>
        <time>2012-05-05T07:28:54Z</time>
      </trkpt>
      <trkpt lat="45.63368" lon="5.94286">
        <ele>499</ele>
        <time>2012-05-05T07:28:59Z</time>
      </trkpt>
      <trkpt lat="45.63368" lon="5.94289">
        <ele>499.79998779297</ele>
        <time>2012-05-05T07:29:00Z</time>
      </trkpt>
      <trkpt lat="45.63372" lon="5.94305">
        <ele>504</ele>
        <time>2012-05-05T07:29:06Z</time>
      </trkpt>
      <trkpt lat="45.63374" lon="5.94308">
        <ele>504.60000610352</ele>
        <time>2012-05-05T07:29:07Z</time>
      </trkpt>
      <trkpt lat="45.63378" lon="5.94316">
        <ele>506.20001220703</ele>
        <time>2012-05-05T07:29:10Z</time>
      </trkpt>
      <trkpt lat="45.63381" lon="5.94321">
        <ele>507</ele>
        <time>2012-05-05T07:29:12Z</time>
      </trkpt>
      <trkpt lat="45.6339" lon="5.94334">
        <ele>509.39999389648</ele>
        <time>2012-05-05T07:29:18Z</time>
      </trkpt>
      <trkpt lat="45.63393" lon="5.94339">
        <ele>510.79998779297</ele>
        <time>2012-05-05T07:29:20Z</time>
      </trkpt>
      <trkpt lat="45.634" lon="5.94347">
        <ele>513.59997558594</ele>
        <time>2012-05-05T07:29:24Z</time>
      </trkpt>
      <trkpt lat="45.63411" lon="5.94356">
        <ele>515.79998779297</ele>
        <time>2012-05-05T07:29:30Z</time>
      </trkpt>
      <trkpt lat="45.63429" lon="5.94363">
        <ele>517</ele>
        <time>2012-05-05T07:29:40Z</time>
      </trkpt>
      <trkpt lat="45.63432" lon="5.94364">
        <ele>517</ele>
        <time>2012-05-05T07:29:42Z</time>
      </trkpt>
      <trkpt lat="45.63437" lon="5.94363">
        <ele>516.20001220703</ele>
        <time>2012-05-05T07:29:46Z</time>
      </trkpt>
      <trkpt lat="45.6344" lon="5.94362">
        <ele>515.40002441406</ele>
        <time>2012-05-05T07:29:49Z</time>
      </trkpt>
      <trkpt lat="45.63445" lon="5.94362">
        <ele>514.79998779297</ele>
        <time>2012-05-05T07:29:52Z</time>
      </trkpt>
      <trkpt lat="45.63446" lon="5.94362">
        <ele>514.79998779297</ele>
        <time>2012-05-05T07:29:53Z</time>
      </trkpt>
      <trkpt lat="45.63451" lon="5.94362">
        <ele>514.40002441406</ele>
        <time>2012-05-05T07:29:57Z</time>
      </trkpt>
      <trkpt lat="45.63453" lon="5.94362">
        <ele>514.20001220703</ele>
        <time>2012-05-05T07:29:58Z</time>
      </trkpt>
      <trkpt lat="45.63462" lon="5.94363">
        <ele>514.20001220703</ele>
        <time>2012-05-05T07:30:02Z</time>
      </trkpt>
      <trkpt lat="45.63467" lon="5.94366">
        <ele>514.59997558594</ele>
        <time>2012-05-05T07:30:05Z</time>
      </trkpt>
      <trkpt lat="45.63474" lon="5.94369">
        <ele>515.20001220703</ele>
        <time>2012-05-05T07:30:11Z</time>
      </trkpt>
      <trkpt lat="45.63476" lon="5.94369">
        <ele>515.20001220703</ele>
        <time>2012-05-05T07:30:13Z</time>
      </trkpt>
      <trkpt lat="45.63481" lon="5.94371">
        <ele>515.59997558594</ele>
        <time>2012-05-05T07:30:17Z</time>
      </trkpt>
      <trkpt lat="45.63483" lon="5.94372">
        <ele>515.59997558594</ele>
        <time>2012-05-05T07:30:19Z</time>
      </trkpt>
      <trkpt lat="45.63489" lon="5.94373">
        <ele>515.20001220703</ele>
        <time>2012-05-05T07:30:23Z</time>
      </trkpt>
      <trkpt lat="45.63492" lon="5.94374">
        <ele>515.59997558594</ele>
        <time>2012-05-05T07:30:25Z</time>
      </trkpt>
      <trkpt lat="45.63497" lon="5.94378">
        <ele>516.40002441406</ele>
        <time>2012-05-05T07:30:28Z</time>
      </trkpt>
      <trkpt lat="45.63506" lon="5.94388">
        <ele>519</ele>
        <time>2012-05-05T07:30:34Z</time>
      </trkpt>
      <trkpt lat="45.63511" lon="5.94397">
        <ele>521.20001220703</ele>
        <time>2012-05-05T07:30:38Z</time>
      </trkpt>
      <trkpt lat="45.63515" lon="5.94404">
        <ele>523</ele>
        <time>2012-05-05T07:30:41Z</time>
      </trkpt>
      <trkpt lat="45.63521" lon="5.94412">
        <ele>524.79998779297</ele>
        <time>2012-05-05T07:30:45Z</time>
      </trkpt>
      <trkpt lat="45.63522" lon="5.94414">
        <ele>525</ele>
        <time>2012-05-05T07:30:46Z</time>
      </trkpt>
      <trkpt lat="45.63528" lon="5.94417">
        <ele>525</ele>
        <time>2012-05-05T07:30:49Z</time>
      </trkpt>
      <trkpt lat="45.63533" lon="5.94418">
        <ele>525</ele>
        <time>2012-05-05T07:30:51Z</time>
      </trkpt>
      <trkpt lat="45.63539" lon="5.94419">
        <ele>524</ele>
        <time>2012-05-05T07:30:54Z</time>
      </trkpt>
      <trkpt lat="45.63546" lon="5.9442">
        <ele>523.59997558594</ele>
        <time>2012-05-05T07:30:57Z</time>
      </trkpt>
      <trkpt lat="45.63557" lon="5.94427">
        <ele>525.20001220703</ele>
        <time>2012-05-05T07:31:02Z</time>
      </trkpt>
      <trkpt lat="45.6356" lon="5.94429">
        <ele>525.20001220703</ele>
        <time>2012-05-05T07:31:04Z</time>
      </trkpt>
      <trkpt lat="45.6357" lon="5.94438">
        <ele>527.79998779297</ele>
        <time>2012-05-05T07:31:09Z</time>
      </trkpt>
      <trkpt lat="45.63575" lon="5.94442">
        <ele>529.20001220703</ele>
        <time>2012-05-05T07:31:11Z</time>
      </trkpt>
      <trkpt lat="45.636" lon="5.94455">
        <ele>528.20001220703</ele>
        <time>2012-05-05T07:31:22Z</time>
      </trkpt>
      <trkpt lat="45.63618" lon="5.94458">
        <ele>524.20001220703</ele>
        <time>2012-05-05T07:31:28Z</time>
      </trkpt>
      <trkpt lat="45.63638" lon="5.9447">
        <ele>522.79998779297</ele>
        <time>2012-05-05T07:31:37Z</time>
      </trkpt>
      <trkpt lat="45.63649" lon="5.94479">
        <ele>522.79998779297</ele>
        <time>2012-05-05T07:31:42Z</time>
      </trkpt>
      <trkpt lat="45.63657" lon="5.94484">
        <ele>522.20001220703</ele>
        <time>2012-05-05T07:31:46Z</time>
      </trkpt>
      <trkpt lat="45.6366" lon="5.94487">
        <ele>522.40002441406</ele>
        <time>2012-05-05T07:31:48Z</time>
      </trkpt>
      <trkpt lat="45.6367" lon="5.945">
        <ele>524</ele>
        <time>2012-05-05T07:31:55Z</time>
      </trkpt>
      <trkpt lat="45.63672" lon="5.94502">
        <ele>524.59997558594</ele>
        <time>2012-05-05T07:31:56Z</time>
      </trkpt>
      <trkpt lat="45.63677" lon="5.94509">
        <ele>527.20001220703</ele>
        <time>2012-05-05T07:32:00Z</time>
      </trkpt>
      <trkpt lat="45.63682" lon="5.94513">
        <ele>528</ele>
        <time>2012-05-05T07:32:02Z</time>
      </trkpt>
      <trkpt lat="45.63689" lon="5.94519">
        <ele>529.40002441406</ele>
        <time>2012-05-05T07:32:06Z</time>
      </trkpt>
      <trkpt lat="45.63701" lon="5.94531">
        <ele>532.20001220703</ele>
        <time>2012-05-05T07:32:11Z</time>
      </trkpt>
      <trkpt lat="45.63718" lon="5.94549">
        <ele>536</ele>
        <time>2012-05-05T07:32:20Z</time>
      </trkpt>
      <trkpt lat="45.6372" lon="5.94551">
        <ele>535.79998779297</ele>
        <time>2012-05-05T07:32:21Z</time>
      </trkpt>
      <trkpt lat="45.63742" lon="5.94556">
        <ele>531.20001220703</ele>
        <time>2012-05-05T07:32:30Z</time>
      </trkpt>
      <trkpt lat="45.63753" lon="5.94559">
        <ele>529.59997558594</ele>
        <time>2012-05-05T07:32:35Z</time>
      </trkpt>
      <trkpt lat="45.6376" lon="5.94567">
        <ele>531.79998779297</ele>
        <time>2012-05-05T07:32:40Z</time>
      </trkpt>
      <trkpt lat="45.63763" lon="5.94572">
        <ele>533.59997558594</ele>
        <time>2012-05-05T07:32:42Z</time>
      </trkpt>
      <trkpt lat="45.63765" lon="5.94576">
        <ele>534.79998779297</ele>
        <time>2012-05-05T07:32:44Z</time>
      </trkpt>
      <trkpt lat="45.63772" lon="5.94584">
        <ele>537.40002441406</ele>
        <time>2012-05-05T07:32:49Z</time>
      </trkpt>
      <trkpt lat="45.63774" lon="5.94586">
        <ele>538</ele>
        <time>2012-05-05T07:32:52Z</time>
      </trkpt>
      <trkpt lat="45.63777" lon="5.94588">
        <ele>539.40002441406</ele>
        <time>2012-05-05T07:32:54Z</time>
      </trkpt>
      <trkpt lat="45.63783" lon="5.94591">
        <ele>539.79998779297</ele>
        <time>2012-05-05T07:32:58Z</time>
      </trkpt>
      <trkpt lat="45.63784" lon="5.9459">
        <ele>539.59997558594</ele>
        <time>2012-05-05T07:32:59Z</time>
      </trkpt>
      <trkpt lat="45.6379" lon="5.94597">
        <ele>542.59997558594</ele>
        <time>2012-05-05T07:33:03Z</time>
      </trkpt>
      <trkpt lat="45.63795" lon="5.94603">
        <ele>545.20001220703</ele>
        <time>2012-05-05T07:33:06Z</time>
      </trkpt>
      <trkpt lat="45.63798" lon="5.94606">
        <ele>546.79998779297</ele>
        <time>2012-05-05T07:33:08Z</time>
      </trkpt>
      <trkpt lat="45.63806" lon="5.94616">
        <ele>550.59997558594</ele>
        <time>2012-05-05T07:33:13Z</time>
      </trkpt>
      <trkpt lat="45.63813" lon="5.94624">
        <ele>553.59997558594</ele>
        <time>2012-05-05T07:33:17Z</time>
      </trkpt>
      <trkpt lat="45.63814" lon="5.94625">
        <ele>554.40002441406</ele>
        <time>2012-05-05T07:33:18Z</time>
      </trkpt>
      <trkpt lat="45.63825" lon="5.94634">
        <ele>556.79998779297</ele>
        <time>2012-05-05T07:33:24Z</time>
      </trkpt>
      <trkpt lat="45.63833" lon="5.94639">
        <ele>557.20001220703</ele>
        <time>2012-05-05T07:33:28Z</time>
      </trkpt>
      <trkpt lat="45.63842" lon="5.94641">
        <ele>557.79998779297</ele>
        <time>2012-05-05T07:33:32Z</time>
      </trkpt>
      <trkpt lat="45.63845" lon="5.9464">
        <ele>557.40002441406</ele>
        <time>2012-05-05T07:33:34Z</time>
      </trkpt>
      <trkpt lat="45.63855" lon="5.94639">
        <ele>556</ele>
        <time>2012-05-05T07:33:39Z</time>
      </trkpt>
      <trkpt lat="45.63861" lon="5.94636">
        <ele>554.20001220703</ele>
        <time>2012-05-05T07:33:42Z</time>
      </trkpt>
      <trkpt lat="45.6387" lon="5.94635">
        <ele>553.40002441406</ele>
        <time>2012-05-05T07:33:46Z</time>
      </trkpt>
      <trkpt lat="45.63875" lon="5.94636">
        <ele>553.79998779297</ele>
        <time>2012-05-05T07:33:48Z</time>
      </trkpt>
      <trkpt lat="45.63891" lon="5.94645">
        <ele>556.20001220703</ele>
        <time>2012-05-05T07:33:55Z</time>
      </trkpt>
      <trkpt lat="45.63903" lon="5.94646">
        <ele>555.79998779297</ele>
        <time>2012-05-05T07:34:00Z</time>
      </trkpt>
      <trkpt lat="45.63915" lon="5.94648">
        <ele>555.79998779297</ele>
        <time>2012-05-05T07:34:05Z</time>
      </trkpt>
      <trkpt lat="45.63923" lon="5.94656">
        <ele>557.20001220703</ele>
        <time>2012-05-05T07:34:10Z</time>
      </trkpt>
      <trkpt lat="45.63934" lon="5.94667">
        <ele>558.40002441406</ele>
        <time>2012-05-05T07:34:16Z</time>
      </trkpt>
      <trkpt lat="45.63935" lon="5.94669">
        <ele>559</ele>
        <time>2012-05-05T07:34:17Z</time>
      </trkpt>
      <trkpt lat="45.63938" lon="5.94677">
        <ele>561</ele>
        <time>2012-05-05T07:34:24Z</time>
      </trkpt>
      <trkpt lat="45.63937" lon="5.94674">
        <ele>560.40002441406</ele>
        <time>2012-05-05T07:34:28Z</time>
      </trkpt>
      <trkpt lat="45.63935" lon="5.94675">
        <ele>561</ele>
        <time>2012-05-05T07:34:30Z</time>
      </trkpt>
      <trkpt lat="45.63934" lon="5.94674">
        <ele>561</ele>
        <time>2012-05-05T07:34:31Z</time>
      </trkpt>
      <trkpt lat="45.63931" lon="5.94674">
        <ele>561.59997558594</ele>
        <time>2012-05-05T07:34:36Z</time>
      </trkpt>
      <trkpt lat="45.63929" lon="5.94675">
        <ele>562.40002441406</ele>
        <time>2012-05-05T07:34:40Z</time>
      </trkpt>
      <trkpt lat="45.63925" lon="5.94677">
        <ele>564</ele>
        <time>2012-05-05T07:34:47Z</time>
      </trkpt>
      <trkpt lat="45.63923" lon="5.94679">
        <ele>565.40002441406</ele>
        <time>2012-05-05T07:34:52Z</time>
      </trkpt>
      <trkpt lat="45.63922" lon="5.9468">
        <ele>565.79998779297</ele>
        <time>2012-05-05T07:34:55Z</time>
      </trkpt>
      <trkpt lat="45.63921" lon="5.94681">
        <ele>566.59997558594</ele>
        <time>2012-05-05T07:34:58Z</time>
      </trkpt>
      <trkpt lat="45.63917" lon="5.94684">
        <ele>568.59997558594</ele>
        <time>2012-05-05T07:35:04Z</time>
      </trkpt>
      <trkpt lat="45.63913" lon="5.94685">
        <ele>569.59997558594</ele>
        <time>2012-05-05T07:35:07Z</time>
      </trkpt>
      <trkpt lat="45.63907" lon="5.94686">
        <ele>571</ele>
        <time>2012-05-05T07:35:14Z</time>
      </trkpt>
      <trkpt lat="45.63906" lon="5.94687">
        <ele>571.59997558594</ele>
        <time>2012-05-05T07:35:16Z</time>
      </trkpt>
      <trkpt lat="45.63905" lon="5.94689">
        <ele>572.40002441406</ele>
        <time>2012-05-05T07:35:20Z</time>
      </trkpt>
      <trkpt lat="45.63903" lon="5.9469">
        <ele>573.40002441406</ele>
        <time>2012-05-05T07:35:22Z</time>
      </trkpt>
      <trkpt lat="45.63901" lon="5.94693">
        <ele>574.79998779297</ele>
        <time>2012-05-05T07:35:26Z</time>
      </trkpt>
      <trkpt lat="45.639" lon="5.94695">
        <ele>576</ele>
        <time>2012-05-05T07:35:28Z</time>
      </trkpt>
      <trkpt lat="45.63897" lon="5.94697">
        <ele>577.59997558594</ele>
        <time>2012-05-05T07:35:32Z</time>
      </trkpt>
      <trkpt lat="45.63895" lon="5.94699">
        <ele>578.40002441406</ele>
        <time>2012-05-05T07:35:37Z</time>
      </trkpt>
      <trkpt lat="45.63893" lon="5.94701">
        <ele>580</ele>
        <time>2012-05-05T07:35:42Z</time>
      </trkpt>
      <trkpt lat="45.6389" lon="5.94705">
        <ele>582.20001220703</ele>
        <time>2012-05-05T07:35:47Z</time>
      </trkpt>
      <trkpt lat="45.63887" lon="5.94708">
        <ele>584</ele>
        <time>2012-05-05T07:35:52Z</time>
      </trkpt>
      <trkpt lat="45.63886" lon="5.94709">
        <ele>584.40002441406</ele>
        <time>2012-05-05T07:35:54Z</time>
      </trkpt>
      <trkpt lat="45.63885" lon="5.94711">
        <ele>585.79998779297</ele>
        <time>2012-05-05T07:36:00Z</time>
      </trkpt>
      <trkpt lat="45.63884" lon="5.94711">
        <ele>586</ele>
        <time>2012-05-05T07:36:02Z</time>
      </trkpt>
      <trkpt lat="45.63881" lon="5.94714">
        <ele>588</ele>
        <time>2012-05-05T07:36:08Z</time>
      </trkpt>
      <trkpt lat="45.63879" lon="5.94716">
        <ele>589.59997558594</ele>
        <time>2012-05-05T07:36:11Z</time>
      </trkpt>
      <trkpt lat="45.63877" lon="5.94719">
        <ele>591.40002441406</ele>
        <time>2012-05-05T07:36:15Z</time>
      </trkpt>
      <trkpt lat="45.63876" lon="5.94722">
        <ele>593</ele>
        <time>2012-05-05T07:36:18Z</time>
      </trkpt>
      <trkpt lat="45.63876" lon="5.94724">
        <ele>594</ele>
        <time>2012-05-05T07:36:24Z</time>
      </trkpt>
      <trkpt lat="45.63875" lon="5.94729">
        <ele>596.40002441406</ele>
        <time>2012-05-05T07:36:28Z</time>
      </trkpt>
      <trkpt lat="45.63874" lon="5.94731">
        <ele>597.79998779297</ele>
        <time>2012-05-05T07:36:31Z</time>
      </trkpt>
      <trkpt lat="45.63874" lon="5.94735">
        <ele>599.59997558594</ele>
        <time>2012-05-05T07:36:35Z</time>
      </trkpt>
      <trkpt lat="45.63874" lon="5.94737">
        <ele>600.59997558594</ele>
        <time>2012-05-05T07:36:37Z</time>
      </trkpt>
      <trkpt lat="45.63878" lon="5.94741">
        <ele>601.59997558594</ele>
        <time>2012-05-05T07:36:40Z</time>
      </trkpt>
      <trkpt lat="45.6388" lon="5.94743">
        <ele>601.79998779297</ele>
        <time>2012-05-05T07:36:42Z</time>
      </trkpt>
      <trkpt lat="45.63884" lon="5.94743">
        <ele>600.20001220703</ele>
        <time>2012-05-05T07:36:46Z</time>
      </trkpt>
      <trkpt lat="45.63891" lon="5.94745">
        <ele>599.59997558594</ele>
        <time>2012-05-05T07:36:52Z</time>
      </trkpt>
      <trkpt lat="45.63894" lon="5.94746">
        <ele>599.20001220703</ele>
        <time>2012-05-05T07:36:54Z</time>
      </trkpt>
      <trkpt lat="45.63896" lon="5.94749">
        <ele>599.59997558594</ele>
        <time>2012-05-05T07:36:57Z</time>
      </trkpt>
      <trkpt lat="45.63898" lon="5.94752">
        <ele>600.79998779297</ele>
        <time>2012-05-05T07:37:00Z</time>
      </trkpt>
      <trkpt lat="45.63899" lon="5.94754">
        <ele>601.20001220703</ele>
        <time>2012-05-05T07:37:03Z</time>
      </trkpt>
      <trkpt lat="45.63899" lon="5.94756">
        <ele>602.20001220703</ele>
        <time>2012-05-05T07:37:06Z</time>
      </trkpt>
      <trkpt lat="45.63898" lon="5.94759">
        <ele>604.20001220703</ele>
        <time>2012-05-05T07:37:12Z</time>
      </trkpt>
      <trkpt lat="45.63898" lon="5.94761">
        <ele>605</ele>
        <time>2012-05-05T07:37:13Z</time>
      </trkpt>
      <trkpt lat="45.63897" lon="5.94767">
        <ele>608.20001220703</ele>
        <time>2012-05-05T07:37:24Z</time>
      </trkpt>
      <trkpt lat="45.63897" lon="5.94767">
        <ele>608</ele>
        <time>2012-05-05T07:37:25Z</time>
      </trkpt>
      <trkpt lat="45.63897" lon="5.94772">
        <ele>610.59997558594</ele>
        <time>2012-05-05T07:37:31Z</time>
      </trkpt>
      <trkpt lat="45.63896" lon="5.94772">
        <ele>611</ele>
        <time>2012-05-05T07:37:32Z</time>
      </trkpt>
      <trkpt lat="45.63895" lon="5.94771">
        <ele>611</ele>
        <time>2012-05-05T07:37:37Z</time>
      </trkpt>
      <trkpt lat="45.63894" lon="5.94771">
        <ele>611</ele>
        <time>2012-05-05T07:37:38Z</time>
      </trkpt>
      <trkpt lat="45.63891" lon="5.94771">
        <ele>611.79998779297</ele>
        <time>2012-05-05T07:37:43Z</time>
      </trkpt>
      <trkpt lat="45.63889" lon="5.94771">
        <ele>612.79998779297</ele>
        <time>2012-05-05T07:37:47Z</time>
      </trkpt>
      <trkpt lat="45.63887" lon="5.94772">
        <ele>613.79998779297</ele>
        <time>2012-05-05T07:37:52Z</time>
      </trkpt>
      <trkpt lat="45.63886" lon="5.94772">
        <ele>614.20001220703</ele>
        <time>2012-05-05T07:37:53Z</time>
      </trkpt>
      <trkpt lat="45.63887" lon="5.94777">
        <ele>616</ele>
        <time>2012-05-05T07:37:58Z</time>
      </trkpt>
      <trkpt lat="45.63888" lon="5.94778">
        <ele>616</ele>
        <time>2012-05-05T07:37:59Z</time>
      </trkpt>
      <trkpt lat="45.63894" lon="5.94782">
        <ele>616.20001220703</ele>
        <time>2012-05-05T07:38:07Z</time>
      </trkpt>
      <trkpt lat="45.63895" lon="5.94782">
        <ele>616</ele>
        <time>2012-05-05T07:38:08Z</time>
      </trkpt>
      <trkpt lat="45.63895" lon="5.94785">
        <ele>617.40002441406</ele>
        <time>2012-05-05T07:38:12Z</time>
      </trkpt>
      <trkpt lat="45.63894" lon="5.94784">
        <ele>617.59997558594</ele>
        <time>2012-05-05T07:38:16Z</time>
      </trkpt>
      <trkpt lat="45.63892" lon="5.94782">
        <ele>617.40002441406</ele>
        <time>2012-05-05T07:38:19Z</time>
      </trkpt>
      <trkpt lat="45.63891" lon="5.94783">
        <ele>618.20001220703</ele>
        <time>2012-05-05T07:38:21Z</time>
      </trkpt>
      <trkpt lat="45.63884" lon="5.94783">
        <ele>620.20001220703</ele>
        <time>2012-05-05T07:38:26Z</time>
      </trkpt>
      <trkpt lat="45.63883" lon="5.94784">
        <ele>621</ele>
        <time>2012-05-05T07:38:27Z</time>
      </trkpt>
      <trkpt lat="45.63873" lon="5.94789">
        <ele>626.79998779297</ele>
        <time>2012-05-05T07:38:32Z</time>
      </trkpt>
      <trkpt lat="45.63872" lon="5.94791">
        <ele>627.79998779297</ele>
        <time>2012-05-05T07:38:33Z</time>
      </trkpt>
      <trkpt lat="45.63868" lon="5.94792">
        <ele>629.59997558594</ele>
        <time>2012-05-05T07:38:36Z</time>
      </trkpt>
      <trkpt lat="45.63866" lon="5.94791">
        <ele>629.79998779297</ele>
        <time>2012-05-05T07:38:37Z</time>
      </trkpt>
      <trkpt lat="45.63859" lon="5.94792">
        <ele>632.40002441406</ele>
        <time>2012-05-05T07:38:43Z</time>
      </trkpt>
      <trkpt lat="45.63855" lon="5.9479">
        <ele>633</ele>
        <time>2012-05-05T07:38:46Z</time>
      </trkpt>
      <trkpt lat="45.6385" lon="5.94786">
        <ele>632.20001220703</ele>
        <time>2012-05-05T07:38:50Z</time>
      </trkpt>
      <trkpt lat="45.63849" lon="5.94784">
        <ele>631.40002441406</ele>
        <time>2012-05-05T07:38:51Z</time>
      </trkpt>
      <trkpt lat="45.63847" lon="5.94779">
        <ele>630</ele>
        <time>2012-05-05T07:38:58Z</time>
      </trkpt>
      <trkpt lat="45.63844" lon="5.94777">
        <ele>629.59997558594</ele>
        <time>2012-05-05T07:39:01Z</time>
      </trkpt>
      <trkpt lat="45.63838" lon="5.94773">
        <ele>629.40002441406</ele>
        <time>2012-05-05T07:39:06Z</time>
      </trkpt>
      <trkpt lat="45.63836" lon="5.94772">
        <ele>629.59997558594</ele>
        <time>2012-05-05T07:39:07Z</time>
      </trkpt>
      <trkpt lat="45.63829" lon="5.9477">
        <ele>630.20001220703</ele>
        <time>2012-05-05T07:39:15Z</time>
      </trkpt>
      <trkpt lat="45.63826" lon="5.94768">
        <ele>630.20001220703</ele>
        <time>2012-05-05T07:39:18Z</time>
      </trkpt>
      <trkpt lat="45.63822" lon="5.94763">
        <ele>628.79998779297</ele>
        <time>2012-05-05T07:39:23Z</time>
      </trkpt>
      <trkpt lat="45.6382" lon="5.94763">
        <ele>629.40002441406</ele>
        <time>2012-05-05T07:39:24Z</time>
      </trkpt>
      <trkpt lat="45.63812" lon="5.94763">
        <ele>631.20001220703</ele>
        <time>2012-05-05T07:39:27Z</time>
      </trkpt>
      <trkpt lat="45.63808" lon="5.94762">
        <ele>632</ele>
        <time>2012-05-05T07:39:29Z</time>
      </trkpt>
      <trkpt lat="45.63804" lon="5.94764">
        <ele>634</ele>
        <time>2012-05-05T07:39:33Z</time>
      </trkpt>
      <trkpt lat="45.63803" lon="5.94765">
        <ele>635</ele>
        <time>2012-05-05T07:39:34Z</time>
      </trkpt>
      <trkpt lat="45.63794" lon="5.94772">
        <ele>640.79998779297</ele>
        <time>2012-05-05T07:39:40Z</time>
      </trkpt>
      <trkpt lat="45.6379" lon="5.94774">
        <ele>643</ele>
        <time>2012-05-05T07:39:42Z</time>
      </trkpt>
      <trkpt lat="45.63781" lon="5.94775">
        <ele>646</ele>
        <time>2012-05-05T07:39:49Z</time>
      </trkpt>
      <trkpt lat="45.63779" lon="5.94775">
        <ele>646.40002441406</ele>
        <time>2012-05-05T07:39:50Z</time>
      </trkpt>
      <trkpt lat="45.63773" lon="5.94776">
        <ele>648.59997558594</ele>
        <time>2012-05-05T07:39:57Z</time>
      </trkpt>
      <trkpt lat="45.63771" lon="5.94776">
        <ele>649.20001220703</ele>
        <time>2012-05-05T07:39:59Z</time>
      </trkpt>
      <trkpt lat="45.63765" lon="5.94778">
        <ele>652</ele>
        <time>2012-05-05T07:40:05Z</time>
      </trkpt>
      <trkpt lat="45.63765" lon="5.94778">
        <ele>651.79998779297</ele>
        <time>2012-05-05T07:40:06Z</time>
      </trkpt>
      <trkpt lat="45.63759" lon="5.94778">
        <ele>653.79998779297</ele>
        <time>2012-05-05T07:40:12Z</time>
      </trkpt>
      <trkpt lat="45.63754" lon="5.94777">
        <ele>654.20001220703</ele>
        <time>2012-05-05T07:40:16Z</time>
      </trkpt>
      <trkpt lat="45.63753" lon="5.94775">
        <ele>653.79998779297</ele>
        <time>2012-05-05T07:40:18Z</time>
      </trkpt>
      <trkpt lat="45.6375" lon="5.94775">
        <ele>654.20001220703</ele>
        <time>2012-05-05T07:40:21Z</time>
      </trkpt>
      <trkpt lat="45.63748" lon="5.94774">
        <ele>654.20001220703</ele>
        <time>2012-05-05T07:40:25Z</time>
      </trkpt>
      <trkpt lat="45.63743" lon="5.94773">
        <ele>654.79998779297</ele>
        <time>2012-05-05T07:40:29Z</time>
      </trkpt>
      <trkpt lat="45.6374" lon="5.94774">
        <ele>655.79998779297</ele>
        <time>2012-05-05T07:40:32Z</time>
      </trkpt>
      <trkpt lat="45.63736" lon="5.94776">
        <ele>657.79998779297</ele>
        <time>2012-05-05T07:40:37Z</time>
      </trkpt>
      <trkpt lat="45.63731" lon="5.94778">
        <ele>659.40002441406</ele>
        <time>2012-05-05T07:40:43Z</time>
      </trkpt>
      <trkpt lat="45.6373" lon="5.94779">
        <ele>660.20001220703</ele>
        <time>2012-05-05T07:40:46Z</time>
      </trkpt>
      <trkpt lat="45.63729" lon="5.94781">
        <ele>661.40002441406</ele>
        <time>2012-05-05T07:40:50Z</time>
      </trkpt>
      <trkpt lat="45.63727" lon="5.94782">
        <ele>662.59997558594</ele>
        <time>2012-05-05T07:40:53Z</time>
      </trkpt>
      <trkpt lat="45.63726" lon="5.94785">
        <ele>664.40002441406</ele>
        <time>2012-05-05T07:40:57Z</time>
      </trkpt>
      <trkpt lat="45.63724" lon="5.94785">
        <ele>664.79998779297</ele>
        <time>2012-05-05T07:40:58Z</time>
      </trkpt>
      <trkpt lat="45.63728" lon="5.9479">
        <ele>666.40002441406</ele>
        <time>2012-05-05T07:41:06Z</time>
      </trkpt>
      <trkpt lat="45.63728" lon="5.9479">
        <ele>666.79998779297</ele>
        <time>2012-05-05T07:41:07Z</time>
      </trkpt>
      <trkpt lat="45.63729" lon="5.94794">
        <ele>668.40002441406</ele>
        <time>2012-05-05T07:41:12Z</time>
      </trkpt>
      <trkpt lat="45.63729" lon="5.94794">
        <ele>668.59997558594</ele>
        <time>2012-05-05T07:41:13Z</time>
      </trkpt>
      <trkpt lat="45.63733" lon="5.94796">
        <ele>668.79998779297</ele>
        <time>2012-05-05T07:41:18Z</time>
      </trkpt>
      <trkpt lat="45.63734" lon="5.94798">
        <ele>669.79998779297</ele>
        <time>2012-05-05T07:41:22Z</time>
      </trkpt>
      <trkpt lat="45.63736" lon="5.94801">
        <ele>670.79998779297</ele>
        <time>2012-05-05T07:41:28Z</time>
      </trkpt>
      <trkpt lat="45.63736" lon="5.94802">
        <ele>671.40002441406</ele>
        <time>2012-05-05T07:41:29Z</time>
      </trkpt>
      <trkpt lat="45.6374" lon="5.94805">
        <ele>672.40002441406</ele>
        <time>2012-05-05T07:41:35Z</time>
      </trkpt>
      <trkpt lat="45.63741" lon="5.94806">
        <ele>673</ele>
        <time>2012-05-05T07:41:37Z</time>
      </trkpt>
      <trkpt lat="45.63742" lon="5.94806">
        <ele>673</ele>
        <time>2012-05-05T07:41:40Z</time>
      </trkpt>
      <trkpt lat="45.63744" lon="5.94808">
        <ele>673.40002441406</ele>
        <time>2012-05-05T07:41:46Z</time>
      </trkpt>
      <trkpt lat="45.63743" lon="5.94808">
        <ele>673.40002441406</ele>
        <time>2012-05-05T07:41:51Z</time>
      </trkpt>
      <trkpt lat="45.63743" lon="5.94809">
        <ele>673.79998779297</ele>
        <time>2012-05-05T07:41:54Z</time>
      </trkpt>
      <trkpt lat="45.63741" lon="5.94807">
        <ele>673</ele>
        <time>2012-05-05T07:41:58Z</time>
      </trkpt>
      <trkpt lat="45.63739" lon="5.94806">
        <ele>673.20001220703</ele>
        <time>2012-05-05T07:42:00Z</time>
      </trkpt>
      <trkpt lat="45.63736" lon="5.94805">
        <ele>673.40002441406</ele>
        <time>2012-05-05T07:42:03Z</time>
      </trkpt>
      <trkpt lat="45.63735" lon="5.94806">
        <ele>673.79998779297</ele>
        <time>2012-05-05T07:42:05Z</time>
      </trkpt>
      <trkpt lat="45.63733" lon="5.9481">
        <ele>676.59997558594</ele>
        <time>2012-05-05T07:42:10Z</time>
      </trkpt>
      <trkpt lat="45.63731" lon="5.94814">
        <ele>678.59997558594</ele>
        <time>2012-05-05T07:42:14Z</time>
      </trkpt>
      <trkpt lat="45.63729" lon="5.94819">
        <ele>681.79998779297</ele>
        <time>2012-05-05T07:42:19Z</time>
      </trkpt>
      <trkpt lat="45.63727" lon="5.94824">
        <ele>684.40002441406</ele>
        <time>2012-05-05T07:42:24Z</time>
      </trkpt>
      <trkpt lat="45.63725" lon="5.9483">
        <ele>688</ele>
        <time>2012-05-05T07:42:28Z</time>
      </trkpt>
      <trkpt lat="45.63723" lon="5.94833">
        <ele>690</ele>
        <time>2012-05-05T07:42:30Z</time>
      </trkpt>
      <trkpt lat="45.63717" lon="5.94837">
        <ele>692.40002441406</ele>
        <time>2012-05-05T07:42:35Z</time>
      </trkpt>
      <trkpt lat="45.63713" lon="5.94837">
        <ele>693</ele>
        <time>2012-05-05T07:42:39Z</time>
      </trkpt>
      <trkpt lat="45.63709" lon="5.94836">
        <ele>693.40002441406</ele>
        <time>2012-05-05T07:42:43Z</time>
      </trkpt>
      <trkpt lat="45.63707" lon="5.94835">
        <ele>693.20001220703</ele>
        <time>2012-05-05T07:42:45Z</time>
      </trkpt>
      <trkpt lat="45.63704" lon="5.94837">
        <ele>694.40002441406</ele>
        <time>2012-05-05T07:42:49Z</time>
      </trkpt>
      <trkpt lat="45.63703" lon="5.94837">
        <ele>694.79998779297</ele>
        <time>2012-05-05T07:42:51Z</time>
      </trkpt>
      <trkpt lat="45.63698" lon="5.94837">
        <ele>695.20001220703</ele>
        <time>2012-05-05T07:42:57Z</time>
      </trkpt>
      <trkpt lat="45.63696" lon="5.94837">
        <ele>695.59997558594</ele>
        <time>2012-05-05T07:42:59Z</time>
      </trkpt>
      <trkpt lat="45.63691" lon="5.94834">
        <ele>695.40002441406</ele>
        <time>2012-05-05T07:43:03Z</time>
      </trkpt>
      <trkpt lat="45.63683" lon="5.9483">
        <ele>694.59997558594</ele>
        <time>2012-05-05T07:43:09Z</time>
      </trkpt>
      <trkpt lat="45.63677" lon="5.94826">
        <ele>694</ele>
        <time>2012-05-05T07:43:13Z</time>
      </trkpt>
      <trkpt lat="45.63675" lon="5.94825">
        <ele>693.79998779297</ele>
        <time>2012-05-05T07:43:15Z</time>
      </trkpt>
      <trkpt lat="45.63669" lon="5.94822">
        <ele>693</ele>
        <time>2012-05-05T07:43:21Z</time>
      </trkpt>
      <trkpt lat="45.63668" lon="5.94821">
        <ele>692.79998779297</ele>
        <time>2012-05-05T07:43:23Z</time>
      </trkpt>
      <trkpt lat="45.63663" lon="5.94821">
        <ele>694.40002441406</ele>
        <time>2012-05-05T07:43:27Z</time>
      </trkpt>
      <trkpt lat="45.63663" lon="5.94822">
        <ele>694.79998779297</ele>
        <time>2012-05-05T07:43:30Z</time>
      </trkpt>
      <trkpt lat="45.63664" lon="5.94826">
        <ele>696.40002441406</ele>
        <time>2012-05-05T07:43:35Z</time>
      </trkpt>
      <trkpt lat="45.63666" lon="5.94832">
        <ele>698.59997558594</ele>
        <time>2012-05-05T07:43:38Z</time>
      </trkpt>
      <trkpt lat="45.63666" lon="5.9484">
        <ele>701.20001220703</ele>
        <time>2012-05-05T07:43:42Z</time>
      </trkpt>
      <trkpt lat="45.63666" lon="5.94841">
        <ele>701.59997558594</ele>
        <time>2012-05-05T07:43:43Z</time>
      </trkpt>
      <trkpt lat="45.63667" lon="5.94847">
        <ele>703.40002441406</ele>
        <time>2012-05-05T07:43:48Z</time>
      </trkpt>
      <trkpt lat="45.63668" lon="5.94854">
        <ele>705.40002441406</ele>
        <time>2012-05-05T07:43:53Z</time>
      </trkpt>
      <trkpt lat="45.63665" lon="5.94859">
        <ele>707.79998779297</ele>
        <time>2012-05-05T07:43:57Z</time>
      </trkpt>
      <trkpt lat="45.63665" lon="5.94859">
        <ele>708.20001220703</ele>
        <time>2012-05-05T07:43:58Z</time>
      </trkpt>
      <trkpt lat="45.63664" lon="5.94858">
        <ele>708.20001220703</ele>
        <time>2012-05-05T07:44:02Z</time>
      </trkpt>
      <trkpt lat="45.6366" lon="5.94856">
        <ele>709</ele>
        <time>2012-05-05T07:44:06Z</time>
      </trkpt>
      <trkpt lat="45.63653" lon="5.94847">
        <ele>709.20001220703</ele>
        <time>2012-05-05T07:44:16Z</time>
      </trkpt>
      <trkpt lat="45.63652" lon="5.94847">
        <ele>709.20001220703</ele>
        <time>2012-05-05T07:44:17Z</time>
      </trkpt>
      <trkpt lat="45.63651" lon="5.94845">
        <ele>709</ele>
        <time>2012-05-05T07:44:21Z</time>
      </trkpt>
      <trkpt lat="45.6365" lon="5.94847">
        <ele>710.20001220703</ele>
        <time>2012-05-05T07:44:24Z</time>
      </trkpt>
      <trkpt lat="45.63646" lon="5.94857">
        <ele>714.59997558594</ele>
        <time>2012-05-05T07:44:32Z</time>
      </trkpt>
      <trkpt lat="45.63647" lon="5.94858">
        <ele>715</ele>
        <time>2012-05-05T07:44:33Z</time>
      </trkpt>
      <trkpt lat="45.63647" lon="5.94865">
        <ele>717.20001220703</ele>
        <time>2012-05-05T07:44:38Z</time>
      </trkpt>
      <trkpt lat="45.63649" lon="5.94869">
        <ele>717.59997558594</ele>
        <time>2012-05-05T07:44:42Z</time>
      </trkpt>
      <trkpt lat="45.6365" lon="5.94872">
        <ele>718.20001220703</ele>
        <time>2012-05-05T07:44:46Z</time>
      </trkpt>
      <trkpt lat="45.6365" lon="5.94872">
        <ele>718.20001220703</ele>
        <time>2012-05-05T07:44:49Z</time>
      </trkpt>
      <trkpt lat="45.63647" lon="5.9487">
        <ele>718.79998779297</ele>
        <time>2012-05-05T07:44:54Z</time>
      </trkpt>
      <trkpt lat="45.63647" lon="5.9487">
        <ele>718.59997558594</ele>
        <time>2012-05-05T07:44:55Z</time>
      </trkpt>
      <trkpt lat="45.63645" lon="5.9487">
        <ele>719.59997558594</ele>
        <time>2012-05-05T07:44:59Z</time>
      </trkpt>
      <trkpt lat="45.63643" lon="5.9487">
        <ele>720.59997558594</ele>
        <time>2012-05-05T07:45:01Z</time>
      </trkpt>
      <trkpt lat="45.63642" lon="5.94871">
        <ele>721.40002441406</ele>
        <time>2012-05-05T07:45:05Z</time>
      </trkpt>
      <trkpt lat="45.63638" lon="5.9487">
        <ele>722.20001220703</ele>
        <time>2012-05-05T07:45:09Z</time>
      </trkpt>
      <trkpt lat="45.63636" lon="5.94869">
        <ele>722.79998779297</ele>
        <time>2012-05-05T07:45:13Z</time>
      </trkpt>
      <trkpt lat="45.63636" lon="5.94868">
        <ele>722.59997558594</ele>
        <time>2012-05-05T07:45:15Z</time>
      </trkpt>
      <trkpt lat="45.63633" lon="5.94867">
        <ele>723.40002441406</ele>
        <time>2012-05-05T07:45:20Z</time>
      </trkpt>
      <trkpt lat="45.63633" lon="5.94865">
        <ele>722.79998779297</ele>
        <time>2012-05-05T07:45:21Z</time>
      </trkpt>
      <trkpt lat="45.63629" lon="5.94863">
        <ele>723.79998779297</ele>
        <time>2012-05-05T07:45:25Z</time>
      </trkpt>
      <trkpt lat="45.63627" lon="5.94863">
        <ele>724.79998779297</ele>
        <time>2012-05-05T07:45:31Z</time>
      </trkpt>
      <trkpt lat="45.63626" lon="5.94865">
        <ele>725.40002441406</ele>
        <time>2012-05-05T07:45:36Z</time>
      </trkpt>
      <trkpt lat="45.63626" lon="5.94865">
        <ele>725.40002441406</ele>
        <time>2012-05-05T07:45:37Z</time>
      </trkpt>
      <trkpt lat="45.63627" lon="5.94868">
        <ele>726</ele>
        <time>2012-05-05T07:45:43Z</time>
      </trkpt>
      <trkpt lat="45.63626" lon="5.94871">
        <ele>727.79998779297</ele>
        <time>2012-05-05T07:45:46Z</time>
      </trkpt>
      <trkpt lat="45.63626" lon="5.94875">
        <ele>728.79998779297</ele>
        <time>2012-05-05T07:45:50Z</time>
      </trkpt>
      <trkpt lat="45.63626" lon="5.94877">
        <ele>729.40002441406</ele>
        <time>2012-05-05T07:45:52Z</time>
      </trkpt>
      <trkpt lat="45.63624" lon="5.9488">
        <ele>731.40002441406</ele>
        <time>2012-05-05T07:45:59Z</time>
      </trkpt>
      <trkpt lat="45.63624" lon="5.94879">
        <ele>731</ele>
        <time>2012-05-05T07:46:01Z</time>
      </trkpt>
      <trkpt lat="45.6362" lon="5.94874">
        <ele>730.79998779297</ele>
        <time>2012-05-05T07:46:07Z</time>
      </trkpt>
      <trkpt lat="45.63619" lon="5.94872">
        <ele>730.79998779297</ele>
        <time>2012-05-05T07:46:08Z</time>
      </trkpt>
      <trkpt lat="45.63618" lon="5.9487">
        <ele>730.40002441406</ele>
        <time>2012-05-05T07:46:13Z</time>
      </trkpt>
      <trkpt lat="45.63615" lon="5.94868">
        <ele>731</ele>
        <time>2012-05-05T07:46:16Z</time>
      </trkpt>
      <trkpt lat="45.6361" lon="5.94868">
        <ele>733</ele>
        <time>2012-05-05T07:46:20Z</time>
      </trkpt>
      <trkpt lat="45.63607" lon="5.94867">
        <ele>734</ele>
        <time>2012-05-05T07:46:23Z</time>
      </trkpt>
      <trkpt lat="45.636" lon="5.94866">
        <ele>736.59997558594</ele>
        <time>2012-05-05T07:46:29Z</time>
      </trkpt>
      <trkpt lat="45.63598" lon="5.94863">
        <ele>736</ele>
        <time>2012-05-05T07:46:32Z</time>
      </trkpt>
      <trkpt lat="45.63595" lon="5.94858">
        <ele>735.79998779297</ele>
        <time>2012-05-05T07:46:36Z</time>
      </trkpt>
      <trkpt lat="45.63593" lon="5.94857">
        <ele>736.40002441406</ele>
        <time>2012-05-05T07:46:39Z</time>
      </trkpt>
      <trkpt lat="45.6359" lon="5.94856">
        <ele>736.79998779297</ele>
        <time>2012-05-05T07:46:43Z</time>
      </trkpt>
      <trkpt lat="45.63586" lon="5.94853">
        <ele>737.59997558594</ele>
        <time>2012-05-05T07:46:48Z</time>
      </trkpt>
      <trkpt lat="45.6358" lon="5.94851">
        <ele>739</ele>
        <time>2012-05-05T07:46:55Z</time>
      </trkpt>
      <trkpt lat="45.63579" lon="5.9485">
        <ele>739.40002441406</ele>
        <time>2012-05-05T07:46:58Z</time>
      </trkpt>
      <trkpt lat="45.63575" lon="5.94847">
        <ele>740</ele>
        <time>2012-05-05T07:47:04Z</time>
      </trkpt>
      <trkpt lat="45.63574" lon="5.94846">
        <ele>740</ele>
        <time>2012-05-05T07:47:05Z</time>
      </trkpt>
      <trkpt lat="45.63568" lon="5.94845">
        <ele>741.79998779297</ele>
        <time>2012-05-05T07:47:11Z</time>
      </trkpt>
      <trkpt lat="45.63567" lon="5.94844">
        <ele>742</ele>
        <time>2012-05-05T07:47:12Z</time>
      </trkpt>
      <trkpt lat="45.6356" lon="5.94843">
        <ele>744.40002441406</ele>
        <time>2012-05-05T07:47:21Z</time>
      </trkpt>
      <trkpt lat="45.63558" lon="5.94842">
        <ele>745</ele>
        <time>2012-05-05T07:47:22Z</time>
      </trkpt>
      <trkpt lat="45.63553" lon="5.94842">
        <ele>747</ele>
        <time>2012-05-05T07:47:28Z</time>
      </trkpt>
      <trkpt lat="45.63549" lon="5.94843">
        <ele>748.79998779297</ele>
        <time>2012-05-05T07:47:32Z</time>
      </trkpt>
      <trkpt lat="45.63544" lon="5.94844">
        <ele>751</ele>
        <time>2012-05-05T07:47:37Z</time>
      </trkpt>
      <trkpt lat="45.6354" lon="5.94844">
        <ele>752.59997558594</ele>
        <time>2012-05-05T07:47:40Z</time>
      </trkpt>
      <trkpt lat="45.63537" lon="5.94843">
        <ele>753.79998779297</ele>
        <time>2012-05-05T07:47:45Z</time>
      </trkpt>
      <trkpt lat="45.63536" lon="5.94843">
        <ele>754</ele>
        <time>2012-05-05T07:47:46Z</time>
      </trkpt>
      <trkpt lat="45.63533" lon="5.94843">
        <ele>755.20001220703</ele>
        <time>2012-05-05T07:47:51Z</time>
      </trkpt>
      <trkpt lat="45.63533" lon="5.94843">
        <ele>755.40002441406</ele>
        <time>2012-05-05T07:47:54Z</time>
      </trkpt>
      <trkpt lat="45.63532" lon="5.94844">
        <ele>755.79998779297</ele>
        <time>2012-05-05T07:47:56Z</time>
      </trkpt>
      <trkpt lat="45.63533" lon="5.94847">
        <ele>757</ele>
        <time>2012-05-05T07:48:01Z</time>
      </trkpt>
      <trkpt lat="45.63535" lon="5.9485">
        <ele>757.40002441406</ele>
        <time>2012-05-05T07:48:07Z</time>
      </trkpt>
      <trkpt lat="45.63536" lon="5.94853">
        <ele>758</ele>
        <time>2012-05-05T07:48:11Z</time>
      </trkpt>
      <trkpt lat="45.63538" lon="5.94862">
        <ele>761</ele>
        <time>2012-05-05T07:48:18Z</time>
      </trkpt>
      <trkpt lat="45.63539" lon="5.94867">
        <ele>762.40002441406</ele>
        <time>2012-05-05T07:48:22Z</time>
      </trkpt>
      <trkpt lat="45.63543" lon="5.94871">
        <ele>762.20001220703</ele>
        <time>2012-05-05T07:48:27Z</time>
      </trkpt>
      <trkpt lat="45.63547" lon="5.94875">
        <ele>762</ele>
        <time>2012-05-05T07:48:30Z</time>
      </trkpt>
      <trkpt lat="45.63545" lon="5.9488">
        <ele>764.59997558594</ele>
        <time>2012-05-05T07:48:35Z</time>
      </trkpt>
      <trkpt lat="45.63545" lon="5.94881">
        <ele>765</ele>
        <time>2012-05-05T07:48:36Z</time>
      </trkpt>
      <trkpt lat="45.63545" lon="5.94885">
        <ele>766.79998779297</ele>
        <time>2012-05-05T07:48:41Z</time>
      </trkpt>
      <trkpt lat="45.63545" lon="5.94889">
        <ele>768.20001220703</ele>
        <time>2012-05-05T07:48:44Z</time>
      </trkpt>
      <trkpt lat="45.63545" lon="5.94892">
        <ele>769.20001220703</ele>
        <time>2012-05-05T07:48:49Z</time>
      </trkpt>
      <trkpt lat="45.63545" lon="5.94892">
        <ele>769</ele>
        <time>2012-05-05T07:48:50Z</time>
      </trkpt>
      <trkpt lat="45.63543" lon="5.94892">
        <ele>770</ele>
        <time>2012-05-05T07:48:54Z</time>
      </trkpt>
      <trkpt lat="45.63541" lon="5.94892">
        <ele>771.20001220703</ele>
        <time>2012-05-05T07:48:59Z</time>
      </trkpt>
      <trkpt lat="45.63538" lon="5.94889">
        <ele>771.40002441406</ele>
        <time>2012-05-05T07:49:05Z</time>
      </trkpt>
      <trkpt lat="45.63537" lon="5.94889">
        <ele>771.79998779297</ele>
        <time>2012-05-05T07:49:08Z</time>
      </trkpt>
      <trkpt lat="45.63534" lon="5.94888">
        <ele>772.59997558594</ele>
        <time>2012-05-05T07:49:13Z</time>
      </trkpt>
      <trkpt lat="45.63532" lon="5.94888">
        <ele>773.59997558594</ele>
        <time>2012-05-05T07:49:16Z</time>
      </trkpt>
      <trkpt lat="45.63529" lon="5.94887">
        <ele>775</ele>
        <time>2012-05-05T07:49:22Z</time>
      </trkpt>
      <trkpt lat="45.63527" lon="5.94884">
        <ele>774.20001220703</ele>
        <time>2012-05-05T07:49:27Z</time>
      </trkpt>
      <trkpt lat="45.63523" lon="5.94877">
        <ele>773.40002441406</ele>
        <time>2012-05-05T07:49:33Z</time>
      </trkpt>
      <trkpt lat="45.63522" lon="5.94877">
        <ele>773.79998779297</ele>
        <time>2012-05-05T07:49:36Z</time>
      </trkpt>
      <trkpt lat="45.63519" lon="5.94875">
        <ele>774.20001220703</ele>
        <time>2012-05-05T07:49:40Z</time>
      </trkpt>
      <trkpt lat="45.63518" lon="5.94876">
        <ele>775.20001220703</ele>
        <time>2012-05-05T07:49:43Z</time>
      </trkpt>
      <trkpt lat="45.63515" lon="5.94879">
        <ele>777.59997558594</ele>
        <time>2012-05-05T07:49:51Z</time>
      </trkpt>
      <trkpt lat="45.63516" lon="5.94881">
        <ele>778</ele>
        <time>2012-05-05T07:49:54Z</time>
      </trkpt>
      <trkpt lat="45.63517" lon="5.94883">
        <ele>778.40002441406</ele>
        <time>2012-05-05T07:50:05Z</time>
      </trkpt>
      <trkpt lat="45.63516" lon="5.94886">
        <ele>780</ele>
        <time>2012-05-05T07:50:10Z</time>
      </trkpt>
      <trkpt lat="45.63512" lon="5.94889">
        <ele>783.20001220703</ele>
        <time>2012-05-05T07:50:16Z</time>
      </trkpt>
      <trkpt lat="45.6351" lon="5.9489">
        <ele>784.40002441406</ele>
        <time>2012-05-05T07:50:20Z</time>
      </trkpt>
      <trkpt lat="45.63505" lon="5.94891">
        <ele>787.40002441406</ele>
        <time>2012-05-05T07:50:24Z</time>
      </trkpt>
      <trkpt lat="45.63503" lon="5.94893">
        <ele>789.40002441406</ele>
        <time>2012-05-05T07:50:28Z</time>
      </trkpt>
      <trkpt lat="45.63503" lon="5.94895">
        <ele>790.20001220703</ele>
        <time>2012-05-05T07:50:32Z</time>
      </trkpt>
      <trkpt lat="45.63504" lon="5.94896">
        <ele>790.20001220703</ele>
        <time>2012-05-05T07:50:34Z</time>
      </trkpt>
      <trkpt lat="45.63506" lon="5.949">
        <ele>790.79998779297</ele>
        <time>2012-05-05T07:50:38Z</time>
      </trkpt>
      <trkpt lat="45.63506" lon="5.94902">
        <ele>791.59997558594</ele>
        <time>2012-05-05T07:50:39Z</time>
      </trkpt>
      <trkpt lat="45.63507" lon="5.94904">
        <ele>792</ele>
        <time>2012-05-05T07:50:45Z</time>
      </trkpt>
      <trkpt lat="45.6351" lon="5.94909">
        <ele>792.79998779297</ele>
        <time>2012-05-05T07:50:49Z</time>
      </trkpt>
      <trkpt lat="45.63511" lon="5.94913">
        <ele>793.79998779297</ele>
        <time>2012-05-05T07:50:54Z</time>
      </trkpt>
      <trkpt lat="45.63511" lon="5.94914">
        <ele>794.40002441406</ele>
        <time>2012-05-05T07:50:55Z</time>
      </trkpt>
      <trkpt lat="45.63511" lon="5.94917">
        <ele>795.59997558594</ele>
        <time>2012-05-05T07:51:00Z</time>
      </trkpt>
      <trkpt lat="45.63511" lon="5.94919">
        <ele>796.40002441406</ele>
        <time>2012-05-05T07:51:04Z</time>
      </trkpt>
      <trkpt lat="45.63511" lon="5.94923">
        <ele>798</ele>
        <time>2012-05-05T07:51:10Z</time>
      </trkpt>
      <trkpt lat="45.6351" lon="5.94923">
        <ele>798.59997558594</ele>
        <time>2012-05-05T07:51:12Z</time>
      </trkpt>
      <trkpt lat="45.63508" lon="5.94925">
        <ele>800.20001220703</ele>
        <time>2012-05-05T07:51:19Z</time>
      </trkpt>
      <trkpt lat="45.63509" lon="5.94926">
        <ele>800.59997558594</ele>
        <time>2012-05-05T07:51:22Z</time>
      </trkpt>
      <trkpt lat="45.63508" lon="5.94928">
        <ele>801.79998779297</ele>
        <time>2012-05-05T07:51:26Z</time>
      </trkpt>
      <trkpt lat="45.6351" lon="5.94931">
        <ele>801.79998779297</ele>
        <time>2012-05-05T07:51:29Z</time>
      </trkpt>
      <trkpt lat="45.63511" lon="5.94935">
        <ele>803</ele>
        <time>2012-05-05T07:51:36Z</time>
      </trkpt>
      <trkpt lat="45.63512" lon="5.94937">
        <ele>803.20001220703</ele>
        <time>2012-05-05T07:51:41Z</time>
      </trkpt>
      <trkpt lat="45.63512" lon="5.94939">
        <ele>804.40002441406</ele>
        <time>2012-05-05T07:51:47Z</time>
      </trkpt>
      <trkpt lat="45.6351" lon="5.94942">
        <ele>806.59997558594</ele>
        <time>2012-05-05T07:51:51Z</time>
      </trkpt>
      <trkpt lat="45.63505" lon="5.94949">
        <ele>811.79998779297</ele>
        <time>2012-05-05T07:51:57Z</time>
      </trkpt>
      <trkpt lat="45.63506" lon="5.94949">
        <ele>811</ele>
        <time>2012-05-05T07:51:58Z</time>
      </trkpt>
      <trkpt lat="45.63504" lon="5.94953">
        <ele>814</ele>
        <time>2012-05-05T07:52:02Z</time>
      </trkpt>
      <trkpt lat="45.63507" lon="5.94959">
        <ele>814.79998779297</ele>
        <time>2012-05-05T07:52:06Z</time>
      </trkpt>
      <trkpt lat="45.63506" lon="5.9496">
        <ele>815.59997558594</ele>
        <time>2012-05-05T07:52:10Z</time>
      </trkpt>
      <trkpt lat="45.63503" lon="5.94961">
        <ele>817.59997558594</ele>
        <time>2012-05-05T07:52:14Z</time>
      </trkpt>
      <trkpt lat="45.63501" lon="5.94962">
        <ele>819</ele>
        <time>2012-05-05T07:52:19Z</time>
      </trkpt>
      <trkpt lat="45.63498" lon="5.94963">
        <ele>820.40002441406</ele>
        <time>2012-05-05T07:52:22Z</time>
      </trkpt>
      <trkpt lat="45.63496" lon="5.94962">
        <ele>820.79998779297</ele>
        <time>2012-05-05T07:52:26Z</time>
      </trkpt>
      <trkpt lat="45.63491" lon="5.94959">
        <ele>821.79998779297</ele>
        <time>2012-05-05T07:52:32Z</time>
      </trkpt>
      <trkpt lat="45.63486" lon="5.94957">
        <ele>823</ele>
        <time>2012-05-05T07:52:39Z</time>
      </trkpt>
      <trkpt lat="45.63483" lon="5.94957">
        <ele>823.59997558594</ele>
        <time>2012-05-05T07:52:42Z</time>
      </trkpt>
      <trkpt lat="45.63478" lon="5.94957">
        <ele>825.79998779297</ele>
        <time>2012-05-05T07:52:49Z</time>
      </trkpt>
      <trkpt lat="45.63476" lon="5.94956">
        <ele>826.20001220703</ele>
        <time>2012-05-05T07:52:52Z</time>
      </trkpt>
      <trkpt lat="45.63474" lon="5.94955">
        <ele>826.59997558594</ele>
        <time>2012-05-05T07:52:55Z</time>
      </trkpt>
      <trkpt lat="45.63471" lon="5.94954">
        <ele>827.20001220703</ele>
        <time>2012-05-05T07:52:58Z</time>
      </trkpt>
      <trkpt lat="45.63467" lon="5.94952">
        <ele>827.79998779297</ele>
        <time>2012-05-05T07:53:05Z</time>
      </trkpt>
      <trkpt lat="45.63466" lon="5.94951">
        <ele>827.79998779297</ele>
        <time>2012-05-05T07:53:06Z</time>
      </trkpt>
      <trkpt lat="45.63462" lon="5.94949">
        <ele>828.40002441406</ele>
        <time>2012-05-05T07:53:13Z</time>
      </trkpt>
      <trkpt lat="45.63463" lon="5.94949">
        <ele>828.40002441406</ele>
        <time>2012-05-05T07:53:14Z</time>
      </trkpt>
      <trkpt lat="45.63459" lon="5.94948">
        <ele>829.20001220703</ele>
        <time>2012-05-05T07:53:19Z</time>
      </trkpt>
      <trkpt lat="45.63459" lon="5.94948">
        <ele>829.40002441406</ele>
        <time>2012-05-05T07:53:21Z</time>
      </trkpt>
      <trkpt lat="45.63455" lon="5.94947">
        <ele>830.40002441406</ele>
        <time>2012-05-05T07:53:26Z</time>
      </trkpt>
      <trkpt lat="45.63453" lon="5.94948">
        <ele>831.59997558594</ele>
        <time>2012-05-05T07:53:29Z</time>
      </trkpt>
      <trkpt lat="45.63452" lon="5.94952">
        <ele>833.40002441406</ele>
        <time>2012-05-05T07:53:34Z</time>
      </trkpt>
      <trkpt lat="45.63452" lon="5.94951">
        <ele>833</ele>
        <time>2012-05-05T07:53:35Z</time>
      </trkpt>
      <trkpt lat="45.63447" lon="5.94953">
        <ele>835.59997558594</ele>
        <time>2012-05-05T07:53:45Z</time>
      </trkpt>
      <trkpt lat="45.63445" lon="5.94952">
        <ele>836</ele>
        <time>2012-05-05T07:53:48Z</time>
      </trkpt>
      <trkpt lat="45.63441" lon="5.94953">
        <ele>837.79998779297</ele>
        <time>2012-05-05T07:53:52Z</time>
      </trkpt>
      <trkpt lat="45.63437" lon="5.94957">
        <ele>841</ele>
        <time>2012-05-05T07:53:55Z</time>
      </trkpt>
      <trkpt lat="45.63435" lon="5.9496">
        <ele>842.79998779297</ele>
        <time>2012-05-05T07:53:59Z</time>
      </trkpt>
      <trkpt lat="45.63433" lon="5.94962">
        <ele>844.20001220703</ele>
        <time>2012-05-05T07:54:01Z</time>
      </trkpt>
      <trkpt lat="45.6343" lon="5.94965">
        <ele>846.40002441406</ele>
        <time>2012-05-05T07:54:10Z</time>
      </trkpt>
      <trkpt lat="45.63429" lon="5.94967">
        <ele>847.40002441406</ele>
        <time>2012-05-05T07:54:13Z</time>
      </trkpt>
      <trkpt lat="45.63426" lon="5.94974">
        <ele>851.20001220703</ele>
        <time>2012-05-05T07:54:22Z</time>
      </trkpt>
      <trkpt lat="45.63425" lon="5.94977">
        <ele>852.40002441406</ele>
        <time>2012-05-05T07:54:25Z</time>
      </trkpt>
      <trkpt lat="45.63421" lon="5.94976">
        <ele>853.59997558594</ele>
        <time>2012-05-05T07:54:33Z</time>
      </trkpt>
      <trkpt lat="45.6342" lon="5.94975">
        <ele>853.79998779297</ele>
        <time>2012-05-05T07:54:34Z</time>
      </trkpt>
      <trkpt lat="45.63419" lon="5.94976">
        <ele>854.79998779297</ele>
        <time>2012-05-05T07:54:39Z</time>
      </trkpt>
      <trkpt lat="45.63416" lon="5.94976">
        <ele>855.59997558594</ele>
        <time>2012-05-05T07:54:43Z</time>
      </trkpt>
      <trkpt lat="45.63409" lon="5.94976">
        <ele>857.79998779297</ele>
        <time>2012-05-05T07:54:49Z</time>
      </trkpt>
      <trkpt lat="45.63406" lon="5.94977">
        <ele>859.40002441406</ele>
        <time>2012-05-05T07:54:53Z</time>
      </trkpt>
      <trkpt lat="45.63401" lon="5.94978">
        <ele>861.40002441406</ele>
        <time>2012-05-05T07:54:57Z</time>
      </trkpt>
      <trkpt lat="45.63399" lon="5.94977">
        <ele>861.59997558594</ele>
        <time>2012-05-05T07:55:00Z</time>
      </trkpt>
      <trkpt lat="45.63393" lon="5.94977">
        <ele>863.79998779297</ele>
        <time>2012-05-05T07:55:06Z</time>
      </trkpt>
      <trkpt lat="45.6339" lon="5.94977">
        <ele>864.79998779297</ele>
        <time>2012-05-05T07:55:07Z</time>
      </trkpt>
      <trkpt lat="45.63384" lon="5.94977">
        <ele>866.59997558594</ele>
        <time>2012-05-05T07:55:13Z</time>
      </trkpt>
      <trkpt lat="45.63383" lon="5.94977">
        <ele>867.40002441406</ele>
        <time>2012-05-05T07:55:15Z</time>
      </trkpt>
      <trkpt lat="45.6338" lon="5.94979">
        <ele>869</ele>
        <time>2012-05-05T07:55:21Z</time>
      </trkpt>
      <trkpt lat="45.6338" lon="5.94979">
        <ele>869.20001220703</ele>
        <time>2012-05-05T07:55:22Z</time>
      </trkpt>
      <trkpt lat="45.63374" lon="5.9498">
        <ele>871.79998779297</ele>
        <time>2012-05-05T07:55:27Z</time>
      </trkpt>
      <trkpt lat="45.6337" lon="5.94984">
        <ele>874.20001220703</ele>
        <time>2012-05-05T07:55:30Z</time>
      </trkpt>
      <trkpt lat="45.63369" lon="5.94988">
        <ele>876.59997558594</ele>
        <time>2012-05-05T07:55:35Z</time>
      </trkpt>
      <trkpt lat="45.63368" lon="5.94989">
        <ele>876.79998779297</ele>
        <time>2012-05-05T07:55:36Z</time>
      </trkpt>
      <trkpt lat="45.63368" lon="5.94991">
        <ele>878</ele>
        <time>2012-05-05T07:55:40Z</time>
      </trkpt>
      <trkpt lat="45.63366" lon="5.94993">
        <ele>879.20001220703</ele>
        <time>2012-05-05T07:55:42Z</time>
      </trkpt>
      <trkpt lat="45.63365" lon="5.94999">
        <ele>882.40002441406</ele>
        <time>2012-05-05T07:55:48Z</time>
      </trkpt>
      <trkpt lat="45.63365" lon="5.95">
        <ele>882.79998779297</ele>
        <time>2012-05-05T07:55:49Z</time>
      </trkpt>
      <trkpt lat="45.63365" lon="5.95004">
        <ele>885.59997558594</ele>
        <time>2012-05-05T07:55:54Z</time>
      </trkpt>
      <trkpt lat="45.63365" lon="5.95009">
        <ele>888.40002441406</ele>
        <time>2012-05-05T07:55:56Z</time>
      </trkpt>
      <trkpt lat="45.63367" lon="5.95016">
        <ele>892.20001220703</ele>
        <time>2012-05-05T07:56:03Z</time>
      </trkpt>
      <trkpt lat="45.63366" lon="5.95021">
        <ele>896</ele>
        <time>2012-05-05T07:56:08Z</time>
      </trkpt>
      <trkpt lat="45.63368" lon="5.95031">
        <ele>902.40002441406</ele>
        <time>2012-05-05T07:56:17Z</time>
      </trkpt>
      <trkpt lat="45.63368" lon="5.95033">
        <ele>903.40002441406</ele>
        <time>2012-05-05T07:56:19Z</time>
      </trkpt>
      <trkpt lat="45.63369" lon="5.95036">
        <ele>905</ele>
        <time>2012-05-05T07:56:24Z</time>
      </trkpt>
      <trkpt lat="45.6337" lon="5.95039">
        <ele>906.20001220703</ele>
        <time>2012-05-05T07:56:30Z</time>
      </trkpt>
      <trkpt lat="45.63371" lon="5.95041">
        <ele>907.59997558594</ele>
        <time>2012-05-05T07:56:35Z</time>
      </trkpt>
      <trkpt lat="45.63373" lon="5.95046">
        <ele>910.20001220703</ele>
        <time>2012-05-05T07:56:38Z</time>
      </trkpt>
      <trkpt lat="45.63374" lon="5.95052">
        <ele>913.59997558594</ele>
        <time>2012-05-05T07:56:46Z</time>
      </trkpt>
      <trkpt lat="45.63373" lon="5.95054">
        <ele>915.20001220703</ele>
        <time>2012-05-05T07:56:49Z</time>
      </trkpt>
      <trkpt lat="45.63374" lon="5.95059">
        <ele>918.59997558594</ele>
        <time>2012-05-05T07:56:55Z</time>
      </trkpt>
      <trkpt lat="45.63373" lon="5.95059">
        <ele>919</ele>
        <time>2012-05-05T07:56:59Z</time>
      </trkpt>
      <trkpt lat="45.63372" lon="5.95059">
        <ele>919</ele>
        <time>2012-05-05T07:57:05Z</time>
      </trkpt>
      <trkpt lat="45.6337" lon="5.9506">
        <ele>920.20001220703</ele>
        <time>2012-05-05T07:57:08Z</time>
      </trkpt>
      <trkpt lat="45.63368" lon="5.95058">
        <ele>919.79998779297</ele>
        <time>2012-05-05T07:57:12Z</time>
      </trkpt>
      <trkpt lat="45.63368" lon="5.95058">
        <ele>919.59997558594</ele>
        <time>2012-05-05T07:57:15Z</time>
      </trkpt>
      <trkpt lat="45.63367" lon="5.95059">
        <ele>920.20001220703</ele>
        <time>2012-05-05T07:57:21Z</time>
      </trkpt>
      <trkpt lat="45.63367" lon="5.95059">
        <ele>920.79998779297</ele>
        <time>2012-05-05T07:57:23Z</time>
      </trkpt>
      <trkpt lat="45.63365" lon="5.95068">
        <ele>927.20001220703</ele>
        <time>2012-05-05T07:57:32Z</time>
      </trkpt>
      <trkpt lat="45.63364" lon="5.95069">
        <ele>928.20001220703</ele>
        <time>2012-05-05T07:57:34Z</time>
      </trkpt>
      <trkpt lat="45.63361" lon="5.95068">
        <ele>928.79998779297</ele>
        <time>2012-05-05T07:57:38Z</time>
      </trkpt>
      <trkpt lat="45.6336" lon="5.95068">
        <ele>929.40002441406</ele>
        <time>2012-05-05T07:57:40Z</time>
      </trkpt>
      <trkpt lat="45.63359" lon="5.95075">
        <ele>934</ele>
        <time>2012-05-05T07:57:51Z</time>
      </trkpt>
      <trkpt lat="45.6336" lon="5.95078">
        <ele>935.59997558594</ele>
        <time>2012-05-05T07:57:58Z</time>
      </trkpt>
      <trkpt lat="45.63362" lon="5.95082">
        <ele>937.79998779297</ele>
        <time>2012-05-05T07:58:08Z</time>
      </trkpt>
      <trkpt lat="45.63362" lon="5.95083">
        <ele>938.40002441406</ele>
        <time>2012-05-05T07:58:09Z</time>
      </trkpt>
      <trkpt lat="45.63361" lon="5.95086">
        <ele>939.40002441406</ele>
        <time>2012-05-05T07:58:15Z</time>
      </trkpt>
      <trkpt lat="45.6336" lon="5.95088">
        <ele>940.40002441406</ele>
        <time>2012-05-05T07:58:17Z</time>
      </trkpt>
      <trkpt lat="45.6336" lon="5.95091">
        <ele>941.40002441406</ele>
        <time>2012-05-05T07:58:21Z</time>
      </trkpt>
      <trkpt lat="45.63361" lon="5.95094">
        <ele>941.79998779297</ele>
        <time>2012-05-05T07:58:24Z</time>
      </trkpt>
      <trkpt lat="45.6337" lon="5.95099">
        <ele>940.59997558594</ele>
        <time>2012-05-05T07:58:32Z</time>
      </trkpt>
      <trkpt lat="45.63373" lon="5.95101">
        <ele>940.40002441406</ele>
        <time>2012-05-05T07:58:35Z</time>
      </trkpt>
      <trkpt lat="45.63377" lon="5.95102">
        <ele>939.79998779297</ele>
        <time>2012-05-05T07:58:39Z</time>
      </trkpt>
      <trkpt lat="45.63379" lon="5.95103">
        <ele>939.59997558594</ele>
        <time>2012-05-05T07:58:42Z</time>
      </trkpt>
      <trkpt lat="45.63385" lon="5.95108">
        <ele>939.59997558594</ele>
        <time>2012-05-05T07:58:48Z</time>
      </trkpt>
      <trkpt lat="45.63386" lon="5.95111">
        <ele>940.59997558594</ele>
        <time>2012-05-05T07:58:53Z</time>
      </trkpt>
      <trkpt lat="45.63387" lon="5.95115">
        <ele>941.79998779297</ele>
        <time>2012-05-05T07:58:58Z</time>
      </trkpt>
      <trkpt lat="45.63388" lon="5.95116">
        <ele>942</ele>
        <time>2012-05-05T07:59:00Z</time>
      </trkpt>
      <trkpt lat="45.63392" lon="5.95125">
        <ele>944.59997558594</ele>
        <time>2012-05-05T07:59:07Z</time>
      </trkpt>
      <trkpt lat="45.63392" lon="5.95126">
        <ele>944.79998779297</ele>
        <time>2012-05-05T07:59:08Z</time>
      </trkpt>
      <trkpt lat="45.63397" lon="5.95126">
        <ele>944</ele>
        <time>2012-05-05T07:59:11Z</time>
      </trkpt>
      <trkpt lat="45.63399" lon="5.95128">
        <ele>944.40002441406</ele>
        <time>2012-05-05T07:59:13Z</time>
      </trkpt>
      <trkpt lat="45.63402" lon="5.95131">
        <ele>945</ele>
        <time>2012-05-05T07:59:18Z</time>
      </trkpt>
      <trkpt lat="45.63402" lon="5.95132">
        <ele>945.40002441406</ele>
        <time>2012-05-05T07:59:19Z</time>
      </trkpt>
      <trkpt lat="45.63404" lon="5.95135">
        <ele>946.59997558594</ele>
        <time>2012-05-05T07:59:23Z</time>
      </trkpt>
      <trkpt lat="45.63407" lon="5.95137">
        <ele>946.79998779297</ele>
        <time>2012-05-05T07:59:25Z</time>
      </trkpt>
      <trkpt lat="45.63412" lon="5.95138">
        <ele>946.20001220703</ele>
        <time>2012-05-05T07:59:31Z</time>
      </trkpt>
      <trkpt lat="45.63414" lon="5.95137">
        <ele>945.59997558594</ele>
        <time>2012-05-05T07:59:32Z</time>
      </trkpt>
      <trkpt lat="45.63416" lon="5.95139">
        <ele>946</ele>
        <time>2012-05-05T07:59:36Z</time>
      </trkpt>
      <trkpt lat="45.63416" lon="5.9514">
        <ele>946.59997558594</ele>
        <time>2012-05-05T07:59:39Z</time>
      </trkpt>
      <trkpt lat="45.63417" lon="5.95142">
        <ele>947.20001220703</ele>
        <time>2012-05-05T07:59:44Z</time>
      </trkpt>
      <trkpt lat="45.63418" lon="5.95144">
        <ele>948.20001220703</ele>
        <time>2012-05-05T07:59:46Z</time>
      </trkpt>
      <trkpt lat="45.63418" lon="5.95146">
        <ele>949</ele>
        <time>2012-05-05T07:59:50Z</time>
      </trkpt>
      <trkpt lat="45.6342" lon="5.95146">
        <ele>948.20001220703</ele>
        <time>2012-05-05T07:59:53Z</time>
      </trkpt>
      <trkpt lat="45.63422" lon="5.95148">
        <ele>948.79998779297</ele>
        <time>2012-05-05T07:59:58Z</time>
      </trkpt>
      <trkpt lat="45.6342" lon="5.95149">
        <ele>950</ele>
        <time>2012-05-05T08:00:00Z</time>
      </trkpt>
      <trkpt lat="45.63421" lon="5.95152">
        <ele>951.20001220703</ele>
        <time>2012-05-05T08:00:09Z</time>
      </trkpt>
      <trkpt lat="45.63425" lon="5.95154">
        <ele>951</ele>
        <time>2012-05-05T08:00:16Z</time>
      </trkpt>
      <trkpt lat="45.63428" lon="5.95155">
        <ele>950.79998779297</ele>
        <time>2012-05-05T08:00:22Z</time>
      </trkpt>
      <trkpt lat="45.6343" lon="5.95157">
        <ele>951.20001220703</ele>
        <time>2012-05-05T08:00:27Z</time>
      </trkpt>
      <trkpt lat="45.63432" lon="5.95157">
        <ele>951</ele>
        <time>2012-05-05T08:00:32Z</time>
      </trkpt>
      <trkpt lat="45.63432" lon="5.95158">
        <ele>951.40002441406</ele>
        <time>2012-05-05T08:00:33Z</time>
      </trkpt>
      <trkpt lat="45.63432" lon="5.95158">
        <ele>951.59997558594</ele>
        <time>2012-05-05T08:00:37Z</time>
      </trkpt>
      <trkpt lat="45.63431" lon="5.95159">
        <ele>951.79998779297</ele>
        <time>2012-05-05T08:00:40Z</time>
      </trkpt>
      <trkpt lat="45.6343" lon="5.95159">
        <ele>952.59997558594</ele>
        <time>2012-05-05T08:00:44Z</time>
      </trkpt>
      <trkpt lat="45.63432" lon="5.95161">
        <ele>953</ele>
        <time>2012-05-05T08:00:46Z</time>
      </trkpt>
      <trkpt lat="45.63433" lon="5.95164">
        <ele>954</ele>
        <time>2012-05-05T08:00:52Z</time>
      </trkpt>
      <trkpt lat="45.63435" lon="5.95165">
        <ele>954.20001220703</ele>
        <time>2012-05-05T08:00:55Z</time>
      </trkpt>
      <trkpt lat="45.63439" lon="5.95165">
        <ele>953.59997558594</ele>
        <time>2012-05-05T08:01:00Z</time>
      </trkpt>
      <trkpt lat="45.63441" lon="5.95164">
        <ele>952.79998779297</ele>
        <time>2012-05-05T08:01:03Z</time>
      </trkpt>
      <trkpt lat="45.63445" lon="5.95162">
        <ele>950.59997558594</ele>
        <time>2012-05-05T08:01:09Z</time>
      </trkpt>
      <trkpt lat="45.63446" lon="5.95161">
        <ele>950</ele>
        <time>2012-05-05T08:01:10Z</time>
      </trkpt>
      <trkpt lat="45.63451" lon="5.9516">
        <ele>948.40002441406</ele>
        <time>2012-05-05T08:01:15Z</time>
      </trkpt>
      <trkpt lat="45.63454" lon="5.95161">
        <ele>948.40002441406</ele>
        <time>2012-05-05T08:01:18Z</time>
      </trkpt>
      <trkpt lat="45.63463" lon="5.95161">
        <ele>946</ele>
        <time>2012-05-05T08:01:26Z</time>
      </trkpt>
      <trkpt lat="45.63466" lon="5.95161">
        <ele>946</ele>
        <time>2012-05-05T08:01:28Z</time>
      </trkpt>
      <trkpt lat="45.63469" lon="5.95165">
        <ele>947.40002441406</ele>
        <time>2012-05-05T08:01:33Z</time>
      </trkpt>
      <trkpt lat="45.63469" lon="5.95165">
        <ele>947.40002441406</ele>
        <time>2012-05-05T08:01:34Z</time>
      </trkpt>
      <trkpt lat="45.63478" lon="5.95175">
        <ele>948.20001220703</ele>
        <time>2012-05-05T08:01:43Z</time>
      </trkpt>
      <trkpt lat="45.63479" lon="5.95176">
        <ele>948.20001220703</ele>
        <time>2012-05-05T08:01:45Z</time>
      </trkpt>
      <trkpt lat="45.63482" lon="5.95181">
        <ele>948.79998779297</ele>
        <time>2012-05-05T08:01:50Z</time>
      </trkpt>
      <trkpt lat="45.63483" lon="5.95182">
        <ele>948.79998779297</ele>
        <time>2012-05-05T08:01:51Z</time>
      </trkpt>
      <trkpt lat="45.63491" lon="5.95189">
        <ele>949</ele>
        <time>2012-05-05T08:02:00Z</time>
      </trkpt>
      <trkpt lat="45.63492" lon="5.9519">
        <ele>949.20001220703</ele>
        <time>2012-05-05T08:02:01Z</time>
      </trkpt>
      <trkpt lat="45.63494" lon="5.95193">
        <ele>949.40002441406</ele>
        <time>2012-05-05T08:02:05Z</time>
      </trkpt>
      <trkpt lat="45.63495" lon="5.95195">
        <ele>949.79998779297</ele>
        <time>2012-05-05T08:02:07Z</time>
      </trkpt>
      <trkpt lat="45.63498" lon="5.95204">
        <ele>951.59997558594</ele>
        <time>2012-05-05T08:02:15Z</time>
      </trkpt>
      <trkpt lat="45.63497" lon="5.95206">
        <ele>952.20001220703</ele>
        <time>2012-05-05T08:02:17Z</time>
      </trkpt>
      <trkpt lat="45.63497" lon="5.95205">
        <ele>952</ele>
        <time>2012-05-05T08:02:20Z</time>
      </trkpt>
      <trkpt lat="45.63497" lon="5.95203">
        <ele>951.59997558594</ele>
        <time>2012-05-05T08:02:23Z</time>
      </trkpt>
      <trkpt lat="45.63496" lon="5.95201">
        <ele>951.20001220703</ele>
        <time>2012-05-05T08:02:28Z</time>
      </trkpt>
      <trkpt lat="45.63495" lon="5.95202">
        <ele>951.40002441406</ele>
        <time>2012-05-05T08:02:29Z</time>
      </trkpt>
      <trkpt lat="45.6349" lon="5.95203">
        <ele>952.20001220703</ele>
        <time>2012-05-05T08:02:34Z</time>
      </trkpt>
      <trkpt lat="45.63487" lon="5.95202">
        <ele>952.40002441406</ele>
        <time>2012-05-05T08:02:38Z</time>
      </trkpt>
      <trkpt lat="45.63485" lon="5.95201">
        <ele>952.40002441406</ele>
        <time>2012-05-05T08:02:43Z</time>
      </trkpt>
      <trkpt lat="45.63482" lon="5.95201">
        <ele>952.79998779297</ele>
        <time>2012-05-05T08:02:48Z</time>
      </trkpt>
      <trkpt lat="45.63478" lon="5.95203">
        <ele>953.79998779297</ele>
        <time>2012-05-05T08:02:53Z</time>
      </trkpt>
      <trkpt lat="45.63472" lon="5.95203">
        <ele>954.59997558594</ele>
        <time>2012-05-05T08:02:57Z</time>
      </trkpt>
      <trkpt lat="45.63472" lon="5.95202">
        <ele>954.40002441406</ele>
        <time>2012-05-05T08:02:59Z</time>
      </trkpt>
      <trkpt lat="45.6347" lon="5.95202">
        <ele>954.59997558594</ele>
        <time>2012-05-05T08:03:00Z</time>
      </trkpt>
      <trkpt lat="45.63459" lon="5.95212">
        <ele>957.40002441406</ele>
        <time>2012-05-05T08:03:05Z</time>
      </trkpt>
      <trkpt lat="45.63458" lon="5.95214">
        <ele>957.79998779297</ele>
        <time>2012-05-05T08:03:06Z</time>
      </trkpt>
      <trkpt lat="45.63453" lon="5.9523">
        <ele>960.59997558594</ele>
        <time>2012-05-05T08:03:11Z</time>
      </trkpt>
      <trkpt lat="45.63449" lon="5.95244">
        <ele>962.79998779297</ele>
        <time>2012-05-05T08:03:15Z</time>
      </trkpt>
      <trkpt lat="45.63447" lon="5.95253">
        <ele>964.20001220703</ele>
        <time>2012-05-05T08:03:18Z</time>
      </trkpt>
      <trkpt lat="45.63446" lon="5.95258">
        <ele>965.20001220703</ele>
        <time>2012-05-05T08:03:20Z</time>
      </trkpt>
      <trkpt lat="45.63446" lon="5.95268">
        <ele>967.20001220703</ele>
        <time>2012-05-05T08:03:24Z</time>
      </trkpt>
      <trkpt lat="45.63446" lon="5.9527">
        <ele>967.59997558594</ele>
        <time>2012-05-05T08:03:25Z</time>
      </trkpt>
      <trkpt lat="45.63444" lon="5.95282">
        <ele>970</ele>
        <time>2012-05-05T08:03:30Z</time>
      </trkpt>
      <trkpt lat="45.63444" lon="5.95285">
        <ele>970.40002441406</ele>
        <time>2012-05-05T08:03:31Z</time>
      </trkpt>
      <trkpt lat="45.63443" lon="5.95295">
        <ele>972.59997558594</ele>
        <time>2012-05-05T08:03:37Z</time>
      </trkpt>
      <trkpt lat="45.63442" lon="5.95299">
        <ele>973.20001220703</ele>
        <time>2012-05-05T08:03:39Z</time>
      </trkpt>
      <trkpt lat="45.63441" lon="5.95303">
        <ele>974</ele>
        <time>2012-05-05T08:03:42Z</time>
      </trkpt>
      <trkpt lat="45.6344" lon="5.95307">
        <ele>974.79998779297</ele>
        <time>2012-05-05T08:03:44Z</time>
      </trkpt>
      <trkpt lat="45.63441" lon="5.95312">
        <ele>975.79998779297</ele>
        <time>2012-05-05T08:03:48Z</time>
      </trkpt>
      <trkpt lat="45.63442" lon="5.95313">
        <ele>976</ele>
        <time>2012-05-05T08:03:49Z</time>
      </trkpt>
      <trkpt lat="45.63455" lon="5.95318">
        <ele>977</ele>
        <time>2012-05-05T08:03:55Z</time>
      </trkpt>
      <trkpt lat="45.63467" lon="5.95324">
        <ele>978.20001220703</ele>
        <time>2012-05-05T08:04:00Z</time>
      </trkpt>
      <trkpt lat="45.6348" lon="5.95328">
        <ele>979</ele>
        <time>2012-05-05T08:04:05Z</time>
      </trkpt>
      <trkpt lat="45.63492" lon="5.95336">
        <ele>980.40002441406</ele>
        <time>2012-05-05T08:04:09Z</time>
      </trkpt>
      <trkpt lat="45.63502" lon="5.95343">
        <ele>981.40002441406</ele>
        <time>2012-05-05T08:04:13Z</time>
      </trkpt>
      <trkpt lat="45.6351" lon="5.95345">
        <ele>981.20001220703</ele>
        <time>2012-05-05T08:04:16Z</time>
      </trkpt>
      <trkpt lat="45.63513" lon="5.95346">
        <ele>980.79998779297</ele>
        <time>2012-05-05T08:04:18Z</time>
      </trkpt>
      <trkpt lat="45.63522" lon="5.95346">
        <ele>980.20001220703</ele>
        <time>2012-05-05T08:04:21Z</time>
      </trkpt>
      <trkpt lat="45.63538" lon="5.9535">
        <ele>979.40002441406</ele>
        <time>2012-05-05T08:04:26Z</time>
      </trkpt>
      <trkpt lat="45.63546" lon="5.95351">
        <ele>979</ele>
        <time>2012-05-05T08:04:29Z</time>
      </trkpt>
      <trkpt lat="45.63568" lon="5.95357">
        <ele>978.40002441406</ele>
        <time>2012-05-05T08:04:37Z</time>
      </trkpt>
      <trkpt lat="45.63572" lon="5.95357">
        <ele>978</ele>
        <time>2012-05-05T08:04:39Z</time>
      </trkpt>
      <trkpt lat="45.63593" lon="5.95364">
        <ele>977.79998779297</ele>
        <time>2012-05-05T08:04:46Z</time>
      </trkpt>
      <trkpt lat="45.63608" lon="5.95375">
        <ele>978.40002441406</ele>
        <time>2012-05-05T08:04:51Z</time>
      </trkpt>
      <trkpt lat="45.63615" lon="5.95383">
        <ele>979.20001220703</ele>
        <time>2012-05-05T08:04:54Z</time>
      </trkpt>
      <trkpt lat="45.63623" lon="5.95389">
        <ele>979.40002441406</ele>
        <time>2012-05-05T08:04:56Z</time>
      </trkpt>
      <trkpt lat="45.63654" lon="5.95412">
        <ele>979.20001220703</ele>
        <time>2012-05-05T08:05:07Z</time>
      </trkpt>
      <trkpt lat="45.63665" lon="5.95421">
        <ele>978.79998779297</ele>
        <time>2012-05-05T08:05:11Z</time>
      </trkpt>
      <trkpt lat="45.63677" lon="5.95428">
        <ele>977.40002441406</ele>
        <time>2012-05-05T08:05:16Z</time>
      </trkpt>
      <trkpt lat="45.63692" lon="5.95437">
        <ele>975.59997558594</ele>
        <time>2012-05-05T08:05:21Z</time>
      </trkpt>
      <trkpt lat="45.63713" lon="5.95461">
        <ele>973.40002441406</ele>
        <time>2012-05-05T08:05:30Z</time>
      </trkpt>
      <trkpt lat="45.63717" lon="5.95464">
        <ele>972.79998779297</ele>
        <time>2012-05-05T08:05:31Z</time>
      </trkpt>
      <trkpt lat="45.63723" lon="5.95473">
        <ele>972.20001220703</ele>
        <time>2012-05-05T08:05:34Z</time>
      </trkpt>
      <trkpt lat="45.6373" lon="5.95481">
        <ele>970.79998779297</ele>
        <time>2012-05-05T08:05:37Z</time>
      </trkpt>
      <trkpt lat="45.63725" lon="5.95504">
        <ele>974.20001220703</ele>
        <time>2012-05-05T08:05:44Z</time>
      </trkpt>
      <trkpt lat="45.63718" lon="5.95517">
        <ele>977.20001220703</ele>
        <time>2012-05-05T08:05:47Z</time>
      </trkpt>
      <trkpt lat="45.63719" lon="5.9553">
        <ele>978.20001220703</ele>
        <time>2012-05-05T08:05:51Z</time>
      </trkpt>
      <trkpt lat="45.63721" lon="5.95535">
        <ele>978.20001220703</ele>
        <time>2012-05-05T08:05:53Z</time>
      </trkpt>
      <trkpt lat="45.63722" lon="5.95543">
        <ele>978.59997558594</ele>
        <time>2012-05-05T08:05:56Z</time>
      </trkpt>
      <trkpt lat="45.63722" lon="5.95546">
        <ele>979</ele>
        <time>2012-05-05T08:05:57Z</time>
      </trkpt>
      <trkpt lat="45.63722" lon="5.95557">
        <ele>980</ele>
        <time>2012-05-05T08:06:01Z</time>
      </trkpt>
      <trkpt lat="45.63722" lon="5.9556">
        <ele>980</ele>
        <time>2012-05-05T08:06:02Z</time>
      </trkpt>
      <trkpt lat="45.63726" lon="5.95574">
        <ele>980</ele>
        <time>2012-05-05T08:06:07Z</time>
      </trkpt>
      <trkpt lat="45.63729" lon="5.95578">
        <ele>979.59997558594</ele>
        <time>2012-05-05T08:06:09Z</time>
      </trkpt>
      <trkpt lat="45.63731" lon="5.95583">
        <ele>979.20001220703</ele>
        <time>2012-05-05T08:06:11Z</time>
      </trkpt>
      <trkpt lat="45.63731" lon="5.95586">
        <ele>980</ele>
        <time>2012-05-05T08:06:12Z</time>
      </trkpt>
      <trkpt lat="45.63733" lon="5.95595">
        <ele>981.79998779297</ele>
        <time>2012-05-05T08:06:15Z</time>
      </trkpt>
      <trkpt lat="45.63737" lon="5.95605">
        <ele>983.40002441406</ele>
        <time>2012-05-05T08:06:19Z</time>
      </trkpt>
      <trkpt lat="45.63741" lon="5.95615">
        <ele>985.40002441406</ele>
        <time>2012-05-05T08:06:23Z</time>
      </trkpt>
      <trkpt lat="45.63745" lon="5.95621">
        <ele>985.79998779297</ele>
        <time>2012-05-05T08:06:26Z</time>
      </trkpt>
      <trkpt lat="45.6375" lon="5.95629">
        <ele>986.59997558594</ele>
        <time>2012-05-05T08:06:30Z</time>
      </trkpt>
      <trkpt lat="45.63751" lon="5.95631">
        <ele>987</ele>
        <time>2012-05-05T08:06:31Z</time>
      </trkpt>
      <trkpt lat="45.63754" lon="5.95642">
        <ele>989.79998779297</ele>
        <time>2012-05-05T08:06:36Z</time>
      </trkpt>
      <trkpt lat="45.63755" lon="5.95644">
        <ele>990.20001220703</ele>
        <time>2012-05-05T08:06:37Z</time>
      </trkpt>
      <trkpt lat="45.6376" lon="5.95654">
        <ele>992.40002441406</ele>
        <time>2012-05-05T08:06:43Z</time>
      </trkpt>
      <trkpt lat="45.63761" lon="5.95658">
        <ele>993.40002441406</ele>
        <time>2012-05-05T08:06:45Z</time>
      </trkpt>
      <trkpt lat="45.63765" lon="5.95664">
        <ele>994.40002441406</ele>
        <time>2012-05-05T08:06:49Z</time>
      </trkpt>
      <trkpt lat="45.63769" lon="5.95668">
        <ele>995.40002441406</ele>
        <time>2012-05-05T08:06:52Z</time>
      </trkpt>
      <trkpt lat="45.63771" lon="5.9567">
        <ele>996.20001220703</ele>
        <time>2012-05-05T08:06:54Z</time>
      </trkpt>
      <trkpt lat="45.63774" lon="5.95674">
        <ele>997.59997558594</ele>
        <time>2012-05-05T08:06:57Z</time>
      </trkpt>
      <trkpt lat="45.6378" lon="5.95679">
        <ele>999</ele>
        <time>2012-05-05T08:07:01Z</time>
      </trkpt>
      <trkpt lat="45.63788" lon="5.95684">
        <ele>1000.4000244141</ele>
        <time>2012-05-05T08:07:05Z</time>
      </trkpt>
      <trkpt lat="45.63814" lon="5.95702">
        <ele>1004.5999755859</ele>
        <time>2012-05-05T08:07:15Z</time>
      </trkpt>
      <trkpt lat="45.63829" lon="5.95709">
        <ele>1005.799987793</ele>
        <time>2012-05-05T08:07:20Z</time>
      </trkpt>
      <trkpt lat="45.63838" lon="5.95711">
        <ele>1005.200012207</ele>
        <time>2012-05-05T08:07:25Z</time>
      </trkpt>
      <trkpt lat="45.63846" lon="5.95715">
        <ele>1006.5999755859</ele>
        <time>2012-05-05T08:07:29Z</time>
      </trkpt>
      <trkpt lat="45.63852" lon="5.95719">
        <ele>1008</ele>
        <time>2012-05-05T08:07:34Z</time>
      </trkpt>
      <trkpt lat="45.63854" lon="5.9572">
        <ele>1008.200012207</ele>
        <time>2012-05-05T08:07:35Z</time>
      </trkpt>
      <trkpt lat="45.63864" lon="5.95723">
        <ele>1009</ele>
        <time>2012-05-05T08:07:39Z</time>
      </trkpt>
      <trkpt lat="45.63869" lon="5.95726">
        <ele>1009.4000244141</ele>
        <time>2012-05-05T08:07:42Z</time>
      </trkpt>
      <trkpt lat="45.63873" lon="5.95726">
        <ele>1009.200012207</ele>
        <time>2012-05-05T08:07:44Z</time>
      </trkpt>
      <trkpt lat="45.63879" lon="5.95727">
        <ele>1008.5999755859</ele>
        <time>2012-05-05T08:07:47Z</time>
      </trkpt>
      <trkpt lat="45.63886" lon="5.95726">
        <ele>1007.5999755859</ele>
        <time>2012-05-05T08:07:54Z</time>
      </trkpt>
      <trkpt lat="45.6389" lon="5.95726">
        <ele>1007.200012207</ele>
        <time>2012-05-05T08:07:58Z</time>
      </trkpt>
      <trkpt lat="45.63906" lon="5.95745">
        <ele>1012.5999755859</ele>
        <time>2012-05-05T08:08:07Z</time>
      </trkpt>
      <trkpt lat="45.63914" lon="5.95756">
        <ele>1016.4000244141</ele>
        <time>2012-05-05T08:08:11Z</time>
      </trkpt>
      <trkpt lat="45.63916" lon="5.95763">
        <ele>1019.5999755859</ele>
        <time>2012-05-05T08:08:24Z</time>
      </trkpt>
      <trkpt lat="45.63916" lon="5.95763">
        <ele>1019.5999755859</ele>
        <time>2012-05-05T08:08:29Z</time>
      </trkpt>
      <trkpt lat="45.63919" lon="5.95762">
        <ele>1018.4000244141</ele>
        <time>2012-05-05T08:08:36Z</time>
      </trkpt>
      <trkpt lat="45.63926" lon="5.95761">
        <ele>1017.799987793</ele>
        <time>2012-05-05T08:08:40Z</time>
      </trkpt>
      <trkpt lat="45.63947" lon="5.95758">
        <ele>1016</ele>
        <time>2012-05-05T08:08:51Z</time>
      </trkpt>
      <trkpt lat="45.63952" lon="5.95758">
        <ele>1015.799987793</ele>
        <time>2012-05-05T08:08:55Z</time>
      </trkpt>
      <trkpt lat="45.63956" lon="5.95757">
        <ele>1014.5999755859</ele>
        <time>2012-05-05T08:08:59Z</time>
      </trkpt>
      <trkpt lat="45.63961" lon="5.95755">
        <ele>1013.5999755859</ele>
        <time>2012-05-05T08:09:03Z</time>
      </trkpt>
      <trkpt lat="45.63966" lon="5.95754">
        <ele>1013</ele>
        <time>2012-05-05T08:09:07Z</time>
      </trkpt>
      <trkpt lat="45.63968" lon="5.95755">
        <ele>1013.200012207</ele>
        <time>2012-05-05T08:09:09Z</time>
      </trkpt>
      <trkpt lat="45.6397" lon="5.95756">
        <ele>1013.5999755859</ele>
        <time>2012-05-05T08:09:11Z</time>
      </trkpt>
      <trkpt lat="45.63972" lon="5.95756">
        <ele>1013.799987793</ele>
        <time>2012-05-05T08:09:14Z</time>
      </trkpt>
      <trkpt lat="45.63975" lon="5.95758">
        <ele>1014.799987793</ele>
        <time>2012-05-05T08:09:17Z</time>
      </trkpt>
      <trkpt lat="45.63979" lon="5.9576">
        <ele>1015.5999755859</ele>
        <time>2012-05-05T08:09:20Z</time>
      </trkpt>
      <trkpt lat="45.63984" lon="5.95761">
        <ele>1015.799987793</ele>
        <time>2012-05-05T08:09:23Z</time>
      </trkpt>
      <trkpt lat="45.63985" lon="5.95759">
        <ele>1015</ele>
        <time>2012-05-05T08:09:24Z</time>
      </trkpt>
      <trkpt lat="45.63991" lon="5.95754">
        <ele>1011.799987793</ele>
        <time>2012-05-05T08:09:28Z</time>
      </trkpt>
      <trkpt lat="45.63993" lon="5.95753">
        <ele>1011.200012207</ele>
        <time>2012-05-05T08:09:29Z</time>
      </trkpt>
      <trkpt lat="45.64005" lon="5.95747">
        <ele>1008.799987793</ele>
        <time>2012-05-05T08:09:35Z</time>
      </trkpt>
      <trkpt lat="45.64007" lon="5.95745">
        <ele>1008.5999755859</ele>
        <time>2012-05-05T08:09:36Z</time>
      </trkpt>
      <trkpt lat="45.64017" lon="5.95739">
        <ele>1008.799987793</ele>
        <time>2012-05-05T08:09:42Z</time>
      </trkpt>
      <trkpt lat="45.64019" lon="5.95737">
        <ele>1008.4000244141</ele>
        <time>2012-05-05T08:09:44Z</time>
      </trkpt>
      <trkpt lat="45.64025" lon="5.95736">
        <ele>1009.200012207</ele>
        <time>2012-05-05T08:09:47Z</time>
      </trkpt>
      <trkpt lat="45.64026" lon="5.95737">
        <ele>1009.5999755859</ele>
        <time>2012-05-05T08:09:48Z</time>
      </trkpt>
      <trkpt lat="45.64038" lon="5.95743">
        <ele>1014.4000244141</ele>
        <time>2012-05-05T08:09:55Z</time>
      </trkpt>
      <trkpt lat="45.64044" lon="5.95747">
        <ele>1017.200012207</ele>
        <time>2012-05-05T08:10:00Z</time>
      </trkpt>
      <trkpt lat="45.64048" lon="5.95748">
        <ele>1018.799987793</ele>
        <time>2012-05-05T08:10:04Z</time>
      </trkpt>
      <trkpt lat="45.64051" lon="5.95749">
        <ele>1019.5999755859</ele>
        <time>2012-05-05T08:10:06Z</time>
      </trkpt>
      <trkpt lat="45.64053" lon="5.95749">
        <ele>1020.200012207</ele>
        <time>2012-05-05T08:10:08Z</time>
      </trkpt>
      <trkpt lat="45.64057" lon="5.9575">
        <ele>1021.200012207</ele>
        <time>2012-05-05T08:10:11Z</time>
      </trkpt>
      <trkpt lat="45.6406" lon="5.9575">
        <ele>1021.799987793</ele>
        <time>2012-05-05T08:10:15Z</time>
      </trkpt>
      <trkpt lat="45.64063" lon="5.9575">
        <ele>1022.5999755859</ele>
        <time>2012-05-05T08:10:17Z</time>
      </trkpt>
      <trkpt lat="45.64069" lon="5.95751">
        <ele>1024.4000244141</ele>
        <time>2012-05-05T08:10:21Z</time>
      </trkpt>
      <trkpt lat="45.6407" lon="5.95751">
        <ele>1024.4000244141</ele>
        <time>2012-05-05T08:10:22Z</time>
      </trkpt>
      <trkpt lat="45.64075" lon="5.95751">
        <ele>1026</ele>
        <time>2012-05-05T08:10:25Z</time>
      </trkpt>
      <trkpt lat="45.6408" lon="5.95752">
        <ele>1027.4000244141</ele>
        <time>2012-05-05T08:10:27Z</time>
      </trkpt>
      <trkpt lat="45.64088" lon="5.95748">
        <ele>1027.1999511719</ele>
        <time>2012-05-05T08:10:31Z</time>
      </trkpt>
      <trkpt lat="45.64093" lon="5.95745">
        <ele>1027.1999511719</ele>
        <time>2012-05-05T08:10:34Z</time>
      </trkpt>
      <trkpt lat="45.64095" lon="5.95741">
        <ele>1026</ele>
        <time>2012-05-05T08:10:37Z</time>
      </trkpt>
      <trkpt lat="45.64097" lon="5.95741">
        <ele>1026.4000244141</ele>
        <time>2012-05-05T08:10:38Z</time>
      </trkpt>
      <trkpt lat="45.64108" lon="5.95741">
        <ele>1028.8000488281</ele>
        <time>2012-05-05T08:10:44Z</time>
      </trkpt>
      <trkpt lat="45.64113" lon="5.95741">
        <ele>1030</ele>
        <time>2012-05-05T08:10:48Z</time>
      </trkpt>
      <trkpt lat="45.64118" lon="5.95741">
        <ele>1031</ele>
        <time>2012-05-05T08:10:52Z</time>
      </trkpt>
      <trkpt lat="45.64123" lon="5.9574">
        <ele>1031.5999755859</ele>
        <time>2012-05-05T08:10:56Z</time>
      </trkpt>
      <trkpt lat="45.64125" lon="5.9574">
        <ele>1031.8000488281</ele>
        <time>2012-05-05T08:10:58Z</time>
      </trkpt>
      <trkpt lat="45.64127" lon="5.95739">
        <ele>1032</ele>
        <time>2012-05-05T08:11:00Z</time>
      </trkpt>
      <trkpt lat="45.64132" lon="5.95738">
        <ele>1032.5999755859</ele>
        <time>2012-05-05T08:11:03Z</time>
      </trkpt>
      <trkpt lat="45.64133" lon="5.95738">
        <ele>1033</ele>
        <time>2012-05-05T08:11:04Z</time>
      </trkpt>
      <trkpt lat="45.64138" lon="5.95736">
        <ele>1033.4000244141</ele>
        <time>2012-05-05T08:11:08Z</time>
      </trkpt>
      <trkpt lat="45.64142" lon="5.95734">
        <ele>1033.4000244141</ele>
        <time>2012-05-05T08:11:11Z</time>
      </trkpt>
      <trkpt lat="45.64145" lon="5.95733">
        <ele>1033.5999755859</ele>
        <time>2012-05-05T08:11:14Z</time>
      </trkpt>
      <trkpt lat="45.6415" lon="5.95733">
        <ele>1035</ele>
        <time>2012-05-05T08:11:17Z</time>
      </trkpt>
      <trkpt lat="45.64152" lon="5.95732">
        <ele>1035</ele>
        <time>2012-05-05T08:11:20Z</time>
      </trkpt>
      <trkpt lat="45.64156" lon="5.9573">
        <ele>1035.1999511719</ele>
        <time>2012-05-05T08:11:22Z</time>
      </trkpt>
      <trkpt lat="45.64165" lon="5.95729">
        <ele>1037</ele>
        <time>2012-05-05T08:11:28Z</time>
      </trkpt>
      <trkpt lat="45.64167" lon="5.95729">
        <ele>1037.4000244141</ele>
        <time>2012-05-05T08:11:30Z</time>
      </trkpt>
      <trkpt lat="45.64172" lon="5.9573">
        <ele>1038.5999755859</ele>
        <time>2012-05-05T08:11:34Z</time>
      </trkpt>
      <trkpt lat="45.64174" lon="5.9573">
        <ele>1039</ele>
        <time>2012-05-05T08:11:36Z</time>
      </trkpt>
      <trkpt lat="45.64182" lon="5.9573">
        <ele>1040.4000244141</ele>
        <time>2012-05-05T08:11:42Z</time>
      </trkpt>
      <trkpt lat="45.64185" lon="5.9573">
        <ele>1040.8000488281</ele>
        <time>2012-05-05T08:11:45Z</time>
      </trkpt>
      <trkpt lat="45.64194" lon="5.95732">
        <ele>1043</ele>
        <time>2012-05-05T08:11:50Z</time>
      </trkpt>
      <trkpt lat="45.64196" lon="5.95732">
        <ele>1043.5999755859</ele>
        <time>2012-05-05T08:11:51Z</time>
      </trkpt>
      <trkpt lat="45.64209" lon="5.95733">
        <ele>1046.4000244141</ele>
        <time>2012-05-05T08:11:57Z</time>
      </trkpt>
      <trkpt lat="45.64214" lon="5.95735">
        <ele>1047.8000488281</ele>
        <time>2012-05-05T08:11:59Z</time>
      </trkpt>
      <trkpt lat="45.6422" lon="5.95736">
        <ele>1049.1999511719</ele>
        <time>2012-05-05T08:12:02Z</time>
      </trkpt>
      <trkpt lat="45.6423" lon="5.95738">
        <ele>1051.5999755859</ele>
        <time>2012-05-05T08:12:07Z</time>
      </trkpt>
      <trkpt lat="45.64237" lon="5.95741">
        <ele>1053.5999755859</ele>
        <time>2012-05-05T08:12:11Z</time>
      </trkpt>
      <trkpt lat="45.64237" lon="5.95741">
        <ele>1053.4000244141</ele>
        <time>2012-05-05T08:12:12Z</time>
      </trkpt>
      <trkpt lat="45.64244" lon="5.95742">
        <ele>1055</ele>
        <time>2012-05-05T08:12:15Z</time>
      </trkpt>
      <trkpt lat="45.64252" lon="5.95743">
        <ele>1056.1999511719</ele>
        <time>2012-05-05T08:12:19Z</time>
      </trkpt>
      <trkpt lat="45.64261" lon="5.95745">
        <ele>1057.1999511719</ele>
        <time>2012-05-05T08:12:23Z</time>
      </trkpt>
      <trkpt lat="45.64265" lon="5.95746">
        <ele>1057.5999755859</ele>
        <time>2012-05-05T08:12:26Z</time>
      </trkpt>
      <trkpt lat="45.64274" lon="5.95747">
        <ele>1058.5999755859</ele>
        <time>2012-05-05T08:12:33Z</time>
      </trkpt>
      <trkpt lat="45.64277" lon="5.95748">
        <ele>1058.8000488281</ele>
        <time>2012-05-05T08:12:35Z</time>
      </trkpt>
      <trkpt lat="45.6429" lon="5.95754">
        <ele>1062</ele>
        <time>2012-05-05T08:12:44Z</time>
      </trkpt>
      <trkpt lat="45.6429" lon="5.95755">
        <ele>1062.5999755859</ele>
        <time>2012-05-05T08:12:45Z</time>
      </trkpt>
      <trkpt lat="45.64295" lon="5.95761">
        <ele>1066</ele>
        <time>2012-05-05T08:12:50Z</time>
      </trkpt>
      <trkpt lat="45.64297" lon="5.95765">
        <ele>1067.8000488281</ele>
        <time>2012-05-05T08:12:53Z</time>
      </trkpt>
      <trkpt lat="45.64298" lon="5.95769">
        <ele>1069.8000488281</ele>
        <time>2012-05-05T08:12:56Z</time>
      </trkpt>
      <trkpt lat="45.64302" lon="5.95773">
        <ele>1072</ele>
        <time>2012-05-05T08:13:00Z</time>
      </trkpt>
      <trkpt lat="45.64306" lon="5.95779">
        <ele>1074.4000244141</ele>
        <time>2012-05-05T08:13:05Z</time>
      </trkpt>
      <trkpt lat="45.64308" lon="5.95781">
        <ele>1075.4000244141</ele>
        <time>2012-05-05T08:13:07Z</time>
      </trkpt>
      <trkpt lat="45.6431" lon="5.95784">
        <ele>1076.5999755859</ele>
        <time>2012-05-05T08:13:12Z</time>
      </trkpt>
      <trkpt lat="45.64312" lon="5.95786">
        <ele>1077.8000488281</ele>
        <time>2012-05-05T08:13:14Z</time>
      </trkpt>
      <trkpt lat="45.64313" lon="5.95789">
        <ele>1078.8000488281</ele>
        <time>2012-05-05T08:13:16Z</time>
      </trkpt>
      <trkpt lat="45.64313" lon="5.95789">
        <ele>1079</ele>
        <time>2012-05-05T08:13:18Z</time>
      </trkpt>
      <trkpt lat="45.64318" lon="5.9579">
        <ele>1079</ele>
        <time>2012-05-05T08:13:23Z</time>
      </trkpt>
      <trkpt lat="45.64323" lon="5.95788">
        <ele>1077.5999755859</ele>
        <time>2012-05-05T08:13:28Z</time>
      </trkpt>
      <trkpt lat="45.64332" lon="5.95786">
        <ele>1076.4000244141</ele>
        <time>2012-05-05T08:13:33Z</time>
      </trkpt>
      <trkpt lat="45.64334" lon="5.95786">
        <ele>1076.1999511719</ele>
        <time>2012-05-05T08:13:34Z</time>
      </trkpt>
      <trkpt lat="45.64343" lon="5.95789">
        <ele>1075.8000488281</ele>
        <time>2012-05-05T08:13:37Z</time>
      </trkpt>
      <trkpt lat="45.64346" lon="5.95789">
        <ele>1075.8000488281</ele>
        <time>2012-05-05T08:13:38Z</time>
      </trkpt>
      <trkpt lat="45.64362" lon="5.95793">
        <ele>1075</ele>
        <time>2012-05-05T08:13:43Z</time>
      </trkpt>
      <trkpt lat="45.64368" lon="5.95794">
        <ele>1074.4000244141</ele>
        <time>2012-05-05T08:13:45Z</time>
      </trkpt>
      <trkpt lat="45.64384" lon="5.95797">
        <ele>1073.1999511719</ele>
        <time>2012-05-05T08:13:51Z</time>
      </trkpt>
      <trkpt lat="45.64386" lon="5.95798">
        <ele>1073.1999511719</ele>
        <time>2012-05-05T08:13:52Z</time>
      </trkpt>
      <trkpt lat="45.64396" lon="5.95802">
        <ele>1073.4000244141</ele>
        <time>2012-05-05T08:13:56Z</time>
      </trkpt>
      <trkpt lat="45.64406" lon="5.95808">
        <ele>1074</ele>
        <time>2012-05-05T08:14:00Z</time>
      </trkpt>
      <trkpt lat="45.64419" lon="5.95812">
        <ele>1072.8000488281</ele>
        <time>2012-05-05T08:14:05Z</time>
      </trkpt>
      <trkpt lat="45.64426" lon="5.95816">
        <ele>1071.5999755859</ele>
        <time>2012-05-05T08:14:09Z</time>
      </trkpt>
      <trkpt lat="45.64436" lon="5.95826">
        <ele>1071.4000244141</ele>
        <time>2012-05-05T08:14:14Z</time>
      </trkpt>
      <trkpt lat="45.64443" lon="5.9583">
        <ele>1070.1999511719</ele>
        <time>2012-05-05T08:14:16Z</time>
      </trkpt>
      <trkpt lat="45.64451" lon="5.95843">
        <ele>1071.8000488281</ele>
        <time>2012-05-05T08:14:20Z</time>
      </trkpt>
      <trkpt lat="45.64452" lon="5.95848">
        <ele>1073.4000244141</ele>
        <time>2012-05-05T08:14:21Z</time>
      </trkpt>
      <trkpt lat="45.64454" lon="5.95859">
        <ele>1076.4000244141</ele>
        <time>2012-05-05T08:14:24Z</time>
      </trkpt>
      <trkpt lat="45.64461" lon="5.95868">
        <ele>1076.1999511719</ele>
        <time>2012-05-05T08:14:27Z</time>
      </trkpt>
      <trkpt lat="45.6447" lon="5.95882">
        <ele>1076.1999511719</ele>
        <time>2012-05-05T08:14:31Z</time>
      </trkpt>
      <trkpt lat="45.64478" lon="5.95895">
        <ele>1075.8000488281</ele>
        <time>2012-05-05T08:14:36Z</time>
      </trkpt>
      <trkpt lat="45.64481" lon="5.95903">
        <ele>1076</ele>
        <time>2012-05-05T08:14:39Z</time>
      </trkpt>
      <trkpt lat="45.64482" lon="5.95906">
        <ele>1076</ele>
        <time>2012-05-05T08:14:40Z</time>
      </trkpt>
      <trkpt lat="45.64487" lon="5.9591">
        <ele>1073.8000488281</ele>
        <time>2012-05-05T08:14:44Z</time>
      </trkpt>
      <trkpt lat="45.64496" lon="5.95906">
        <ele>1067.1999511719</ele>
        <time>2012-05-05T08:14:48Z</time>
      </trkpt>
      <trkpt lat="45.64504" lon="5.95911">
        <ele>1065.4000244141</ele>
        <time>2012-05-05T08:14:52Z</time>
      </trkpt>
      <trkpt lat="45.64512" lon="5.95914">
        <ele>1065</ele>
        <time>2012-05-05T08:14:55Z</time>
      </trkpt>
      <trkpt lat="45.64516" lon="5.95918">
        <ele>1065.4000244141</ele>
        <time>2012-05-05T08:14:57Z</time>
      </trkpt>
      <trkpt lat="45.64518" lon="5.95922">
        <ele>1067.1999511719</ele>
        <time>2012-05-05T08:14:59Z</time>
      </trkpt>
      <trkpt lat="45.64527" lon="5.95938">
        <ele>1072.8000488281</ele>
        <time>2012-05-05T08:15:06Z</time>
      </trkpt>
      <trkpt lat="45.64528" lon="5.95937">
        <ele>1072</ele>
        <time>2012-05-05T08:15:07Z</time>
      </trkpt>
      <trkpt lat="45.64533" lon="5.95931">
        <ele>1068.8000488281</ele>
        <time>2012-05-05T08:15:11Z</time>
      </trkpt>
      <trkpt lat="45.64539" lon="5.95928">
        <ele>1066.5999755859</ele>
        <time>2012-05-05T08:15:13Z</time>
      </trkpt>
      <trkpt lat="45.64549" lon="5.95926">
        <ele>1064.5999755859</ele>
        <time>2012-05-05T08:15:17Z</time>
      </trkpt>
      <trkpt lat="45.64554" lon="5.95928">
        <ele>1064.5999755859</ele>
        <time>2012-05-05T08:15:20Z</time>
      </trkpt>
      <trkpt lat="45.6456" lon="5.9593">
        <ele>1064.8000488281</ele>
        <time>2012-05-05T08:15:23Z</time>
      </trkpt>
      <trkpt lat="45.64563" lon="5.95933">
        <ele>1065.5999755859</ele>
        <time>2012-05-05T08:15:26Z</time>
      </trkpt>
      <trkpt lat="45.64567" lon="5.95937">
        <ele>1066.8000488281</ele>
        <time>2012-05-05T08:15:30Z</time>
      </trkpt>
      <trkpt lat="45.64572" lon="5.95942">
        <ele>1068.5999755859</ele>
        <time>2012-05-05T08:15:34Z</time>
      </trkpt>
      <trkpt lat="45.64572" lon="5.95946">
        <ele>1070</ele>
        <time>2012-05-05T08:15:36Z</time>
      </trkpt>
      <trkpt lat="45.64575" lon="5.95952">
        <ele>1072.1999511719</ele>
        <time>2012-05-05T08:15:40Z</time>
      </trkpt>
      <trkpt lat="45.64575" lon="5.95954">
        <ele>1073.1999511719</ele>
        <time>2012-05-05T08:15:42Z</time>
      </trkpt>
      <trkpt lat="45.64581" lon="5.95952">
        <ele>1071.8000488281</ele>
        <time>2012-05-05T08:15:46Z</time>
      </trkpt>
      <trkpt lat="45.64586" lon="5.95945">
        <ele>1068.8000488281</ele>
        <time>2012-05-05T08:15:49Z</time>
      </trkpt>
      <trkpt lat="45.6459" lon="5.95944">
        <ele>1069.1999511719</ele>
        <time>2012-05-05T08:15:51Z</time>
      </trkpt>
      <trkpt lat="45.64601" lon="5.95942">
        <ele>1070.4000244141</ele>
        <time>2012-05-05T08:15:56Z</time>
      </trkpt>
      <trkpt lat="45.64605" lon="5.9594">
        <ele>1070.1999511719</ele>
        <time>2012-05-05T08:15:58Z</time>
      </trkpt>
      <trkpt lat="45.64615" lon="5.9594">
        <ele>1072.1999511719</ele>
        <time>2012-05-05T08:16:04Z</time>
      </trkpt>
      <trkpt lat="45.64616" lon="5.95941">
        <ele>1072.8000488281</ele>
        <time>2012-05-05T08:16:05Z</time>
      </trkpt>
      <trkpt lat="45.64623" lon="5.95943">
        <ele>1075</ele>
        <time>2012-05-05T08:16:10Z</time>
      </trkpt>
      <trkpt lat="45.64625" lon="5.95944">
        <ele>1075.5999755859</ele>
        <time>2012-05-05T08:16:11Z</time>
      </trkpt>
      <trkpt lat="45.64633" lon="5.95947">
        <ele>1078.5999755859</ele>
        <time>2012-05-05T08:16:18Z</time>
      </trkpt>
      <trkpt lat="45.64634" lon="5.95948">
        <ele>1079</ele>
        <time>2012-05-05T08:16:19Z</time>
      </trkpt>
      <trkpt lat="45.64638" lon="5.95949">
        <ele>1080.1999511719</ele>
        <time>2012-05-05T08:16:24Z</time>
      </trkpt>
      <trkpt lat="45.6464" lon="5.95949">
        <ele>1080.5999755859</ele>
        <time>2012-05-05T08:16:27Z</time>
      </trkpt>
      <trkpt lat="45.64647" lon="5.9595">
        <ele>1082.5999755859</ele>
        <time>2012-05-05T08:16:32Z</time>
      </trkpt>
      <trkpt lat="45.6465" lon="5.95951">
        <ele>1083.1999511719</ele>
        <time>2012-05-05T08:16:34Z</time>
      </trkpt>
      <trkpt lat="45.64656" lon="5.95949">
        <ele>1083.5999755859</ele>
        <time>2012-05-05T08:16:38Z</time>
      </trkpt>
      <trkpt lat="45.6466" lon="5.95948">
        <ele>1084.1999511719</ele>
        <time>2012-05-05T08:16:41Z</time>
      </trkpt>
      <trkpt lat="45.64668" lon="5.95947">
        <ele>1085.1999511719</ele>
        <time>2012-05-05T08:16:48Z</time>
      </trkpt>
      <trkpt lat="45.64672" lon="5.95946">
        <ele>1084.8000488281</ele>
        <time>2012-05-05T08:16:51Z</time>
      </trkpt>
      <trkpt lat="45.64674" lon="5.95946">
        <ele>1085</ele>
        <time>2012-05-05T08:16:54Z</time>
      </trkpt>
      <trkpt lat="45.64676" lon="5.95944">
        <ele>1084.5999755859</ele>
        <time>2012-05-05T08:16:57Z</time>
      </trkpt>
      <trkpt lat="45.64682" lon="5.95945">
        <ele>1085.4000244141</ele>
        <time>2012-05-05T08:17:02Z</time>
      </trkpt>
      <trkpt lat="45.64685" lon="5.95946">
        <ele>1085.8000488281</ele>
        <time>2012-05-05T08:17:05Z</time>
      </trkpt>
      <trkpt lat="45.64689" lon="5.95946">
        <ele>1086.1999511719</ele>
        <time>2012-05-05T08:17:09Z</time>
      </trkpt>
      <trkpt lat="45.64692" lon="5.95946">
        <ele>1086</ele>
        <time>2012-05-05T08:17:13Z</time>
      </trkpt>
      <trkpt lat="45.64694" lon="5.95944">
        <ele>1085.8000488281</ele>
        <time>2012-05-05T08:17:16Z</time>
      </trkpt>
      <trkpt lat="45.64699" lon="5.95944">
        <ele>1086</ele>
        <time>2012-05-05T08:17:21Z</time>
      </trkpt>
      <trkpt lat="45.64704" lon="5.95944">
        <ele>1086.4000244141</ele>
        <time>2012-05-05T08:17:26Z</time>
      </trkpt>
      <trkpt lat="45.64705" lon="5.95944">
        <ele>1086.4000244141</ele>
        <time>2012-05-05T08:17:27Z</time>
      </trkpt>
      <trkpt lat="45.64708" lon="5.95945">
        <ele>1087</ele>
        <time>2012-05-05T08:17:31Z</time>
      </trkpt>
      <trkpt lat="45.64712" lon="5.95946">
        <ele>1087.5999755859</ele>
        <time>2012-05-05T08:17:34Z</time>
      </trkpt>
      <trkpt lat="45.64718" lon="5.95945">
        <ele>1087.5999755859</ele>
        <time>2012-05-05T08:17:38Z</time>
      </trkpt>
      <trkpt lat="45.64723" lon="5.95945">
        <ele>1087.8000488281</ele>
        <time>2012-05-05T08:17:41Z</time>
      </trkpt>
      <trkpt lat="45.64734" lon="5.9596">
        <ele>1092.5999755859</ele>
        <time>2012-05-05T08:17:49Z</time>
      </trkpt>
      <trkpt lat="45.64738" lon="5.95967">
        <ele>1094.8000488281</ele>
        <time>2012-05-05T08:17:51Z</time>
      </trkpt>
      <trkpt lat="45.64743" lon="5.95973">
        <ele>1096.4000244141</ele>
        <time>2012-05-05T08:17:53Z</time>
      </trkpt>
      <trkpt lat="45.64746" lon="5.95975">
        <ele>1097</ele>
        <time>2012-05-05T08:17:54Z</time>
      </trkpt>
      <trkpt lat="45.64755" lon="5.95985">
        <ele>1098.1999511719</ele>
        <time>2012-05-05T08:17:58Z</time>
      </trkpt>
      <trkpt lat="45.64761" lon="5.95997">
        <ele>1099.1999511719</ele>
        <time>2012-05-05T08:18:02Z</time>
      </trkpt>
      <trkpt lat="45.64765" lon="5.96006">
        <ele>1101.1999511719</ele>
        <time>2012-05-05T08:18:07Z</time>
      </trkpt>
      <trkpt lat="45.64767" lon="5.96006">
        <ele>1100.5999755859</ele>
        <time>2012-05-05T08:18:08Z</time>
      </trkpt>
      <trkpt lat="45.64779" lon="5.96009">
        <ele>1098.5999755859</ele>
        <time>2012-05-05T08:18:12Z</time>
      </trkpt>
      <trkpt lat="45.64781" lon="5.96011">
        <ele>1098.5999755859</ele>
        <time>2012-05-05T08:18:13Z</time>
      </trkpt>
      <trkpt lat="45.64797" lon="5.96025">
        <ele>1099.4000244141</ele>
        <time>2012-05-05T08:18:20Z</time>
      </trkpt>
      <trkpt lat="45.648" lon="5.96027">
        <ele>1099.4000244141</ele>
        <time>2012-05-05T08:18:21Z</time>
      </trkpt>
      <trkpt lat="45.64809" lon="5.9603">
        <ele>1097.8000488281</ele>
        <time>2012-05-05T08:18:24Z</time>
      </trkpt>
      <trkpt lat="45.64811" lon="5.9603">
        <ele>1097</ele>
        <time>2012-05-05T08:18:25Z</time>
      </trkpt>
      <trkpt lat="45.64819" lon="5.96036">
        <ele>1096.5999755859</ele>
        <time>2012-05-05T08:18:29Z</time>
      </trkpt>
      <trkpt lat="45.64824" lon="5.96042">
        <ele>1097</ele>
        <time>2012-05-05T08:18:32Z</time>
      </trkpt>
      <trkpt lat="45.64832" lon="5.96047">
        <ele>1096.1999511719</ele>
        <time>2012-05-05T08:18:35Z</time>
      </trkpt>
      <trkpt lat="45.64835" lon="5.96048">
        <ele>1095.8000488281</ele>
        <time>2012-05-05T08:18:36Z</time>
      </trkpt>
      <trkpt lat="45.64851" lon="5.96058">
        <ele>1095.5999755859</ele>
        <time>2012-05-05T08:18:42Z</time>
      </trkpt>
      <trkpt lat="45.64859" lon="5.96063">
        <ele>1095.4000244141</ele>
        <time>2012-05-05T08:18:46Z</time>
      </trkpt>
      <trkpt lat="45.64864" lon="5.96067">
        <ele>1095.8000488281</ele>
        <time>2012-05-05T08:18:48Z</time>
      </trkpt>
      <trkpt lat="45.64866" lon="5.96067">
        <ele>1095.4000244141</ele>
        <time>2012-05-05T08:18:49Z</time>
      </trkpt>
      <trkpt lat="45.64885" lon="5.96062">
        <ele>1089.5999755859</ele>
        <time>2012-05-05T08:18:56Z</time>
      </trkpt>
      <trkpt lat="45.64891" lon="5.96063">
        <ele>1088.5999755859</ele>
        <time>2012-05-05T08:18:59Z</time>
      </trkpt>
      <trkpt lat="45.64898" lon="5.96063">
        <ele>1087.1999511719</ele>
        <time>2012-05-05T08:19:03Z</time>
      </trkpt>
      <trkpt lat="45.64899" lon="5.96063">
        <ele>1087</ele>
        <time>2012-05-05T08:19:04Z</time>
      </trkpt>
      <trkpt lat="45.64903" lon="5.96066">
        <ele>1086.8000488281</ele>
        <time>2012-05-05T08:19:07Z</time>
      </trkpt>
      <trkpt lat="45.64907" lon="5.96067">
        <ele>1086.1999511719</ele>
        <time>2012-05-05T08:19:11Z</time>
      </trkpt>
      <trkpt lat="45.6491" lon="5.96068">
        <ele>1085.8000488281</ele>
        <time>2012-05-05T08:19:15Z</time>
      </trkpt>
      <trkpt lat="45.64915" lon="5.96069">
        <ele>1085</ele>
        <time>2012-05-05T08:19:19Z</time>
      </trkpt>
      <trkpt lat="45.64923" lon="5.96072">
        <ele>1086.1999511719</ele>
        <time>2012-05-05T08:19:25Z</time>
      </trkpt>
      <trkpt lat="45.64926" lon="5.96072">
        <ele>1086.5999755859</ele>
        <time>2012-05-05T08:19:27Z</time>
      </trkpt>
      <trkpt lat="45.64937" lon="5.96077">
        <ele>1089</ele>
        <time>2012-05-05T08:19:32Z</time>
      </trkpt>
      <trkpt lat="45.64942" lon="5.96078">
        <ele>1090.1999511719</ele>
        <time>2012-05-05T08:19:37Z</time>
      </trkpt>
      <trkpt lat="45.64951" lon="5.9608">
        <ele>1091.8000488281</ele>
        <time>2012-05-05T08:19:43Z</time>
      </trkpt>
      <trkpt lat="45.64954" lon="5.9608">
        <ele>1092.1999511719</ele>
        <time>2012-05-05T08:19:46Z</time>
      </trkpt>
      <trkpt lat="45.6496" lon="5.9608">
        <ele>1092.8000488281</ele>
        <time>2012-05-05T08:19:50Z</time>
      </trkpt>
      <trkpt lat="45.64961" lon="5.96081">
        <ele>1093.1999511719</ele>
        <time>2012-05-05T08:19:51Z</time>
      </trkpt>
      <trkpt lat="45.6497" lon="5.9608">
        <ele>1094.4000244141</ele>
        <time>2012-05-05T08:19:56Z</time>
      </trkpt>
      <trkpt lat="45.64973" lon="5.96077">
        <ele>1094</ele>
        <time>2012-05-05T08:19:58Z</time>
      </trkpt>
      <trkpt lat="45.64986" lon="5.96074">
        <ele>1094.8000488281</ele>
        <time>2012-05-05T08:20:03Z</time>
      </trkpt>
      <trkpt lat="45.64996" lon="5.9607">
        <ele>1095.4000244141</ele>
        <time>2012-05-05T08:20:08Z</time>
      </trkpt>
      <trkpt lat="45.65004" lon="5.96069">
        <ele>1096.5999755859</ele>
        <time>2012-05-05T08:20:13Z</time>
      </trkpt>
      <trkpt lat="45.65011" lon="5.96069">
        <ele>1098.5999755859</ele>
        <time>2012-05-05T08:20:17Z</time>
      </trkpt>
      <trkpt lat="45.6502" lon="5.96073">
        <ele>1101.8000488281</ele>
        <time>2012-05-05T08:20:23Z</time>
      </trkpt>
      <trkpt lat="45.65022" lon="5.96073">
        <ele>1102.1999511719</ele>
        <time>2012-05-05T08:20:24Z</time>
      </trkpt>
      <trkpt lat="45.65026" lon="5.96071">
        <ele>1102.8000488281</ele>
        <time>2012-05-05T08:20:28Z</time>
      </trkpt>
      <trkpt lat="45.65029" lon="5.96073">
        <ele>1104</ele>
        <time>2012-05-05T08:20:32Z</time>
      </trkpt>
      <trkpt lat="45.65031" lon="5.96074">
        <ele>1105</ele>
        <time>2012-05-05T08:20:36Z</time>
      </trkpt>
      <trkpt lat="45.65032" lon="5.96073">
        <ele>1105.1999511719</ele>
        <time>2012-05-05T08:20:37Z</time>
      </trkpt>
      <trkpt lat="45.65039" lon="5.96067">
        <ele>1105.4000244141</ele>
        <time>2012-05-05T08:20:42Z</time>
      </trkpt>
      <trkpt lat="45.65041" lon="5.96067">
        <ele>1105.5999755859</ele>
        <time>2012-05-05T08:20:43Z</time>
      </trkpt>
      <trkpt lat="45.65056" lon="5.96058">
        <ele>1107.1999511719</ele>
        <time>2012-05-05T08:20:52Z</time>
      </trkpt>
      <trkpt lat="45.65065" lon="5.96048">
        <ele>1107.4000244141</ele>
        <time>2012-05-05T08:20:57Z</time>
      </trkpt>
      <trkpt lat="45.65074" lon="5.96029">
        <ele>1105</ele>
        <time>2012-05-05T08:21:06Z</time>
      </trkpt>
      <trkpt lat="45.65075" lon="5.96026">
        <ele>1104.4000244141</ele>
        <time>2012-05-05T08:21:07Z</time>
      </trkpt>
      <trkpt lat="45.65075" lon="5.96022">
        <ele>1103.5999755859</ele>
        <time>2012-05-05T08:21:09Z</time>
      </trkpt>
      <trkpt lat="45.65076" lon="5.96021">
        <ele>1103.4000244141</ele>
        <time>2012-05-05T08:21:10Z</time>
      </trkpt>
      <trkpt lat="45.65079" lon="5.9602">
        <ele>1103.8000488281</ele>
        <time>2012-05-05T08:21:13Z</time>
      </trkpt>
      <trkpt lat="45.6508" lon="5.96019">
        <ele>1104</ele>
        <time>2012-05-05T08:21:14Z</time>
      </trkpt>
      <trkpt lat="45.65083" lon="5.96018">
        <ele>1104.4000244141</ele>
        <time>2012-05-05T08:21:16Z</time>
      </trkpt>
      <trkpt lat="45.65085" lon="5.96013">
        <ele>1104</ele>
        <time>2012-05-05T08:21:19Z</time>
      </trkpt>
      <trkpt lat="45.65093" lon="5.96008">
        <ele>1105.5999755859</ele>
        <time>2012-05-05T08:21:24Z</time>
      </trkpt>
      <trkpt lat="45.65096" lon="5.96004">
        <ele>1105.5999755859</ele>
        <time>2012-05-05T08:21:26Z</time>
      </trkpt>
      <trkpt lat="45.65101" lon="5.95997">
        <ele>1106</ele>
        <time>2012-05-05T08:21:29Z</time>
      </trkpt>
      <trkpt lat="45.65102" lon="5.95995">
        <ele>1106.4000244141</ele>
        <time>2012-05-05T08:21:30Z</time>
      </trkpt>
      <trkpt lat="45.65103" lon="5.95988">
        <ele>1106.8000488281</ele>
        <time>2012-05-05T08:21:33Z</time>
      </trkpt>
      <trkpt lat="45.65103" lon="5.95986">
        <ele>1106.4000244141</ele>
        <time>2012-05-05T08:21:34Z</time>
      </trkpt>
      <trkpt lat="45.65103" lon="5.95971">
        <ele>1106.1999511719</ele>
        <time>2012-05-05T08:21:41Z</time>
      </trkpt>
      <trkpt lat="45.65105" lon="5.95966">
        <ele>1106.5999755859</ele>
        <time>2012-05-05T08:21:44Z</time>
      </trkpt>
      <trkpt lat="45.65109" lon="5.95956">
        <ele>1107.1999511719</ele>
        <time>2012-05-05T08:21:48Z</time>
      </trkpt>
      <trkpt lat="45.65114" lon="5.9595">
        <ele>1108.4000244141</ele>
        <time>2012-05-05T08:21:52Z</time>
      </trkpt>
      <trkpt lat="45.65117" lon="5.95946">
        <ele>1109.1999511719</ele>
        <time>2012-05-05T08:21:55Z</time>
      </trkpt>
      <trkpt lat="45.65118" lon="5.95943">
        <ele>1109.1999511719</ele>
        <time>2012-05-05T08:21:58Z</time>
      </trkpt>
      <trkpt lat="45.65122" lon="5.95933">
        <ele>1109.5999755859</ele>
        <time>2012-05-05T08:22:06Z</time>
      </trkpt>
      <trkpt lat="45.65123" lon="5.9593">
        <ele>1109.8000488281</ele>
        <time>2012-05-05T08:22:08Z</time>
      </trkpt>
      <trkpt lat="45.65125" lon="5.95924">
        <ele>1110.1999511719</ele>
        <time>2012-05-05T08:22:12Z</time>
      </trkpt>
      <trkpt lat="45.65126" lon="5.95923">
        <ele>1110.1999511719</ele>
        <time>2012-05-05T08:22:13Z</time>
      </trkpt>
      <trkpt lat="45.65129" lon="5.95917">
        <ele>1110.5999755859</ele>
        <time>2012-05-05T08:22:19Z</time>
      </trkpt>
      <trkpt lat="45.6513" lon="5.95916">
        <ele>1110.8000488281</ele>
        <time>2012-05-05T08:22:21Z</time>
      </trkpt>
      <trkpt lat="45.65134" lon="5.95913">
        <ele>1111.4000244141</ele>
        <time>2012-05-05T08:22:26Z</time>
      </trkpt>
      <trkpt lat="45.65136" lon="5.95911">
        <ele>1111.8000488281</ele>
        <time>2012-05-05T08:22:28Z</time>
      </trkpt>
      <trkpt lat="45.65141" lon="5.9591">
        <ele>1113</ele>
        <time>2012-05-05T08:22:33Z</time>
      </trkpt>
      <trkpt lat="45.65142" lon="5.95909">
        <ele>1113.1999511719</ele>
        <time>2012-05-05T08:22:34Z</time>
      </trkpt>
      <trkpt lat="45.65148" lon="5.95909">
        <ele>1114.5999755859</ele>
        <time>2012-05-05T08:22:39Z</time>
      </trkpt>
      <trkpt lat="45.65152" lon="5.95909">
        <ele>1115.5999755859</ele>
        <time>2012-05-05T08:22:44Z</time>
      </trkpt>
      <trkpt lat="45.65155" lon="5.95912">
        <ele>1116.5999755859</ele>
        <time>2012-05-05T08:22:48Z</time>
      </trkpt>
      <trkpt lat="45.65156" lon="5.95912">
        <ele>1116.8000488281</ele>
        <time>2012-05-05T08:22:49Z</time>
      </trkpt>
      <trkpt lat="45.65159" lon="5.95913">
        <ele>1117.8000488281</ele>
        <time>2012-05-05T08:22:53Z</time>
      </trkpt>
      <trkpt lat="45.65163" lon="5.95914">
        <ele>1118.8000488281</ele>
        <time>2012-05-05T08:22:57Z</time>
      </trkpt>
      <trkpt lat="45.65167" lon="5.95914">
        <ele>1119.8000488281</ele>
        <time>2012-05-05T08:23:02Z</time>
      </trkpt>
      <trkpt lat="45.65171" lon="5.95915">
        <ele>1120.4000244141</ele>
        <time>2012-05-05T08:23:06Z</time>
      </trkpt>
      <trkpt lat="45.65175" lon="5.95915">
        <ele>1121.1999511719</ele>
        <time>2012-05-05T08:23:11Z</time>
      </trkpt>
      <trkpt lat="45.65178" lon="5.95914">
        <ele>1121.4000244141</ele>
        <time>2012-05-05T08:23:13Z</time>
      </trkpt>
      <trkpt lat="45.65181" lon="5.95913">
        <ele>1121.8000488281</ele>
        <time>2012-05-05T08:23:17Z</time>
      </trkpt>
      <trkpt lat="45.65184" lon="5.95911">
        <ele>1122</ele>
        <time>2012-05-05T08:23:21Z</time>
      </trkpt>
      <trkpt lat="45.65189" lon="5.95909">
        <ele>1122.5999755859</ele>
        <time>2012-05-05T08:23:26Z</time>
      </trkpt>
      <trkpt lat="45.6519" lon="5.95909">
        <ele>1122.8000488281</ele>
        <time>2012-05-05T08:23:27Z</time>
      </trkpt>
      <trkpt lat="45.65199" lon="5.95908">
        <ele>1123.8000488281</ele>
        <time>2012-05-05T08:23:36Z</time>
      </trkpt>
      <trkpt lat="45.65206" lon="5.9591">
        <ele>1125.1999511719</ele>
        <time>2012-05-05T08:23:40Z</time>
      </trkpt>
      <trkpt lat="45.65225" lon="5.95913">
        <ele>1128.4000244141</ele>
        <time>2012-05-05T08:23:48Z</time>
      </trkpt>
      <trkpt lat="45.65233" lon="5.95917">
        <ele>1130.1999511719</ele>
        <time>2012-05-05T08:23:51Z</time>
      </trkpt>
      <trkpt lat="45.65235" lon="5.9592">
        <ele>1131.1999511719</ele>
        <time>2012-05-05T08:23:53Z</time>
      </trkpt>
      <trkpt lat="45.65244" lon="5.95923">
        <ele>1133.1999511719</ele>
        <time>2012-05-05T08:23:56Z</time>
      </trkpt>
      <trkpt lat="45.65258" lon="5.95926">
        <ele>1134.4000244141</ele>
        <time>2012-05-05T08:24:03Z</time>
      </trkpt>
      <trkpt lat="45.6526" lon="5.95927">
        <ele>1134.4000244141</ele>
        <time>2012-05-05T08:24:04Z</time>
      </trkpt>
      <trkpt lat="45.65278" lon="5.95932">
        <ele>1133.8000488281</ele>
        <time>2012-05-05T08:24:10Z</time>
      </trkpt>
      <trkpt lat="45.65281" lon="5.95933">
        <ele>1133.5999755859</ele>
        <time>2012-05-05T08:24:11Z</time>
      </trkpt>
      <trkpt lat="45.65288" lon="5.95933">
        <ele>1133</ele>
        <time>2012-05-05T08:24:14Z</time>
      </trkpt>
      <trkpt lat="45.65289" lon="5.95934">
        <ele>1133</ele>
        <time>2012-05-05T08:24:15Z</time>
      </trkpt>
      <trkpt lat="45.6531" lon="5.95946">
        <ele>1132.1999511719</ele>
        <time>2012-05-05T08:24:23Z</time>
      </trkpt>
      <trkpt lat="45.65316" lon="5.95954">
        <ele>1132.1999511719</ele>
        <time>2012-05-05T08:24:27Z</time>
      </trkpt>
      <trkpt lat="45.6533" lon="5.95967">
        <ele>1130.8000488281</ele>
        <time>2012-05-05T08:24:32Z</time>
      </trkpt>
      <trkpt lat="45.65335" lon="5.95972">
        <ele>1130.1999511719</ele>
        <time>2012-05-05T08:24:34Z</time>
      </trkpt>
      <trkpt lat="45.6534" lon="5.95979">
        <ele>1129.4000244141</ele>
        <time>2012-05-05T08:24:37Z</time>
      </trkpt>
      <trkpt lat="45.65344" lon="5.95984">
        <ele>1129</ele>
        <time>2012-05-05T08:24:39Z</time>
      </trkpt>
      <trkpt lat="45.65349" lon="5.95984">
        <ele>1128</ele>
        <time>2012-05-05T08:24:41Z</time>
      </trkpt>
      <trkpt lat="45.65352" lon="5.95985">
        <ele>1127.4000244141</ele>
        <time>2012-05-05T08:24:42Z</time>
      </trkpt>
      <trkpt lat="45.65357" lon="5.95987">
        <ele>1126.5999755859</ele>
        <time>2012-05-05T08:24:44Z</time>
      </trkpt>
      <trkpt lat="45.65361" lon="5.95989">
        <ele>1126</ele>
        <time>2012-05-05T08:24:45Z</time>
      </trkpt>
      <trkpt lat="45.65366" lon="5.95992">
        <ele>1125.1999511719</ele>
        <time>2012-05-05T08:24:47Z</time>
      </trkpt>
      <trkpt lat="45.65372" lon="5.95994">
        <ele>1124.4000244141</ele>
        <time>2012-05-05T08:24:49Z</time>
      </trkpt>
      <trkpt lat="45.65382" lon="5.96007">
        <ele>1124.5999755859</ele>
        <time>2012-05-05T08:24:54Z</time>
      </trkpt>
      <trkpt lat="45.65388" lon="5.96009">
        <ele>1123.8000488281</ele>
        <time>2012-05-05T08:24:56Z</time>
      </trkpt>
      <trkpt lat="45.65399" lon="5.9601">
        <ele>1122</ele>
        <time>2012-05-05T08:25:00Z</time>
      </trkpt>
      <trkpt lat="45.65403" lon="5.96011">
        <ele>1121.5999755859</ele>
        <time>2012-05-05T08:25:01Z</time>
      </trkpt>
      <trkpt lat="45.65406" lon="5.96013">
        <ele>1121.4000244141</ele>
        <time>2012-05-05T08:25:03Z</time>
      </trkpt>
      <trkpt lat="45.65408" lon="5.96014">
        <ele>1121.1999511719</ele>
        <time>2012-05-05T08:25:04Z</time>
      </trkpt>
      <trkpt lat="45.65421" lon="5.96021">
        <ele>1120.8000488281</ele>
        <time>2012-05-05T08:25:09Z</time>
      </trkpt>
      <trkpt lat="45.65424" lon="5.96021">
        <ele>1120.5999755859</ele>
        <time>2012-05-05T08:25:10Z</time>
      </trkpt>
      <trkpt lat="45.65442" lon="5.96016">
        <ele>1118.8000488281</ele>
        <time>2012-05-05T08:25:16Z</time>
      </trkpt>
      <trkpt lat="45.65453" lon="5.9602">
        <ele>1119</ele>
        <time>2012-05-05T08:25:21Z</time>
      </trkpt>
      <trkpt lat="45.65465" lon="5.96028">
        <ele>1120</ele>
        <time>2012-05-05T08:25:25Z</time>
      </trkpt>
      <trkpt lat="45.65475" lon="5.96027">
        <ele>1119.4000244141</ele>
        <time>2012-05-05T08:25:29Z</time>
      </trkpt>
      <trkpt lat="45.65485" lon="5.96024">
        <ele>1118.4000244141</ele>
        <time>2012-05-05T08:25:33Z</time>
      </trkpt>
      <trkpt lat="45.65487" lon="5.96023">
        <ele>1118.1999511719</ele>
        <time>2012-05-05T08:25:34Z</time>
      </trkpt>
      <trkpt lat="45.65506" lon="5.96016">
        <ele>1115.5999755859</ele>
        <time>2012-05-05T08:25:43Z</time>
      </trkpt>
      <trkpt lat="45.65509" lon="5.96015">
        <ele>1115.1999511719</ele>
        <time>2012-05-05T08:25:44Z</time>
      </trkpt>
      <trkpt lat="45.65519" lon="5.96013">
        <ele>1113.8000488281</ele>
        <time>2012-05-05T08:25:47Z</time>
      </trkpt>
      <trkpt lat="45.65522" lon="5.96016">
        <ele>1114</ele>
        <time>2012-05-05T08:25:48Z</time>
      </trkpt>
      <trkpt lat="45.65539" lon="5.96023">
        <ele>1113.5999755859</ele>
        <time>2012-05-05T08:25:54Z</time>
      </trkpt>
      <trkpt lat="45.65543" lon="5.96027">
        <ele>1113.5999755859</ele>
        <time>2012-05-05T08:25:56Z</time>
      </trkpt>
      <trkpt lat="45.6555" lon="5.96039">
        <ele>1114.1999511719</ele>
        <time>2012-05-05T08:26:00Z</time>
      </trkpt>
      <trkpt lat="45.65552" lon="5.96041">
        <ele>1114.1999511719</ele>
        <time>2012-05-05T08:26:01Z</time>
      </trkpt>
      <trkpt lat="45.65557" lon="5.96045">
        <ele>1114.1999511719</ele>
        <time>2012-05-05T08:26:04Z</time>
      </trkpt>
      <trkpt lat="45.65557" lon="5.96045">
        <ele>1114.1999511719</ele>
        <time>2012-05-05T08:26:05Z</time>
      </trkpt>
      <trkpt lat="45.65567" lon="5.96053">
        <ele>1113.5999755859</ele>
        <time>2012-05-05T08:26:10Z</time>
      </trkpt>
      <trkpt lat="45.65573" lon="5.9606">
        <ele>1113.5999755859</ele>
        <time>2012-05-05T08:26:14Z</time>
      </trkpt>
      <trkpt lat="45.65586" lon="5.96067">
        <ele>1111.5999755859</ele>
        <time>2012-05-05T08:26:18Z</time>
      </trkpt>
      <trkpt lat="45.65597" lon="5.96078">
        <ele>1108.4000244141</ele>
        <time>2012-05-05T08:26:22Z</time>
      </trkpt>
      <trkpt lat="45.65611" lon="5.96093">
        <ele>1104.5999755859</ele>
        <time>2012-05-05T08:26:28Z</time>
      </trkpt>
      <trkpt lat="45.65617" lon="5.961">
        <ele>1102.8000488281</ele>
        <time>2012-05-05T08:26:31Z</time>
      </trkpt>
      <trkpt lat="45.65624" lon="5.96105">
        <ele>1101</ele>
        <time>2012-05-05T08:26:34Z</time>
      </trkpt>
      <trkpt lat="45.65628" lon="5.96108">
        <ele>1099.8000488281</ele>
        <time>2012-05-05T08:26:36Z</time>
      </trkpt>
      <trkpt lat="45.65639" lon="5.96116">
        <ele>1096.5999755859</ele>
        <time>2012-05-05T08:26:40Z</time>
      </trkpt>
      <trkpt lat="45.65644" lon="5.96126">
        <ele>1095.8000488281</ele>
        <time>2012-05-05T08:26:43Z</time>
      </trkpt>
      <trkpt lat="45.65647" lon="5.96132">
        <ele>1095.5999755859</ele>
        <time>2012-05-05T08:26:45Z</time>
      </trkpt>
      <trkpt lat="45.65649" lon="5.96134">
        <ele>1095</ele>
        <time>2012-05-05T08:26:46Z</time>
      </trkpt>
      <trkpt lat="45.65653" lon="5.9614">
        <ele>1094.4000244141</ele>
        <time>2012-05-05T08:26:48Z</time>
      </trkpt>
      <trkpt lat="45.65654" lon="5.96144">
        <ele>1094.5999755859</ele>
        <time>2012-05-05T08:26:49Z</time>
      </trkpt>
      <trkpt lat="45.65659" lon="5.96157">
        <ele>1094.5999755859</ele>
        <time>2012-05-05T08:26:52Z</time>
      </trkpt>
      <trkpt lat="45.65664" lon="5.96165">
        <ele>1093.8000488281</ele>
        <time>2012-05-05T08:26:54Z</time>
      </trkpt>
      <trkpt lat="45.65667" lon="5.96172">
        <ele>1093.4000244141</ele>
        <time>2012-05-05T08:26:56Z</time>
      </trkpt>
      <trkpt lat="45.65672" lon="5.96179">
        <ele>1092.8000488281</ele>
        <time>2012-05-05T08:26:59Z</time>
      </trkpt>
      <trkpt lat="45.65677" lon="5.9619">
        <ele>1092.5999755859</ele>
        <time>2012-05-05T08:27:02Z</time>
      </trkpt>
      <trkpt lat="45.65678" lon="5.96193">
        <ele>1092.5999755859</ele>
        <time>2012-05-05T08:27:03Z</time>
      </trkpt>
      <trkpt lat="45.6568" lon="5.96199">
        <ele>1092.8000488281</ele>
        <time>2012-05-05T08:27:05Z</time>
      </trkpt>
      <trkpt lat="45.65682" lon="5.96201">
        <ele>1092.4000244141</ele>
        <time>2012-05-05T08:27:06Z</time>
      </trkpt>
      <trkpt lat="45.65692" lon="5.96209">
        <ele>1090.8000488281</ele>
        <time>2012-05-05T08:27:10Z</time>
      </trkpt>
      <trkpt lat="45.65697" lon="5.96212">
        <ele>1089.5999755859</ele>
        <time>2012-05-05T08:27:12Z</time>
      </trkpt>
      <trkpt lat="45.65703" lon="5.96215">
        <ele>1088.4000244141</ele>
        <time>2012-05-05T08:27:15Z</time>
      </trkpt>
      <trkpt lat="45.65706" lon="5.96217">
        <ele>1088</ele>
        <time>2012-05-05T08:27:16Z</time>
      </trkpt>
      <trkpt lat="45.65716" lon="5.96222">
        <ele>1086.1999511719</ele>
        <time>2012-05-05T08:27:21Z</time>
      </trkpt>
      <trkpt lat="45.65717" lon="5.96224">
        <ele>1086</ele>
        <time>2012-05-05T08:27:22Z</time>
      </trkpt>
      <trkpt lat="45.65733" lon="5.96223">
        <ele>1082</ele>
        <time>2012-05-05T08:27:28Z</time>
      </trkpt>
      <trkpt lat="45.65736" lon="5.96222">
        <ele>1081</ele>
        <time>2012-05-05T08:27:29Z</time>
      </trkpt>
      <trkpt lat="45.65743" lon="5.96224">
        <ele>1079.5999755859</ele>
        <time>2012-05-05T08:27:32Z</time>
      </trkpt>
      <trkpt lat="45.65745" lon="5.96226">
        <ele>1079.4000244141</ele>
        <time>2012-05-05T08:27:33Z</time>
      </trkpt>
      <trkpt lat="45.65752" lon="5.96233">
        <ele>1078.5999755859</ele>
        <time>2012-05-05T08:27:38Z</time>
      </trkpt>
      <trkpt lat="45.65761" lon="5.96235">
        <ele>1077.8000488281</ele>
        <time>2012-05-05T08:27:41Z</time>
      </trkpt>
      <trkpt lat="45.65771" lon="5.96237">
        <ele>1077.1999511719</ele>
        <time>2012-05-05T08:27:45Z</time>
      </trkpt>
      <trkpt lat="45.65783" lon="5.96236">
        <ele>1075.5999755859</ele>
        <time>2012-05-05T08:27:49Z</time>
      </trkpt>
      <trkpt lat="45.65793" lon="5.96238">
        <ele>1074.8000488281</ele>
        <time>2012-05-05T08:27:53Z</time>
      </trkpt>
      <trkpt lat="45.65801" lon="5.96241">
        <ele>1074.4000244141</ele>
        <time>2012-05-05T08:27:56Z</time>
      </trkpt>
      <trkpt lat="45.65806" lon="5.96241">
        <ele>1074</ele>
        <time>2012-05-05T08:27:58Z</time>
      </trkpt>
      <trkpt lat="45.65809" lon="5.96241">
        <ele>1073.5999755859</ele>
        <time>2012-05-05T08:27:59Z</time>
      </trkpt>
      <trkpt lat="45.6582" lon="5.96239">
        <ele>1072</ele>
        <time>2012-05-05T08:28:02Z</time>
      </trkpt>
      <trkpt lat="45.65831" lon="5.96239">
        <ele>1070.8000488281</ele>
        <time>2012-05-05T08:28:05Z</time>
      </trkpt>
      <trkpt lat="45.65836" lon="5.96241">
        <ele>1070.5999755859</ele>
        <time>2012-05-05T08:28:07Z</time>
      </trkpt>
      <trkpt lat="45.65838" lon="5.96243">
        <ele>1070.8000488281</ele>
        <time>2012-05-05T08:28:08Z</time>
      </trkpt>
      <trkpt lat="45.65846" lon="5.96255">
        <ele>1072.5999755859</ele>
        <time>2012-05-05T08:28:13Z</time>
      </trkpt>
      <trkpt lat="45.65857" lon="5.96261">
        <ele>1073</ele>
        <time>2012-05-05T08:28:18Z</time>
      </trkpt>
      <trkpt lat="45.65869" lon="5.96268">
        <ele>1073.4000244141</ele>
        <time>2012-05-05T08:28:26Z</time>
      </trkpt>
      <trkpt lat="45.65874" lon="5.96268">
        <ele>1072.5999755859</ele>
        <time>2012-05-05T08:28:27Z</time>
      </trkpt>
      <trkpt lat="45.65888" lon="5.96269">
        <ele>1070.8000488281</ele>
        <time>2012-05-05T08:28:32Z</time>
      </trkpt>
      <trkpt lat="45.65893" lon="5.96269">
        <ele>1070</ele>
        <time>2012-05-05T08:28:34Z</time>
      </trkpt>
      <trkpt lat="45.659" lon="5.96267">
        <ele>1068.5999755859</ele>
        <time>2012-05-05T08:28:38Z</time>
      </trkpt>
      <trkpt lat="45.65907" lon="5.96268">
        <ele>1067.8000488281</ele>
        <time>2012-05-05T08:28:40Z</time>
      </trkpt>
      <trkpt lat="45.65921" lon="5.96263">
        <ele>1064.5999755859</ele>
        <time>2012-05-05T08:28:45Z</time>
      </trkpt>
      <trkpt lat="45.65937" lon="5.96252">
        <ele>1060.4000244141</ele>
        <time>2012-05-05T08:28:51Z</time>
      </trkpt>
      <trkpt lat="45.65955" lon="5.96247">
        <ele>1058</ele>
        <time>2012-05-05T08:28:59Z</time>
      </trkpt>
      <trkpt lat="45.65958" lon="5.96247">
        <ele>1057.8000488281</ele>
        <time>2012-05-05T08:29:01Z</time>
      </trkpt>
      <trkpt lat="45.65971" lon="5.96248">
        <ele>1057.4000244141</ele>
        <time>2012-05-05T08:29:06Z</time>
      </trkpt>
      <trkpt lat="45.65973" lon="5.96248">
        <ele>1057.1999511719</ele>
        <time>2012-05-05T08:29:07Z</time>
      </trkpt>
      <trkpt lat="45.65985" lon="5.96243">
        <ele>1055.8000488281</ele>
        <time>2012-05-05T08:29:11Z</time>
      </trkpt>
      <trkpt lat="45.65989" lon="5.96239">
        <ele>1054.5999755859</ele>
        <time>2012-05-05T08:29:14Z</time>
      </trkpt>
      <trkpt lat="45.65994" lon="5.96234">
        <ele>1053.5999755859</ele>
        <time>2012-05-05T08:29:16Z</time>
      </trkpt>
      <trkpt lat="45.66001" lon="5.96231">
        <ele>1052.8000488281</ele>
        <time>2012-05-05T08:29:18Z</time>
      </trkpt>
      <trkpt lat="45.6601" lon="5.96231">
        <ele>1052.1999511719</ele>
        <time>2012-05-05T08:29:23Z</time>
      </trkpt>
      <trkpt lat="45.66019" lon="5.96234">
        <ele>1052.1999511719</ele>
        <time>2012-05-05T08:29:26Z</time>
      </trkpt>
      <trkpt lat="45.66025" lon="5.96235">
        <ele>1052.1999511719</ele>
        <time>2012-05-05T08:29:28Z</time>
      </trkpt>
      <trkpt lat="45.66032" lon="5.96239">
        <ele>1052.5999755859</ele>
        <time>2012-05-05T08:29:31Z</time>
      </trkpt>
      <trkpt lat="45.66043" lon="5.9624">
        <ele>1052.1999511719</ele>
        <time>2012-05-05T08:29:35Z</time>
      </trkpt>
      <trkpt lat="45.66052" lon="5.96247">
        <ele>1052.8000488281</ele>
        <time>2012-05-05T08:29:38Z</time>
      </trkpt>
      <trkpt lat="45.66062" lon="5.96254">
        <ele>1054</ele>
        <time>2012-05-05T08:29:44Z</time>
      </trkpt>
      <trkpt lat="45.66063" lon="5.96255">
        <ele>1054.1999511719</ele>
        <time>2012-05-05T08:29:45Z</time>
      </trkpt>
      <trkpt lat="45.66068" lon="5.96257">
        <ele>1054.4000244141</ele>
        <time>2012-05-05T08:29:48Z</time>
      </trkpt>
      <trkpt lat="45.66076" lon="5.96259">
        <ele>1054.8000488281</ele>
        <time>2012-05-05T08:29:51Z</time>
      </trkpt>
      <trkpt lat="45.66098" lon="5.96263">
        <ele>1053</ele>
        <time>2012-05-05T08:29:59Z</time>
      </trkpt>
      <trkpt lat="45.66101" lon="5.96266">
        <ele>1053.4000244141</ele>
        <time>2012-05-05T08:30:01Z</time>
      </trkpt>
      <trkpt lat="45.66113" lon="5.96275">
        <ele>1053.8000488281</ele>
        <time>2012-05-05T08:30:07Z</time>
      </trkpt>
      <trkpt lat="45.66119" lon="5.96278">
        <ele>1053.4000244141</ele>
        <time>2012-05-05T08:30:10Z</time>
      </trkpt>
      <trkpt lat="45.66141" lon="5.96277">
        <ele>1050</ele>
        <time>2012-05-05T08:30:17Z</time>
      </trkpt>
      <trkpt lat="45.66145" lon="5.96277">
        <ele>1049.5999755859</ele>
        <time>2012-05-05T08:30:18Z</time>
      </trkpt>
      <trkpt lat="45.66149" lon="5.9628">
        <ele>1049.4000244141</ele>
        <time>2012-05-05T08:30:21Z</time>
      </trkpt>
      <trkpt lat="45.66153" lon="5.96281">
        <ele>1049.4000244141</ele>
        <time>2012-05-05T08:30:23Z</time>
      </trkpt>
      <trkpt lat="45.6616" lon="5.96282">
        <ele>1048.5999755859</ele>
        <time>2012-05-05T08:30:27Z</time>
      </trkpt>
      <trkpt lat="45.66165" lon="5.96282">
        <ele>1047.8000488281</ele>
        <time>2012-05-05T08:30:28Z</time>
      </trkpt>
      <trkpt lat="45.66171" lon="5.96284">
        <ele>1047.8000488281</ele>
        <time>2012-05-05T08:30:31Z</time>
      </trkpt>
      <trkpt lat="45.66173" lon="5.96283">
        <ele>1047.4000244141</ele>
        <time>2012-05-05T08:30:32Z</time>
      </trkpt>
      <trkpt lat="45.66193" lon="5.96268">
        <ele>1042.4000244141</ele>
        <time>2012-05-05T08:30:40Z</time>
      </trkpt>
      <trkpt lat="45.66202" lon="5.96273">
        <ele>1043.1999511719</ele>
        <time>2012-05-05T08:30:44Z</time>
      </trkpt>
      <trkpt lat="45.66211" lon="5.96272">
        <ele>1042.1999511719</ele>
        <time>2012-05-05T08:30:48Z</time>
      </trkpt>
      <trkpt lat="45.66217" lon="5.96272">
        <ele>1042</ele>
        <time>2012-05-05T08:30:51Z</time>
      </trkpt>
      <trkpt lat="45.66224" lon="5.96269">
        <ele>1040.8000488281</ele>
        <time>2012-05-05T08:30:56Z</time>
      </trkpt>
      <trkpt lat="45.66226" lon="5.96265">
        <ele>1039.5999755859</ele>
        <time>2012-05-05T08:30:58Z</time>
      </trkpt>
      <trkpt lat="45.66234" lon="5.9626">
        <ele>1037.5999755859</ele>
        <time>2012-05-05T08:31:06Z</time>
      </trkpt>
      <trkpt lat="45.66242" lon="5.96256">
        <ele>1036.1999511719</ele>
        <time>2012-05-05T08:31:10Z</time>
      </trkpt>
      <trkpt lat="45.66246" lon="5.96257">
        <ele>1036</ele>
        <time>2012-05-05T08:31:13Z</time>
      </trkpt>
      <trkpt lat="45.6625" lon="5.96258">
        <ele>1036.1999511719</ele>
        <time>2012-05-05T08:31:16Z</time>
      </trkpt>
      <trkpt lat="45.66258" lon="5.96259">
        <ele>1039.1999511719</ele>
        <time>2012-05-05T08:31:22Z</time>
      </trkpt>
      <trkpt lat="45.6626" lon="5.9626">
        <ele>1040</ele>
        <time>2012-05-05T08:31:24Z</time>
      </trkpt>
      <trkpt lat="45.66265" lon="5.96257">
        <ele>1040.8000488281</ele>
        <time>2012-05-05T08:31:28Z</time>
      </trkpt>
      <trkpt lat="45.66265" lon="5.96257">
        <ele>1040.8000488281</ele>
        <time>2012-05-05T08:31:29Z</time>
      </trkpt>
      <trkpt lat="45.66267" lon="5.96255">
        <ele>1041</ele>
        <time>2012-05-05T08:31:32Z</time>
      </trkpt>
      <trkpt lat="45.66267" lon="5.96255">
        <ele>1041</ele>
        <time>2012-05-05T08:31:33Z</time>
      </trkpt>
      <trkpt lat="45.66274" lon="5.96244">
        <ele>1039.8000488281</ele>
        <time>2012-05-05T08:31:42Z</time>
      </trkpt>
      <trkpt lat="45.6628" lon="5.96232">
        <ele>1038.4000244141</ele>
        <time>2012-05-05T08:31:46Z</time>
      </trkpt>
      <trkpt lat="45.66286" lon="5.96219">
        <ele>1036.8000488281</ele>
        <time>2012-05-05T08:31:51Z</time>
      </trkpt>
      <trkpt lat="45.6629" lon="5.9621">
        <ele>1036</ele>
        <time>2012-05-05T08:31:54Z</time>
      </trkpt>
      <trkpt lat="45.66299" lon="5.96194">
        <ele>1035.8000488281</ele>
        <time>2012-05-05T08:32:01Z</time>
      </trkpt>
      <trkpt lat="45.66301" lon="5.96191">
        <ele>1035.4000244141</ele>
        <time>2012-05-05T08:32:02Z</time>
      </trkpt>
      <trkpt lat="45.66306" lon="5.96173">
        <ele>1033.5999755859</ele>
        <time>2012-05-05T08:32:07Z</time>
      </trkpt>
      <trkpt lat="45.66307" lon="5.96171">
        <ele>1033.5999755859</ele>
        <time>2012-05-05T08:32:08Z</time>
      </trkpt>
      <trkpt lat="45.66311" lon="5.96162">
        <ele>1033.5999755859</ele>
        <time>2012-05-05T08:32:11Z</time>
      </trkpt>
      <trkpt lat="45.66315" lon="5.96156">
        <ele>1034.4000244141</ele>
        <time>2012-05-05T08:32:13Z</time>
      </trkpt>
      <trkpt lat="45.66322" lon="5.96151">
        <ele>1036.5999755859</ele>
        <time>2012-05-05T08:32:15Z</time>
      </trkpt>
      <trkpt lat="45.66324" lon="5.96147">
        <ele>1036.8000488281</ele>
        <time>2012-05-05T08:32:18Z</time>
      </trkpt>
      <trkpt lat="45.66326" lon="5.96141">
        <ele>1036.5999755859</ele>
        <time>2012-05-05T08:32:22Z</time>
      </trkpt>
      <trkpt lat="45.66327" lon="5.96138">
        <ele>1036.4000244141</ele>
        <time>2012-05-05T08:32:23Z</time>
      </trkpt>
      <trkpt lat="45.66327" lon="5.96132">
        <ele>1035.5999755859</ele>
        <time>2012-05-05T08:32:26Z</time>
      </trkpt>
      <trkpt lat="45.66327" lon="5.9613">
        <ele>1035.1999511719</ele>
        <time>2012-05-05T08:32:27Z</time>
      </trkpt>
      <trkpt lat="45.66331" lon="5.96121">
        <ele>1035.4000244141</ele>
        <time>2012-05-05T08:32:31Z</time>
      </trkpt>
      <trkpt lat="45.66333" lon="5.9612">
        <ele>1035.5999755859</ele>
        <time>2012-05-05T08:32:32Z</time>
      </trkpt>
      <trkpt lat="45.66333" lon="5.96114">
        <ele>1035</ele>
        <time>2012-05-05T08:32:35Z</time>
      </trkpt>
      <trkpt lat="45.66334" lon="5.96113">
        <ele>1034.8000488281</ele>
        <time>2012-05-05T08:32:36Z</time>
      </trkpt>
      <trkpt lat="45.66335" lon="5.96106">
        <ele>1034</ele>
        <time>2012-05-05T08:32:39Z</time>
      </trkpt>
      <trkpt lat="45.66336" lon="5.961">
        <ele>1033.4000244141</ele>
        <time>2012-05-05T08:32:41Z</time>
      </trkpt>
      <trkpt lat="45.66341" lon="5.96082">
        <ele>1032.5999755859</ele>
        <time>2012-05-05T08:32:47Z</time>
      </trkpt>
      <trkpt lat="45.66343" lon="5.96077">
        <ele>1032.8000488281</ele>
        <time>2012-05-05T08:32:49Z</time>
      </trkpt>
      <trkpt lat="45.66348" lon="5.96065">
        <ele>1033</ele>
        <time>2012-05-05T08:32:53Z</time>
      </trkpt>
      <trkpt lat="45.66349" lon="5.96056">
        <ele>1032.4000244141</ele>
        <time>2012-05-05T08:32:56Z</time>
      </trkpt>
      <trkpt lat="45.66354" lon="5.96045">
        <ele>1032.8000488281</ele>
        <time>2012-05-05T08:33:01Z</time>
      </trkpt>
      <trkpt lat="45.66356" lon="5.9604">
        <ele>1032.5999755859</ele>
        <time>2012-05-05T08:33:03Z</time>
      </trkpt>
      <trkpt lat="45.66358" lon="5.96035">
        <ele>1033</ele>
        <time>2012-05-05T08:33:06Z</time>
      </trkpt>
      <trkpt lat="45.66359" lon="5.96034">
        <ele>1033</ele>
        <time>2012-05-05T08:33:08Z</time>
      </trkpt>
      <trkpt lat="45.66364" lon="5.96028">
        <ele>1034.1999511719</ele>
        <time>2012-05-05T08:33:14Z</time>
      </trkpt>
      <trkpt lat="45.66365" lon="5.96024">
        <ele>1034.4000244141</ele>
        <time>2012-05-05T08:33:18Z</time>
      </trkpt>
      <trkpt lat="45.66368" lon="5.96021">
        <ele>1035</ele>
        <time>2012-05-05T08:33:23Z</time>
      </trkpt>
      <trkpt lat="45.66368" lon="5.9602">
        <ele>1035</ele>
        <time>2012-05-05T08:33:24Z</time>
      </trkpt>
      <trkpt lat="45.66374" lon="5.96016">
        <ele>1036.5999755859</ele>
        <time>2012-05-05T08:33:30Z</time>
      </trkpt>
      <trkpt lat="45.66375" lon="5.96016">
        <ele>1037</ele>
        <time>2012-05-05T08:33:33Z</time>
      </trkpt>
      <trkpt lat="45.66384" lon="5.96004">
        <ele>1038.8000488281</ele>
        <time>2012-05-05T08:33:42Z</time>
      </trkpt>
      <trkpt lat="45.66385" lon="5.96003">
        <ele>1039.1999511719</ele>
        <time>2012-05-05T08:33:43Z</time>
      </trkpt>
      <trkpt lat="45.66393" lon="5.95999">
        <ele>1041.8000488281</ele>
        <time>2012-05-05T08:33:50Z</time>
      </trkpt>
      <trkpt lat="45.66396" lon="5.95999">
        <ele>1043</ele>
        <time>2012-05-05T08:33:53Z</time>
      </trkpt>
      <trkpt lat="45.66399" lon="5.95996">
        <ele>1043.8000488281</ele>
        <time>2012-05-05T08:33:59Z</time>
      </trkpt>
      <trkpt lat="45.66404" lon="5.95993">
        <ele>1045.5999755859</ele>
        <time>2012-05-05T08:34:03Z</time>
      </trkpt>
      <trkpt lat="45.66407" lon="5.95991">
        <ele>1046.4000244141</ele>
        <time>2012-05-05T08:34:05Z</time>
      </trkpt>
      <trkpt lat="45.6641" lon="5.95991">
        <ele>1047.5999755859</ele>
        <time>2012-05-05T08:34:07Z</time>
      </trkpt>
      <trkpt lat="45.66416" lon="5.95989">
        <ele>1049.8000488281</ele>
        <time>2012-05-05T08:34:10Z</time>
      </trkpt>
      <trkpt lat="45.66423" lon="5.95986">
        <ele>1050.5999755859</ele>
        <time>2012-05-05T08:34:14Z</time>
      </trkpt>
      <trkpt lat="45.66431" lon="5.95986">
        <ele>1052</ele>
        <time>2012-05-05T08:34:18Z</time>
      </trkpt>
      <trkpt lat="45.66439" lon="5.95986">
        <ele>1053.1999511719</ele>
        <time>2012-05-05T08:34:23Z</time>
      </trkpt>
      <trkpt lat="45.66445" lon="5.95986">
        <ele>1054.4000244141</ele>
        <time>2012-05-05T08:34:29Z</time>
      </trkpt>
      <trkpt lat="45.66447" lon="5.95986">
        <ele>1054.5999755859</ele>
        <time>2012-05-05T08:34:31Z</time>
      </trkpt>
      <trkpt lat="45.66455" lon="5.95986">
        <ele>1056</ele>
        <time>2012-05-05T08:34:39Z</time>
      </trkpt>
      <trkpt lat="45.66457" lon="5.95987">
        <ele>1056.4000244141</ele>
        <time>2012-05-05T08:34:41Z</time>
      </trkpt>
      <trkpt lat="45.6647" lon="5.95985">
        <ele>1058.4000244141</ele>
        <time>2012-05-05T08:34:48Z</time>
      </trkpt>
      <trkpt lat="45.66472" lon="5.95985">
        <ele>1058.5999755859</ele>
        <time>2012-05-05T08:34:49Z</time>
      </trkpt>
      <trkpt lat="45.66482" lon="5.95982">
        <ele>1059.8000488281</ele>
        <time>2012-05-05T08:34:55Z</time>
      </trkpt>
      <trkpt lat="45.66483" lon="5.95982">
        <ele>1059.8000488281</ele>
        <time>2012-05-05T08:34:56Z</time>
      </trkpt>
      <trkpt lat="45.66487" lon="5.95983">
        <ele>1060.8000488281</ele>
        <time>2012-05-05T08:34:59Z</time>
      </trkpt>
      <trkpt lat="45.66489" lon="5.95985">
        <ele>1061.4000244141</ele>
        <time>2012-05-05T08:35:03Z</time>
      </trkpt>
      <trkpt lat="45.66496" lon="5.95986">
        <ele>1063</ele>
        <time>2012-05-05T08:35:08Z</time>
      </trkpt>
      <trkpt lat="45.66498" lon="5.95986">
        <ele>1063.4000244141</ele>
        <time>2012-05-05T08:35:09Z</time>
      </trkpt>
      <trkpt lat="45.66505" lon="5.95985">
        <ele>1064</ele>
        <time>2012-05-05T08:35:12Z</time>
      </trkpt>
      <trkpt lat="45.66511" lon="5.95984">
        <ele>1064.1999511719</ele>
        <time>2012-05-05T08:35:16Z</time>
      </trkpt>
      <trkpt lat="45.66525" lon="5.95985">
        <ele>1065.4000244141</ele>
        <time>2012-05-05T08:35:21Z</time>
      </trkpt>
      <trkpt lat="45.66531" lon="5.95987">
        <ele>1066.1999511719</ele>
        <time>2012-05-05T08:35:23Z</time>
      </trkpt>
      <trkpt lat="45.6654" lon="5.95997">
        <ele>1069.1999511719</ele>
        <time>2012-05-05T08:35:31Z</time>
      </trkpt>
      <trkpt lat="45.66541" lon="5.95997">
        <ele>1069.4000244141</ele>
        <time>2012-05-05T08:35:32Z</time>
      </trkpt>
      <trkpt lat="45.66544" lon="5.96">
        <ele>1070.1999511719</ele>
        <time>2012-05-05T08:35:37Z</time>
      </trkpt>
      <trkpt lat="45.66548" lon="5.96006">
        <ele>1072</ele>
        <time>2012-05-05T08:35:42Z</time>
      </trkpt>
      <trkpt lat="45.6655" lon="5.96012">
        <ele>1073.8000488281</ele>
        <time>2012-05-05T08:35:47Z</time>
      </trkpt>
      <trkpt lat="45.66551" lon="5.96013">
        <ele>1074.1999511719</ele>
        <time>2012-05-05T08:35:48Z</time>
      </trkpt>
      <trkpt lat="45.66557" lon="5.96017">
        <ele>1075.4000244141</ele>
        <time>2012-05-05T08:35:53Z</time>
      </trkpt>
      <trkpt lat="45.66557" lon="5.9602">
        <ele>1076.1999511719</ele>
        <time>2012-05-05T08:35:56Z</time>
      </trkpt>
      <trkpt lat="45.66559" lon="5.96023">
        <ele>1077</ele>
        <time>2012-05-05T08:36:00Z</time>
      </trkpt>
      <trkpt lat="45.66561" lon="5.96025">
        <ele>1077.5999755859</ele>
        <time>2012-05-05T08:36:04Z</time>
      </trkpt>
      <trkpt lat="45.66562" lon="5.96027">
        <ele>1078.1999511719</ele>
        <time>2012-05-05T08:36:08Z</time>
      </trkpt>
      <trkpt lat="45.66562" lon="5.9603">
        <ele>1078.8000488281</ele>
        <time>2012-05-05T08:36:10Z</time>
      </trkpt>
      <trkpt lat="45.66564" lon="5.96033">
        <ele>1079.8000488281</ele>
        <time>2012-05-05T08:36:15Z</time>
      </trkpt>
      <trkpt lat="45.66565" lon="5.96036">
        <ele>1080.4000244141</ele>
        <time>2012-05-05T08:36:18Z</time>
      </trkpt>
      <trkpt lat="45.66566" lon="5.96039">
        <ele>1081.1999511719</ele>
        <time>2012-05-05T08:36:22Z</time>
      </trkpt>
      <trkpt lat="45.66566" lon="5.96042">
        <ele>1081.8000488281</ele>
        <time>2012-05-05T08:36:24Z</time>
      </trkpt>
      <trkpt lat="45.66567" lon="5.96045">
        <ele>1082.8000488281</ele>
        <time>2012-05-05T08:36:29Z</time>
      </trkpt>
      <trkpt lat="45.66567" lon="5.96045">
        <ele>1082.5999755859</ele>
        <time>2012-05-05T08:36:30Z</time>
      </trkpt>
      <trkpt lat="45.6657" lon="5.96049">
        <ele>1083.8000488281</ele>
        <time>2012-05-05T08:36:33Z</time>
      </trkpt>
      <trkpt lat="45.66572" lon="5.9605">
        <ele>1084.1999511719</ele>
        <time>2012-05-05T08:36:37Z</time>
      </trkpt>
      <trkpt lat="45.66575" lon="5.96053">
        <ele>1085</ele>
        <time>2012-05-05T08:36:42Z</time>
      </trkpt>
      <trkpt lat="45.66578" lon="5.96057">
        <ele>1085.8000488281</ele>
        <time>2012-05-05T08:36:47Z</time>
      </trkpt>
      <trkpt lat="45.66582" lon="5.96064">
        <ele>1087.5999755859</ele>
        <time>2012-05-05T08:36:56Z</time>
      </trkpt>
      <trkpt lat="45.66585" lon="5.9607">
        <ele>1088.8000488281</ele>
        <time>2012-05-05T08:37:02Z</time>
      </trkpt>
      <trkpt lat="45.66587" lon="5.96073">
        <ele>1089.5999755859</ele>
        <time>2012-05-05T08:37:07Z</time>
      </trkpt>
      <trkpt lat="45.66587" lon="5.96073">
        <ele>1089.4000244141</ele>
        <time>2012-05-05T08:37:08Z</time>
      </trkpt>
      <trkpt lat="45.66594" lon="5.96081">
        <ele>1091.1999511719</ele>
        <time>2012-05-05T08:37:19Z</time>
      </trkpt>
      <trkpt lat="45.66597" lon="5.96085">
        <ele>1092.1999511719</ele>
        <time>2012-05-05T08:37:22Z</time>
      </trkpt>
      <trkpt lat="45.66601" lon="5.96087">
        <ele>1093</ele>
        <time>2012-05-05T08:37:26Z</time>
      </trkpt>
      <trkpt lat="45.66603" lon="5.9609">
        <ele>1094</ele>
        <time>2012-05-05T08:37:30Z</time>
      </trkpt>
      <trkpt lat="45.66606" lon="5.96094">
        <ele>1095.1999511719</ele>
        <time>2012-05-05T08:37:36Z</time>
      </trkpt>
      <trkpt lat="45.6661" lon="5.96093">
        <ele>1094.8000488281</ele>
        <time>2012-05-05T08:37:42Z</time>
      </trkpt>
      <trkpt lat="45.66611" lon="5.96101">
        <ele>1097.5999755859</ele>
        <time>2012-05-05T08:37:56Z</time>
      </trkpt>
      <trkpt lat="45.66612" lon="5.96105">
        <ele>1098.8000488281</ele>
        <time>2012-05-05T08:37:58Z</time>
      </trkpt>
      <trkpt lat="45.6663" lon="5.96122">
        <ele>1102.1999511719</ele>
        <time>2012-05-05T08:38:07Z</time>
      </trkpt>
      <trkpt lat="45.66631" lon="5.96127">
        <ele>1103.8000488281</ele>
        <time>2012-05-05T08:38:08Z</time>
      </trkpt>
      <trkpt lat="45.66635" lon="5.96137">
        <ele>1106</ele>
        <time>2012-05-05T08:38:12Z</time>
      </trkpt>
      <trkpt lat="45.66637" lon="5.96145">
        <ele>1107.8000488281</ele>
        <time>2012-05-05T08:38:15Z</time>
      </trkpt>
      <trkpt lat="45.66651" lon="5.96157">
        <ele>1108</ele>
        <time>2012-05-05T08:38:22Z</time>
      </trkpt>
      <trkpt lat="45.66659" lon="5.96161">
        <ele>1106.8000488281</ele>
        <time>2012-05-05T08:38:26Z</time>
      </trkpt>
      <trkpt lat="45.66672" lon="5.96166">
        <ele>1104.4000244141</ele>
        <time>2012-05-05T08:38:31Z</time>
      </trkpt>
      <trkpt lat="45.66673" lon="5.96165">
        <ele>1103.8000488281</ele>
        <time>2012-05-05T08:38:32Z</time>
      </trkpt>
      <trkpt lat="45.66683" lon="5.9616">
        <ele>1100.4000244141</ele>
        <time>2012-05-05T08:38:37Z</time>
      </trkpt>
      <trkpt lat="45.66692" lon="5.96157">
        <ele>1097.4000244141</ele>
        <time>2012-05-05T08:38:40Z</time>
      </trkpt>
      <trkpt lat="45.66698" lon="5.96155">
        <ele>1095.5999755859</ele>
        <time>2012-05-05T08:38:42Z</time>
      </trkpt>
      <trkpt lat="45.66703" lon="5.96153">
        <ele>1094</ele>
        <time>2012-05-05T08:38:44Z</time>
      </trkpt>
      <trkpt lat="45.66711" lon="5.96146">
        <ele>1090.8000488281</ele>
        <time>2012-05-05T08:38:48Z</time>
      </trkpt>
      <trkpt lat="45.66713" lon="5.96145">
        <ele>1090.1999511719</ele>
        <time>2012-05-05T08:38:49Z</time>
      </trkpt>
      <trkpt lat="45.66717" lon="5.96143">
        <ele>1088.8000488281</ele>
        <time>2012-05-05T08:38:51Z</time>
      </trkpt>
      <trkpt lat="45.66718" lon="5.9614">
        <ele>1088.1999511719</ele>
        <time>2012-05-05T08:38:52Z</time>
      </trkpt>
      <trkpt lat="45.66722" lon="5.96135">
        <ele>1087</ele>
        <time>2012-05-05T08:38:54Z</time>
      </trkpt>
      <trkpt lat="45.66723" lon="5.96133">
        <ele>1086.1999511719</ele>
        <time>2012-05-05T08:38:55Z</time>
      </trkpt>
      <trkpt lat="45.66731" lon="5.96126">
        <ele>1083.8000488281</ele>
        <time>2012-05-05T08:38:59Z</time>
      </trkpt>
      <trkpt lat="45.66735" lon="5.96124">
        <ele>1082.5999755859</ele>
        <time>2012-05-05T08:39:01Z</time>
      </trkpt>
      <trkpt lat="45.66738" lon="5.96122">
        <ele>1081.8000488281</ele>
        <time>2012-05-05T08:39:04Z</time>
      </trkpt>
      <trkpt lat="45.66739" lon="5.96123">
        <ele>1081.5999755859</ele>
        <time>2012-05-05T08:39:05Z</time>
      </trkpt>
      <trkpt lat="45.66745" lon="5.96123">
        <ele>1080.4000244141</ele>
        <time>2012-05-05T08:39:08Z</time>
      </trkpt>
      <trkpt lat="45.66747" lon="5.96124">
        <ele>1080</ele>
        <time>2012-05-05T08:39:09Z</time>
      </trkpt>
      <trkpt lat="45.66753" lon="5.96127">
        <ele>1078.8000488281</ele>
        <time>2012-05-05T08:39:12Z</time>
      </trkpt>
      <trkpt lat="45.66757" lon="5.96131">
        <ele>1078</ele>
        <time>2012-05-05T08:39:14Z</time>
      </trkpt>
      <trkpt lat="45.66768" lon="5.96137">
        <ele>1075.4000244141</ele>
        <time>2012-05-05T08:39:18Z</time>
      </trkpt>
      <trkpt lat="45.66771" lon="5.96138">
        <ele>1074.8000488281</ele>
        <time>2012-05-05T08:39:19Z</time>
      </trkpt>
      <trkpt lat="45.6678" lon="5.96145">
        <ele>1073</ele>
        <time>2012-05-05T08:39:22Z</time>
      </trkpt>
      <trkpt lat="45.66782" lon="5.96146">
        <ele>1072.1999511719</ele>
        <time>2012-05-05T08:39:23Z</time>
      </trkpt>
      <trkpt lat="45.66792" lon="5.96142">
        <ele>1069.4000244141</ele>
        <time>2012-05-05T08:39:26Z</time>
      </trkpt>
      <trkpt lat="45.66795" lon="5.96141">
        <ele>1068.4000244141</ele>
        <time>2012-05-05T08:39:27Z</time>
      </trkpt>
      <trkpt lat="45.66812" lon="5.96148">
        <ele>1064.4000244141</ele>
        <time>2012-05-05T08:39:34Z</time>
      </trkpt>
      <trkpt lat="45.66815" lon="5.96153">
        <ele>1064</ele>
        <time>2012-05-05T08:39:36Z</time>
      </trkpt>
      <trkpt lat="45.66822" lon="5.96164">
        <ele>1063</ele>
        <time>2012-05-05T08:39:40Z</time>
      </trkpt>
      <trkpt lat="45.66826" lon="5.9617">
        <ele>1062.1999511719</ele>
        <time>2012-05-05T08:39:42Z</time>
      </trkpt>
      <trkpt lat="45.66827" lon="5.96175">
        <ele>1062</ele>
        <time>2012-05-05T08:39:44Z</time>
      </trkpt>
      <trkpt lat="45.66828" lon="5.96179">
        <ele>1062</ele>
        <time>2012-05-05T08:39:45Z</time>
      </trkpt>
      <trkpt lat="45.66829" lon="5.96185">
        <ele>1062</ele>
        <time>2012-05-05T08:39:47Z</time>
      </trkpt>
      <trkpt lat="45.6683" lon="5.96188">
        <ele>1061.5999755859</ele>
        <time>2012-05-05T08:39:48Z</time>
      </trkpt>
      <trkpt lat="45.66834" lon="5.96196">
        <ele>1060.5999755859</ele>
        <time>2012-05-05T08:39:51Z</time>
      </trkpt>
      <trkpt lat="45.66841" lon="5.96203">
        <ele>1058.1999511719</ele>
        <time>2012-05-05T08:39:56Z</time>
      </trkpt>
      <trkpt lat="45.66844" lon="5.96219">
        <ele>1057.5999755859</ele>
        <time>2012-05-05T08:40:01Z</time>
      </trkpt>
      <trkpt lat="45.66847" lon="5.9623">
        <ele>1057</ele>
        <time>2012-05-05T08:40:04Z</time>
      </trkpt>
      <trkpt lat="45.66848" lon="5.96254">
        <ele>1058.1999511719</ele>
        <time>2012-05-05T08:40:09Z</time>
      </trkpt>
      <trkpt lat="45.66851" lon="5.96261">
        <ele>1058.1999511719</ele>
        <time>2012-05-05T08:40:11Z</time>
      </trkpt>
      <trkpt lat="45.66857" lon="5.96267">
        <ele>1057</ele>
        <time>2012-05-05T08:40:13Z</time>
      </trkpt>
      <trkpt lat="45.66861" lon="5.9627">
        <ele>1056.4000244141</ele>
        <time>2012-05-05T08:40:14Z</time>
      </trkpt>
      <trkpt lat="45.66867" lon="5.96279">
        <ele>1055.5999755859</ele>
        <time>2012-05-05T08:40:16Z</time>
      </trkpt>
      <trkpt lat="45.66872" lon="5.96286">
        <ele>1054.8000488281</ele>
        <time>2012-05-05T08:40:19Z</time>
      </trkpt>
      <trkpt lat="45.66888" lon="5.96293">
        <ele>1049.4000244141</ele>
        <time>2012-05-05T08:40:23Z</time>
      </trkpt>
      <trkpt lat="45.669" lon="5.96298">
        <ele>1045.1999511719</ele>
        <time>2012-05-05T08:40:25Z</time>
      </trkpt>
      <trkpt lat="45.66907" lon="5.96301">
        <ele>1042.5999755859</ele>
        <time>2012-05-05T08:40:28Z</time>
      </trkpt>
      <trkpt lat="45.66908" lon="5.96303">
        <ele>1042.4000244141</ele>
        <time>2012-05-05T08:40:29Z</time>
      </trkpt>
      <trkpt lat="45.66916" lon="5.96311">
        <ele>1039.4000244141</ele>
        <time>2012-05-05T08:40:33Z</time>
      </trkpt>
      <trkpt lat="45.66918" lon="5.96313">
        <ele>1039.4000244141</ele>
        <time>2012-05-05T08:40:34Z</time>
      </trkpt>
      <trkpt lat="45.66927" lon="5.96322">
        <ele>1038.1999511719</ele>
        <time>2012-05-05T08:40:38Z</time>
      </trkpt>
      <trkpt lat="45.6693" lon="5.96328">
        <ele>1038.1999511719</ele>
        <time>2012-05-05T08:40:40Z</time>
      </trkpt>
      <trkpt lat="45.6694" lon="5.9634">
        <ele>1039.4000244141</ele>
        <time>2012-05-05T08:40:46Z</time>
      </trkpt>
      <trkpt lat="45.66945" lon="5.96342">
        <ele>1039</ele>
        <time>2012-05-05T08:40:48Z</time>
      </trkpt>
      <trkpt lat="45.66959" lon="5.96345">
        <ele>1037.5999755859</ele>
        <time>2012-05-05T08:40:52Z</time>
      </trkpt>
      <trkpt lat="45.6696" lon="5.96346">
        <ele>1037.8000488281</ele>
        <time>2012-05-05T08:40:53Z</time>
      </trkpt>
      <trkpt lat="45.66973" lon="5.96348">
        <ele>1035.8000488281</ele>
        <time>2012-05-05T08:40:58Z</time>
      </trkpt>
      <trkpt lat="45.66976" lon="5.96348">
        <ele>1035.1999511719</ele>
        <time>2012-05-05T08:40:59Z</time>
      </trkpt>
      <trkpt lat="45.66986" lon="5.96347">
        <ele>1033</ele>
        <time>2012-05-05T08:41:02Z</time>
      </trkpt>
      <trkpt lat="45.66991" lon="5.96345">
        <ele>1031.5999755859</ele>
        <time>2012-05-05T08:41:04Z</time>
      </trkpt>
      <trkpt lat="45.67002" lon="5.96342">
        <ele>1028.5999755859</ele>
        <time>2012-05-05T08:41:08Z</time>
      </trkpt>
      <trkpt lat="45.67011" lon="5.9634">
        <ele>1027.1999511719</ele>
        <time>2012-05-05T08:41:11Z</time>
      </trkpt>
      <trkpt lat="45.67021" lon="5.96346">
        <ele>1027.5999755859</ele>
        <time>2012-05-05T08:41:16Z</time>
      </trkpt>
      <trkpt lat="45.67024" lon="5.9635">
        <ele>1028.4000244141</ele>
        <time>2012-05-05T08:41:18Z</time>
      </trkpt>
      <trkpt lat="45.67028" lon="5.96355">
        <ele>1029.4000244141</ele>
        <time>2012-05-05T08:41:20Z</time>
      </trkpt>
      <trkpt lat="45.67032" lon="5.96362">
        <ele>1030.5999755859</ele>
        <time>2012-05-05T08:41:23Z</time>
      </trkpt>
      <trkpt lat="45.67037" lon="5.96381">
        <ele>1034.8000488281</ele>
        <time>2012-05-05T08:41:29Z</time>
      </trkpt>
      <trkpt lat="45.67038" lon="5.96385">
        <ele>1035.8000488281</ele>
        <time>2012-05-05T08:41:30Z</time>
      </trkpt>
      <trkpt lat="45.67043" lon="5.96401">
        <ele>1039</ele>
        <time>2012-05-05T08:41:35Z</time>
      </trkpt>
      <trkpt lat="45.67045" lon="5.9641">
        <ele>1040.5999755859</ele>
        <time>2012-05-05T08:41:39Z</time>
      </trkpt>
      <trkpt lat="45.67051" lon="5.96427">
        <ele>1045</ele>
        <time>2012-05-05T08:41:43Z</time>
      </trkpt>
      <trkpt lat="45.67058" lon="5.9644">
        <ele>1048.5999755859</ele>
        <time>2012-05-05T08:41:47Z</time>
      </trkpt>
      <trkpt lat="45.67072" lon="5.96451">
        <ele>1048.1999511719</ele>
        <time>2012-05-05T08:41:52Z</time>
      </trkpt>
      <trkpt lat="45.67077" lon="5.96454">
        <ele>1047.4000244141</ele>
        <time>2012-05-05T08:41:54Z</time>
      </trkpt>
      <trkpt lat="45.6709" lon="5.9646">
        <ele>1044.8000488281</ele>
        <time>2012-05-05T08:41:58Z</time>
      </trkpt>
      <trkpt lat="45.67101" lon="5.96462">
        <ele>1042</ele>
        <time>2012-05-05T08:42:02Z</time>
      </trkpt>
      <trkpt lat="45.67114" lon="5.96463">
        <ele>1038</ele>
        <time>2012-05-05T08:42:05Z</time>
      </trkpt>
      <trkpt lat="45.67131" lon="5.96465">
        <ele>1033</ele>
        <time>2012-05-05T08:42:09Z</time>
      </trkpt>
      <trkpt lat="45.67148" lon="5.96472">
        <ele>1028.1999511719</ele>
        <time>2012-05-05T08:42:14Z</time>
      </trkpt>
      <trkpt lat="45.67151" lon="5.96474">
        <ele>1027.5999755859</ele>
        <time>2012-05-05T08:42:15Z</time>
      </trkpt>
      <trkpt lat="45.67156" lon="5.96484">
        <ele>1027.1999511719</ele>
        <time>2012-05-05T08:42:18Z</time>
      </trkpt>
      <trkpt lat="45.67162" lon="5.96488">
        <ele>1025.4000244141</ele>
        <time>2012-05-05T08:42:20Z</time>
      </trkpt>
      <trkpt lat="45.67168" lon="5.96491">
        <ele>1023.799987793</ele>
        <time>2012-05-05T08:42:22Z</time>
      </trkpt>
      <trkpt lat="45.67171" lon="5.96491">
        <ele>1023.5999755859</ele>
        <time>2012-05-05T08:42:23Z</time>
      </trkpt>
      <trkpt lat="45.67189" lon="5.96481">
        <ele>1020.5999755859</ele>
        <time>2012-05-05T08:42:28Z</time>
      </trkpt>
      <trkpt lat="45.6719" lon="5.96478">
        <ele>1020</ele>
        <time>2012-05-05T08:42:29Z</time>
      </trkpt>
      <trkpt lat="45.67188" lon="5.96463">
        <ele>1018.5999755859</ele>
        <time>2012-05-05T08:42:33Z</time>
      </trkpt>
      <trkpt lat="45.67189" lon="5.9646">
        <ele>1018.200012207</ele>
        <time>2012-05-05T08:42:34Z</time>
      </trkpt>
      <trkpt lat="45.67186" lon="5.96455">
        <ele>1018</ele>
        <time>2012-05-05T08:42:36Z</time>
      </trkpt>
      <trkpt lat="45.67185" lon="5.96453">
        <ele>1017.799987793</ele>
        <time>2012-05-05T08:42:37Z</time>
      </trkpt>
      <trkpt lat="45.67186" lon="5.9644">
        <ele>1016.200012207</ele>
        <time>2012-05-05T08:42:41Z</time>
      </trkpt>
      <trkpt lat="45.67186" lon="5.96436">
        <ele>1015.799987793</ele>
        <time>2012-05-05T08:42:42Z</time>
      </trkpt>
      <trkpt lat="45.6719" lon="5.96419">
        <ele>1013.4000244141</ele>
        <time>2012-05-05T08:42:48Z</time>
      </trkpt>
      <trkpt lat="45.67192" lon="5.96411">
        <ele>1012</ele>
        <time>2012-05-05T08:42:50Z</time>
      </trkpt>
      <trkpt lat="45.67198" lon="5.96404">
        <ele>1010</ele>
        <time>2012-05-05T08:42:54Z</time>
      </trkpt>
      <trkpt lat="45.67202" lon="5.96405">
        <ele>1009.5999755859</ele>
        <time>2012-05-05T08:42:56Z</time>
      </trkpt>
      <trkpt lat="45.67207" lon="5.96407">
        <ele>1009.4000244141</ele>
        <time>2012-05-05T08:42:58Z</time>
      </trkpt>
      <trkpt lat="45.67208" lon="5.96405">
        <ele>1008.799987793</ele>
        <time>2012-05-05T08:43:00Z</time>
      </trkpt>
      <trkpt lat="45.672" lon="5.96394">
        <ele>1007.799987793</ele>
        <time>2012-05-05T08:43:05Z</time>
      </trkpt>
      <trkpt lat="45.67198" lon="5.96392">
        <ele>1007.799987793</ele>
        <time>2012-05-05T08:43:06Z</time>
      </trkpt>
      <trkpt lat="45.67189" lon="5.96382">
        <ele>1007.4000244141</ele>
        <time>2012-05-05T08:43:10Z</time>
      </trkpt>
      <trkpt lat="45.67187" lon="5.96371">
        <ele>1006</ele>
        <time>2012-05-05T08:43:13Z</time>
      </trkpt>
      <trkpt lat="45.67186" lon="5.96362">
        <ele>1004.4000244141</ele>
        <time>2012-05-05T08:43:15Z</time>
      </trkpt>
      <trkpt lat="45.67185" lon="5.96357">
        <ele>1004</ele>
        <time>2012-05-05T08:43:16Z</time>
      </trkpt>
      <trkpt lat="45.67185" lon="5.96348">
        <ele>1002.4000244141</ele>
        <time>2012-05-05T08:43:19Z</time>
      </trkpt>
      <trkpt lat="45.67186" lon="5.96336">
        <ele>1000.200012207</ele>
        <time>2012-05-05T08:43:22Z</time>
      </trkpt>
      <trkpt lat="45.67186" lon="5.96325">
        <ele>997.59997558594</ele>
        <time>2012-05-05T08:43:26Z</time>
      </trkpt>
      <trkpt lat="45.67184" lon="5.96324">
        <ele>997.40002441406</ele>
        <time>2012-05-05T08:43:27Z</time>
      </trkpt>
      <trkpt lat="45.6718" lon="5.96305">
        <ele>993.20001220703</ele>
        <time>2012-05-05T08:43:32Z</time>
      </trkpt>
      <trkpt lat="45.67181" lon="5.96302">
        <ele>991.79998779297</ele>
        <time>2012-05-05T08:43:33Z</time>
      </trkpt>
      <trkpt lat="45.67179" lon="5.96295">
        <ele>990.40002441406</ele>
        <time>2012-05-05T08:43:36Z</time>
      </trkpt>
      <trkpt lat="45.67178" lon="5.96292">
        <ele>989.79998779297</ele>
        <time>2012-05-05T08:43:37Z</time>
      </trkpt>
      <trkpt lat="45.67175" lon="5.96277">
        <ele>986.20001220703</ele>
        <time>2012-05-05T08:43:41Z</time>
      </trkpt>
      <trkpt lat="45.67175" lon="5.96274">
        <ele>985.59997558594</ele>
        <time>2012-05-05T08:43:42Z</time>
      </trkpt>
      <trkpt lat="45.67179" lon="5.96266">
        <ele>982</ele>
        <time>2012-05-05T08:43:45Z</time>
      </trkpt>
      <trkpt lat="45.67181" lon="5.96265">
        <ele>981</ele>
        <time>2012-05-05T08:43:46Z</time>
      </trkpt>
      <trkpt lat="45.67187" lon="5.96268">
        <ele>980.59997558594</ele>
        <time>2012-05-05T08:43:50Z</time>
      </trkpt>
      <trkpt lat="45.67188" lon="5.9627">
        <ele>980.79998779297</ele>
        <time>2012-05-05T08:43:51Z</time>
      </trkpt>
      <trkpt lat="45.6719" lon="5.96272">
        <ele>980.59997558594</ele>
        <time>2012-05-05T08:43:53Z</time>
      </trkpt>
      <trkpt lat="45.67191" lon="5.96269">
        <ele>979.59997558594</ele>
        <time>2012-05-05T08:43:54Z</time>
      </trkpt>
      <trkpt lat="45.67197" lon="5.96257">
        <ele>974.40002441406</ele>
        <time>2012-05-05T08:43:58Z</time>
      </trkpt>
      <trkpt lat="45.67198" lon="5.96256">
        <ele>973.79998779297</ele>
        <time>2012-05-05T08:44:00Z</time>
      </trkpt>
      <trkpt lat="45.67201" lon="5.9625">
        <ele>971.20001220703</ele>
        <time>2012-05-05T08:44:02Z</time>
      </trkpt>
      <trkpt lat="45.67213" lon="5.96249">
        <ele>967</ele>
        <time>2012-05-05T08:44:06Z</time>
      </trkpt>
      <trkpt lat="45.67219" lon="5.96253">
        <ele>967</ele>
        <time>2012-05-05T08:44:10Z</time>
      </trkpt>
      <trkpt lat="45.67219" lon="5.96262">
        <ele>969.79998779297</ele>
        <time>2012-05-05T08:44:13Z</time>
      </trkpt>
      <trkpt lat="45.67226" lon="5.96269">
        <ele>970.20001220703</ele>
        <time>2012-05-05T08:44:17Z</time>
      </trkpt>
      <trkpt lat="45.67229" lon="5.9627">
        <ele>969.59997558594</ele>
        <time>2012-05-05T08:44:18Z</time>
      </trkpt>
      <trkpt lat="45.67237" lon="5.96271">
        <ele>967.79998779297</ele>
        <time>2012-05-05T08:44:21Z</time>
      </trkpt>
      <trkpt lat="45.67239" lon="5.96271">
        <ele>967.20001220703</ele>
        <time>2012-05-05T08:44:22Z</time>
      </trkpt>
      <trkpt lat="45.6725" lon="5.9627">
        <ele>964</ele>
        <time>2012-05-05T08:44:26Z</time>
      </trkpt>
      <trkpt lat="45.6725" lon="5.96271">
        <ele>964.20001220703</ele>
        <time>2012-05-05T08:44:27Z</time>
      </trkpt>
      <trkpt lat="45.67251" lon="5.96272">
        <ele>964</ele>
        <time>2012-05-05T08:44:29Z</time>
      </trkpt>
      <trkpt lat="45.67261" lon="5.96282">
        <ele>962.79998779297</ele>
        <time>2012-05-05T08:44:32Z</time>
      </trkpt>
      <trkpt lat="45.67265" lon="5.96293">
        <ele>965.20001220703</ele>
        <time>2012-05-05T08:44:35Z</time>
      </trkpt>
      <trkpt lat="45.67266" lon="5.96294">
        <ele>964.79998779297</ele>
        <time>2012-05-05T08:44:36Z</time>
      </trkpt>
      <trkpt lat="45.6728" lon="5.96295">
        <ele>959</ele>
        <time>2012-05-05T08:44:41Z</time>
      </trkpt>
      <trkpt lat="45.67282" lon="5.96295">
        <ele>957.79998779297</ele>
        <time>2012-05-05T08:44:42Z</time>
      </trkpt>
      <trkpt lat="45.67292" lon="5.963">
        <ele>955.20001220703</ele>
        <time>2012-05-05T08:44:46Z</time>
      </trkpt>
      <trkpt lat="45.67294" lon="5.96302">
        <ele>955</ele>
        <time>2012-05-05T08:44:47Z</time>
      </trkpt>
      <trkpt lat="45.67304" lon="5.96315">
        <ele>956</ele>
        <time>2012-05-05T08:44:52Z</time>
      </trkpt>
      <trkpt lat="45.67306" lon="5.96318">
        <ele>956</ele>
        <time>2012-05-05T08:44:53Z</time>
      </trkpt>
      <trkpt lat="45.6731" lon="5.96323">
        <ele>956.20001220703</ele>
        <time>2012-05-05T08:44:55Z</time>
      </trkpt>
      <trkpt lat="45.67313" lon="5.96325">
        <ele>956</ele>
        <time>2012-05-05T08:44:57Z</time>
      </trkpt>
      <trkpt lat="45.67316" lon="5.96329">
        <ele>956.59997558594</ele>
        <time>2012-05-05T08:45:00Z</time>
      </trkpt>
      <trkpt lat="45.67318" lon="5.96331">
        <ele>956.40002441406</ele>
        <time>2012-05-05T08:45:02Z</time>
      </trkpt>
      <trkpt lat="45.67329" lon="5.96334">
        <ele>953.20001220703</ele>
        <time>2012-05-05T08:45:06Z</time>
      </trkpt>
      <trkpt lat="45.67335" lon="5.96336">
        <ele>951.20001220703</ele>
        <time>2012-05-05T08:45:09Z</time>
      </trkpt>
      <trkpt lat="45.67343" lon="5.96341">
        <ele>949.59997558594</ele>
        <time>2012-05-05T08:45:12Z</time>
      </trkpt>
      <trkpt lat="45.67346" lon="5.96345">
        <ele>950</ele>
        <time>2012-05-05T08:45:14Z</time>
      </trkpt>
      <trkpt lat="45.67349" lon="5.96351">
        <ele>951</ele>
        <time>2012-05-05T08:45:17Z</time>
      </trkpt>
      <trkpt lat="45.67351" lon="5.96352">
        <ele>950.79998779297</ele>
        <time>2012-05-05T08:45:18Z</time>
      </trkpt>
      <trkpt lat="45.67353" lon="5.96348">
        <ele>948.59997558594</ele>
        <time>2012-05-05T08:45:21Z</time>
      </trkpt>
      <trkpt lat="45.67352" lon="5.96345">
        <ele>947.79998779297</ele>
        <time>2012-05-05T08:45:22Z</time>
      </trkpt>
      <trkpt lat="45.67347" lon="5.96336">
        <ele>946.40002441406</ele>
        <time>2012-05-05T08:45:26Z</time>
      </trkpt>
      <trkpt lat="45.67346" lon="5.96334">
        <ele>946</ele>
        <time>2012-05-05T08:45:27Z</time>
      </trkpt>
      <trkpt lat="45.67343" lon="5.96327">
        <ele>944</ele>
        <time>2012-05-05T08:45:31Z</time>
      </trkpt>
      <trkpt lat="45.67339" lon="5.96322">
        <ele>943.59997558594</ele>
        <time>2012-05-05T08:45:34Z</time>
      </trkpt>
      <trkpt lat="45.67336" lon="5.96315">
        <ele>941.79998779297</ele>
        <time>2012-05-05T08:45:37Z</time>
      </trkpt>
      <trkpt lat="45.67334" lon="5.96308">
        <ele>939.40002441406</ele>
        <time>2012-05-05T08:45:39Z</time>
      </trkpt>
      <trkpt lat="45.67334" lon="5.96295">
        <ele>933.79998779297</ele>
        <time>2012-05-05T08:45:42Z</time>
      </trkpt>
      <trkpt lat="45.67334" lon="5.9629">
        <ele>931.79998779297</ele>
        <time>2012-05-05T08:45:44Z</time>
      </trkpt>
      <trkpt lat="45.67329" lon="5.96279">
        <ele>929</ele>
        <time>2012-05-05T08:45:47Z</time>
      </trkpt>
      <trkpt lat="45.67325" lon="5.9627">
        <ele>927.40002441406</ele>
        <time>2012-05-05T08:45:50Z</time>
      </trkpt>
      <trkpt lat="45.67321" lon="5.96263">
        <ele>926.20001220703</ele>
        <time>2012-05-05T08:45:53Z</time>
      </trkpt>
      <trkpt lat="45.67318" lon="5.9626">
        <ele>926.59997558594</ele>
        <time>2012-05-05T08:45:54Z</time>
      </trkpt>
      <trkpt lat="45.67311" lon="5.96248">
        <ele>924.59997558594</ele>
        <time>2012-05-05T08:45:58Z</time>
      </trkpt>
      <trkpt lat="45.67307" lon="5.96236">
        <ele>923.20001220703</ele>
        <time>2012-05-05T08:46:02Z</time>
      </trkpt>
      <trkpt lat="45.67305" lon="5.96229">
        <ele>922.20001220703</ele>
        <time>2012-05-05T08:46:06Z</time>
      </trkpt>
      <trkpt lat="45.67306" lon="5.96229">
        <ele>921.59997558594</ele>
        <time>2012-05-05T08:46:07Z</time>
      </trkpt>
      <trkpt lat="45.67307" lon="5.96232">
        <ele>922.20001220703</ele>
        <time>2012-05-05T08:46:09Z</time>
      </trkpt>
      <trkpt lat="45.67312" lon="5.96235">
        <ele>920.40002441406</ele>
        <time>2012-05-05T08:46:12Z</time>
      </trkpt>
      <trkpt lat="45.67323" lon="5.96239">
        <ele>916.20001220703</ele>
        <time>2012-05-05T08:46:17Z</time>
      </trkpt>
      <trkpt lat="45.67328" lon="5.96239">
        <ele>914</ele>
        <time>2012-05-05T08:46:19Z</time>
      </trkpt>
      <trkpt lat="45.67331" lon="5.96247">
        <ele>914.59997558594</ele>
        <time>2012-05-05T08:46:22Z</time>
      </trkpt>
      <trkpt lat="45.67332" lon="5.96249">
        <ele>914.59997558594</ele>
        <time>2012-05-05T08:46:23Z</time>
      </trkpt>
      <trkpt lat="45.67337" lon="5.96257">
        <ele>915.40002441406</ele>
        <time>2012-05-05T08:46:26Z</time>
      </trkpt>
      <trkpt lat="45.6734" lon="5.96264">
        <ele>917.40002441406</ele>
        <time>2012-05-05T08:46:28Z</time>
      </trkpt>
      <trkpt lat="45.67343" lon="5.96268">
        <ele>918.20001220703</ele>
        <time>2012-05-05T08:46:30Z</time>
      </trkpt>
      <trkpt lat="45.67345" lon="5.96271">
        <ele>918.79998779297</ele>
        <time>2012-05-05T08:46:32Z</time>
      </trkpt>
      <trkpt lat="45.67348" lon="5.96274">
        <ele>919</ele>
        <time>2012-05-05T08:46:34Z</time>
      </trkpt>
      <trkpt lat="45.67353" lon="5.96276">
        <ele>918.20001220703</ele>
        <time>2012-05-05T08:46:36Z</time>
      </trkpt>
      <trkpt lat="45.67364" lon="5.96283">
        <ele>916.79998779297</ele>
        <time>2012-05-05T08:46:42Z</time>
      </trkpt>
      <trkpt lat="45.67366" lon="5.96284">
        <ele>916.20001220703</ele>
        <time>2012-05-05T08:46:43Z</time>
      </trkpt>
      <trkpt lat="45.67376" lon="5.96286">
        <ele>913.20001220703</ele>
        <time>2012-05-05T08:46:47Z</time>
      </trkpt>
      <trkpt lat="45.67378" lon="5.96287">
        <ele>912.59997558594</ele>
        <time>2012-05-05T08:46:48Z</time>
      </trkpt>
      <trkpt lat="45.67386" lon="5.96288">
        <ele>910</ele>
        <time>2012-05-05T08:46:53Z</time>
      </trkpt>
      <trkpt lat="45.67388" lon="5.96289">
        <ele>909.59997558594</ele>
        <time>2012-05-05T08:46:54Z</time>
      </trkpt>
      <trkpt lat="45.67393" lon="5.96288">
        <ele>907.40002441406</ele>
        <time>2012-05-05T08:46:56Z</time>
      </trkpt>
      <trkpt lat="45.67399" lon="5.96285">
        <ele>903.59997558594</ele>
        <time>2012-05-05T08:46:58Z</time>
      </trkpt>
      <trkpt lat="45.67408" lon="5.9628">
        <ele>898</ele>
        <time>2012-05-05T08:47:02Z</time>
      </trkpt>
      <trkpt lat="45.67407" lon="5.96278">
        <ele>897.59997558594</ele>
        <time>2012-05-05T08:47:03Z</time>
      </trkpt>
      <trkpt lat="45.67406" lon="5.96277">
        <ele>897.59997558594</ele>
        <time>2012-05-05T08:47:05Z</time>
      </trkpt>
      <trkpt lat="45.67402" lon="5.96271">
        <ele>896.59997558594</ele>
        <time>2012-05-05T08:47:08Z</time>
      </trkpt>
      <trkpt lat="45.67393" lon="5.96263">
        <ele>896.40002441406</ele>
        <time>2012-05-05T08:47:12Z</time>
      </trkpt>
      <trkpt lat="45.67392" lon="5.96261">
        <ele>896</ele>
        <time>2012-05-05T08:47:13Z</time>
      </trkpt>
      <trkpt lat="45.67386" lon="5.9625">
        <ele>893.79998779297</ele>
        <time>2012-05-05T08:47:17Z</time>
      </trkpt>
      <trkpt lat="45.67385" lon="5.96246">
        <ele>893.20001220703</ele>
        <time>2012-05-05T08:47:18Z</time>
      </trkpt>
      <trkpt lat="45.67385" lon="5.96237">
        <ele>891.59997558594</ele>
        <time>2012-05-05T08:47:22Z</time>
      </trkpt>
      <trkpt lat="45.67386" lon="5.96232">
        <ele>890</ele>
        <time>2012-05-05T08:47:23Z</time>
      </trkpt>
      <trkpt lat="45.67387" lon="5.96226">
        <ele>888.40002441406</ele>
        <time>2012-05-05T08:47:25Z</time>
      </trkpt>
      <trkpt lat="45.67386" lon="5.96224">
        <ele>888.20001220703</ele>
        <time>2012-05-05T08:47:26Z</time>
      </trkpt>
      <trkpt lat="45.67387" lon="5.96214">
        <ele>885.40002441406</ele>
        <time>2012-05-05T08:47:29Z</time>
      </trkpt>
      <trkpt lat="45.67388" lon="5.96212">
        <ele>884.79998779297</ele>
        <time>2012-05-05T08:47:30Z</time>
      </trkpt>
      <trkpt lat="45.67386" lon="5.96197">
        <ele>882.20001220703</ele>
        <time>2012-05-05T08:47:34Z</time>
      </trkpt>
      <trkpt lat="45.67386" lon="5.96193">
        <ele>881.40002441406</ele>
        <time>2012-05-05T08:47:35Z</time>
      </trkpt>
      <trkpt lat="45.67386" lon="5.96175">
        <ele>877.20001220703</ele>
        <time>2012-05-05T08:47:40Z</time>
      </trkpt>
      <trkpt lat="45.67386" lon="5.96171">
        <ele>876.40002441406</ele>
        <time>2012-05-05T08:47:41Z</time>
      </trkpt>
      <trkpt lat="45.67394" lon="5.96142">
        <ele>867.59997558594</ele>
        <time>2012-05-05T08:47:48Z</time>
      </trkpt>
      <trkpt lat="45.67395" lon="5.96139">
        <ele>866.59997558594</ele>
        <time>2012-05-05T08:47:49Z</time>
      </trkpt>
      <trkpt lat="45.67396" lon="5.96132">
        <ele>864.79998779297</ele>
        <time>2012-05-05T08:47:51Z</time>
      </trkpt>
      <trkpt lat="45.67397" lon="5.96124">
        <ele>862.40002441406</ele>
        <time>2012-05-05T08:47:53Z</time>
      </trkpt>
      <trkpt lat="45.67397" lon="5.96114">
        <ele>860.20001220703</ele>
        <time>2012-05-05T08:47:56Z</time>
      </trkpt>
      <trkpt lat="45.67394" lon="5.96107">
        <ele>859.59997558594</ele>
        <time>2012-05-05T08:47:58Z</time>
      </trkpt>
      <trkpt lat="45.67383" lon="5.96098">
        <ele>860.20001220703</ele>
        <time>2012-05-05T08:48:02Z</time>
      </trkpt>
      <trkpt lat="45.67381" lon="5.96095">
        <ele>860</ele>
        <time>2012-05-05T08:48:03Z</time>
      </trkpt>
      <trkpt lat="45.67373" lon="5.96088">
        <ele>860</ele>
        <time>2012-05-05T08:48:07Z</time>
      </trkpt>
      <trkpt lat="45.6737" lon="5.96085">
        <ele>860.20001220703</ele>
        <time>2012-05-05T08:48:09Z</time>
      </trkpt>
      <trkpt lat="45.67366" lon="5.96078">
        <ele>859.40002441406</ele>
        <time>2012-05-05T08:48:12Z</time>
      </trkpt>
      <trkpt lat="45.6736" lon="5.96065">
        <ele>856.79998779297</ele>
        <time>2012-05-05T08:48:16Z</time>
      </trkpt>
      <trkpt lat="45.67361" lon="5.96048">
        <ele>852</ele>
        <time>2012-05-05T08:48:21Z</time>
      </trkpt>
      <trkpt lat="45.67361" lon="5.96045">
        <ele>851.20001220703</ele>
        <time>2012-05-05T08:48:22Z</time>
      </trkpt>
      <trkpt lat="45.6736" lon="5.96039">
        <ele>849.79998779297</ele>
        <time>2012-05-05T08:48:24Z</time>
      </trkpt>
      <trkpt lat="45.6736" lon="5.96031">
        <ele>848</ele>
        <time>2012-05-05T08:48:26Z</time>
      </trkpt>
      <trkpt lat="45.67359" lon="5.96023">
        <ele>845.79998779297</ele>
        <time>2012-05-05T08:48:29Z</time>
      </trkpt>
      <trkpt lat="45.67359" lon="5.96019">
        <ele>844.79998779297</ele>
        <time>2012-05-05T08:48:30Z</time>
      </trkpt>
      <trkpt lat="45.67357" lon="5.96007">
        <ele>842</ele>
        <time>2012-05-05T08:48:33Z</time>
      </trkpt>
      <trkpt lat="45.67352" lon="5.95996">
        <ele>840.20001220703</ele>
        <time>2012-05-05T08:48:36Z</time>
      </trkpt>
      <trkpt lat="45.6734" lon="5.95979">
        <ele>838.20001220703</ele>
        <time>2012-05-05T08:48:42Z</time>
      </trkpt>
      <trkpt lat="45.67339" lon="5.95974">
        <ele>837</ele>
        <time>2012-05-05T08:48:45Z</time>
      </trkpt>
      <trkpt lat="45.67338" lon="5.95971">
        <ele>836.40002441406</ele>
        <time>2012-05-05T08:48:47Z</time>
      </trkpt>
      <trkpt lat="45.67338" lon="5.95969">
        <ele>835.79998779297</ele>
        <time>2012-05-05T08:48:48Z</time>
      </trkpt>
      <trkpt lat="45.67336" lon="5.95963">
        <ele>834.79998779297</ele>
        <time>2012-05-05T08:48:51Z</time>
      </trkpt>
      <trkpt lat="45.67335" lon="5.95962">
        <ele>834.59997558594</ele>
        <time>2012-05-05T08:48:52Z</time>
      </trkpt>
      <trkpt lat="45.67335" lon="5.9596">
        <ele>834</ele>
        <time>2012-05-05T08:48:55Z</time>
      </trkpt>
      <trkpt lat="45.67335" lon="5.95959">
        <ele>833.59997558594</ele>
        <time>2012-05-05T08:48:56Z</time>
      </trkpt>
      <trkpt lat="45.67334" lon="5.95949">
        <ele>830.79998779297</ele>
        <time>2012-05-05T08:49:01Z</time>
      </trkpt>
      <trkpt lat="45.67334" lon="5.95945">
        <ele>829.59997558594</ele>
        <time>2012-05-05T08:49:02Z</time>
      </trkpt>
      <trkpt lat="45.67335" lon="5.95949">
        <ele>830.40002441406</ele>
        <time>2012-05-05T08:49:05Z</time>
      </trkpt>
      <trkpt lat="45.67337" lon="5.9595">
        <ele>830.40002441406</ele>
        <time>2012-05-05T08:49:06Z</time>
      </trkpt>
      <trkpt lat="45.6734" lon="5.95954">
        <ele>830.40002441406</ele>
        <time>2012-05-05T08:49:09Z</time>
      </trkpt>
      <trkpt lat="45.67348" lon="5.95959">
        <ele>829.40002441406</ele>
        <time>2012-05-05T08:49:12Z</time>
      </trkpt>
      <trkpt lat="45.67356" lon="5.95962">
        <ele>828</ele>
        <time>2012-05-05T08:49:16Z</time>
      </trkpt>
      <trkpt lat="45.67361" lon="5.95966">
        <ele>827.40002441406</ele>
        <time>2012-05-05T08:49:18Z</time>
      </trkpt>
      <trkpt lat="45.67369" lon="5.95969">
        <ele>826.20001220703</ele>
        <time>2012-05-05T08:49:21Z</time>
      </trkpt>
      <trkpt lat="45.67372" lon="5.95972">
        <ele>826</ele>
        <time>2012-05-05T08:49:23Z</time>
      </trkpt>
      <trkpt lat="45.67375" lon="5.95977">
        <ele>826.79998779297</ele>
        <time>2012-05-05T08:49:25Z</time>
      </trkpt>
      <trkpt lat="45.67384" lon="5.95977">
        <ele>824.40002441406</ele>
        <time>2012-05-05T08:49:28Z</time>
      </trkpt>
      <trkpt lat="45.67388" lon="5.95981">
        <ele>824.20001220703</ele>
        <time>2012-05-05T08:49:30Z</time>
      </trkpt>
      <trkpt lat="45.67396" lon="5.95982">
        <ele>822.20001220703</ele>
        <time>2012-05-05T08:49:33Z</time>
      </trkpt>
      <trkpt lat="45.67407" lon="5.95981">
        <ele>818.40002441406</ele>
        <time>2012-05-05T08:49:36Z</time>
      </trkpt>
      <trkpt lat="45.67412" lon="5.95981">
        <ele>817</ele>
        <time>2012-05-05T08:49:38Z</time>
      </trkpt>
      <trkpt lat="45.6742" lon="5.95975">
        <ele>812</ele>
        <time>2012-05-05T08:49:41Z</time>
      </trkpt>
      <trkpt lat="45.67423" lon="5.95974">
        <ele>810.59997558594</ele>
        <time>2012-05-05T08:49:42Z</time>
      </trkpt>
      <trkpt lat="45.67431" lon="5.95981">
        <ele>811.20001220703</ele>
        <time>2012-05-05T08:49:45Z</time>
      </trkpt>
      <trkpt lat="45.67433" lon="5.95983">
        <ele>811.20001220703</ele>
        <time>2012-05-05T08:49:46Z</time>
      </trkpt>
      <trkpt lat="45.67438" lon="5.95991">
        <ele>812.59997558594</ele>
        <time>2012-05-05T08:49:49Z</time>
      </trkpt>
      <trkpt lat="45.67439" lon="5.95994">
        <ele>813.40002441406</ele>
        <time>2012-05-05T08:49:50Z</time>
      </trkpt>
      <trkpt lat="45.67445" lon="5.95998">
        <ele>813</ele>
        <time>2012-05-05T08:49:53Z</time>
      </trkpt>
      <trkpt lat="45.67448" lon="5.95999">
        <ele>812.40002441406</ele>
        <time>2012-05-05T08:49:54Z</time>
      </trkpt>
      <trkpt lat="45.67454" lon="5.95999">
        <ele>810.59997558594</ele>
        <time>2012-05-05T08:49:57Z</time>
      </trkpt>
      <trkpt lat="45.67454" lon="5.95997">
        <ele>810</ele>
        <time>2012-05-05T08:49:58Z</time>
      </trkpt>
      <trkpt lat="45.67448" lon="5.95994">
        <ele>810.59997558594</ele>
        <time>2012-05-05T08:50:01Z</time>
      </trkpt>
      <trkpt lat="45.67447" lon="5.95989">
        <ele>809.40002441406</ele>
        <time>2012-05-05T08:50:03Z</time>
      </trkpt>
      <trkpt lat="45.67449" lon="5.95973">
        <ele>802.20001220703</ele>
        <time>2012-05-05T08:50:07Z</time>
      </trkpt>
      <trkpt lat="45.67449" lon="5.9597">
        <ele>801.40002441406</ele>
        <time>2012-05-05T08:50:08Z</time>
      </trkpt>
      <trkpt lat="45.6744" lon="5.95956">
        <ele>798.59997558594</ele>
        <time>2012-05-05T08:50:13Z</time>
      </trkpt>
      <trkpt lat="45.67439" lon="5.95954">
        <ele>798</ele>
        <time>2012-05-05T08:50:14Z</time>
      </trkpt>
      <trkpt lat="45.67437" lon="5.95949">
        <ele>796.79998779297</ele>
        <time>2012-05-05T08:50:16Z</time>
      </trkpt>
      <trkpt lat="45.67438" lon="5.95947">
        <ele>796</ele>
        <time>2012-05-05T08:50:17Z</time>
      </trkpt>
      <trkpt lat="45.6744" lon="5.95947">
        <ele>795.20001220703</ele>
        <time>2012-05-05T08:50:19Z</time>
      </trkpt>
      <trkpt lat="45.67444" lon="5.95945">
        <ele>793.40002441406</ele>
        <time>2012-05-05T08:50:21Z</time>
      </trkpt>
      <trkpt lat="45.67447" lon="5.95944">
        <ele>792.20001220703</ele>
        <time>2012-05-05T08:50:23Z</time>
      </trkpt>
      <trkpt lat="45.67451" lon="5.95945">
        <ele>791.20001220703</ele>
        <time>2012-05-05T08:50:25Z</time>
      </trkpt>
      <trkpt lat="45.67458" lon="5.95946">
        <ele>789.40002441406</ele>
        <time>2012-05-05T08:50:29Z</time>
      </trkpt>
      <trkpt lat="45.67461" lon="5.95947">
        <ele>789</ele>
        <time>2012-05-05T08:50:30Z</time>
      </trkpt>
      <trkpt lat="45.67464" lon="5.95951">
        <ele>789.40002441406</ele>
        <time>2012-05-05T08:50:32Z</time>
      </trkpt>
      <trkpt lat="45.67465" lon="5.95953">
        <ele>789.79998779297</ele>
        <time>2012-05-05T08:50:33Z</time>
      </trkpt>
      <trkpt lat="45.6747" lon="5.95952">
        <ele>788</ele>
        <time>2012-05-05T08:50:36Z</time>
      </trkpt>
      <trkpt lat="45.67472" lon="5.95953">
        <ele>787.79998779297</ele>
        <time>2012-05-05T08:50:37Z</time>
      </trkpt>
      <trkpt lat="45.67476" lon="5.95956">
        <ele>788</ele>
        <time>2012-05-05T08:50:40Z</time>
      </trkpt>
      <trkpt lat="45.67481" lon="5.95959">
        <ele>787.20001220703</ele>
        <time>2012-05-05T08:50:42Z</time>
      </trkpt>
      <trkpt lat="45.67486" lon="5.95964">
        <ele>787.59997558594</ele>
        <time>2012-05-05T08:50:45Z</time>
      </trkpt>
      <trkpt lat="45.67488" lon="5.95966">
        <ele>787.59997558594</ele>
        <time>2012-05-05T08:50:47Z</time>
      </trkpt>
      <trkpt lat="45.6749" lon="5.95963">
        <ele>786</ele>
        <time>2012-05-05T08:50:50Z</time>
      </trkpt>
      <trkpt lat="45.67487" lon="5.95953">
        <ele>783.40002441406</ele>
        <time>2012-05-05T08:50:54Z</time>
      </trkpt>
      <trkpt lat="45.67474" lon="5.95932">
        <ele>779.79998779297</ele>
        <time>2012-05-05T08:51:01Z</time>
      </trkpt>
      <trkpt lat="45.67469" lon="5.95928">
        <ele>779.59997558594</ele>
        <time>2012-05-05T08:51:03Z</time>
      </trkpt>
      <trkpt lat="45.6746" lon="5.95916">
        <ele>777.79998779297</ele>
        <time>2012-05-05T08:51:07Z</time>
      </trkpt>
      <trkpt lat="45.67458" lon="5.95912">
        <ele>776.79998779297</ele>
        <time>2012-05-05T08:51:08Z</time>
      </trkpt>
      <trkpt lat="45.67452" lon="5.95899">
        <ele>772.20001220703</ele>
        <time>2012-05-05T08:51:12Z</time>
      </trkpt>
      <trkpt lat="45.6745" lon="5.95897">
        <ele>772.40002441406</ele>
        <time>2012-05-05T08:51:13Z</time>
      </trkpt>
      <trkpt lat="45.67445" lon="5.95888">
        <ele>769.79998779297</ele>
        <time>2012-05-05T08:51:16Z</time>
      </trkpt>
      <trkpt lat="45.67444" lon="5.95882">
        <ele>767.40002441406</ele>
        <time>2012-05-05T08:51:18Z</time>
      </trkpt>
      <trkpt lat="45.6744" lon="5.95874">
        <ele>765</ele>
        <time>2012-05-05T08:51:21Z</time>
      </trkpt>
      <trkpt lat="45.67435" lon="5.95872">
        <ele>765.20001220703</ele>
        <time>2012-05-05T08:51:24Z</time>
      </trkpt>
      <trkpt lat="45.67429" lon="5.95877">
        <ele>769.20001220703</ele>
        <time>2012-05-05T08:51:27Z</time>
      </trkpt>
      <trkpt lat="45.67426" lon="5.95875">
        <ele>768.79998779297</ele>
        <time>2012-05-05T08:51:29Z</time>
      </trkpt>
      <trkpt lat="45.67418" lon="5.9587">
        <ele>769.20001220703</ele>
        <time>2012-05-05T08:51:32Z</time>
      </trkpt>
      <trkpt lat="45.67415" lon="5.95868">
        <ele>769</ele>
        <time>2012-05-05T08:51:34Z</time>
      </trkpt>
      <trkpt lat="45.6741" lon="5.95861">
        <ele>767.59997558594</ele>
        <time>2012-05-05T08:51:36Z</time>
      </trkpt>
      <trkpt lat="45.67409" lon="5.95859">
        <ele>767.20001220703</ele>
        <time>2012-05-05T08:51:37Z</time>
      </trkpt>
      <trkpt lat="45.67403" lon="5.95849">
        <ele>764.59997558594</ele>
        <time>2012-05-05T08:51:40Z</time>
      </trkpt>
      <trkpt lat="45.67402" lon="5.95843">
        <ele>762.40002441406</ele>
        <time>2012-05-05T08:51:42Z</time>
      </trkpt>
      <trkpt lat="45.67399" lon="5.95838">
        <ele>761</ele>
        <time>2012-05-05T08:51:44Z</time>
      </trkpt>
      <trkpt lat="45.67398" lon="5.95835">
        <ele>760</ele>
        <time>2012-05-05T08:51:45Z</time>
      </trkpt>
      <trkpt lat="45.67398" lon="5.95829">
        <ele>757.79998779297</ele>
        <time>2012-05-05T08:51:47Z</time>
      </trkpt>
      <trkpt lat="45.67396" lon="5.95826">
        <ele>757.20001220703</ele>
        <time>2012-05-05T08:51:48Z</time>
      </trkpt>
      <trkpt lat="45.6739" lon="5.95817">
        <ele>755.40002441406</ele>
        <time>2012-05-05T08:51:51Z</time>
      </trkpt>
      <trkpt lat="45.67387" lon="5.95814">
        <ele>755.20001220703</ele>
        <time>2012-05-05T08:51:52Z</time>
      </trkpt>
      <trkpt lat="45.67375" lon="5.95803">
        <ele>754.40002441406</ele>
        <time>2012-05-05T08:51:56Z</time>
      </trkpt>
      <trkpt lat="45.67374" lon="5.95803">
        <ele>754.79998779297</ele>
        <time>2012-05-05T08:51:57Z</time>
      </trkpt>
      <trkpt lat="45.67372" lon="5.95799">
        <ele>753.79998779297</ele>
        <time>2012-05-05T08:51:59Z</time>
      </trkpt>
      <trkpt lat="45.67373" lon="5.95797">
        <ele>752.79998779297</ele>
        <time>2012-05-05T08:52:00Z</time>
      </trkpt>
      <trkpt lat="45.67379" lon="5.95797">
        <ele>750.59997558594</ele>
        <time>2012-05-05T08:52:04Z</time>
      </trkpt>
      <trkpt lat="45.67384" lon="5.95799">
        <ele>750</ele>
        <time>2012-05-05T08:52:06Z</time>
      </trkpt>
      <trkpt lat="45.67389" lon="5.95803">
        <ele>750.40002441406</ele>
        <time>2012-05-05T08:52:09Z</time>
      </trkpt>
      <trkpt lat="45.67392" lon="5.95806">
        <ele>750.59997558594</ele>
        <time>2012-05-05T08:52:11Z</time>
      </trkpt>
      <trkpt lat="45.67397" lon="5.95811">
        <ele>750.79998779297</ele>
        <time>2012-05-05T08:52:15Z</time>
      </trkpt>
      <trkpt lat="45.67402" lon="5.95812">
        <ele>749.79998779297</ele>
        <time>2012-05-05T08:52:17Z</time>
      </trkpt>
      <trkpt lat="45.67406" lon="5.95813">
        <ele>749</ele>
        <time>2012-05-05T08:52:20Z</time>
      </trkpt>
      <trkpt lat="45.6741" lon="5.95812">
        <ele>747.40002441406</ele>
        <time>2012-05-05T08:52:22Z</time>
      </trkpt>
      <trkpt lat="45.67412" lon="5.95813">
        <ele>747.20001220703</ele>
        <time>2012-05-05T08:52:24Z</time>
      </trkpt>
      <trkpt lat="45.67418" lon="5.95812">
        <ele>745</ele>
        <time>2012-05-05T08:52:26Z</time>
      </trkpt>
      <trkpt lat="45.67422" lon="5.9581">
        <ele>743.59997558594</ele>
        <time>2012-05-05T08:52:28Z</time>
      </trkpt>
      <trkpt lat="45.67429" lon="5.95804">
        <ele>739.79998779297</ele>
        <time>2012-05-05T08:52:31Z</time>
      </trkpt>
      <trkpt lat="45.67437" lon="5.95799">
        <ele>737</ele>
        <time>2012-05-05T08:52:34Z</time>
      </trkpt>
      <trkpt lat="45.67439" lon="5.95796">
        <ele>735.59997558594</ele>
        <time>2012-05-05T08:52:35Z</time>
      </trkpt>
      <trkpt lat="45.67441" lon="5.9579">
        <ele>733.40002441406</ele>
        <time>2012-05-05T08:52:37Z</time>
      </trkpt>
      <trkpt lat="45.67439" lon="5.9579">
        <ele>733.59997558594</ele>
        <time>2012-05-05T08:52:39Z</time>
      </trkpt>
      <trkpt lat="45.67433" lon="5.95786">
        <ele>733.20001220703</ele>
        <time>2012-05-05T08:52:43Z</time>
      </trkpt>
      <trkpt lat="45.6743" lon="5.95781">
        <ele>732.20001220703</ele>
        <time>2012-05-05T08:52:45Z</time>
      </trkpt>
      <trkpt lat="45.67424" lon="5.95771">
        <ele>729.59997558594</ele>
        <time>2012-05-05T08:52:48Z</time>
      </trkpt>
      <trkpt lat="45.6742" lon="5.95766">
        <ele>728.40002441406</ele>
        <time>2012-05-05T08:52:50Z</time>
      </trkpt>
      <trkpt lat="45.67415" lon="5.95758">
        <ele>726.40002441406</ele>
        <time>2012-05-05T08:52:54Z</time>
      </trkpt>
      <trkpt lat="45.67412" lon="5.95758">
        <ele>726.79998779297</ele>
        <time>2012-05-05T08:52:55Z</time>
      </trkpt>
      <trkpt lat="45.67407" lon="5.95755">
        <ele>727.20001220703</ele>
        <time>2012-05-05T08:52:58Z</time>
      </trkpt>
      <trkpt lat="45.67405" lon="5.95754">
        <ele>727</ele>
        <time>2012-05-05T08:52:59Z</time>
      </trkpt>
      <trkpt lat="45.674" lon="5.95751">
        <ele>727</ele>
        <time>2012-05-05T08:53:01Z</time>
      </trkpt>
      <trkpt lat="45.67394" lon="5.95744">
        <ele>726.40002441406</ele>
        <time>2012-05-05T08:53:04Z</time>
      </trkpt>
      <trkpt lat="45.67392" lon="5.95738">
        <ele>725</ele>
        <time>2012-05-05T08:53:06Z</time>
      </trkpt>
      <trkpt lat="45.67391" lon="5.95734">
        <ele>723.79998779297</ele>
        <time>2012-05-05T08:53:07Z</time>
      </trkpt>
      <trkpt lat="45.67389" lon="5.95728">
        <ele>722.40002441406</ele>
        <time>2012-05-05T08:53:10Z</time>
      </trkpt>
      <trkpt lat="45.67388" lon="5.95726">
        <ele>722.20001220703</ele>
        <time>2012-05-05T08:53:11Z</time>
      </trkpt>
      <trkpt lat="45.67383" lon="5.95718">
        <ele>720.59997558594</ele>
        <time>2012-05-05T08:53:14Z</time>
      </trkpt>
      <trkpt lat="45.67382" lon="5.95716">
        <ele>720</ele>
        <time>2012-05-05T08:53:15Z</time>
      </trkpt>
      <trkpt lat="45.67381" lon="5.95707">
        <ele>717.40002441406</ele>
        <time>2012-05-05T08:53:17Z</time>
      </trkpt>
      <trkpt lat="45.6738" lon="5.95703">
        <ele>716.20001220703</ele>
        <time>2012-05-05T08:53:18Z</time>
      </trkpt>
      <trkpt lat="45.67371" lon="5.95689">
        <ele>713</ele>
        <time>2012-05-05T08:53:23Z</time>
      </trkpt>
      <trkpt lat="45.6737" lon="5.95687">
        <ele>712.59997558594</ele>
        <time>2012-05-05T08:53:24Z</time>
      </trkpt>
      <trkpt lat="45.67366" lon="5.95679">
        <ele>710.20001220703</ele>
        <time>2012-05-05T08:53:27Z</time>
      </trkpt>
      <trkpt lat="45.67366" lon="5.95673">
        <ele>708.20001220703</ele>
        <time>2012-05-05T08:53:29Z</time>
      </trkpt>
      <trkpt lat="45.67369" lon="5.95662">
        <ele>704.79998779297</ele>
        <time>2012-05-05T08:53:32Z</time>
      </trkpt>
      <trkpt lat="45.6737" lon="5.95657">
        <ele>703.59997558594</ele>
        <time>2012-05-05T08:53:33Z</time>
      </trkpt>
      <trkpt lat="45.67377" lon="5.95633">
        <ele>697.79998779297</ele>
        <time>2012-05-05T08:53:40Z</time>
      </trkpt>
      <trkpt lat="45.67378" lon="5.95631">
        <ele>697.20001220703</ele>
        <time>2012-05-05T08:53:41Z</time>
      </trkpt>
      <trkpt lat="45.67381" lon="5.95625">
        <ele>695.40002441406</ele>
        <time>2012-05-05T08:53:43Z</time>
      </trkpt>
      <trkpt lat="45.67384" lon="5.95619">
        <ele>693.79998779297</ele>
        <time>2012-05-05T08:53:46Z</time>
      </trkpt>
      <trkpt lat="45.67387" lon="5.9562">
        <ele>693.59997558594</ele>
        <time>2012-05-05T08:53:49Z</time>
      </trkpt>
      <trkpt lat="45.67388" lon="5.95619">
        <ele>693.20001220703</ele>
        <time>2012-05-05T08:53:50Z</time>
      </trkpt>
      <trkpt lat="45.67396" lon="5.95613">
        <ele>691</ele>
        <time>2012-05-05T08:53:53Z</time>
      </trkpt>
      <trkpt lat="45.67402" lon="5.95609">
        <ele>689.40002441406</ele>
        <time>2012-05-05T08:53:56Z</time>
      </trkpt>
      <trkpt lat="45.67407" lon="5.95608">
        <ele>688.40002441406</ele>
        <time>2012-05-05T08:53:59Z</time>
      </trkpt>
      <trkpt lat="45.67409" lon="5.95608">
        <ele>688.20001220703</ele>
        <time>2012-05-05T08:54:00Z</time>
      </trkpt>
      <trkpt lat="45.6742" lon="5.95603">
        <ele>685.79998779297</ele>
        <time>2012-05-05T08:54:04Z</time>
      </trkpt>
      <trkpt lat="45.67427" lon="5.95595">
        <ele>683.40002441406</ele>
        <time>2012-05-05T08:54:07Z</time>
      </trkpt>
      <trkpt lat="45.67434" lon="5.9559">
        <ele>681.40002441406</ele>
        <time>2012-05-05T08:54:10Z</time>
      </trkpt>
      <trkpt lat="45.67439" lon="5.95588">
        <ele>680.40002441406</ele>
        <time>2012-05-05T08:54:12Z</time>
      </trkpt>
      <trkpt lat="45.67446" lon="5.95587">
        <ele>679.40002441406</ele>
        <time>2012-05-05T08:54:15Z</time>
      </trkpt>
      <trkpt lat="45.67449" lon="5.95587">
        <ele>679</ele>
        <time>2012-05-05T08:54:16Z</time>
      </trkpt>
      <trkpt lat="45.67463" lon="5.95588">
        <ele>677.59997558594</ele>
        <time>2012-05-05T08:54:22Z</time>
      </trkpt>
      <trkpt lat="45.67474" lon="5.95589">
        <ele>676.59997558594</ele>
        <time>2012-05-05T08:54:26Z</time>
      </trkpt>
      <trkpt lat="45.67482" lon="5.95592">
        <ele>676.59997558594</ele>
        <time>2012-05-05T08:54:29Z</time>
      </trkpt>
      <trkpt lat="45.67485" lon="5.95595">
        <ele>677</ele>
        <time>2012-05-05T08:54:30Z</time>
      </trkpt>
      <trkpt lat="45.67498" lon="5.95604">
        <ele>678</ele>
        <time>2012-05-05T08:54:36Z</time>
      </trkpt>
      <trkpt lat="45.675" lon="5.95605">
        <ele>678.20001220703</ele>
        <time>2012-05-05T08:54:37Z</time>
      </trkpt>
      <trkpt lat="45.6751" lon="5.95603">
        <ele>676.20001220703</ele>
        <time>2012-05-05T08:54:41Z</time>
      </trkpt>
      <trkpt lat="45.67513" lon="5.95602">
        <ele>675.59997558594</ele>
        <time>2012-05-05T08:54:42Z</time>
      </trkpt>
      <trkpt lat="45.67519" lon="5.95594">
        <ele>672.59997558594</ele>
        <time>2012-05-05T08:54:45Z</time>
      </trkpt>
      <trkpt lat="45.67523" lon="5.95591">
        <ele>671.20001220703</ele>
        <time>2012-05-05T08:54:47Z</time>
      </trkpt>
      <trkpt lat="45.67527" lon="5.95586">
        <ele>669.20001220703</ele>
        <time>2012-05-05T08:54:49Z</time>
      </trkpt>
      <trkpt lat="45.67533" lon="5.95582">
        <ele>667.20001220703</ele>
        <time>2012-05-05T08:54:51Z</time>
      </trkpt>
      <trkpt lat="45.67539" lon="5.95581">
        <ele>666.40002441406</ele>
        <time>2012-05-05T08:54:53Z</time>
      </trkpt>
      <trkpt lat="45.67541" lon="5.95581">
        <ele>666</ele>
        <time>2012-05-05T08:54:54Z</time>
      </trkpt>
      <trkpt lat="45.67549" lon="5.95578">
        <ele>664.59997558594</ele>
        <time>2012-05-05T08:54:58Z</time>
      </trkpt>
      <trkpt lat="45.67549" lon="5.95578">
        <ele>664.59997558594</ele>
        <time>2012-05-05T08:54:59Z</time>
      </trkpt>
      <trkpt lat="45.67555" lon="5.95577">
        <ele>663.59997558594</ele>
        <time>2012-05-05T08:55:02Z</time>
      </trkpt>
      <trkpt lat="45.67557" lon="5.95579">
        <ele>663.59997558594</ele>
        <time>2012-05-05T08:55:03Z</time>
      </trkpt>
      <trkpt lat="45.67563" lon="5.95576">
        <ele>662.20001220703</ele>
        <time>2012-05-05T08:55:06Z</time>
      </trkpt>
      <trkpt lat="45.67565" lon="5.95574">
        <ele>661.79998779297</ele>
        <time>2012-05-05T08:55:07Z</time>
      </trkpt>
      <trkpt lat="45.67573" lon="5.95568">
        <ele>659.59997558594</ele>
        <time>2012-05-05T08:55:11Z</time>
      </trkpt>
      <trkpt lat="45.67575" lon="5.95565">
        <ele>659</ele>
        <time>2012-05-05T08:55:12Z</time>
      </trkpt>
      <trkpt lat="45.67579" lon="5.9556">
        <ele>657.59997558594</ele>
        <time>2012-05-05T08:55:14Z</time>
      </trkpt>
      <trkpt lat="45.67581" lon="5.95557">
        <ele>656.79998779297</ele>
        <time>2012-05-05T08:55:15Z</time>
      </trkpt>
      <trkpt lat="45.67585" lon="5.95551">
        <ele>655.59997558594</ele>
        <time>2012-05-05T08:55:17Z</time>
      </trkpt>
      <trkpt lat="45.67588" lon="5.95549">
        <ele>654.79998779297</ele>
        <time>2012-05-05T08:55:18Z</time>
      </trkpt>
      <trkpt lat="45.67591" lon="5.95543">
        <ele>653.59997558594</ele>
        <time>2012-05-05T08:55:20Z</time>
      </trkpt>
      <trkpt lat="45.67594" lon="5.95536">
        <ele>652.20001220703</ele>
        <time>2012-05-05T08:55:22Z</time>
      </trkpt>
      <trkpt lat="45.67598" lon="5.95529">
        <ele>650.59997558594</ele>
        <time>2012-05-05T08:55:25Z</time>
      </trkpt>
      <trkpt lat="45.67598" lon="5.95525">
        <ele>650</ele>
        <time>2012-05-05T08:55:26Z</time>
      </trkpt>
      <trkpt lat="45.67598" lon="5.9552">
        <ele>649.20001220703</ele>
        <time>2012-05-05T08:55:30Z</time>
      </trkpt>
      <trkpt lat="45.67597" lon="5.95517">
        <ele>648.79998779297</ele>
        <time>2012-05-05T08:55:31Z</time>
      </trkpt>
      <trkpt lat="45.67597" lon="5.95515">
        <ele>648.40002441406</ele>
        <time>2012-05-05T08:55:35Z</time>
      </trkpt>
      <trkpt lat="45.67597" lon="5.95514">
        <ele>648.40002441406</ele>
        <time>2012-05-05T08:55:42Z</time>
      </trkpt>
      <trkpt lat="45.67598" lon="5.95514">
        <ele>648.20001220703</ele>
        <time>2012-05-05T08:55:52Z</time>
      </trkpt>
      <trkpt lat="45.67599" lon="5.95514">
        <ele>648.20001220703</ele>
        <time>2012-05-05T08:55:54Z</time>
      </trkpt>
      <trkpt lat="45.676" lon="5.95513">
        <ele>648</ele>
        <time>2012-05-05T08:56:04Z</time>
      </trkpt>
      <trkpt lat="45.67601" lon="5.95512">
        <ele>647.79998779297</ele>
        <time>2012-05-05T08:56:07Z</time>
      </trkpt>
      <trkpt lat="45.67601" lon="5.9551">
        <ele>647.40002441406</ele>
        <time>2012-05-05T08:56:16Z</time>
      </trkpt>
      <trkpt lat="45.67601" lon="5.95506">
        <ele>646.59997558594</ele>
        <time>2012-05-05T08:56:21Z</time>
      </trkpt>
      <trkpt lat="45.67599" lon="5.95497">
        <ele>645.40002441406</ele>
        <time>2012-05-05T08:56:28Z</time>
      </trkpt>
      <trkpt lat="45.67599" lon="5.95493">
        <ele>644.59997558594</ele>
        <time>2012-05-05T08:56:32Z</time>
      </trkpt>
      <trkpt lat="45.67594" lon="5.95487">
        <ele>644</ele>
        <time>2012-05-05T08:56:36Z</time>
      </trkpt>
      <trkpt lat="45.67588" lon="5.95483">
        <ele>643.79998779297</ele>
        <time>2012-05-05T08:56:40Z</time>
      </trkpt>
      <trkpt lat="45.67581" lon="5.95484">
        <ele>644.40002441406</ele>
        <time>2012-05-05T08:56:44Z</time>
      </trkpt>
      <trkpt lat="45.67578" lon="5.9548">
        <ele>644.20001220703</ele>
        <time>2012-05-05T08:56:47Z</time>
      </trkpt>
      <trkpt lat="45.6757" lon="5.95473">
        <ele>643.59997558594</ele>
        <time>2012-05-05T08:56:52Z</time>
      </trkpt>
      <trkpt lat="45.6756" lon="5.95474">
        <ele>644.59997558594</ele>
        <time>2012-05-05T08:56:57Z</time>
      </trkpt>
      <trkpt lat="45.67552" lon="5.95471">
        <ele>644.59997558594</ele>
        <time>2012-05-05T08:57:02Z</time>
      </trkpt>
      <trkpt lat="45.67544" lon="5.95464">
        <ele>644.20001220703</ele>
        <time>2012-05-05T08:57:06Z</time>
      </trkpt>
      <trkpt lat="45.6754" lon="5.95459">
        <ele>643.79998779297</ele>
        <time>2012-05-05T08:57:08Z</time>
      </trkpt>
      <trkpt lat="45.67533" lon="5.95454">
        <ele>643.40002441406</ele>
        <time>2012-05-05T08:57:11Z</time>
      </trkpt>
      <trkpt lat="45.67525" lon="5.95445">
        <ele>643</ele>
        <time>2012-05-05T08:57:15Z</time>
      </trkpt>
      <trkpt lat="45.67515" lon="5.95441">
        <ele>643.20001220703</ele>
        <time>2012-05-05T08:57:19Z</time>
      </trkpt>
      <trkpt lat="45.67501" lon="5.95435">
        <ele>643.59997558594</ele>
        <time>2012-05-05T08:57:25Z</time>
      </trkpt>
      <trkpt lat="45.675" lon="5.95434">
        <ele>643.40002441406</ele>
        <time>2012-05-05T08:57:26Z</time>
      </trkpt>
      <trkpt lat="45.67491" lon="5.95428">
        <ele>644</ele>
        <time>2012-05-05T08:57:41Z</time>
      </trkpt>
      <trkpt lat="45.67487" lon="5.95421">
        <ele>643.40002441406</ele>
        <time>2012-05-05T08:57:45Z</time>
      </trkpt>
      <trkpt lat="45.67482" lon="5.95414">
        <ele>643.20001220703</ele>
        <time>2012-05-05T08:57:48Z</time>
      </trkpt>
      <trkpt lat="45.67475" lon="5.95406">
        <ele>643.20001220703</ele>
        <time>2012-05-05T08:57:53Z</time>
      </trkpt>
      <trkpt lat="45.67467" lon="5.95393">
        <ele>643.20001220703</ele>
        <time>2012-05-05T08:57:58Z</time>
      </trkpt>
      <trkpt lat="45.67463" lon="5.95391">
        <ele>643.40002441406</ele>
        <time>2012-05-05T08:58:00Z</time>
      </trkpt>
      <trkpt lat="45.67456" lon="5.95382">
        <ele>643.40002441406</ele>
        <time>2012-05-05T08:58:05Z</time>
      </trkpt>
      <trkpt lat="45.67453" lon="5.95378">
        <ele>643.20001220703</ele>
        <time>2012-05-05T08:58:07Z</time>
      </trkpt>
      <trkpt lat="45.67443" lon="5.95365">
        <ele>643.20001220703</ele>
        <time>2012-05-05T08:58:14Z</time>
      </trkpt>
      <trkpt lat="45.67433" lon="5.95353">
        <ele>643.20001220703</ele>
        <time>2012-05-05T08:58:19Z</time>
      </trkpt>
      <trkpt lat="45.67422" lon="5.9534">
        <ele>643.20001220703</ele>
        <time>2012-05-05T08:58:25Z</time>
      </trkpt>
      <trkpt lat="45.67413" lon="5.95326">
        <ele>642.59997558594</ele>
        <time>2012-05-05T08:58:30Z</time>
      </trkpt>
      <trkpt lat="45.67396" lon="5.95307">
        <ele>641.59997558594</ele>
        <time>2012-05-05T08:58:39Z</time>
      </trkpt>
      <trkpt lat="45.67387" lon="5.95306">
        <ele>642</ele>
        <time>2012-05-05T08:58:43Z</time>
      </trkpt>
      <trkpt lat="45.67375" lon="5.95306">
        <ele>642.59997558594</ele>
        <time>2012-05-05T08:58:49Z</time>
      </trkpt>
      <trkpt lat="45.67371" lon="5.95306">
        <ele>643</ele>
        <time>2012-05-05T08:58:51Z</time>
      </trkpt>
      <trkpt lat="45.67357" lon="5.95308">
        <ele>644.20001220703</ele>
        <time>2012-05-05T08:58:59Z</time>
      </trkpt>
      <trkpt lat="45.67352" lon="5.95308">
        <ele>644.40002441406</ele>
        <time>2012-05-05T08:59:01Z</time>
      </trkpt>
      <trkpt lat="45.67344" lon="5.95305">
        <ele>644.59997558594</ele>
        <time>2012-05-05T08:59:05Z</time>
      </trkpt>
      <trkpt lat="45.67336" lon="5.95304">
        <ele>645</ele>
        <time>2012-05-05T08:59:09Z</time>
      </trkpt>
      <trkpt lat="45.67329" lon="5.95306">
        <ele>645.59997558594</ele>
        <time>2012-05-05T08:59:12Z</time>
      </trkpt>
      <trkpt lat="45.67326" lon="5.95306">
        <ele>646</ele>
        <time>2012-05-05T08:59:14Z</time>
      </trkpt>
      <trkpt lat="45.67317" lon="5.95307">
        <ele>646.59997558594</ele>
        <time>2012-05-05T08:59:18Z</time>
      </trkpt>
      <trkpt lat="45.67313" lon="5.95306">
        <ele>646.79998779297</ele>
        <time>2012-05-05T08:59:20Z</time>
      </trkpt>
      <trkpt lat="45.67306" lon="5.95308">
        <ele>647.59997558594</ele>
        <time>2012-05-05T08:59:24Z</time>
      </trkpt>
      <trkpt lat="45.67305" lon="5.95308">
        <ele>647.59997558594</ele>
        <time>2012-05-05T08:59:25Z</time>
      </trkpt>
      <trkpt lat="45.67292" lon="5.95311">
        <ele>649</ele>
        <time>2012-05-05T08:59:32Z</time>
      </trkpt>
      <trkpt lat="45.67284" lon="5.95312">
        <ele>649.79998779297</ele>
        <time>2012-05-05T08:59:36Z</time>
      </trkpt>
      <trkpt lat="45.67265" lon="5.95317">
        <ele>651.79998779297</ele>
        <time>2012-05-05T08:59:45Z</time>
      </trkpt>
      <trkpt lat="45.67263" lon="5.95317">
        <ele>652</ele>
        <time>2012-05-05T08:59:46Z</time>
      </trkpt>
      <trkpt lat="45.6725" lon="5.95317">
        <ele>652.79998779297</ele>
        <time>2012-05-05T08:59:51Z</time>
      </trkpt>
      <trkpt lat="45.67243" lon="5.95319">
        <ele>652.79998779297</ele>
        <time>2012-05-05T08:59:54Z</time>
      </trkpt>
      <trkpt lat="45.67231" lon="5.95332">
        <ele>653.59997558594</ele>
        <time>2012-05-05T09:00:01Z</time>
      </trkpt>
      <trkpt lat="45.67229" lon="5.95335">
        <ele>654</ele>
        <time>2012-05-05T09:00:03Z</time>
      </trkpt>
      <trkpt lat="45.67225" lon="5.95343">
        <ele>654.40002441406</ele>
        <time>2012-05-05T09:00:09Z</time>
      </trkpt>
      <trkpt lat="45.67224" lon="5.95345">
        <ele>654.59997558594</ele>
        <time>2012-05-05T09:00:10Z</time>
      </trkpt>
      <trkpt lat="45.67222" lon="5.95349">
        <ele>655</ele>
        <time>2012-05-05T09:00:13Z</time>
      </trkpt>
      <trkpt lat="45.67221" lon="5.95351">
        <ele>655</ele>
        <time>2012-05-05T09:00:14Z</time>
      </trkpt>
      <trkpt lat="45.67217" lon="5.95357">
        <ele>655.40002441406</ele>
        <time>2012-05-05T09:00:20Z</time>
      </trkpt>
      <trkpt lat="45.67215" lon="5.95361">
        <ele>655.59997558594</ele>
        <time>2012-05-05T09:00:23Z</time>
      </trkpt>
      <trkpt lat="45.67214" lon="5.95366">
        <ele>656</ele>
        <time>2012-05-05T09:00:27Z</time>
      </trkpt>
      <trkpt lat="45.67214" lon="5.95367">
        <ele>656</ele>
        <time>2012-05-05T09:00:28Z</time>
      </trkpt>
      <trkpt lat="45.67212" lon="5.95374">
        <ele>656.79998779297</ele>
        <time>2012-05-05T09:00:34Z</time>
      </trkpt>
      <trkpt lat="45.67214" lon="5.9538">
        <ele>657.40002441406</ele>
        <time>2012-05-05T09:00:38Z</time>
      </trkpt>
      <trkpt lat="45.67214" lon="5.95385">
        <ele>657.79998779297</ele>
        <time>2012-05-05T09:00:42Z</time>
      </trkpt>
      <trkpt lat="45.67214" lon="5.95387">
        <ele>658</ele>
        <time>2012-05-05T09:00:44Z</time>
      </trkpt>
      <trkpt lat="45.67215" lon="5.95393">
        <ele>658.79998779297</ele>
        <time>2012-05-05T09:00:49Z</time>
      </trkpt>
      <trkpt lat="45.67217" lon="5.95398">
        <ele>659.40002441406</ele>
        <time>2012-05-05T09:00:52Z</time>
      </trkpt>
      <trkpt lat="45.67218" lon="5.95403">
        <ele>660</ele>
        <time>2012-05-05T09:00:56Z</time>
      </trkpt>
      <trkpt lat="45.6722" lon="5.9541">
        <ele>660.79998779297</ele>
        <time>2012-05-05T09:01:01Z</time>
      </trkpt>
      <trkpt lat="45.6722" lon="5.95414">
        <ele>661.20001220703</ele>
        <time>2012-05-05T09:01:03Z</time>
      </trkpt>
      <trkpt lat="45.67221" lon="5.95416">
        <ele>661.59997558594</ele>
        <time>2012-05-05T09:01:05Z</time>
      </trkpt>
      <trkpt lat="45.67221" lon="5.9542">
        <ele>662.20001220703</ele>
        <time>2012-05-05T09:01:10Z</time>
      </trkpt>
      <trkpt lat="45.67221" lon="5.95429">
        <ele>664</ele>
        <time>2012-05-05T09:01:14Z</time>
      </trkpt>
      <trkpt lat="45.67221" lon="5.95436">
        <ele>665.40002441406</ele>
        <time>2012-05-05T09:01:18Z</time>
      </trkpt>
      <trkpt lat="45.67221" lon="5.95443">
        <ele>666.59997558594</ele>
        <time>2012-05-05T09:01:22Z</time>
      </trkpt>
      <trkpt lat="45.67221" lon="5.95447">
        <ele>667.59997558594</ele>
        <time>2012-05-05T09:01:26Z</time>
      </trkpt>
      <trkpt lat="45.67222" lon="5.9545">
        <ele>668</ele>
        <time>2012-05-05T09:01:28Z</time>
      </trkpt>
      <trkpt lat="45.67218" lon="5.95457">
        <ele>669.40002441406</ele>
        <time>2012-05-05T09:01:35Z</time>
      </trkpt>
      <trkpt lat="45.67202" lon="5.95452">
        <ele>668</ele>
        <time>2012-05-05T09:01:41Z</time>
      </trkpt>
      <trkpt lat="45.67195" lon="5.95451">
        <ele>667.40002441406</ele>
        <time>2012-05-05T09:01:44Z</time>
      </trkpt>
      <trkpt lat="45.67188" lon="5.95449">
        <ele>667</ele>
        <time>2012-05-05T09:01:46Z</time>
      </trkpt>
      <trkpt lat="45.67173" lon="5.95442">
        <ele>664.59997558594</ele>
        <time>2012-05-05T09:01:51Z</time>
      </trkpt>
      <trkpt lat="45.67164" lon="5.95439">
        <ele>663.59997558594</ele>
        <time>2012-05-05T09:01:54Z</time>
      </trkpt>
      <trkpt lat="45.67153" lon="5.95437">
        <ele>664</ele>
        <time>2012-05-05T09:01:57Z</time>
      </trkpt>
      <trkpt lat="45.67147" lon="5.95435">
        <ele>663.59997558594</ele>
        <time>2012-05-05T09:01:59Z</time>
      </trkpt>
      <trkpt lat="45.67133" lon="5.95422">
        <ele>658.79998779297</ele>
        <time>2012-05-05T09:02:04Z</time>
      </trkpt>
      <trkpt lat="45.67125" lon="5.95417">
        <ele>656</ele>
        <time>2012-05-05T09:02:07Z</time>
      </trkpt>
      <trkpt lat="45.67109" lon="5.9541">
        <ele>654.79998779297</ele>
        <time>2012-05-05T09:02:12Z</time>
      </trkpt>
      <trkpt lat="45.67103" lon="5.95409">
        <ele>654.40002441406</ele>
        <time>2012-05-05T09:02:14Z</time>
      </trkpt>
      <trkpt lat="45.67087" lon="5.95402">
        <ele>652.79998779297</ele>
        <time>2012-05-05T09:02:19Z</time>
      </trkpt>
      <trkpt lat="45.67074" lon="5.95394">
        <ele>650.40002441406</ele>
        <time>2012-05-05T09:02:24Z</time>
      </trkpt>
      <trkpt lat="45.67055" lon="5.95386">
        <ele>646.59997558594</ele>
        <time>2012-05-05T09:02:31Z</time>
      </trkpt>
      <trkpt lat="45.67052" lon="5.95386">
        <ele>646.40002441406</ele>
        <time>2012-05-05T09:02:32Z</time>
      </trkpt>
      <trkpt lat="45.67035" lon="5.95402">
        <ele>647.40002441406</ele>
        <time>2012-05-05T09:02:39Z</time>
      </trkpt>
      <trkpt lat="45.67033" lon="5.95405">
        <ele>647.79998779297</ele>
        <time>2012-05-05T09:02:40Z</time>
      </trkpt>
      <trkpt lat="45.67021" lon="5.95417">
        <ele>649.59997558594</ele>
        <time>2012-05-05T09:02:45Z</time>
      </trkpt>
      <trkpt lat="45.67018" lon="5.9542">
        <ele>651.40002441406</ele>
        <time>2012-05-05T09:02:46Z</time>
      </trkpt>
      <trkpt lat="45.6701" lon="5.95425">
        <ele>654.40002441406</ele>
        <time>2012-05-05T09:02:49Z</time>
      </trkpt>
      <trkpt lat="45.67" lon="5.95423">
        <ele>652.40002441406</ele>
        <time>2012-05-05T09:02:52Z</time>
      </trkpt>
      <trkpt lat="45.66989" lon="5.95414">
        <ele>647.40002441406</ele>
        <time>2012-05-05T09:02:56Z</time>
      </trkpt>
      <trkpt lat="45.6698" lon="5.95412">
        <ele>647.79998779297</ele>
        <time>2012-05-05T09:02:59Z</time>
      </trkpt>
      <trkpt lat="45.66973" lon="5.9541">
        <ele>647.79998779297</ele>
        <time>2012-05-05T09:03:01Z</time>
      </trkpt>
      <trkpt lat="45.66966" lon="5.95409">
        <ele>647.79998779297</ele>
        <time>2012-05-05T09:03:03Z</time>
      </trkpt>
      <trkpt lat="45.66945" lon="5.95406">
        <ele>648.59997558594</ele>
        <time>2012-05-05T09:03:09Z</time>
      </trkpt>
      <trkpt lat="45.66941" lon="5.95404">
        <ele>648.40002441406</ele>
        <time>2012-05-05T09:03:10Z</time>
      </trkpt>
      <trkpt lat="45.66935" lon="5.95401">
        <ele>647.79998779297</ele>
        <time>2012-05-05T09:03:12Z</time>
      </trkpt>
      <trkpt lat="45.6693" lon="5.95398">
        <ele>646.79998779297</ele>
        <time>2012-05-05T09:03:14Z</time>
      </trkpt>
      <trkpt lat="45.66905" lon="5.95384">
        <ele>641.79998779297</ele>
        <time>2012-05-05T09:03:23Z</time>
      </trkpt>
      <trkpt lat="45.66895" lon="5.95379">
        <ele>640</ele>
        <time>2012-05-05T09:03:26Z</time>
      </trkpt>
      <trkpt lat="45.66886" lon="5.95376">
        <ele>638.40002441406</ele>
        <time>2012-05-05T09:03:29Z</time>
      </trkpt>
      <trkpt lat="45.66877" lon="5.95371">
        <ele>636.59997558594</ele>
        <time>2012-05-05T09:03:32Z</time>
      </trkpt>
      <trkpt lat="45.66854" lon="5.95364">
        <ele>633.79998779297</ele>
        <time>2012-05-05T09:03:41Z</time>
      </trkpt>
      <trkpt lat="45.66852" lon="5.95364">
        <ele>633.59997558594</ele>
        <time>2012-05-05T09:03:42Z</time>
      </trkpt>
      <trkpt lat="45.66827" lon="5.95365">
        <ele>633.40002441406</ele>
        <time>2012-05-05T09:03:52Z</time>
      </trkpt>
      <trkpt lat="45.66816" lon="5.95367">
        <ele>633</ele>
        <time>2012-05-05T09:03:56Z</time>
      </trkpt>
      <trkpt lat="45.66796" lon="5.9538">
        <ele>635.59997558594</ele>
        <time>2012-05-05T09:04:04Z</time>
      </trkpt>
      <trkpt lat="45.66794" lon="5.95384">
        <ele>636.40002441406</ele>
        <time>2012-05-05T09:04:06Z</time>
      </trkpt>
      <trkpt lat="45.66777" lon="5.95405">
        <ele>640.79998779297</ele>
        <time>2012-05-05T09:04:16Z</time>
      </trkpt>
      <trkpt lat="45.66765" lon="5.95413">
        <ele>641.20001220703</ele>
        <time>2012-05-05T09:04:21Z</time>
      </trkpt>
      <trkpt lat="45.66751" lon="5.95417">
        <ele>640.59997558594</ele>
        <time>2012-05-05T09:04:27Z</time>
      </trkpt>
      <trkpt lat="45.66741" lon="5.9542">
        <ele>642.59997558594</ele>
        <time>2012-05-05T09:04:31Z</time>
      </trkpt>
      <trkpt lat="45.66725" lon="5.9542">
        <ele>642.59997558594</ele>
        <time>2012-05-05T09:04:37Z</time>
      </trkpt>
      <trkpt lat="45.66718" lon="5.95418">
        <ele>641.59997558594</ele>
        <time>2012-05-05T09:04:40Z</time>
      </trkpt>
      <trkpt lat="45.66708" lon="5.95415">
        <ele>641.20001220703</ele>
        <time>2012-05-05T09:04:45Z</time>
      </trkpt>
      <trkpt lat="45.66703" lon="5.95414">
        <ele>641.20001220703</ele>
        <time>2012-05-05T09:04:47Z</time>
      </trkpt>
      <trkpt lat="45.66685" lon="5.95421">
        <ele>643.59997558594</ele>
        <time>2012-05-05T09:04:55Z</time>
      </trkpt>
      <trkpt lat="45.66675" lon="5.95426">
        <ele>645</ele>
        <time>2012-05-05T09:05:01Z</time>
      </trkpt>
      <trkpt lat="45.66666" lon="5.95425">
        <ele>644.59997558594</ele>
        <time>2012-05-05T09:05:05Z</time>
      </trkpt>
      <trkpt lat="45.66661" lon="5.95423">
        <ele>644.40002441406</ele>
        <time>2012-05-05T09:05:07Z</time>
      </trkpt>
      <trkpt lat="45.66639" lon="5.95414">
        <ele>643.40002441406</ele>
        <time>2012-05-05T09:05:16Z</time>
      </trkpt>
      <trkpt lat="45.66626" lon="5.95408">
        <ele>642.59997558594</ele>
        <time>2012-05-05T09:05:23Z</time>
      </trkpt>
      <trkpt lat="45.66616" lon="5.95405">
        <ele>642.40002441406</ele>
        <time>2012-05-05T09:05:31Z</time>
      </trkpt>
      <trkpt lat="45.6661" lon="5.95403">
        <ele>642.20001220703</ele>
        <time>2012-05-05T09:05:36Z</time>
      </trkpt>
      <trkpt lat="45.66603" lon="5.95402">
        <ele>642.40002441406</ele>
        <time>2012-05-05T09:05:41Z</time>
      </trkpt>
      <trkpt lat="45.66597" lon="5.95402">
        <ele>642.40002441406</ele>
        <time>2012-05-05T09:05:46Z</time>
      </trkpt>
      <trkpt lat="45.66585" lon="5.95404">
        <ele>643.40002441406</ele>
        <time>2012-05-05T09:05:54Z</time>
      </trkpt>
      <trkpt lat="45.66577" lon="5.95406">
        <ele>643.59997558594</ele>
        <time>2012-05-05T09:05:57Z</time>
      </trkpt>
      <trkpt lat="45.6655" lon="5.95415">
        <ele>645.20001220703</ele>
        <time>2012-05-05T09:06:06Z</time>
      </trkpt>
      <trkpt lat="45.66548" lon="5.95416">
        <ele>645.40002441406</ele>
        <time>2012-05-05T09:06:07Z</time>
      </trkpt>
      <trkpt lat="45.66537" lon="5.95414">
        <ele>645</ele>
        <time>2012-05-05T09:06:11Z</time>
      </trkpt>
      <trkpt lat="45.66524" lon="5.95412">
        <ele>644.20001220703</ele>
        <time>2012-05-05T09:06:16Z</time>
      </trkpt>
      <trkpt lat="45.66496" lon="5.95406">
        <ele>642.79998779297</ele>
        <time>2012-05-05T09:06:27Z</time>
      </trkpt>
      <trkpt lat="45.66488" lon="5.95406">
        <ele>642.59997558594</ele>
        <time>2012-05-05T09:06:32Z</time>
      </trkpt>
      <trkpt lat="45.66482" lon="5.95409">
        <ele>642.79998779297</ele>
        <time>2012-05-05T09:06:39Z</time>
      </trkpt>
      <trkpt lat="45.66482" lon="5.9541">
        <ele>643</ele>
        <time>2012-05-05T09:06:40Z</time>
      </trkpt>
      <trkpt lat="45.66477" lon="5.95412">
        <ele>643.20001220703</ele>
        <time>2012-05-05T09:06:45Z</time>
      </trkpt>
      <trkpt lat="45.66474" lon="5.95415">
        <ele>643.79998779297</ele>
        <time>2012-05-05T09:06:49Z</time>
      </trkpt>
      <trkpt lat="45.66465" lon="5.95417">
        <ele>643.79998779297</ele>
        <time>2012-05-05T09:06:57Z</time>
      </trkpt>
      <trkpt lat="45.66455" lon="5.95421">
        <ele>644.40002441406</ele>
        <time>2012-05-05T09:07:02Z</time>
      </trkpt>
      <trkpt lat="45.66445" lon="5.95426">
        <ele>645</ele>
        <time>2012-05-05T09:07:07Z</time>
      </trkpt>
      <trkpt lat="45.66433" lon="5.95434">
        <ele>646.40002441406</ele>
        <time>2012-05-05T09:07:13Z</time>
      </trkpt>
      <trkpt lat="45.66423" lon="5.95443">
        <ele>648</ele>
        <time>2012-05-05T09:07:19Z</time>
      </trkpt>
      <trkpt lat="45.66418" lon="5.95449">
        <ele>649.20001220703</ele>
        <time>2012-05-05T09:07:22Z</time>
      </trkpt>
      <trkpt lat="45.66408" lon="5.95462">
        <ele>652.40002441406</ele>
        <time>2012-05-05T09:07:28Z</time>
      </trkpt>
      <trkpt lat="45.66405" lon="5.95465">
        <ele>653.40002441406</ele>
        <time>2012-05-05T09:07:30Z</time>
      </trkpt>
      <trkpt lat="45.66398" lon="5.95473">
        <ele>655.59997558594</ele>
        <time>2012-05-05T09:07:37Z</time>
      </trkpt>
      <trkpt lat="45.66396" lon="5.95475">
        <ele>656.20001220703</ele>
        <time>2012-05-05T09:07:39Z</time>
      </trkpt>
      <trkpt lat="45.66391" lon="5.95483">
        <ele>658.59997558594</ele>
        <time>2012-05-05T09:07:46Z</time>
      </trkpt>
      <trkpt lat="45.6639" lon="5.95484">
        <ele>658.79998779297</ele>
        <time>2012-05-05T09:07:47Z</time>
      </trkpt>
      <trkpt lat="45.66387" lon="5.95489">
        <ele>660</ele>
        <time>2012-05-05T09:07:51Z</time>
      </trkpt>
      <trkpt lat="45.66386" lon="5.95491">
        <ele>660.79998779297</ele>
        <time>2012-05-05T09:07:53Z</time>
      </trkpt>
      <trkpt lat="45.66383" lon="5.95498">
        <ele>662.40002441406</ele>
        <time>2012-05-05T09:07:57Z</time>
      </trkpt>
      <trkpt lat="45.66382" lon="5.95501">
        <ele>663.20001220703</ele>
        <time>2012-05-05T09:07:59Z</time>
      </trkpt>
      <trkpt lat="45.66381" lon="5.95505">
        <ele>664.20001220703</ele>
        <time>2012-05-05T09:08:02Z</time>
      </trkpt>
      <trkpt lat="45.66379" lon="5.95508">
        <ele>664.79998779297</ele>
        <time>2012-05-05T09:08:04Z</time>
      </trkpt>
      <trkpt lat="45.66377" lon="5.95515">
        <ele>666.59997558594</ele>
        <time>2012-05-05T09:08:08Z</time>
      </trkpt>
      <trkpt lat="45.66376" lon="5.95516">
        <ele>667</ele>
        <time>2012-05-05T09:08:09Z</time>
      </trkpt>
      <trkpt lat="45.66372" lon="5.95522">
        <ele>668.40002441406</ele>
        <time>2012-05-05T09:08:15Z</time>
      </trkpt>
      <trkpt lat="45.66372" lon="5.95522">
        <ele>668.40002441406</ele>
        <time>2012-05-05T09:08:16Z</time>
      </trkpt>
      <trkpt lat="45.66369" lon="5.95526">
        <ele>669.40002441406</ele>
        <time>2012-05-05T09:08:20Z</time>
      </trkpt>
      <trkpt lat="45.66367" lon="5.95528">
        <ele>670</ele>
        <time>2012-05-05T09:08:23Z</time>
      </trkpt>
      <trkpt lat="45.6636" lon="5.95535">
        <ele>671.59997558594</ele>
        <time>2012-05-05T09:08:32Z</time>
      </trkpt>
      <trkpt lat="45.66358" lon="5.95536">
        <ele>672</ele>
        <time>2012-05-05T09:08:34Z</time>
      </trkpt>
      <trkpt lat="45.66355" lon="5.95538">
        <ele>672.40002441406</ele>
        <time>2012-05-05T09:08:44Z</time>
      </trkpt>
      <trkpt lat="45.66353" lon="5.95543">
        <ele>673.40002441406</ele>
        <time>2012-05-05T09:08:48Z</time>
      </trkpt>
      <trkpt lat="45.66348" lon="5.95547">
        <ele>674.59997558594</ele>
        <time>2012-05-05T09:08:54Z</time>
      </trkpt>
      <trkpt lat="45.66347" lon="5.95548">
        <ele>674.79998779297</ele>
        <time>2012-05-05T09:08:56Z</time>
      </trkpt>
      <trkpt lat="45.66344" lon="5.9555">
        <ele>675</ele>
        <time>2012-05-05T09:09:00Z</time>
      </trkpt>
      <trkpt lat="45.66338" lon="5.95551">
        <ele>675.40002441406</ele>
        <time>2012-05-05T09:09:06Z</time>
      </trkpt>
      <trkpt lat="45.66329" lon="5.95553">
        <ele>675.79998779297</ele>
        <time>2012-05-05T09:09:11Z</time>
      </trkpt>
      <trkpt lat="45.66323" lon="5.95558">
        <ele>676.59997558594</ele>
        <time>2012-05-05T09:09:13Z</time>
      </trkpt>
      <trkpt lat="45.66305" lon="5.95566">
        <ele>677.79998779297</ele>
        <time>2012-05-05T09:09:21Z</time>
      </trkpt>
      <trkpt lat="45.66302" lon="5.95567">
        <ele>678</ele>
        <time>2012-05-05T09:09:22Z</time>
      </trkpt>
      <trkpt lat="45.66292" lon="5.95569">
        <ele>678.40002441406</ele>
        <time>2012-05-05T09:09:28Z</time>
      </trkpt>
      <trkpt lat="45.66291" lon="5.95569">
        <ele>678.20001220703</ele>
        <time>2012-05-05T09:09:29Z</time>
      </trkpt>
      <trkpt lat="45.66279" lon="5.95565">
        <ele>677.40002441406</ele>
        <time>2012-05-05T09:09:37Z</time>
      </trkpt>
      <trkpt lat="45.66274" lon="5.95564">
        <ele>677</ele>
        <time>2012-05-05T09:09:41Z</time>
      </trkpt>
      <trkpt lat="45.66267" lon="5.95562">
        <ele>676.59997558594</ele>
        <time>2012-05-05T09:09:46Z</time>
      </trkpt>
      <trkpt lat="45.66264" lon="5.95561">
        <ele>676.40002441406</ele>
        <time>2012-05-05T09:09:49Z</time>
      </trkpt>
      <trkpt lat="45.66261" lon="5.9556">
        <ele>676.20001220703</ele>
        <time>2012-05-05T09:09:52Z</time>
      </trkpt>
      <trkpt lat="45.66258" lon="5.9556">
        <ele>676</ele>
        <time>2012-05-05T09:09:55Z</time>
      </trkpt>
      <trkpt lat="45.66248" lon="5.9556">
        <ele>676</ele>
        <time>2012-05-05T09:10:03Z</time>
      </trkpt>
      <trkpt lat="45.66245" lon="5.95561">
        <ele>676.20001220703</ele>
        <time>2012-05-05T09:10:06Z</time>
      </trkpt>
      <trkpt lat="45.66242" lon="5.95562">
        <ele>676.20001220703</ele>
        <time>2012-05-05T09:10:09Z</time>
      </trkpt>
      <trkpt lat="45.6624" lon="5.95563">
        <ele>676.40002441406</ele>
        <time>2012-05-05T09:10:11Z</time>
      </trkpt>
      <trkpt lat="45.66233" lon="5.95561">
        <ele>675.79998779297</ele>
        <time>2012-05-05T09:10:16Z</time>
      </trkpt>
      <trkpt lat="45.66227" lon="5.95558">
        <ele>675</ele>
        <time>2012-05-05T09:10:19Z</time>
      </trkpt>
      <trkpt lat="45.66215" lon="5.95552">
        <ele>673.59997558594</ele>
        <time>2012-05-05T09:10:27Z</time>
      </trkpt>
      <trkpt lat="45.66212" lon="5.95545">
        <ele>672.20001220703</ele>
        <time>2012-05-05T09:10:30Z</time>
      </trkpt>
      <trkpt lat="45.66195" lon="5.95554">
        <ele>673.40002441406</ele>
        <time>2012-05-05T09:10:39Z</time>
      </trkpt>
      <trkpt lat="45.66193" lon="5.95555">
        <ele>673.59997558594</ele>
        <time>2012-05-05T09:10:40Z</time>
      </trkpt>
      <trkpt lat="45.66185" lon="5.95553">
        <ele>673</ele>
        <time>2012-05-05T09:10:43Z</time>
      </trkpt>
      <trkpt lat="45.66183" lon="5.95551">
        <ele>672.59997558594</ele>
        <time>2012-05-05T09:10:46Z</time>
      </trkpt>
      <trkpt lat="45.66178" lon="5.95542">
        <ele>670.79998779297</ele>
        <time>2012-05-05T09:10:50Z</time>
      </trkpt>
      <trkpt lat="45.66176" lon="5.95531">
        <ele>668.40002441406</ele>
        <time>2012-05-05T09:10:54Z</time>
      </trkpt>
      <trkpt lat="45.66171" lon="5.95513">
        <ele>664.79998779297</ele>
        <time>2012-05-05T09:11:00Z</time>
      </trkpt>
      <trkpt lat="45.66171" lon="5.9551">
        <ele>664.20001220703</ele>
        <time>2012-05-05T09:11:01Z</time>
      </trkpt>
      <trkpt lat="45.6617" lon="5.95497">
        <ele>661.40002441406</ele>
        <time>2012-05-05T09:11:06Z</time>
      </trkpt>
      <trkpt lat="45.66167" lon="5.95496">
        <ele>661.20001220703</ele>
        <time>2012-05-05T09:11:08Z</time>
      </trkpt>
      <trkpt lat="45.66164" lon="5.95501">
        <ele>662</ele>
        <time>2012-05-05T09:11:11Z</time>
      </trkpt>
      <trkpt lat="45.66162" lon="5.95501">
        <ele>662</ele>
        <time>2012-05-05T09:11:12Z</time>
      </trkpt>
      <trkpt lat="45.66159" lon="5.95504">
        <ele>662.59997558594</ele>
        <time>2012-05-05T09:11:14Z</time>
      </trkpt>
      <trkpt lat="45.66157" lon="5.95507">
        <ele>663.20001220703</ele>
        <time>2012-05-05T09:11:16Z</time>
      </trkpt>
      <trkpt lat="45.66151" lon="5.95514">
        <ele>664.40002441406</ele>
        <time>2012-05-05T09:11:21Z</time>
      </trkpt>
      <trkpt lat="45.66149" lon="5.95516">
        <ele>664.59997558594</ele>
        <time>2012-05-05T09:11:22Z</time>
      </trkpt>
      <trkpt lat="45.66146" lon="5.95519">
        <ele>665.20001220703</ele>
        <time>2012-05-05T09:11:24Z</time>
      </trkpt>
      <trkpt lat="45.66145" lon="5.9552">
        <ele>665.40002441406</ele>
        <time>2012-05-05T09:11:26Z</time>
      </trkpt>
      <trkpt lat="45.66136" lon="5.9552">
        <ele>665</ele>
        <time>2012-05-05T09:11:29Z</time>
      </trkpt>
      <trkpt lat="45.66137" lon="5.95516">
        <ele>664.20001220703</ele>
        <time>2012-05-05T09:11:30Z</time>
      </trkpt>
      <trkpt lat="45.66137" lon="5.95511">
        <ele>663.40002441406</ele>
        <time>2012-05-05T09:11:32Z</time>
      </trkpt>
      <trkpt lat="45.66137" lon="5.9551">
        <ele>663.20001220703</ele>
        <time>2012-05-05T09:11:33Z</time>
      </trkpt>
      <trkpt lat="45.66133" lon="5.95509">
        <ele>662.79998779297</ele>
        <time>2012-05-05T09:11:36Z</time>
      </trkpt>
      <trkpt lat="45.66131" lon="5.95507">
        <ele>662.20001220703</ele>
        <time>2012-05-05T09:11:37Z</time>
      </trkpt>
      <trkpt lat="45.66126" lon="5.95508">
        <ele>662.40002441406</ele>
        <time>2012-05-05T09:11:40Z</time>
      </trkpt>
      <trkpt lat="45.66122" lon="5.9551">
        <ele>662.59997558594</ele>
        <time>2012-05-05T09:11:43Z</time>
      </trkpt>
      <trkpt lat="45.66113" lon="5.9551">
        <ele>662.20001220703</ele>
        <time>2012-05-05T09:11:48Z</time>
      </trkpt>
      <trkpt lat="45.66111" lon="5.9551">
        <ele>662.20001220703</ele>
        <time>2012-05-05T09:11:49Z</time>
      </trkpt>
      <trkpt lat="45.66105" lon="5.95508">
        <ele>661.59997558594</ele>
        <time>2012-05-05T09:11:53Z</time>
      </trkpt>
      <trkpt lat="45.66104" lon="5.95507">
        <ele>661.20001220703</ele>
        <time>2012-05-05T09:11:54Z</time>
      </trkpt>
      <trkpt lat="45.66102" lon="5.95495">
        <ele>658.79998779297</ele>
        <time>2012-05-05T09:11:58Z</time>
      </trkpt>
      <trkpt lat="45.66103" lon="5.95492">
        <ele>658.20001220703</ele>
        <time>2012-05-05T09:11:59Z</time>
      </trkpt>
      <trkpt lat="45.66104" lon="5.95486">
        <ele>657</ele>
        <time>2012-05-05T09:12:01Z</time>
      </trkpt>
      <trkpt lat="45.66104" lon="5.9548">
        <ele>655.59997558594</ele>
        <time>2012-05-05T09:12:03Z</time>
      </trkpt>
      <trkpt lat="45.66106" lon="5.95475">
        <ele>654.79998779297</ele>
        <time>2012-05-05T09:12:05Z</time>
      </trkpt>
      <trkpt lat="45.66108" lon="5.95473">
        <ele>654.40002441406</ele>
        <time>2012-05-05T09:12:06Z</time>
      </trkpt>
      <trkpt lat="45.66114" lon="5.95463">
        <ele>652.59997558594</ele>
        <time>2012-05-05T09:12:10Z</time>
      </trkpt>
      <trkpt lat="45.66115" lon="5.9546">
        <ele>652</ele>
        <time>2012-05-05T09:12:11Z</time>
      </trkpt>
      <trkpt lat="45.66119" lon="5.9545">
        <ele>650</ele>
        <time>2012-05-05T09:12:14Z</time>
      </trkpt>
      <trkpt lat="45.6612" lon="5.95448">
        <ele>649.59997558594</ele>
        <time>2012-05-05T09:12:15Z</time>
      </trkpt>
      <trkpt lat="45.66122" lon="5.95442">
        <ele>648.59997558594</ele>
        <time>2012-05-05T09:12:17Z</time>
      </trkpt>
      <trkpt lat="45.66124" lon="5.9544">
        <ele>648.20001220703</ele>
        <time>2012-05-05T09:12:18Z</time>
      </trkpt>
      <trkpt lat="45.66125" lon="5.9543">
        <ele>646.20001220703</ele>
        <time>2012-05-05T09:12:21Z</time>
      </trkpt>
      <trkpt lat="45.66126" lon="5.95425">
        <ele>645.20001220703</ele>
        <time>2012-05-05T09:12:23Z</time>
      </trkpt>
      <trkpt lat="45.66129" lon="5.9542">
        <ele>644.40002441406</ele>
        <time>2012-05-05T09:12:25Z</time>
      </trkpt>
      <trkpt lat="45.6613" lon="5.95411">
        <ele>642.40002441406</ele>
        <time>2012-05-05T09:12:28Z</time>
      </trkpt>
      <trkpt lat="45.66127" lon="5.95402">
        <ele>640.20001220703</ele>
        <time>2012-05-05T09:12:33Z</time>
      </trkpt>
      <trkpt lat="45.66126" lon="5.95403">
        <ele>640.40002441406</ele>
        <time>2012-05-05T09:12:34Z</time>
      </trkpt>
      <trkpt lat="45.66121" lon="5.95399">
        <ele>639.59997558594</ele>
        <time>2012-05-05T09:12:39Z</time>
      </trkpt>
      <trkpt lat="45.66117" lon="5.95396">
        <ele>638.59997558594</ele>
        <time>2012-05-05T09:12:42Z</time>
      </trkpt>
      <trkpt lat="45.66106" lon="5.95392">
        <ele>637.59997558594</ele>
        <time>2012-05-05T09:12:48Z</time>
      </trkpt>
      <trkpt lat="45.66103" lon="5.95394">
        <ele>638</ele>
        <time>2012-05-05T09:12:49Z</time>
      </trkpt>
      <trkpt lat="45.66097" lon="5.95386">
        <ele>636.20001220703</ele>
        <time>2012-05-05T09:12:53Z</time>
      </trkpt>
      <trkpt lat="45.66091" lon="5.95374">
        <ele>633.79998779297</ele>
        <time>2012-05-05T09:12:57Z</time>
      </trkpt>
      <trkpt lat="45.66075" lon="5.95352">
        <ele>630</ele>
        <time>2012-05-05T09:13:07Z</time>
      </trkpt>
      <trkpt lat="45.66067" lon="5.95353">
        <ele>630.40002441406</ele>
        <time>2012-05-05T09:13:11Z</time>
      </trkpt>
      <trkpt lat="45.66059" lon="5.95351">
        <ele>630.40002441406</ele>
        <time>2012-05-05T09:13:14Z</time>
      </trkpt>
      <trkpt lat="45.66057" lon="5.95352">
        <ele>630.59997558594</ele>
        <time>2012-05-05T09:13:16Z</time>
      </trkpt>
      <trkpt lat="45.66055" lon="5.95358">
        <ele>632</ele>
        <time>2012-05-05T09:13:18Z</time>
      </trkpt>
      <trkpt lat="45.66048" lon="5.95361">
        <ele>632.79998779297</ele>
        <time>2012-05-05T09:13:22Z</time>
      </trkpt>
      <trkpt lat="45.66037" lon="5.95367">
        <ele>634.59997558594</ele>
        <time>2012-05-05T09:13:27Z</time>
      </trkpt>
      <trkpt lat="45.66027" lon="5.95368">
        <ele>635.20001220703</ele>
        <time>2012-05-05T09:13:32Z</time>
      </trkpt>
      <trkpt lat="45.66012" lon="5.95372">
        <ele>636.79998779297</ele>
        <time>2012-05-05T09:13:40Z</time>
      </trkpt>
      <trkpt lat="45.66001" lon="5.95371">
        <ele>637</ele>
        <time>2012-05-05T09:13:45Z</time>
      </trkpt>
      <trkpt lat="45.65984" lon="5.95373">
        <ele>637.20001220703</ele>
        <time>2012-05-05T09:13:54Z</time>
      </trkpt>
      <trkpt lat="45.65975" lon="5.95373">
        <ele>637.20001220703</ele>
        <time>2012-05-05T09:13:58Z</time>
      </trkpt>
      <trkpt lat="45.65966" lon="5.95366">
        <ele>635.20001220703</ele>
        <time>2012-05-05T09:14:04Z</time>
      </trkpt>
      <trkpt lat="45.65961" lon="5.9536">
        <ele>633.59997558594</ele>
        <time>2012-05-05T09:14:07Z</time>
      </trkpt>
      <trkpt lat="45.6595" lon="5.95359">
        <ele>633</ele>
        <time>2012-05-05T09:14:15Z</time>
      </trkpt>
      <trkpt lat="45.65949" lon="5.95361">
        <ele>633.40002441406</ele>
        <time>2012-05-05T09:14:16Z</time>
      </trkpt>
      <trkpt lat="45.65942" lon="5.95364">
        <ele>634.20001220703</ele>
        <time>2012-05-05T09:14:20Z</time>
      </trkpt>
      <trkpt lat="45.65938" lon="5.95366">
        <ele>634.59997558594</ele>
        <time>2012-05-05T09:14:23Z</time>
      </trkpt>
      <trkpt lat="45.65933" lon="5.95358">
        <ele>632.20001220703</ele>
        <time>2012-05-05T09:14:29Z</time>
      </trkpt>
      <trkpt lat="45.65926" lon="5.95351">
        <ele>630.20001220703</ele>
        <time>2012-05-05T09:14:32Z</time>
      </trkpt>
      <trkpt lat="45.6592" lon="5.95346">
        <ele>628.79998779297</ele>
        <time>2012-05-05T09:14:35Z</time>
      </trkpt>
      <trkpt lat="45.65919" lon="5.95344">
        <ele>628</ele>
        <time>2012-05-05T09:14:36Z</time>
      </trkpt>
      <trkpt lat="45.65909" lon="5.95339">
        <ele>626.79998779297</ele>
        <time>2012-05-05T09:14:41Z</time>
      </trkpt>
      <trkpt lat="45.65907" lon="5.95337">
        <ele>626.59997558594</ele>
        <time>2012-05-05T09:14:42Z</time>
      </trkpt>
      <trkpt lat="45.65901" lon="5.95332">
        <ele>625.40002441406</ele>
        <time>2012-05-05T09:14:45Z</time>
      </trkpt>
      <trkpt lat="45.65898" lon="5.95331">
        <ele>625.40002441406</ele>
        <time>2012-05-05T09:14:46Z</time>
      </trkpt>
      <trkpt lat="45.65895" lon="5.95327">
        <ele>624.40002441406</ele>
        <time>2012-05-05T09:14:49Z</time>
      </trkpt>
      <trkpt lat="45.65894" lon="5.95325">
        <ele>623.79998779297</ele>
        <time>2012-05-05T09:14:50Z</time>
      </trkpt>
      <trkpt lat="45.6589" lon="5.95321">
        <ele>623</ele>
        <time>2012-05-05T09:14:53Z</time>
      </trkpt>
      <trkpt lat="45.65888" lon="5.9532">
        <ele>622.79998779297</ele>
        <time>2012-05-05T09:14:54Z</time>
      </trkpt>
      <trkpt lat="45.65879" lon="5.95317">
        <ele>622.40002441406</ele>
        <time>2012-05-05T09:14:59Z</time>
      </trkpt>
      <trkpt lat="45.65876" lon="5.95319">
        <ele>623.20001220703</ele>
        <time>2012-05-05T09:15:00Z</time>
      </trkpt>
      <trkpt lat="45.65864" lon="5.95316">
        <ele>622.59997558594</ele>
        <time>2012-05-05T09:15:07Z</time>
      </trkpt>
      <trkpt lat="45.65863" lon="5.95317">
        <ele>623</ele>
        <time>2012-05-05T09:15:08Z</time>
      </trkpt>
      <trkpt lat="45.65851" lon="5.95314">
        <ele>622.40002441406</ele>
        <time>2012-05-05T09:15:13Z</time>
      </trkpt>
      <trkpt lat="45.65846" lon="5.95313">
        <ele>622.59997558594</ele>
        <time>2012-05-05T09:15:17Z</time>
      </trkpt>
      <trkpt lat="45.65844" lon="5.95313">
        <ele>622.40002441406</ele>
        <time>2012-05-05T09:15:19Z</time>
      </trkpt>
      <trkpt lat="45.65836" lon="5.95311">
        <ele>622</ele>
        <time>2012-05-05T09:15:22Z</time>
      </trkpt>
      <trkpt lat="45.6583" lon="5.95306">
        <ele>620.79998779297</ele>
        <time>2012-05-05T09:15:26Z</time>
      </trkpt>
      <trkpt lat="45.65826" lon="5.95303">
        <ele>619.59997558594</ele>
        <time>2012-05-05T09:15:28Z</time>
      </trkpt>
      <trkpt lat="45.65817" lon="5.95294">
        <ele>616.59997558594</ele>
        <time>2012-05-05T09:15:33Z</time>
      </trkpt>
      <trkpt lat="45.65813" lon="5.95295">
        <ele>616.79998779297</ele>
        <time>2012-05-05T09:15:35Z</time>
      </trkpt>
      <trkpt lat="45.65801" lon="5.95286">
        <ele>613.79998779297</ele>
        <time>2012-05-05T09:15:40Z</time>
      </trkpt>
      <trkpt lat="45.65796" lon="5.95285">
        <ele>613.40002441406</ele>
        <time>2012-05-05T09:15:42Z</time>
      </trkpt>
      <trkpt lat="45.65785" lon="5.95289">
        <ele>614</ele>
        <time>2012-05-05T09:15:47Z</time>
      </trkpt>
      <trkpt lat="45.6578" lon="5.9529">
        <ele>614.20001220703</ele>
        <time>2012-05-05T09:15:49Z</time>
      </trkpt>
      <trkpt lat="45.65771" lon="5.95295">
        <ele>615</ele>
        <time>2012-05-05T09:15:53Z</time>
      </trkpt>
      <trkpt lat="45.65769" lon="5.95297">
        <ele>615.59997558594</ele>
        <time>2012-05-05T09:15:55Z</time>
      </trkpt>
      <trkpt lat="45.65756" lon="5.95288">
        <ele>612.79998779297</ele>
        <time>2012-05-05T09:16:02Z</time>
      </trkpt>
      <trkpt lat="45.65751" lon="5.95286">
        <ele>612.20001220703</ele>
        <time>2012-05-05T09:16:05Z</time>
      </trkpt>
      <trkpt lat="45.65741" lon="5.95285">
        <ele>612.40002441406</ele>
        <time>2012-05-05T09:16:10Z</time>
      </trkpt>
      <trkpt lat="45.65737" lon="5.95281">
        <ele>611.59997558594</ele>
        <time>2012-05-05T09:16:12Z</time>
      </trkpt>
      <trkpt lat="45.65725" lon="5.95273">
        <ele>610.59997558594</ele>
        <time>2012-05-05T09:16:18Z</time>
      </trkpt>
      <trkpt lat="45.65717" lon="5.95273">
        <ele>610.79998779297</ele>
        <time>2012-05-05T09:16:22Z</time>
      </trkpt>
      <trkpt lat="45.65699" lon="5.9526">
        <ele>608.20001220703</ele>
        <time>2012-05-05T09:16:31Z</time>
      </trkpt>
      <trkpt lat="45.65693" lon="5.95259">
        <ele>608.40002441406</ele>
        <time>2012-05-05T09:16:33Z</time>
      </trkpt>
      <trkpt lat="45.65672" lon="5.95266">
        <ele>611.20001220703</ele>
        <time>2012-05-05T09:16:42Z</time>
      </trkpt>
      <trkpt lat="45.65664" lon="5.95269">
        <ele>612.20001220703</ele>
        <time>2012-05-05T09:16:47Z</time>
      </trkpt>
      <trkpt lat="45.65652" lon="5.95278">
        <ele>614.79998779297</ele>
        <time>2012-05-05T09:16:55Z</time>
      </trkpt>
      <trkpt lat="45.6565" lon="5.95278">
        <ele>615</ele>
        <time>2012-05-05T09:16:57Z</time>
      </trkpt>
      <trkpt lat="45.6564" lon="5.95285">
        <ele>617.20001220703</ele>
        <time>2012-05-05T09:17:04Z</time>
      </trkpt>
      <trkpt lat="45.65632" lon="5.95288">
        <ele>618.20001220703</ele>
        <time>2012-05-05T09:17:09Z</time>
      </trkpt>
      <trkpt lat="45.65627" lon="5.95292">
        <ele>619.40002441406</ele>
        <time>2012-05-05T09:17:14Z</time>
      </trkpt>
      <trkpt lat="45.65624" lon="5.95294">
        <ele>619.79998779297</ele>
        <time>2012-05-05T09:17:16Z</time>
      </trkpt>
      <trkpt lat="45.65617" lon="5.95298">
        <ele>621.20001220703</ele>
        <time>2012-05-05T09:17:22Z</time>
      </trkpt>
      <trkpt lat="45.6561" lon="5.95299">
        <ele>621.79998779297</ele>
        <time>2012-05-05T09:17:28Z</time>
      </trkpt>
      <trkpt lat="45.65601" lon="5.95294">
        <ele>620.40002441406</ele>
        <time>2012-05-05T09:17:34Z</time>
      </trkpt>
      <trkpt lat="45.65596" lon="5.95286">
        <ele>618</ele>
        <time>2012-05-05T09:17:37Z</time>
      </trkpt>
      <trkpt lat="45.65588" lon="5.95273">
        <ele>614.59997558594</ele>
        <time>2012-05-05T09:17:42Z</time>
      </trkpt>
      <trkpt lat="45.65575" lon="5.95268">
        <ele>613.40002441406</ele>
        <time>2012-05-05T09:17:48Z</time>
      </trkpt>
      <trkpt lat="45.65561" lon="5.9526">
        <ele>611</ele>
        <time>2012-05-05T09:17:55Z</time>
      </trkpt>
      <trkpt lat="45.65558" lon="5.9526">
        <ele>611</ele>
        <time>2012-05-05T09:17:57Z</time>
      </trkpt>
      <trkpt lat="45.65549" lon="5.95263">
        <ele>611.79998779297</ele>
        <time>2012-05-05T09:18:05Z</time>
      </trkpt>
      <trkpt lat="45.65543" lon="5.95267">
        <ele>613</ele>
        <time>2012-05-05T09:18:14Z</time>
      </trkpt>
      <trkpt lat="45.65539" lon="5.9527">
        <ele>614</ele>
        <time>2012-05-05T09:18:22Z</time>
      </trkpt>
      <trkpt lat="45.65538" lon="5.95271">
        <ele>614.20001220703</ele>
        <time>2012-05-05T09:18:24Z</time>
      </trkpt>
      <trkpt lat="45.65533" lon="5.95277">
        <ele>616</ele>
        <time>2012-05-05T09:18:32Z</time>
      </trkpt>
      <trkpt lat="45.65532" lon="5.95286">
        <ele>618.79998779297</ele>
        <time>2012-05-05T09:18:40Z</time>
      </trkpt>
      <trkpt lat="45.65531" lon="5.95291">
        <ele>620.40002441406</ele>
        <time>2012-05-05T09:18:46Z</time>
      </trkpt>
      <trkpt lat="45.65531" lon="5.95293">
        <ele>621</ele>
        <time>2012-05-05T09:18:47Z</time>
      </trkpt>
      <trkpt lat="45.65529" lon="5.95298">
        <ele>622.40002441406</ele>
        <time>2012-05-05T09:18:55Z</time>
      </trkpt>
      <trkpt lat="45.65522" lon="5.95304">
        <ele>624.59997558594</ele>
        <time>2012-05-05T09:19:02Z</time>
      </trkpt>
      <trkpt lat="45.65511" lon="5.95307">
        <ele>625.59997558594</ele>
        <time>2012-05-05T09:19:08Z</time>
      </trkpt>
      <trkpt lat="45.65507" lon="5.95307">
        <ele>625.59997558594</ele>
        <time>2012-05-05T09:19:10Z</time>
      </trkpt>
      <trkpt lat="45.65495" lon="5.95292">
        <ele>621.20001220703</ele>
        <time>2012-05-05T09:19:18Z</time>
      </trkpt>
      <trkpt lat="45.65491" lon="5.95284">
        <ele>618.79998779297</ele>
        <time>2012-05-05T09:19:21Z</time>
      </trkpt>
      <trkpt lat="45.65475" lon="5.95287">
        <ele>620.20001220703</ele>
        <time>2012-05-05T09:19:29Z</time>
      </trkpt>
      <trkpt lat="45.65472" lon="5.95288">
        <ele>620.59997558594</ele>
        <time>2012-05-05T09:19:30Z</time>
      </trkpt>
      <trkpt lat="45.65455" lon="5.95294">
        <ele>622.79998779297</ele>
        <time>2012-05-05T09:19:39Z</time>
      </trkpt>
      <trkpt lat="45.65442" lon="5.95289">
        <ele>621.40002441406</ele>
        <time>2012-05-05T09:19:46Z</time>
      </trkpt>
      <trkpt lat="45.65434" lon="5.95281">
        <ele>619.20001220703</ele>
        <time>2012-05-05T09:19:51Z</time>
      </trkpt>
      <trkpt lat="45.65431" lon="5.95281">
        <ele>619.20001220703</ele>
        <time>2012-05-05T09:19:53Z</time>
      </trkpt>
      <trkpt lat="45.6542" lon="5.95277">
        <ele>618</ele>
        <time>2012-05-05T09:20:00Z</time>
      </trkpt>
      <trkpt lat="45.65417" lon="5.95277">
        <ele>618.20001220703</ele>
        <time>2012-05-05T09:20:02Z</time>
      </trkpt>
      <trkpt lat="45.65403" lon="5.95279">
        <ele>619.59997558594</ele>
        <time>2012-05-05T09:20:09Z</time>
      </trkpt>
      <trkpt lat="45.654" lon="5.95278">
        <ele>619.40002441406</ele>
        <time>2012-05-05T09:20:10Z</time>
      </trkpt>
      <trkpt lat="45.65382" lon="5.95273">
        <ele>618.59997558594</ele>
        <time>2012-05-05T09:20:18Z</time>
      </trkpt>
      <trkpt lat="45.65369" lon="5.95267">
        <ele>617</ele>
        <time>2012-05-05T09:20:24Z</time>
      </trkpt>
      <trkpt lat="45.65359" lon="5.95257">
        <ele>614.40002441406</ele>
        <time>2012-05-05T09:20:31Z</time>
      </trkpt>
      <trkpt lat="45.65354" lon="5.95247">
        <ele>611.20001220703</ele>
        <time>2012-05-05T09:20:36Z</time>
      </trkpt>
      <trkpt lat="45.65344" lon="5.95231">
        <ele>607.40002441406</ele>
        <time>2012-05-05T09:20:44Z</time>
      </trkpt>
      <trkpt lat="45.65334" lon="5.95224">
        <ele>606.40002441406</ele>
        <time>2012-05-05T09:20:50Z</time>
      </trkpt>
      <trkpt lat="45.65317" lon="5.95226">
        <ele>608</ele>
        <time>2012-05-05T09:20:58Z</time>
      </trkpt>
      <trkpt lat="45.65312" lon="5.95225">
        <ele>608</ele>
        <time>2012-05-05T09:21:01Z</time>
      </trkpt>
      <trkpt lat="45.65305" lon="5.95222">
        <ele>607.59997558594</ele>
        <time>2012-05-05T09:21:05Z</time>
      </trkpt>
      <trkpt lat="45.65294" lon="5.95224">
        <ele>608.59997558594</ele>
        <time>2012-05-05T09:21:09Z</time>
      </trkpt>
      <trkpt lat="45.65281" lon="5.95219">
        <ele>608.40002441406</ele>
        <time>2012-05-05T09:21:15Z</time>
      </trkpt>
      <trkpt lat="45.65275" lon="5.95221">
        <ele>609.20001220703</ele>
        <time>2012-05-05T09:21:17Z</time>
      </trkpt>
      <trkpt lat="45.6526" lon="5.9521">
        <ele>607.79998779297</ele>
        <time>2012-05-05T09:21:23Z</time>
      </trkpt>
      <trkpt lat="45.65253" lon="5.95205">
        <ele>607</ele>
        <time>2012-05-05T09:21:26Z</time>
      </trkpt>
      <trkpt lat="45.65229" lon="5.95195">
        <ele>605.40002441406</ele>
        <time>2012-05-05T09:21:36Z</time>
      </trkpt>
      <trkpt lat="45.65226" lon="5.95193">
        <ele>604.79998779297</ele>
        <time>2012-05-05T09:21:37Z</time>
      </trkpt>
      <trkpt lat="45.65208" lon="5.95191">
        <ele>604.59997558594</ele>
        <time>2012-05-05T09:21:45Z</time>
      </trkpt>
      <trkpt lat="45.65186" lon="5.95196">
        <ele>605.79998779297</ele>
        <time>2012-05-05T09:21:53Z</time>
      </trkpt>
      <trkpt lat="45.65162" lon="5.95186">
        <ele>603.40002441406</ele>
        <time>2012-05-05T09:22:03Z</time>
      </trkpt>
      <trkpt lat="45.65157" lon="5.95186">
        <ele>603.20001220703</ele>
        <time>2012-05-05T09:22:05Z</time>
      </trkpt>
      <trkpt lat="45.65142" lon="5.95182">
        <ele>601.59997558594</ele>
        <time>2012-05-05T09:22:11Z</time>
      </trkpt>
      <trkpt lat="45.65124" lon="5.95176">
        <ele>599.20001220703</ele>
        <time>2012-05-05T09:22:18Z</time>
      </trkpt>
      <trkpt lat="45.65114" lon="5.95166">
        <ele>596.20001220703</ele>
        <time>2012-05-05T09:22:23Z</time>
      </trkpt>
      <trkpt lat="45.65109" lon="5.9516">
        <ele>594.59997558594</ele>
        <time>2012-05-05T09:22:25Z</time>
      </trkpt>
      <trkpt lat="45.65098" lon="5.95159">
        <ele>594</ele>
        <time>2012-05-05T09:22:31Z</time>
      </trkpt>
      <trkpt lat="45.65091" lon="5.95166">
        <ele>595.20001220703</ele>
        <time>2012-05-05T09:22:36Z</time>
      </trkpt>
      <trkpt lat="45.65072" lon="5.95193">
        <ele>601.59997558594</ele>
        <time>2012-05-05T09:22:48Z</time>
      </trkpt>
      <trkpt lat="45.65071" lon="5.95195">
        <ele>601.79998779297</ele>
        <time>2012-05-05T09:22:49Z</time>
      </trkpt>
      <trkpt lat="45.65053" lon="5.95195">
        <ele>601.40002441406</ele>
        <time>2012-05-05T09:22:56Z</time>
      </trkpt>
      <trkpt lat="45.65036" lon="5.95208">
        <ele>604.40002441406</ele>
        <time>2012-05-05T09:23:04Z</time>
      </trkpt>
      <trkpt lat="45.6502" lon="5.9523">
        <ele>610</ele>
        <time>2012-05-05T09:23:12Z</time>
      </trkpt>
      <trkpt lat="45.65018" lon="5.9523">
        <ele>609.79998779297</ele>
        <time>2012-05-05T09:23:13Z</time>
      </trkpt>
      <trkpt lat="45.65008" lon="5.9522">
        <ele>606.79998779297</ele>
        <time>2012-05-05T09:23:19Z</time>
      </trkpt>
      <trkpt lat="45.65004" lon="5.95216">
        <ele>605.40002441406</ele>
        <time>2012-05-05T09:23:21Z</time>
      </trkpt>
      <trkpt lat="45.65001" lon="5.95208">
        <ele>603</ele>
        <time>2012-05-05T09:23:25Z</time>
      </trkpt>
      <trkpt lat="45.65001" lon="5.95206">
        <ele>602.40002441406</ele>
        <time>2012-05-05T09:23:26Z</time>
      </trkpt>
      <trkpt lat="45.64998" lon="5.95196">
        <ele>599.59997558594</ele>
        <time>2012-05-05T09:23:29Z</time>
      </trkpt>
      <trkpt lat="45.64995" lon="5.95185">
        <ele>596.79998779297</ele>
        <time>2012-05-05T09:23:32Z</time>
      </trkpt>
      <trkpt lat="45.64994" lon="5.95176">
        <ele>594.20001220703</ele>
        <time>2012-05-05T09:23:35Z</time>
      </trkpt>
      <trkpt lat="45.64994" lon="5.95171">
        <ele>592.59997558594</ele>
        <time>2012-05-05T09:23:37Z</time>
      </trkpt>
      <trkpt lat="45.64996" lon="5.95164">
        <ele>590.59997558594</ele>
        <time>2012-05-05T09:23:40Z</time>
      </trkpt>
      <trkpt lat="45.64997" lon="5.95156">
        <ele>588.59997558594</ele>
        <time>2012-05-05T09:23:43Z</time>
      </trkpt>
      <trkpt lat="45.64996" lon="5.95141">
        <ele>585.20001220703</ele>
        <time>2012-05-05T09:23:47Z</time>
      </trkpt>
      <trkpt lat="45.64997" lon="5.95135">
        <ele>583.79998779297</ele>
        <time>2012-05-05T09:23:49Z</time>
      </trkpt>
      <trkpt lat="45.65" lon="5.95121">
        <ele>580</ele>
        <time>2012-05-05T09:23:55Z</time>
      </trkpt>
      <trkpt lat="45.65" lon="5.95117">
        <ele>579</ele>
        <time>2012-05-05T09:23:57Z</time>
      </trkpt>
      <trkpt lat="45.65001" lon="5.95107">
        <ele>576.59997558594</ele>
        <time>2012-05-05T09:24:01Z</time>
      </trkpt>
      <trkpt lat="45.65001" lon="5.95104">
        <ele>576</ele>
        <time>2012-05-05T09:24:02Z</time>
      </trkpt>
      <trkpt lat="45.65002" lon="5.95087">
        <ele>572</ele>
        <time>2012-05-05T09:24:08Z</time>
      </trkpt>
      <trkpt lat="45.65002" lon="5.95081">
        <ele>570.59997558594</ele>
        <time>2012-05-05T09:24:10Z</time>
      </trkpt>
      <trkpt lat="45.65" lon="5.95064">
        <ele>566.79998779297</ele>
        <time>2012-05-05T09:24:16Z</time>
      </trkpt>
      <trkpt lat="45.64998" lon="5.95062">
        <ele>566.59997558594</ele>
        <time>2012-05-05T09:24:17Z</time>
      </trkpt>
      <trkpt lat="45.64992" lon="5.95058">
        <ele>566.40002441406</ele>
        <time>2012-05-05T09:24:21Z</time>
      </trkpt>
      <trkpt lat="45.64988" lon="5.95058">
        <ele>567</ele>
        <time>2012-05-05T09:24:30Z</time>
      </trkpt>
      <trkpt lat="45.64984" lon="5.95061">
        <ele>568</ele>
        <time>2012-05-05T09:24:38Z</time>
      </trkpt>
      <trkpt lat="45.64983" lon="5.9506">
        <ele>568</ele>
        <time>2012-05-05T09:24:40Z</time>
      </trkpt>
      <trkpt lat="45.64975" lon="5.95055">
        <ele>568</ele>
        <time>2012-05-05T09:24:51Z</time>
      </trkpt>
      <trkpt lat="45.64971" lon="5.95048">
        <ele>567</ele>
        <time>2012-05-05T09:24:56Z</time>
      </trkpt>
      <trkpt lat="45.64964" lon="5.95036">
        <ele>565.79998779297</ele>
        <time>2012-05-05T09:25:02Z</time>
      </trkpt>
      <trkpt lat="45.64961" lon="5.95033">
        <ele>565.40002441406</ele>
        <time>2012-05-05T09:25:04Z</time>
      </trkpt>
      <trkpt lat="45.64954" lon="5.95032">
        <ele>566.20001220703</ele>
        <time>2012-05-05T09:25:07Z</time>
      </trkpt>
      <trkpt lat="45.64946" lon="5.95032">
        <ele>567.40002441406</ele>
        <time>2012-05-05T09:25:11Z</time>
      </trkpt>
      <trkpt lat="45.64939" lon="5.95033">
        <ele>568.59997558594</ele>
        <time>2012-05-05T09:25:15Z</time>
      </trkpt>
      <trkpt lat="45.64931" lon="5.95035">
        <ele>570</ele>
        <time>2012-05-05T09:25:22Z</time>
      </trkpt>
      <trkpt lat="45.64924" lon="5.95034">
        <ele>570.79998779297</ele>
        <time>2012-05-05T09:25:30Z</time>
      </trkpt>
      <trkpt lat="45.6492" lon="5.95034">
        <ele>571.40002441406</ele>
        <time>2012-05-05T09:25:34Z</time>
      </trkpt>
      <trkpt lat="45.64913" lon="5.95034">
        <ele>572.40002441406</ele>
        <time>2012-05-05T09:25:41Z</time>
      </trkpt>
      <trkpt lat="45.64911" lon="5.95034">
        <ele>572.79998779297</ele>
        <time>2012-05-05T09:25:44Z</time>
      </trkpt>
      <trkpt lat="45.64908" lon="5.95035">
        <ele>573.59997558594</ele>
        <time>2012-05-05T09:25:50Z</time>
      </trkpt>
      <trkpt lat="45.64903" lon="5.95034">
        <ele>574.59997558594</ele>
        <time>2012-05-05T09:25:56Z</time>
      </trkpt>
      <trkpt lat="45.64897" lon="5.95032">
        <ele>575.59997558594</ele>
        <time>2012-05-05T09:26:04Z</time>
      </trkpt>
      <trkpt lat="45.64897" lon="5.95033">
        <ele>575.59997558594</ele>
        <time>2012-05-05T09:26:05Z</time>
      </trkpt>
      <trkpt lat="45.64889" lon="5.9503">
        <ele>576.79998779297</ele>
        <time>2012-05-05T09:26:14Z</time>
      </trkpt>
      <trkpt lat="45.64884" lon="5.95027">
        <ele>577.40002441406</ele>
        <time>2012-05-05T09:26:22Z</time>
      </trkpt>
      <trkpt lat="45.64878" lon="5.95027">
        <ele>578.59997558594</ele>
        <time>2012-05-05T09:26:30Z</time>
      </trkpt>
      <trkpt lat="45.64877" lon="5.95027">
        <ele>578.59997558594</ele>
        <time>2012-05-05T09:26:32Z</time>
      </trkpt>
      <trkpt lat="45.64871" lon="5.95028">
        <ele>580.20001220703</ele>
        <time>2012-05-05T09:26:40Z</time>
      </trkpt>
      <trkpt lat="45.64867" lon="5.95028">
        <ele>581</ele>
        <time>2012-05-05T09:26:48Z</time>
      </trkpt>
      <trkpt lat="45.64859" lon="5.95026">
        <ele>582.20001220703</ele>
        <time>2012-05-05T09:26:57Z</time>
      </trkpt>
      <trkpt lat="45.64859" lon="5.95026">
        <ele>582.40002441406</ele>
        <time>2012-05-05T09:26:58Z</time>
      </trkpt>
      <trkpt lat="45.64853" lon="5.95031">
        <ele>584.40002441406</ele>
        <time>2012-05-05T09:27:08Z</time>
      </trkpt>
      <trkpt lat="45.6485" lon="5.95036">
        <ele>586.20001220703</ele>
        <time>2012-05-05T09:27:16Z</time>
      </trkpt>
      <trkpt lat="45.64849" lon="5.95039">
        <ele>587</ele>
        <time>2012-05-05T09:27:24Z</time>
      </trkpt>
      <trkpt lat="45.64848" lon="5.95042">
        <ele>588</ele>
        <time>2012-05-05T09:27:28Z</time>
      </trkpt>
      <trkpt lat="45.64845" lon="5.95046">
        <ele>589.40002441406</ele>
        <time>2012-05-05T09:27:38Z</time>
      </trkpt>
      <trkpt lat="45.64842" lon="5.9505">
        <ele>590.79998779297</ele>
        <time>2012-05-05T09:27:46Z</time>
      </trkpt>
      <trkpt lat="45.64838" lon="5.95053">
        <ele>592.40002441406</ele>
        <time>2012-05-05T09:27:52Z</time>
      </trkpt>
      <trkpt lat="45.64833" lon="5.95057">
        <ele>594.40002441406</ele>
        <time>2012-05-05T09:27:56Z</time>
      </trkpt>
      <trkpt lat="45.64815" lon="5.95041">
        <ele>592.59997558594</ele>
        <time>2012-05-05T09:28:06Z</time>
      </trkpt>
      <trkpt lat="45.64805" lon="5.95037">
        <ele>592.59997558594</ele>
        <time>2012-05-05T09:28:10Z</time>
      </trkpt>
      <trkpt lat="45.64792" lon="5.95035">
        <ele>593.20001220703</ele>
        <time>2012-05-05T09:28:18Z</time>
      </trkpt>
      <trkpt lat="45.6479" lon="5.95036">
        <ele>593.59997558594</ele>
        <time>2012-05-05T09:28:19Z</time>
      </trkpt>
      <trkpt lat="45.64772" lon="5.95036">
        <ele>595.40002441406</ele>
        <time>2012-05-05T09:28:32Z</time>
      </trkpt>
      <trkpt lat="45.64768" lon="5.95036">
        <ele>595.79998779297</ele>
        <time>2012-05-05T09:28:35Z</time>
      </trkpt>
      <trkpt lat="45.64758" lon="5.95044">
        <ele>598.79998779297</ele>
        <time>2012-05-05T09:28:45Z</time>
      </trkpt>
      <trkpt lat="45.64755" lon="5.95045">
        <ele>599.40002441406</ele>
        <time>2012-05-05T09:28:47Z</time>
      </trkpt>
      <trkpt lat="45.64737" lon="5.95055">
        <ele>601.40002441406</ele>
        <time>2012-05-05T09:28:56Z</time>
      </trkpt>
      <trkpt lat="45.64721" lon="5.95063">
        <ele>602.20001220703</ele>
        <time>2012-05-05T09:29:02Z</time>
      </trkpt>
      <trkpt lat="45.64716" lon="5.95069">
        <ele>603.20001220703</ele>
        <time>2012-05-05T09:29:06Z</time>
      </trkpt>
      <trkpt lat="45.64713" lon="5.95076">
        <ele>604.79998779297</ele>
        <time>2012-05-05T09:29:10Z</time>
      </trkpt>
      <trkpt lat="45.64709" lon="5.9508">
        <ele>605.59997558594</ele>
        <time>2012-05-05T09:29:17Z</time>
      </trkpt>
      <trkpt lat="45.64705" lon="5.95083">
        <ele>606.20001220703</ele>
        <time>2012-05-05T09:29:21Z</time>
      </trkpt>
      <trkpt lat="45.6469" lon="5.95084">
        <ele>605</ele>
        <time>2012-05-05T09:29:31Z</time>
      </trkpt>
      <trkpt lat="45.64683" lon="5.95086">
        <ele>605.40002441406</ele>
        <time>2012-05-05T09:29:34Z</time>
      </trkpt>
      <trkpt lat="45.64672" lon="5.95089">
        <ele>606</ele>
        <time>2012-05-05T09:29:40Z</time>
      </trkpt>
      <trkpt lat="45.64669" lon="5.95091">
        <ele>606.40002441406</ele>
        <time>2012-05-05T09:29:42Z</time>
      </trkpt>
      <trkpt lat="45.64658" lon="5.95099">
        <ele>609</ele>
        <time>2012-05-05T09:29:50Z</time>
      </trkpt>
      <trkpt lat="45.64654" lon="5.951">
        <ele>609.20001220703</ele>
        <time>2012-05-05T09:29:52Z</time>
      </trkpt>
      <trkpt lat="45.6464" lon="5.95106">
        <ele>611.40002441406</ele>
        <time>2012-05-05T09:30:02Z</time>
      </trkpt>
      <trkpt lat="45.64634" lon="5.95108">
        <ele>612.20001220703</ele>
        <time>2012-05-05T09:30:06Z</time>
      </trkpt>
      <trkpt lat="45.64616" lon="5.95103">
        <ele>609.40002441406</ele>
        <time>2012-05-05T09:30:15Z</time>
      </trkpt>
      <trkpt lat="45.64613" lon="5.95102">
        <ele>609.20001220703</ele>
        <time>2012-05-05T09:30:17Z</time>
      </trkpt>
      <trkpt lat="45.6461" lon="5.951">
        <ele>608</ele>
        <time>2012-05-05T09:30:21Z</time>
      </trkpt>
      <trkpt lat="45.64609" lon="5.95101">
        <ele>608.20001220703</ele>
        <time>2012-05-05T09:30:23Z</time>
      </trkpt>
      <trkpt lat="45.64604" lon="5.95096">
        <ele>605.79998779297</ele>
        <time>2012-05-05T09:30:30Z</time>
      </trkpt>
      <trkpt lat="45.64603" lon="5.95095">
        <ele>605.20001220703</ele>
        <time>2012-05-05T09:30:31Z</time>
      </trkpt>
      <trkpt lat="45.64594" lon="5.95073">
        <ele>596.20001220703</ele>
        <time>2012-05-05T09:30:41Z</time>
      </trkpt>
      <trkpt lat="45.64592" lon="5.95065">
        <ele>593.40002441406</ele>
        <time>2012-05-05T09:30:43Z</time>
      </trkpt>
      <trkpt lat="45.64576" lon="5.95033">
        <ele>584.40002441406</ele>
        <time>2012-05-05T09:30:55Z</time>
      </trkpt>
      <trkpt lat="45.64571" lon="5.95027">
        <ele>583.40002441406</ele>
        <time>2012-05-05T09:30:58Z</time>
      </trkpt>
      <trkpt lat="45.64561" lon="5.95021">
        <ele>583</ele>
        <time>2012-05-05T09:31:01Z</time>
      </trkpt>
      <trkpt lat="45.64551" lon="5.95007">
        <ele>579.79998779297</ele>
        <time>2012-05-05T09:31:06Z</time>
      </trkpt>
      <trkpt lat="45.64543" lon="5.94993">
        <ele>576.20001220703</ele>
        <time>2012-05-05T09:31:11Z</time>
      </trkpt>
      <trkpt lat="45.64538" lon="5.94987">
        <ele>575.20001220703</ele>
        <time>2012-05-05T09:31:13Z</time>
      </trkpt>
      <trkpt lat="45.64526" lon="5.94969">
        <ele>571.59997558594</ele>
        <time>2012-05-05T09:31:19Z</time>
      </trkpt>
      <trkpt lat="45.64522" lon="5.94964">
        <ele>570.40002441406</ele>
        <time>2012-05-05T09:31:21Z</time>
      </trkpt>
      <trkpt lat="45.64512" lon="5.94938">
        <ele>563.40002441406</ele>
        <time>2012-05-05T09:31:28Z</time>
      </trkpt>
      <trkpt lat="45.6451" lon="5.94929">
        <ele>561</ele>
        <time>2012-05-05T09:31:30Z</time>
      </trkpt>
      <trkpt lat="45.64499" lon="5.94901">
        <ele>554.79998779297</ele>
        <time>2012-05-05T09:31:38Z</time>
      </trkpt>
      <trkpt lat="45.64497" lon="5.9489">
        <ele>552.79998779297</ele>
        <time>2012-05-05T09:31:41Z</time>
      </trkpt>
      <trkpt lat="45.64491" lon="5.94873">
        <ele>550</ele>
        <time>2012-05-05T09:31:47Z</time>
      </trkpt>
      <trkpt lat="45.6449" lon="5.9487">
        <ele>549.40002441406</ele>
        <time>2012-05-05T09:31:48Z</time>
      </trkpt>
      <trkpt lat="45.64485" lon="5.94852">
        <ele>546.40002441406</ele>
        <time>2012-05-05T09:31:54Z</time>
      </trkpt>
      <trkpt lat="45.64486" lon="5.94837">
        <ele>543.20001220703</ele>
        <time>2012-05-05T09:31:57Z</time>
      </trkpt>
      <trkpt lat="45.64489" lon="5.94818">
        <ele>539.40002441406</ele>
        <time>2012-05-05T09:32:02Z</time>
      </trkpt>
      <trkpt lat="45.64491" lon="5.94809">
        <ele>537.59997558594</ele>
        <time>2012-05-05T09:32:05Z</time>
      </trkpt>
      <trkpt lat="45.64494" lon="5.9478">
        <ele>532.20001220703</ele>
        <time>2012-05-05T09:32:13Z</time>
      </trkpt>
      <trkpt lat="45.64491" lon="5.94762">
        <ele>529.20001220703</ele>
        <time>2012-05-05T09:32:17Z</time>
      </trkpt>
      <trkpt lat="45.64484" lon="5.94747">
        <ele>527.20001220703</ele>
        <time>2012-05-05T09:32:21Z</time>
      </trkpt>
      <trkpt lat="45.64483" lon="5.94744">
        <ele>526.79998779297</ele>
        <time>2012-05-05T09:32:22Z</time>
      </trkpt>
      <trkpt lat="45.64477" lon="5.94725">
        <ele>524.20001220703</ele>
        <time>2012-05-05T09:32:27Z</time>
      </trkpt>
      <trkpt lat="45.64475" lon="5.94706">
        <ele>521</ele>
        <time>2012-05-05T09:32:32Z</time>
      </trkpt>
      <trkpt lat="45.64476" lon="5.94688">
        <ele>517.79998779297</ele>
        <time>2012-05-05T09:32:37Z</time>
      </trkpt>
      <trkpt lat="45.64475" lon="5.94685">
        <ele>517.40002441406</ele>
        <time>2012-05-05T09:32:38Z</time>
      </trkpt>
      <trkpt lat="45.64472" lon="5.94663">
        <ele>513.20001220703</ele>
        <time>2012-05-05T09:32:44Z</time>
      </trkpt>
      <trkpt lat="45.64467" lon="5.94657">
        <ele>512.20001220703</ele>
        <time>2012-05-05T09:32:47Z</time>
      </trkpt>
      <trkpt lat="45.64459" lon="5.94647">
        <ele>510.39999389648</ele>
        <time>2012-05-05T09:32:51Z</time>
      </trkpt>
      <trkpt lat="45.64457" lon="5.94642">
        <ele>509.20001220703</ele>
        <time>2012-05-05T09:32:53Z</time>
      </trkpt>
      <trkpt lat="45.64458" lon="5.9463">
        <ele>507</ele>
        <time>2012-05-05T09:32:57Z</time>
      </trkpt>
      <trkpt lat="45.64456" lon="5.94625">
        <ele>506</ele>
        <time>2012-05-05T09:32:59Z</time>
      </trkpt>
      <trkpt lat="45.64445" lon="5.94611">
        <ele>503</ele>
        <time>2012-05-05T09:33:05Z</time>
      </trkpt>
      <trkpt lat="45.64441" lon="5.94604">
        <ele>501.79998779297</ele>
        <time>2012-05-05T09:33:07Z</time>
      </trkpt>
      <trkpt lat="45.64434" lon="5.94587">
        <ele>498.20001220703</ele>
        <time>2012-05-05T09:33:12Z</time>
      </trkpt>
      <trkpt lat="45.6443" lon="5.94577">
        <ele>496.39999389648</ele>
        <time>2012-05-05T09:33:15Z</time>
      </trkpt>
      <trkpt lat="45.64424" lon="5.94558">
        <ele>493.20001220703</ele>
        <time>2012-05-05T09:33:21Z</time>
      </trkpt>
      <trkpt lat="45.64423" lon="5.94555">
        <ele>492.79998779297</ele>
        <time>2012-05-05T09:33:22Z</time>
      </trkpt>
      <trkpt lat="45.64421" lon="5.94531">
        <ele>489</ele>
        <time>2012-05-05T09:33:28Z</time>
      </trkpt>
      <trkpt lat="45.64421" lon="5.94511">
        <ele>485.79998779297</ele>
        <time>2012-05-05T09:33:34Z</time>
      </trkpt>
      <trkpt lat="45.64417" lon="5.94494">
        <ele>483.20001220703</ele>
        <time>2012-05-05T09:33:39Z</time>
      </trkpt>
      <trkpt lat="45.64416" lon="5.94491">
        <ele>482.79998779297</ele>
        <time>2012-05-05T09:33:40Z</time>
      </trkpt>
      <trkpt lat="45.6441" lon="5.94476">
        <ele>480.20001220703</ele>
        <time>2012-05-05T09:33:45Z</time>
      </trkpt>
      <trkpt lat="45.6441" lon="5.94467">
        <ele>479</ele>
        <time>2012-05-05T09:33:48Z</time>
      </trkpt>
      <trkpt lat="45.6441" lon="5.94446">
        <ele>476.39999389648</ele>
        <time>2012-05-05T09:33:55Z</time>
      </trkpt>
      <trkpt lat="45.64409" lon="5.94446">
        <ele>476.20001220703</ele>
        <time>2012-05-05T09:33:56Z</time>
      </trkpt>
      <trkpt lat="45.64398" lon="5.94449">
        <ele>475.60000610352</ele>
        <time>2012-05-05T09:34:02Z</time>
      </trkpt>
      <trkpt lat="45.64382" lon="5.94446">
        <ele>474</ele>
        <time>2012-05-05T09:34:10Z</time>
      </trkpt>
      <trkpt lat="45.64371" lon="5.94452">
        <ele>473.79998779297</ele>
        <time>2012-05-05T09:34:18Z</time>
      </trkpt>
      <trkpt lat="45.64362" lon="5.94452">
        <ele>473.20001220703</ele>
        <time>2012-05-05T09:34:21Z</time>
      </trkpt>
      <trkpt lat="45.64344" lon="5.94445">
        <ele>470.79998779297</ele>
        <time>2012-05-05T09:34:29Z</time>
      </trkpt>
      <trkpt lat="45.64328" lon="5.94453">
        <ele>470.39999389648</ele>
        <time>2012-05-05T09:34:36Z</time>
      </trkpt>
      <trkpt lat="45.64317" lon="5.9447">
        <ele>471</ele>
        <time>2012-05-05T09:34:44Z</time>
      </trkpt>
      <trkpt lat="45.64316" lon="5.94473">
        <ele>471.39999389648</ele>
        <time>2012-05-05T09:34:45Z</time>
      </trkpt>
      <trkpt lat="45.64305" lon="5.94489">
        <ele>472.20001220703</ele>
        <time>2012-05-05T09:34:51Z</time>
      </trkpt>
      <trkpt lat="45.64298" lon="5.94504">
        <ele>473.79998779297</ele>
        <time>2012-05-05T09:34:56Z</time>
      </trkpt>
      <trkpt lat="45.64283" lon="5.94517">
        <ele>475.79998779297</ele>
        <time>2012-05-05T09:35:03Z</time>
      </trkpt>
      <trkpt lat="45.6427" lon="5.94515">
        <ele>474.60000610352</ele>
        <time>2012-05-05T09:35:07Z</time>
      </trkpt>
      <trkpt lat="45.64256" lon="5.94514">
        <ele>473.39999389648</ele>
        <time>2012-05-05T09:35:12Z</time>
      </trkpt>
      <trkpt lat="45.64247" lon="5.94511">
        <ele>472</ele>
        <time>2012-05-05T09:35:16Z</time>
      </trkpt>
      <trkpt lat="45.64234" lon="5.94501">
        <ele>468.60000610352</ele>
        <time>2012-05-05T09:35:21Z</time>
      </trkpt>
      <trkpt lat="45.64232" lon="5.94496">
        <ele>467.79998779297</ele>
        <time>2012-05-05T09:35:22Z</time>
      </trkpt>
      <trkpt lat="45.64223" lon="5.94487">
        <ele>466</ele>
        <time>2012-05-05T09:35:26Z</time>
      </trkpt>
      <trkpt lat="45.64214" lon="5.94476">
        <ele>464.20001220703</ele>
        <time>2012-05-05T09:35:30Z</time>
      </trkpt>
      <trkpt lat="45.64206" lon="5.94461">
        <ele>461.60000610352</ele>
        <time>2012-05-05T09:35:35Z</time>
      </trkpt>
      <trkpt lat="45.64202" lon="5.94455">
        <ele>460.60000610352</ele>
        <time>2012-05-05T09:35:37Z</time>
      </trkpt>
      <trkpt lat="45.64196" lon="5.94429">
        <ele>456.60000610352</ele>
        <time>2012-05-05T09:35:44Z</time>
      </trkpt>
      <trkpt lat="45.64197" lon="5.94408">
        <ele>453.39999389648</ele>
        <time>2012-05-05T09:35:49Z</time>
      </trkpt>
      <trkpt lat="45.64195" lon="5.94386">
        <ele>449.79998779297</ele>
        <time>2012-05-05T09:35:55Z</time>
      </trkpt>
      <trkpt lat="45.64193" lon="5.94384">
        <ele>449.39999389648</ele>
        <time>2012-05-05T09:35:56Z</time>
      </trkpt>
      <trkpt lat="45.64179" lon="5.94371">
        <ele>447.20001220703</ele>
        <time>2012-05-05T09:36:04Z</time>
      </trkpt>
      <trkpt lat="45.64179" lon="5.94359">
        <ele>445.39999389648</ele>
        <time>2012-05-05T09:36:07Z</time>
      </trkpt>
      <trkpt lat="45.64187" lon="5.94346">
        <ele>443.39999389648</ele>
        <time>2012-05-05T09:36:12Z</time>
      </trkpt>
      <trkpt lat="45.64188" lon="5.94343">
        <ele>443</ele>
        <time>2012-05-05T09:36:13Z</time>
      </trkpt>
      <trkpt lat="45.64197" lon="5.94334">
        <ele>441.79998779297</ele>
        <time>2012-05-05T09:36:18Z</time>
      </trkpt>
      <trkpt lat="45.64207" lon="5.94323">
        <ele>440.20001220703</ele>
        <time>2012-05-05T09:36:23Z</time>
      </trkpt>
      <trkpt lat="45.64214" lon="5.94312">
        <ele>438.60000610352</ele>
        <time>2012-05-05T09:36:27Z</time>
      </trkpt>
      <trkpt lat="45.64218" lon="5.94308">
        <ele>437.79998779297</ele>
        <time>2012-05-05T09:36:29Z</time>
      </trkpt>
      <trkpt lat="45.64234" lon="5.94285">
        <ele>434.20001220703</ele>
        <time>2012-05-05T09:36:37Z</time>
      </trkpt>
      <trkpt lat="45.64241" lon="5.94277">
        <ele>432.79998779297</ele>
        <time>2012-05-05T09:36:40Z</time>
      </trkpt>
      <trkpt lat="45.64253" lon="5.94264">
        <ele>430.79998779297</ele>
        <time>2012-05-05T09:36:45Z</time>
      </trkpt>
      <trkpt lat="45.64254" lon="5.94262">
        <ele>430.79998779297</ele>
        <time>2012-05-05T09:36:46Z</time>
      </trkpt>
      <trkpt lat="45.64262" lon="5.9424">
        <ele>427.60000610352</ele>
        <time>2012-05-05T09:36:52Z</time>
      </trkpt>
      <trkpt lat="45.64266" lon="5.94226">
        <ele>425.60000610352</ele>
        <time>2012-05-05T09:36:56Z</time>
      </trkpt>
      <trkpt lat="45.6427" lon="5.94201">
        <ele>421.39999389648</ele>
        <time>2012-05-05T09:37:02Z</time>
      </trkpt>
      <trkpt lat="45.64271" lon="5.94193">
        <ele>420.20001220703</ele>
        <time>2012-05-05T09:37:04Z</time>
      </trkpt>
      <trkpt lat="45.64275" lon="5.94179">
        <ele>417.79998779297</ele>
        <time>2012-05-05T09:37:08Z</time>
      </trkpt>
      <trkpt lat="45.6428" lon="5.9417">
        <ele>416.39999389648</ele>
        <time>2012-05-05T09:37:11Z</time>
      </trkpt>
      <trkpt lat="45.64287" lon="5.94142">
        <ele>412.39999389648</ele>
        <time>2012-05-05T09:37:19Z</time>
      </trkpt>
      <trkpt lat="45.64287" lon="5.94138">
        <ele>412</ele>
        <time>2012-05-05T09:37:20Z</time>
      </trkpt>
      <trkpt lat="45.64286" lon="5.94124">
        <ele>409.79998779297</ele>
        <time>2012-05-05T09:37:24Z</time>
      </trkpt>
      <trkpt lat="45.64285" lon="5.9411">
        <ele>407.39999389648</ele>
        <time>2012-05-05T09:37:28Z</time>
      </trkpt>
      <trkpt lat="45.64284" lon="5.94093">
        <ele>405</ele>
        <time>2012-05-05T09:37:33Z</time>
      </trkpt>
      <trkpt lat="45.64287" lon="5.94083">
        <ele>403.39999389648</ele>
        <time>2012-05-05T09:37:36Z</time>
      </trkpt>
      <trkpt lat="45.64298" lon="5.94062">
        <ele>401.39999389648</ele>
        <time>2012-05-05T09:37:43Z</time>
      </trkpt>
      <trkpt lat="45.64306" lon="5.94048">
        <ele>400.20001220703</ele>
        <time>2012-05-05T09:37:48Z</time>
      </trkpt>
      <trkpt lat="45.64321" lon="5.94027">
        <ele>398.39999389648</ele>
        <time>2012-05-05T09:37:57Z</time>
      </trkpt>
      <trkpt lat="45.64328" lon="5.94019">
        <ele>397.79998779297</ele>
        <time>2012-05-05T09:38:01Z</time>
      </trkpt>
      <trkpt lat="45.64345" lon="5.93986">
        <ele>394.39999389648</ele>
        <time>2012-05-05T09:38:13Z</time>
      </trkpt>
      <trkpt lat="45.64348" lon="5.93969">
        <ele>392.20001220703</ele>
        <time>2012-05-05T09:38:17Z</time>
      </trkpt>
      <trkpt lat="45.64349" lon="5.93936">
        <ele>387.79998779297</ele>
        <time>2012-05-05T09:38:25Z</time>
      </trkpt>
      <trkpt lat="45.64349" lon="5.93917">
        <ele>385.39999389648</ele>
        <time>2012-05-05T09:38:30Z</time>
      </trkpt>
      <trkpt lat="45.64349" lon="5.939">
        <ele>383.60000610352</ele>
        <time>2012-05-05T09:38:35Z</time>
      </trkpt>
      <trkpt lat="45.64352" lon="5.93886">
        <ele>382.39999389648</ele>
        <time>2012-05-05T09:38:38Z</time>
      </trkpt>
      <trkpt lat="45.64362" lon="5.93866">
        <ele>380.79998779297</ele>
        <time>2012-05-05T09:38:44Z</time>
      </trkpt>
      <trkpt lat="45.64368" lon="5.93857">
        <ele>380.39999389648</ele>
        <time>2012-05-05T09:38:47Z</time>
      </trkpt>
      <trkpt lat="45.6438" lon="5.9383">
        <ele>378</ele>
        <time>2012-05-05T09:38:56Z</time>
      </trkpt>
      <trkpt lat="45.64382" lon="5.93819">
        <ele>377</ele>
        <time>2012-05-05T09:39:01Z</time>
      </trkpt>
      <trkpt lat="45.64377" lon="5.93816">
        <ele>376.60000610352</ele>
        <time>2012-05-05T09:39:05Z</time>
      </trkpt>
      <trkpt lat="45.64371" lon="5.93816">
        <ele>376.20001220703</ele>
        <time>2012-05-05T09:39:07Z</time>
      </trkpt>
      <trkpt lat="45.64347" lon="5.93812">
        <ele>375</ele>
        <time>2012-05-05T09:39:16Z</time>
      </trkpt>
      <trkpt lat="45.64341" lon="5.93803">
        <ele>374.20001220703</ele>
        <time>2012-05-05T09:39:19Z</time>
      </trkpt>
      <trkpt lat="45.6433" lon="5.93793">
        <ele>373</ele>
        <time>2012-05-05T09:39:24Z</time>
      </trkpt>
      <trkpt lat="45.64325" lon="5.93794">
        <ele>373</ele>
        <time>2012-05-05T09:39:26Z</time>
      </trkpt>
      <trkpt lat="45.6431" lon="5.93796">
        <ele>372.79998779297</ele>
        <time>2012-05-05T09:39:32Z</time>
      </trkpt>
      <trkpt lat="45.64295" lon="5.93799">
        <ele>372.79998779297</ele>
        <time>2012-05-05T09:39:38Z</time>
      </trkpt>
      <trkpt lat="45.64284" lon="5.938">
        <ele>372.60000610352</ele>
        <time>2012-05-05T09:39:43Z</time>
      </trkpt>
      <trkpt lat="45.64281" lon="5.93801">
        <ele>372.60000610352</ele>
        <time>2012-05-05T09:39:45Z</time>
      </trkpt>
      <trkpt lat="45.64276" lon="5.93803">
        <ele>372.79998779297</ele>
        <time>2012-05-05T09:39:51Z</time>
      </trkpt>
      <trkpt lat="45.64272" lon="5.93805">
        <ele>372.79998779297</ele>
        <time>2012-05-05T09:40:05Z</time>
      </trkpt>
      <trkpt lat="45.64268" lon="5.93805">
        <ele>372.60000610352</ele>
        <time>2012-05-05T09:40:18Z</time>
      </trkpt>
      <trkpt lat="45.64262" lon="5.93801">
        <ele>372.20001220703</ele>
        <time>2012-05-05T09:40:23Z</time>
      </trkpt>
      <trkpt lat="45.64254" lon="5.93794">
        <ele>371.60000610352</ele>
        <time>2012-05-05T09:40:30Z</time>
      </trkpt>
      <trkpt lat="45.6425" lon="5.93783">
        <ele>371</ele>
        <time>2012-05-05T09:40:35Z</time>
      </trkpt>
      <trkpt lat="45.6424" lon="5.93769">
        <ele>369.60000610352</ele>
        <time>2012-05-05T09:40:41Z</time>
      </trkpt>
      <trkpt lat="45.64229" lon="5.93762">
        <ele>368.39999389648</ele>
        <time>2012-05-05T09:40:45Z</time>
      </trkpt>
      <trkpt lat="45.64196" lon="5.9376">
        <ele>365.79998779297</ele>
        <time>2012-05-05T09:40:57Z</time>
      </trkpt>
      <trkpt lat="45.64185" lon="5.93751">
        <ele>364.39999389648</ele>
        <time>2012-05-05T09:41:01Z</time>
      </trkpt>
      <trkpt lat="45.6418" lon="5.9374">
        <ele>363.39999389648</ele>
        <time>2012-05-05T09:41:04Z</time>
      </trkpt>
      <trkpt lat="45.64177" lon="5.93734">
        <ele>362.79998779297</ele>
        <time>2012-05-05T09:41:06Z</time>
      </trkpt>
      <trkpt lat="45.64165" lon="5.93711">
        <ele>360.60000610352</ele>
        <time>2012-05-05T09:41:13Z</time>
      </trkpt>
      <trkpt lat="45.64157" lon="5.93694">
        <ele>359.39999389648</ele>
        <time>2012-05-05T09:41:18Z</time>
      </trkpt>
      <trkpt lat="45.64154" lon="5.93665">
        <ele>357.20001220703</ele>
        <time>2012-05-05T09:41:25Z</time>
      </trkpt>
      <trkpt lat="45.64152" lon="5.93652">
        <ele>356</ele>
        <time>2012-05-05T09:41:28Z</time>
      </trkpt>
      <trkpt lat="45.64146" lon="5.93624">
        <ele>353</ele>
        <time>2012-05-05T09:41:35Z</time>
      </trkpt>
      <trkpt lat="45.64141" lon="5.93604">
        <ele>350.79998779297</ele>
        <time>2012-05-05T09:41:40Z</time>
      </trkpt>
      <trkpt lat="45.64137" lon="5.93572">
        <ele>347.79998779297</ele>
        <time>2012-05-05T09:41:48Z</time>
      </trkpt>
      <trkpt lat="45.64136" lon="5.93559">
        <ele>346.79998779297</ele>
        <time>2012-05-05T09:41:51Z</time>
      </trkpt>
      <trkpt lat="45.64135" lon="5.93539">
        <ele>345.20001220703</ele>
        <time>2012-05-05T09:41:56Z</time>
      </trkpt>
      <trkpt lat="45.64135" lon="5.93514">
        <ele>343.39999389648</ele>
        <time>2012-05-05T09:42:02Z</time>
      </trkpt>
      <trkpt lat="45.64136" lon="5.93464">
        <ele>340.60000610352</ele>
        <time>2012-05-05T09:42:14Z</time>
      </trkpt>
      <trkpt lat="45.64136" lon="5.93459">
        <ele>340.39999389648</ele>
        <time>2012-05-05T09:42:15Z</time>
      </trkpt>
      <trkpt lat="45.64145" lon="5.93411">
        <ele>338.39999389648</ele>
        <time>2012-05-05T09:42:27Z</time>
      </trkpt>
      <trkpt lat="45.6417" lon="5.93387">
        <ele>337.60000610352</ele>
        <time>2012-05-05T09:42:39Z</time>
      </trkpt>
      <trkpt lat="45.64183" lon="5.93367">
        <ele>336.20001220703</ele>
        <time>2012-05-05T09:42:47Z</time>
      </trkpt>
      <trkpt lat="45.64183" lon="5.9336">
        <ele>335.60000610352</ele>
        <time>2012-05-05T09:42:49Z</time>
      </trkpt>
      <trkpt lat="45.64182" lon="5.93318">
        <ele>332.60000610352</ele>
        <time>2012-05-05T09:43:00Z</time>
      </trkpt>
      <trkpt lat="45.64177" lon="5.93284">
        <ele>330.79998779297</ele>
        <time>2012-05-05T09:43:09Z</time>
      </trkpt>
      <trkpt lat="45.64165" lon="5.93249">
        <ele>329</ele>
        <time>2012-05-05T09:43:19Z</time>
      </trkpt>
      <trkpt lat="45.64158" lon="5.9324">
        <ele>328.20001220703</ele>
        <time>2012-05-05T09:43:23Z</time>
      </trkpt>
      <trkpt lat="45.64142" lon="5.93225">
        <ele>326.79998779297</ele>
        <time>2012-05-05T09:43:30Z</time>
      </trkpt>
      <trkpt lat="45.64132" lon="5.93215">
        <ele>326</ele>
        <time>2012-05-05T09:43:35Z</time>
      </trkpt>
      <trkpt lat="45.64117" lon="5.93196">
        <ele>324.60000610352</ele>
        <time>2012-05-05T09:43:42Z</time>
      </trkpt>
      <trkpt lat="45.64111" lon="5.93188">
        <ele>324</ele>
        <time>2012-05-05T09:43:45Z</time>
      </trkpt>
      <trkpt lat="45.64091" lon="5.93168">
        <ele>322.39999389648</ele>
        <time>2012-05-05T09:43:54Z</time>
      </trkpt>
      <trkpt lat="45.64082" lon="5.93156">
        <ele>321.20001220703</ele>
        <time>2012-05-05T09:43:59Z</time>
      </trkpt>
      <trkpt lat="45.6406" lon="5.93124">
        <ele>318.39999389648</ele>
        <time>2012-05-05T09:44:11Z</time>
      </trkpt>
      <trkpt lat="45.64058" lon="5.93121">
        <ele>318</ele>
        <time>2012-05-05T09:44:12Z</time>
      </trkpt>
      <trkpt lat="45.6404" lon="5.93096">
        <ele>316.39999389648</ele>
        <time>2012-05-05T09:44:21Z</time>
      </trkpt>
      <trkpt lat="45.64019" lon="5.93068">
        <ele>314.79998779297</ele>
        <time>2012-05-05T09:44:32Z</time>
      </trkpt>
      <trkpt lat="45.63997" lon="5.93038">
        <ele>312.60000610352</ele>
        <time>2012-05-05T09:44:44Z</time>
      </trkpt>
      <trkpt lat="45.6399" lon="5.93027">
        <ele>311.79998779297</ele>
        <time>2012-05-05T09:44:48Z</time>
      </trkpt>
      <trkpt lat="45.63969" lon="5.93001">
        <ele>310</ele>
        <time>2012-05-05T09:44:58Z</time>
      </trkpt>
      <trkpt lat="45.63953" lon="5.92988">
        <ele>308.79998779297</ele>
        <time>2012-05-05T09:45:05Z</time>
      </trkpt>
      <trkpt lat="45.63928" lon="5.92967">
        <ele>307.20001220703</ele>
        <time>2012-05-05T09:45:16Z</time>
      </trkpt>
      <trkpt lat="45.63915" lon="5.92956">
        <ele>306.20001220703</ele>
        <time>2012-05-05T09:45:22Z</time>
      </trkpt>
      <trkpt lat="45.63903" lon="5.92924">
        <ele>304.60000610352</ele>
        <time>2012-05-05T09:45:32Z</time>
      </trkpt>
      <trkpt lat="45.63909" lon="5.92911">
        <ele>304.39999389648</ele>
        <time>2012-05-05T09:45:36Z</time>
      </trkpt>
      <trkpt lat="45.63936" lon="5.9288">
        <ele>304.20001220703</ele>
        <time>2012-05-05T09:45:50Z</time>
      </trkpt>
      <trkpt lat="45.63938" lon="5.92878">
        <ele>304.20001220703</ele>
        <time>2012-05-05T09:45:51Z</time>
      </trkpt>
      <trkpt lat="45.63939" lon="5.92851">
        <ele>303.20001220703</ele>
        <time>2012-05-05T09:45:59Z</time>
      </trkpt>
      <trkpt lat="45.63934" lon="5.92822">
        <ele>302</ele>
        <time>2012-05-05T09:46:08Z</time>
      </trkpt>
      <trkpt lat="45.63919" lon="5.92793">
        <ele>300.60000610352</ele>
        <time>2012-05-05T09:46:18Z</time>
      </trkpt>
      <trkpt lat="45.63909" lon="5.92776">
        <ele>299.60000610352</ele>
        <time>2012-05-05T09:46:24Z</time>
      </trkpt>
      <trkpt lat="45.6389" lon="5.92747">
        <ele>298</ele>
        <time>2012-05-05T09:46:35Z</time>
      </trkpt>
      <trkpt lat="45.63881" lon="5.92726">
        <ele>297.39999389648</ele>
        <time>2012-05-05T09:46:42Z</time>
      </trkpt>
      <trkpt lat="45.6387" lon="5.92698">
        <ele>296.60000610352</ele>
        <time>2012-05-05T09:46:51Z</time>
      </trkpt>
      <trkpt lat="45.63868" lon="5.92692">
        <ele>296.60000610352</ele>
        <time>2012-05-05T09:46:53Z</time>
      </trkpt>
      <trkpt lat="45.63859" lon="5.92653">
        <ele>295.60000610352</ele>
        <time>2012-05-05T09:47:04Z</time>
      </trkpt>
      <trkpt lat="45.6385" lon="5.92619">
        <ele>294.79998779297</ele>
        <time>2012-05-05T09:47:14Z</time>
      </trkpt>
      <trkpt lat="45.63835" lon="5.92572">
        <ele>293.79998779297</ele>
        <time>2012-05-05T09:47:29Z</time>
      </trkpt>
      <trkpt lat="45.63833" lon="5.92569">
        <ele>293.79998779297</ele>
        <time>2012-05-05T09:47:30Z</time>
      </trkpt>
      <trkpt lat="45.63822" lon="5.92524">
        <ele>293</ele>
        <time>2012-05-05T09:47:44Z</time>
      </trkpt>
      <trkpt lat="45.63813" lon="5.92486">
        <ele>292.39999389648</ele>
        <time>2012-05-05T09:47:55Z</time>
      </trkpt>
      <trkpt lat="45.63802" lon="5.92444">
        <ele>292</ele>
        <time>2012-05-05T09:48:07Z</time>
      </trkpt>
      <trkpt lat="45.63796" lon="5.92422">
        <ele>291.60000610352</ele>
        <time>2012-05-05T09:48:14Z</time>
      </trkpt>
      <trkpt lat="45.63771" lon="5.92364">
        <ele>291</ele>
        <time>2012-05-05T09:48:33Z</time>
      </trkpt>
      <trkpt lat="45.63764" lon="5.9232">
        <ele>291.20001220703</ele>
        <time>2012-05-05T09:48:46Z</time>
      </trkpt>
      <trkpt lat="45.63761" lon="5.92263">
        <ele>291.20001220703</ele>
        <time>2012-05-05T09:49:03Z</time>
      </trkpt>
      <trkpt lat="45.63761" lon="5.92242">
        <ele>290.79998779297</ele>
        <time>2012-05-05T09:49:09Z</time>
      </trkpt>
      <trkpt lat="45.63756" lon="5.92207">
        <ele>289.39999389648</ele>
        <time>2012-05-05T09:49:21Z</time>
      </trkpt>
      <trkpt lat="45.63745" lon="5.92205">
        <ele>289.39999389648</ele>
        <time>2012-05-05T09:49:26Z</time>
      </trkpt>
      <trkpt lat="45.63722" lon="5.92198">
        <ele>289.20001220703</ele>
        <time>2012-05-05T09:49:36Z</time>
      </trkpt>
      <trkpt lat="45.63713" lon="5.92197">
        <ele>289.20001220703</ele>
        <time>2012-05-05T09:49:40Z</time>
      </trkpt>
      <trkpt lat="45.63701" lon="5.92183">
        <ele>288.60000610352</ele>
        <time>2012-05-05T09:49:48Z</time>
      </trkpt>
      <trkpt lat="45.63698" lon="5.92176">
        <ele>288.39999389648</ele>
        <time>2012-05-05T09:49:52Z</time>
      </trkpt>
      <trkpt lat="45.63686" lon="5.92158">
        <ele>287.20001220703</ele>
        <time>2012-05-05T09:49:59Z</time>
      </trkpt>
      <trkpt lat="45.63671" lon="5.92144">
        <ele>286.20001220703</ele>
        <time>2012-05-05T09:50:06Z</time>
      </trkpt>
      <trkpt lat="45.63648" lon="5.92127">
        <ele>284.79998779297</ele>
        <time>2012-05-05T09:50:16Z</time>
      </trkpt>
      <trkpt lat="45.63633" lon="5.92117">
        <ele>284.20001220703</ele>
        <time>2012-05-05T09:50:23Z</time>
      </trkpt>
      <trkpt lat="45.63598" lon="5.92088">
        <ele>283</ele>
        <time>2012-05-05T09:50:39Z</time>
      </trkpt>
      <trkpt lat="45.63593" lon="5.92085">
        <ele>282.79998779297</ele>
        <time>2012-05-05T09:50:41Z</time>
      </trkpt>
      <trkpt lat="45.63569" lon="5.92061">
        <ele>281.79998779297</ele>
        <time>2012-05-05T09:50:53Z</time>
      </trkpt>
      <trkpt lat="45.63553" lon="5.92043">
        <ele>281</ele>
        <time>2012-05-05T09:51:01Z</time>
      </trkpt>
      <trkpt lat="45.63527" lon="5.92017">
        <ele>280.20001220703</ele>
        <time>2012-05-05T09:51:14Z</time>
      </trkpt>
      <trkpt lat="45.63522" lon="5.92009">
        <ele>280</ele>
        <time>2012-05-05T09:51:17Z</time>
      </trkpt>
      <trkpt lat="45.635" lon="5.91978">
        <ele>279.20001220703</ele>
        <time>2012-05-05T09:51:30Z</time>
      </trkpt>
      <trkpt lat="45.63485" lon="5.91958">
        <ele>278.20001220703</ele>
        <time>2012-05-05T09:51:38Z</time>
      </trkpt>
      <trkpt lat="45.63467" lon="5.91923">
        <ele>276.39999389648</ele>
        <time>2012-05-05T09:51:50Z</time>
      </trkpt>
      <trkpt lat="45.63457" lon="5.91903">
        <ele>275.60000610352</ele>
        <time>2012-05-05T09:51:57Z</time>
      </trkpt>
      <trkpt lat="45.63437" lon="5.91862">
        <ele>274.60000610352</ele>
        <time>2012-05-05T09:52:11Z</time>
      </trkpt>
      <trkpt lat="45.63425" lon="5.91835">
        <ele>274</ele>
        <time>2012-05-05T09:52:20Z</time>
      </trkpt>
      <trkpt lat="45.63408" lon="5.91793">
        <ele>274</ele>
        <time>2012-05-05T09:52:34Z</time>
      </trkpt>
      <trkpt lat="45.63401" lon="5.91779">
        <ele>274.20001220703</ele>
        <time>2012-05-05T09:52:39Z</time>
      </trkpt>
      <trkpt lat="45.63385" lon="5.9176">
        <ele>274.60000610352</ele>
        <time>2012-05-05T09:52:51Z</time>
      </trkpt>
      <trkpt lat="45.63376" lon="5.91747">
        <ele>275</ele>
        <time>2012-05-05T09:52:56Z</time>
      </trkpt>
      <trkpt lat="45.63363" lon="5.91734">
        <ele>275.60000610352</ele>
        <time>2012-05-05T09:53:04Z</time>
      </trkpt>
      <trkpt lat="45.63356" lon="5.91722">
        <ele>276.20001220703</ele>
        <time>2012-05-05T09:53:09Z</time>
      </trkpt>
      <trkpt lat="45.63345" lon="5.9168">
        <ele>277.39999389648</ele>
        <time>2012-05-05T09:53:22Z</time>
      </trkpt>
      <trkpt lat="45.63331" lon="5.91642">
        <ele>278.60000610352</ele>
        <time>2012-05-05T09:53:35Z</time>
      </trkpt>
      <trkpt lat="45.63309" lon="5.91594">
        <ele>280.60000610352</ele>
        <time>2012-05-05T09:53:52Z</time>
      </trkpt>
      <trkpt lat="45.63303" lon="5.91581">
        <ele>281.20001220703</ele>
        <time>2012-05-05T09:53:57Z</time>
      </trkpt>
      <trkpt lat="45.63291" lon="5.91555">
        <ele>281.79998779297</ele>
        <time>2012-05-05T09:54:07Z</time>
      </trkpt>
      <trkpt lat="45.63287" lon="5.91543">
        <ele>282</ele>
        <time>2012-05-05T09:54:11Z</time>
      </trkpt>
      <trkpt lat="45.63276" lon="5.91526">
        <ele>282.39999389648</ele>
        <time>2012-05-05T09:54:23Z</time>
      </trkpt>
      <trkpt lat="45.63273" lon="5.91518">
        <ele>282.60000610352</ele>
        <time>2012-05-05T09:54:28Z</time>
      </trkpt>
      <trkpt lat="45.63267" lon="5.91506">
        <ele>282.79998779297</ele>
        <time>2012-05-05T09:54:38Z</time>
      </trkpt>
      <trkpt lat="45.63262" lon="5.91495">
        <ele>283</ele>
        <time>2012-05-05T09:54:46Z</time>
      </trkpt>
      <trkpt lat="45.63255" lon="5.91477">
        <ele>283.79998779297</ele>
        <time>2012-05-05T09:54:58Z</time>
      </trkpt>
      <trkpt lat="45.63254" lon="5.91475">
        <ele>283.79998779297</ele>
        <time>2012-05-05T09:55:00Z</time>
      </trkpt>
      <trkpt lat="45.63247" lon="5.91455">
        <ele>284.79998779297</ele>
        <time>2012-05-05T09:55:13Z</time>
      </trkpt>
      <trkpt lat="45.63244" lon="5.91446">
        <ele>285.20001220703</ele>
        <time>2012-05-05T09:55:19Z</time>
      </trkpt>
      <trkpt lat="45.63241" lon="5.91436">
        <ele>285.79998779297</ele>
        <time>2012-05-05T09:55:26Z</time>
      </trkpt>
      <trkpt lat="45.63241" lon="5.91435">
        <ele>285.79998779297</ele>
        <time>2012-05-05T09:55:27Z</time>
      </trkpt>
      <trkpt lat="45.63236" lon="5.91416">
        <ele>286.60000610352</ele>
        <time>2012-05-05T09:55:39Z</time>
      </trkpt>
      <trkpt lat="45.63234" lon="5.91413">
        <ele>287</ele>
        <time>2012-05-05T09:55:41Z</time>
      </trkpt>
      <trkpt lat="45.63224" lon="5.91391">
        <ele>289.20001220703</ele>
        <time>2012-05-05T09:55:54Z</time>
      </trkpt>
      <trkpt lat="45.63222" lon="5.91388">
        <ele>289.39999389648</ele>
        <time>2012-05-05T09:55:56Z</time>
      </trkpt>
      <trkpt lat="45.63218" lon="5.91367">
        <ele>291.20001220703</ele>
        <time>2012-05-05T09:56:08Z</time>
      </trkpt>
      <trkpt lat="45.63217" lon="5.91357">
        <ele>292</ele>
        <time>2012-05-05T09:56:14Z</time>
      </trkpt>
      <trkpt lat="45.63212" lon="5.91327">
        <ele>294.20001220703</ele>
        <time>2012-05-05T09:56:27Z</time>
      </trkpt>
      <trkpt lat="45.63207" lon="5.91315">
        <ele>295.20001220703</ele>
        <time>2012-05-05T09:56:32Z</time>
      </trkpt>
      <trkpt lat="45.632" lon="5.91289">
        <ele>296.79998779297</ele>
        <time>2012-05-05T09:56:43Z</time>
      </trkpt>
      <trkpt lat="45.63197" lon="5.91283">
        <ele>297.39999389648</ele>
        <time>2012-05-05T09:56:46Z</time>
      </trkpt>
      <trkpt lat="45.63189" lon="5.91253">
        <ele>299.20001220703</ele>
        <time>2012-05-05T09:56:59Z</time>
      </trkpt>
      <trkpt lat="45.63188" lon="5.91251">
        <ele>299.39999389648</ele>
        <time>2012-05-05T09:57:00Z</time>
      </trkpt>
      <trkpt lat="45.63185" lon="5.9124">
        <ele>299.79998779297</ele>
        <time>2012-05-05T09:57:05Z</time>
      </trkpt>
      <trkpt lat="45.63181" lon="5.91217">
        <ele>300.60000610352</ele>
        <time>2012-05-05T09:57:14Z</time>
      </trkpt>
      <trkpt lat="45.63174" lon="5.91193">
        <ele>301.79998779297</ele>
        <time>2012-05-05T09:57:24Z</time>
      </trkpt>
      <trkpt lat="45.63174" lon="5.9119">
        <ele>301.79998779297</ele>
        <time>2012-05-05T09:57:25Z</time>
      </trkpt>
      <trkpt lat="45.63166" lon="5.91167">
        <ele>303</ele>
        <time>2012-05-05T09:57:36Z</time>
      </trkpt>
      <trkpt lat="45.63162" lon="5.91162">
        <ele>303.79998779297</ele>
        <time>2012-05-05T09:57:40Z</time>
      </trkpt>
      <trkpt lat="45.63158" lon="5.91145">
        <ele>305.20001220703</ele>
        <time>2012-05-05T09:57:47Z</time>
      </trkpt>
      <trkpt lat="45.63158" lon="5.91141">
        <ele>305.39999389648</ele>
        <time>2012-05-05T09:57:49Z</time>
      </trkpt>
      <trkpt lat="45.63155" lon="5.91127">
        <ele>306.60000610352</ele>
        <time>2012-05-05T09:57:58Z</time>
      </trkpt>
      <trkpt lat="45.63154" lon="5.9112">
        <ele>307</ele>
        <time>2012-05-05T09:58:02Z</time>
      </trkpt>
      <trkpt lat="45.63152" lon="5.91109">
        <ele>308</ele>
        <time>2012-05-05T09:58:09Z</time>
      </trkpt>
      <trkpt lat="45.63148" lon="5.91101">
        <ele>308.60000610352</ele>
        <time>2012-05-05T09:58:14Z</time>
      </trkpt>
      <trkpt lat="45.63145" lon="5.91088">
        <ele>309.60000610352</ele>
        <time>2012-05-05T09:58:22Z</time>
      </trkpt>
      <trkpt lat="45.63143" lon="5.91081">
        <ele>310</ele>
        <time>2012-05-05T09:58:27Z</time>
      </trkpt>
      <trkpt lat="45.63138" lon="5.91069">
        <ele>311.20001220703</ele>
        <time>2012-05-05T09:58:36Z</time>
      </trkpt>
      <trkpt lat="45.63137" lon="5.91066">
        <ele>311.39999389648</ele>
        <time>2012-05-05T09:58:38Z</time>
      </trkpt>
      <trkpt lat="45.63134" lon="5.91053">
        <ele>312.60000610352</ele>
        <time>2012-05-05T09:58:47Z</time>
      </trkpt>
      <trkpt lat="45.63132" lon="5.91048">
        <ele>313</ele>
        <time>2012-05-05T09:58:51Z</time>
      </trkpt>
      <trkpt lat="45.63133" lon="5.91036">
        <ele>314</ele>
        <time>2012-05-05T09:59:00Z</time>
      </trkpt>
      <trkpt lat="45.63134" lon="5.91034">
        <ele>314.20001220703</ele>
        <time>2012-05-05T09:59:02Z</time>
      </trkpt>
      <trkpt lat="45.63137" lon="5.91024">
        <ele>314.79998779297</ele>
        <time>2012-05-05T09:59:10Z</time>
      </trkpt>
      <trkpt lat="45.63138" lon="5.91018">
        <ele>315.20001220703</ele>
        <time>2012-05-05T09:59:14Z</time>
      </trkpt>
      <trkpt lat="45.63136" lon="5.91003">
        <ele>316.39999389648</ele>
        <time>2012-05-05T09:59:24Z</time>
      </trkpt>
      <trkpt lat="45.63133" lon="5.90997">
        <ele>317.20001220703</ele>
        <time>2012-05-05T09:59:29Z</time>
      </trkpt>
      <trkpt lat="45.63129" lon="5.90986">
        <ele>318.60000610352</ele>
        <time>2012-05-05T09:59:38Z</time>
      </trkpt>
      <trkpt lat="45.6313" lon="5.90983">
        <ele>318.79998779297</ele>
        <time>2012-05-05T09:59:40Z</time>
      </trkpt>
      <trkpt lat="45.63144" lon="5.90976">
        <ele>319.60000610352</ele>
        <time>2012-05-05T09:59:52Z</time>
      </trkpt>
      <trkpt lat="45.63146" lon="5.90975">
        <ele>319.60000610352</ele>
        <time>2012-05-05T09:59:54Z</time>
      </trkpt>
      <trkpt lat="45.63165" lon="5.90968">
        <ele>320.60000610352</ele>
        <time>2012-05-05T10:00:10Z</time>
      </trkpt>
      <trkpt lat="45.63177" lon="5.90963">
        <ele>321.60000610352</ele>
        <time>2012-05-05T10:00:19Z</time>
      </trkpt>
      <trkpt lat="45.63188" lon="5.90958">
        <ele>322.79998779297</ele>
        <time>2012-05-05T10:00:28Z</time>
      </trkpt>
      <trkpt lat="45.63194" lon="5.90957">
        <ele>323.20001220703</ele>
        <time>2012-05-05T10:00:31Z</time>
      </trkpt>
      <trkpt lat="45.63206" lon="5.90955">
        <ele>324</ele>
        <time>2012-05-05T10:00:38Z</time>
      </trkpt>
      <trkpt lat="45.6322" lon="5.90948">
        <ele>325.79998779297</ele>
        <time>2012-05-05T10:00:45Z</time>
      </trkpt>
      <trkpt lat="45.63235" lon="5.90944">
        <ele>327.20001220703</ele>
        <time>2012-05-05T10:00:53Z</time>
      </trkpt>
      <trkpt lat="45.6324" lon="5.90942">
        <ele>327.60000610352</ele>
        <time>2012-05-05T10:00:57Z</time>
      </trkpt>
      <trkpt lat="45.63251" lon="5.90937">
        <ele>329</ele>
        <time>2012-05-05T10:01:06Z</time>
      </trkpt>
      <trkpt lat="45.63261" lon="5.90932">
        <ele>330.60000610352</ele>
        <time>2012-05-05T10:01:15Z</time>
      </trkpt>
      <trkpt lat="45.63272" lon="5.90924">
        <ele>332.60000610352</ele>
        <time>2012-05-05T10:01:24Z</time>
      </trkpt>
      <trkpt lat="45.63272" lon="5.90922">
        <ele>333</ele>
        <time>2012-05-05T10:01:25Z</time>
      </trkpt>
      <trkpt lat="45.63278" lon="5.90912">
        <ele>335</ele>
        <time>2012-05-05T10:01:32Z</time>
      </trkpt>
      <trkpt lat="45.6328" lon="5.90908">
        <ele>335.60000610352</ele>
        <time>2012-05-05T10:01:35Z</time>
      </trkpt>
      <trkpt lat="45.63282" lon="5.90902">
        <ele>336.79998779297</ele>
        <time>2012-05-05T10:01:40Z</time>
      </trkpt>
      <trkpt lat="45.63282" lon="5.90896">
        <ele>337.60000610352</ele>
        <time>2012-05-05T10:01:44Z</time>
      </trkpt>
      <trkpt lat="45.63281" lon="5.90887">
        <ele>339</ele>
        <time>2012-05-05T10:01:50Z</time>
      </trkpt>
      <trkpt lat="45.63276" lon="5.90876">
        <ele>340.60000610352</ele>
        <time>2012-05-05T10:01:58Z</time>
      </trkpt>
      <trkpt lat="45.6327" lon="5.90872">
        <ele>341</ele>
        <time>2012-05-05T10:02:05Z</time>
      </trkpt>
      <trkpt lat="45.63265" lon="5.90868">
        <ele>341.39999389648</ele>
        <time>2012-05-05T10:02:11Z</time>
      </trkpt>
      <trkpt lat="45.63263" lon="5.90867">
        <ele>341.60000610352</ele>
        <time>2012-05-05T10:02:15Z</time>
      </trkpt>
      <trkpt lat="45.63257" lon="5.90864">
        <ele>342</ele>
        <time>2012-05-05T10:02:22Z</time>
      </trkpt>
      <trkpt lat="45.63248" lon="5.90861">
        <ele>342.20001220703</ele>
        <time>2012-05-05T10:02:31Z</time>
      </trkpt>
      <trkpt lat="45.63243" lon="5.9086">
        <ele>341.79998779297</ele>
        <time>2012-05-05T10:02:36Z</time>
      </trkpt>
      <trkpt lat="45.63232" lon="5.90858">
        <ele>341.39999389648</ele>
        <time>2012-05-05T10:02:45Z</time>
      </trkpt>
      <trkpt lat="45.63224" lon="5.90857">
        <ele>341</ele>
        <time>2012-05-05T10:02:51Z</time>
      </trkpt>
      <trkpt lat="45.63213" lon="5.90846">
        <ele>342</ele>
        <time>2012-05-05T10:03:02Z</time>
      </trkpt>
      <trkpt lat="45.63212" lon="5.90845">
        <ele>342</ele>
        <time>2012-05-05T10:03:03Z</time>
      </trkpt>
      <trkpt lat="45.63205" lon="5.90838">
        <ele>342.60000610352</ele>
        <time>2012-05-05T10:03:09Z</time>
      </trkpt>
      <trkpt lat="45.632" lon="5.90831">
        <ele>343</ele>
        <time>2012-05-05T10:03:15Z</time>
      </trkpt>
      <trkpt lat="45.63193" lon="5.90812">
        <ele>344.20001220703</ele>
        <time>2012-05-05T10:03:27Z</time>
      </trkpt>
      <trkpt lat="45.63191" lon="5.90808">
        <ele>344.39999389648</ele>
        <time>2012-05-05T10:03:30Z</time>
      </trkpt>
      <trkpt lat="45.63187" lon="5.9079">
        <ele>345.60000610352</ele>
        <time>2012-05-05T10:03:40Z</time>
      </trkpt>
      <trkpt lat="45.63185" lon="5.90773">
        <ele>347</ele>
        <time>2012-05-05T10:03:47Z</time>
      </trkpt>
      <trkpt lat="45.63183" lon="5.90751">
        <ele>348.60000610352</ele>
        <time>2012-05-05T10:03:55Z</time>
      </trkpt>
      <trkpt lat="45.63183" lon="5.90748">
        <ele>349</ele>
        <time>2012-05-05T10:03:56Z</time>
      </trkpt>
      <trkpt lat="45.63172" lon="5.90706">
        <ele>352.60000610352</ele>
        <time>2012-05-05T10:04:11Z</time>
      </trkpt>
      <trkpt lat="45.63168" lon="5.90695">
        <ele>353.60000610352</ele>
        <time>2012-05-05T10:04:15Z</time>
      </trkpt>
      <trkpt lat="45.63156" lon="5.90662">
        <ele>355.60000610352</ele>
        <time>2012-05-05T10:04:27Z</time>
      </trkpt>
      <trkpt lat="45.63153" lon="5.90654">
        <ele>355.60000610352</ele>
        <time>2012-05-05T10:04:30Z</time>
      </trkpt>
      <trkpt lat="45.63141" lon="5.90618">
        <ele>355.79998779297</ele>
        <time>2012-05-05T10:04:43Z</time>
      </trkpt>
      <trkpt lat="45.6313" lon="5.90601">
        <ele>354.79998779297</ele>
        <time>2012-05-05T10:04:51Z</time>
      </trkpt>
      <trkpt lat="45.63117" lon="5.90569">
        <ele>354.20001220703</ele>
        <time>2012-05-05T10:05:05Z</time>
      </trkpt>
      <trkpt lat="45.63113" lon="5.90559">
        <ele>354</ele>
        <time>2012-05-05T10:05:09Z</time>
      </trkpt>
      <trkpt lat="45.63102" lon="5.90525">
        <ele>354.20001220703</ele>
        <time>2012-05-05T10:05:22Z</time>
      </trkpt>
      <trkpt lat="45.63098" lon="5.90509">
        <ele>354.60000610352</ele>
        <time>2012-05-05T10:05:28Z</time>
      </trkpt>
      <trkpt lat="45.63087" lon="5.90477">
        <ele>356.79998779297</ele>
        <time>2012-05-05T10:05:39Z</time>
      </trkpt>
      <trkpt lat="45.63078" lon="5.90458">
        <ele>358.20001220703</ele>
        <time>2012-05-05T10:05:46Z</time>
      </trkpt>
      <trkpt lat="45.63065" lon="5.90432">
        <ele>359.60000610352</ele>
        <time>2012-05-05T10:05:57Z</time>
      </trkpt>
      <trkpt lat="45.63052" lon="5.90404">
        <ele>359.60000610352</ele>
        <time>2012-05-05T10:06:08Z</time>
      </trkpt>
      <trkpt lat="45.63037" lon="5.90378">
        <ele>359</ele>
        <time>2012-05-05T10:06:19Z</time>
      </trkpt>
      <trkpt lat="45.63035" lon="5.90377">
        <ele>358.79998779297</ele>
        <time>2012-05-05T10:06:20Z</time>
      </trkpt>
      <trkpt lat="45.63019" lon="5.90355">
        <ele>358.60000610352</ele>
        <time>2012-05-05T10:06:31Z</time>
      </trkpt>
      <trkpt lat="45.63009" lon="5.90343">
        <ele>358.79998779297</ele>
        <time>2012-05-05T10:06:37Z</time>
      </trkpt>
      <trkpt lat="45.62992" lon="5.90317">
        <ele>360.20001220703</ele>
        <time>2012-05-05T10:06:48Z</time>
      </trkpt>
      <trkpt lat="45.62983" lon="5.90305">
        <ele>360.60000610352</ele>
        <time>2012-05-05T10:06:53Z</time>
      </trkpt>
      <trkpt lat="45.62951" lon="5.90269">
        <ele>359.39999389648</ele>
        <time>2012-05-05T10:07:08Z</time>
      </trkpt>
      <trkpt lat="45.62946" lon="5.90264">
        <ele>359</ele>
        <time>2012-05-05T10:07:10Z</time>
      </trkpt>
      <trkpt lat="45.62929" lon="5.90248">
        <ele>357</ele>
        <time>2012-05-05T10:07:17Z</time>
      </trkpt>
      <trkpt lat="45.62927" lon="5.90246">
        <ele>356.60000610352</ele>
        <time>2012-05-05T10:07:18Z</time>
      </trkpt>
      <trkpt lat="45.62912" lon="5.90234">
        <ele>354.20001220703</ele>
        <time>2012-05-05T10:07:24Z</time>
      </trkpt>
      <trkpt lat="45.62902" lon="5.90226">
        <ele>353.60000610352</ele>
        <time>2012-05-05T10:07:28Z</time>
      </trkpt>
      <trkpt lat="45.62895" lon="5.90222">
        <ele>353.39999389648</ele>
        <time>2012-05-05T10:07:31Z</time>
      </trkpt>
      <trkpt lat="45.62887" lon="5.90218">
        <ele>352.79998779297</ele>
        <time>2012-05-05T10:07:34Z</time>
      </trkpt>
      <trkpt lat="45.62877" lon="5.90206">
        <ele>352</ele>
        <time>2012-05-05T10:07:39Z</time>
      </trkpt>
      <trkpt lat="45.62877" lon="5.90192">
        <ele>351.20001220703</ele>
        <time>2012-05-05T10:07:43Z</time>
      </trkpt>
      <trkpt lat="45.62876" lon="5.90173">
        <ele>350.39999389648</ele>
        <time>2012-05-05T10:07:48Z</time>
      </trkpt>
      <trkpt lat="45.62875" lon="5.90166">
        <ele>350</ele>
        <time>2012-05-05T10:07:50Z</time>
      </trkpt>
      <trkpt lat="45.62866" lon="5.90151">
        <ele>348</ele>
        <time>2012-05-05T10:07:55Z</time>
      </trkpt>
      <trkpt lat="45.6286" lon="5.90135">
        <ele>346.39999389648</ele>
        <time>2012-05-05T10:07:59Z</time>
      </trkpt>
      <trkpt lat="45.62879" lon="5.90125">
        <ele>345.20001220703</ele>
        <time>2012-05-05T10:08:07Z</time>
      </trkpt>
      <trkpt lat="45.62887" lon="5.90127">
        <ele>345.39999389648</ele>
        <time>2012-05-05T10:08:10Z</time>
      </trkpt>
      <trkpt lat="45.62903" lon="5.90119">
        <ele>344.20001220703</ele>
        <time>2012-05-05T10:08:17Z</time>
      </trkpt>
      <trkpt lat="45.62916" lon="5.90094">
        <ele>339.79998779297</ele>
        <time>2012-05-05T10:08:25Z</time>
      </trkpt>
      <trkpt lat="45.62943" lon="5.90052">
        <ele>336.20001220703</ele>
        <time>2012-05-05T10:08:39Z</time>
      </trkpt>
      <trkpt lat="45.62945" lon="5.90049">
        <ele>336</ele>
        <time>2012-05-05T10:08:40Z</time>
      </trkpt>
      <trkpt lat="45.62961" lon="5.90025">
        <ele>332.79998779297</ele>
        <time>2012-05-05T10:08:48Z</time>
      </trkpt>
      <trkpt lat="45.62975" lon="5.90005">
        <ele>329.39999389648</ele>
        <time>2012-05-05T10:08:55Z</time>
      </trkpt>
      <trkpt lat="45.62996" lon="5.89981">
        <ele>326.39999389648</ele>
        <time>2012-05-05T10:09:05Z</time>
      </trkpt>
      <trkpt lat="45.63003" lon="5.89975">
        <ele>325.79998779297</ele>
        <time>2012-05-05T10:09:08Z</time>
      </trkpt>
      <trkpt lat="45.63016" lon="5.89962">
        <ele>324.79998779297</ele>
        <time>2012-05-05T10:09:14Z</time>
      </trkpt>
      <trkpt lat="45.63022" lon="5.89955">
        <ele>324.20001220703</ele>
        <time>2012-05-05T10:09:17Z</time>
      </trkpt>
      <trkpt lat="45.63041" lon="5.89933">
        <ele>321</ele>
        <time>2012-05-05T10:09:26Z</time>
      </trkpt>
      <trkpt lat="45.63049" lon="5.89925">
        <ele>319.79998779297</ele>
        <time>2012-05-05T10:09:30Z</time>
      </trkpt>
      <trkpt lat="45.63063" lon="5.89906">
        <ele>316</ele>
        <time>2012-05-05T10:09:37Z</time>
      </trkpt>
      <trkpt lat="45.63072" lon="5.89893">
        <ele>312.79998779297</ele>
        <time>2012-05-05T10:09:42Z</time>
      </trkpt>
      <trkpt lat="45.63089" lon="5.89883">
        <ele>310.20001220703</ele>
        <time>2012-05-05T10:09:50Z</time>
      </trkpt>
      <trkpt lat="45.63092" lon="5.89881">
        <ele>309.60000610352</ele>
        <time>2012-05-05T10:09:51Z</time>
      </trkpt>
      <trkpt lat="45.63104" lon="5.89875">
        <ele>308.39999389648</ele>
        <time>2012-05-05T10:09:56Z</time>
      </trkpt>
      <trkpt lat="45.63113" lon="5.8987">
        <ele>307</ele>
        <time>2012-05-05T10:10:00Z</time>
      </trkpt>
      <trkpt lat="45.63124" lon="5.89863">
        <ele>305.39999389648</ele>
        <time>2012-05-05T10:10:04Z</time>
      </trkpt>
      <trkpt lat="45.63129" lon="5.8986">
        <ele>304.60000610352</ele>
        <time>2012-05-05T10:10:06Z</time>
      </trkpt>
      <trkpt lat="45.63144" lon="5.89851">
        <ele>301.79998779297</ele>
        <time>2012-05-05T10:10:12Z</time>
      </trkpt>
      <trkpt lat="45.63152" lon="5.89846">
        <ele>300.20001220703</ele>
        <time>2012-05-05T10:10:16Z</time>
      </trkpt>
      <trkpt lat="45.63169" lon="5.89835">
        <ele>296.60000610352</ele>
        <time>2012-05-05T10:10:23Z</time>
      </trkpt>
      <trkpt lat="45.63172" lon="5.89833">
        <ele>296</ele>
        <time>2012-05-05T10:10:24Z</time>
      </trkpt>
      <trkpt lat="45.63183" lon="5.8982">
        <ele>292.60000610352</ele>
        <time>2012-05-05T10:10:29Z</time>
      </trkpt>
      <trkpt lat="45.63205" lon="5.89799">
        <ele>286.60000610352</ele>
        <time>2012-05-05T10:10:38Z</time>
      </trkpt>
      <trkpt lat="45.63215" lon="5.89792">
        <ele>284.39999389648</ele>
        <time>2012-05-05T10:10:42Z</time>
      </trkpt>
      <trkpt lat="45.6322" lon="5.89788">
        <ele>283.20001220703</ele>
        <time>2012-05-05T10:10:44Z</time>
      </trkpt>
      <trkpt lat="45.63229" lon="5.89781">
        <ele>280.79998779297</ele>
        <time>2012-05-05T10:10:48Z</time>
      </trkpt>
      <trkpt lat="45.63245" lon="5.89767">
        <ele>276.20001220703</ele>
        <time>2012-05-05T10:10:54Z</time>
      </trkpt>
      <trkpt lat="45.63262" lon="5.89745">
        <ele>270.20001220703</ele>
        <time>2012-05-05T10:11:02Z</time>
      </trkpt>
      <trkpt lat="45.63266" lon="5.89745">
        <ele>270</ele>
        <time>2012-05-05T10:11:03Z</time>
      </trkpt>
      <trkpt lat="45.63278" lon="5.89751">
        <ele>270</ele>
        <time>2012-05-05T10:11:07Z</time>
      </trkpt>
      <trkpt lat="45.63287" lon="5.89756">
        <ele>271</ele>
        <time>2012-05-05T10:11:10Z</time>
      </trkpt>
      <trkpt lat="45.63306" lon="5.89765">
        <ele>273</ele>
        <time>2012-05-05T10:11:16Z</time>
      </trkpt>
      <trkpt lat="45.63316" lon="5.89764">
        <ele>272.20001220703</ele>
        <time>2012-05-05T10:11:20Z</time>
      </trkpt>
      <trkpt lat="45.63353" lon="5.89758">
        <ele>269.79998779297</ele>
        <time>2012-05-05T10:11:31Z</time>
      </trkpt>
      <trkpt lat="45.63368" lon="5.89756">
        <ele>269.39999389648</ele>
        <time>2012-05-05T10:11:36Z</time>
      </trkpt>
      <trkpt lat="45.63403" lon="5.89748">
        <ele>266.79998779297</ele>
        <time>2012-05-05T10:11:48Z</time>
      </trkpt>
      <trkpt lat="45.6342" lon="5.89739">
        <ele>266</ele>
        <time>2012-05-05T10:11:54Z</time>
      </trkpt>
      <trkpt lat="45.63439" lon="5.8973">
        <ele>265.39999389648</ele>
        <time>2012-05-05T10:12:01Z</time>
      </trkpt>
      <trkpt lat="45.63457" lon="5.89726">
        <ele>265</ele>
        <time>2012-05-05T10:12:07Z</time>
      </trkpt>
      <trkpt lat="45.63476" lon="5.89718">
        <ele>263.60000610352</ele>
        <time>2012-05-05T10:12:14Z</time>
      </trkpt>
      <trkpt lat="45.63482" lon="5.89716">
        <ele>263</ele>
        <time>2012-05-05T10:12:16Z</time>
      </trkpt>
      <trkpt lat="45.635" lon="5.89709">
        <ele>261.20001220703</ele>
        <time>2012-05-05T10:12:23Z</time>
      </trkpt>
      <trkpt lat="45.63511" lon="5.89707">
        <ele>261.20001220703</ele>
        <time>2012-05-05T10:12:27Z</time>
      </trkpt>
      <trkpt lat="45.63535" lon="5.89705">
        <ele>261.79998779297</ele>
        <time>2012-05-05T10:12:36Z</time>
      </trkpt>
      <trkpt lat="45.63546" lon="5.89705">
        <ele>262.20001220703</ele>
        <time>2012-05-05T10:12:40Z</time>
      </trkpt>
      <trkpt lat="45.63564" lon="5.89703">
        <ele>262.39999389648</ele>
        <time>2012-05-05T10:12:47Z</time>
      </trkpt>
      <trkpt lat="45.63572" lon="5.89699">
        <ele>260.79998779297</ele>
        <time>2012-05-05T10:12:50Z</time>
      </trkpt>
      <trkpt lat="45.63568" lon="5.89689">
        <ele>256.39999389648</ele>
        <time>2012-05-05T10:12:56Z</time>
      </trkpt>
      <trkpt lat="45.6356" lon="5.89684">
        <ele>254.60000610352</ele>
        <time>2012-05-05T10:12:59Z</time>
      </trkpt>
      <trkpt lat="45.63556" lon="5.89672">
        <ele>249.60000610352</ele>
        <time>2012-05-05T10:13:03Z</time>
      </trkpt>
      <trkpt lat="45.63557" lon="5.89651">
        <ele>246.60000610352</ele>
        <time>2012-05-05T10:13:12Z</time>
      </trkpt>
      <trkpt lat="45.63592" lon="5.89641">
        <ele>243.80000305176</ele>
        <time>2012-05-05T10:13:19Z</time>
      </trkpt>
      <trkpt lat="45.63611" lon="5.89627">
        <ele>242</ele>
        <time>2012-05-05T10:13:25Z</time>
      </trkpt>
      <trkpt lat="45.63622" lon="5.896">
        <ele>239.80000305176</ele>
        <time>2012-05-05T10:13:33Z</time>
      </trkpt>
      <trkpt lat="45.63624" lon="5.8958">
        <ele>238.39999389648</ele>
        <time>2012-05-05T10:13:39Z</time>
      </trkpt>
      <trkpt lat="45.63616" lon="5.89511">
        <ele>237.19999694824</ele>
        <time>2012-05-05T10:13:57Z</time>
      </trkpt>
      <trkpt lat="45.6361" lon="5.89486">
        <ele>236.60000610352</ele>
        <time>2012-05-05T10:14:04Z</time>
      </trkpt>
      <trkpt lat="45.63583" lon="5.89445">
        <ele>236</ele>
        <time>2012-05-05T10:14:18Z</time>
      </trkpt>
      <trkpt lat="45.6357" lon="5.89431">
        <ele>235.60000610352</ele>
        <time>2012-05-05T10:14:24Z</time>
      </trkpt>
      <trkpt lat="45.63533" lon="5.89392">
        <ele>234.19999694824</ele>
        <time>2012-05-05T10:14:41Z</time>
      </trkpt>
    </trkseg>
  </trk>
</gpx>